<?xml version="1.0" encoding="UTF-8" standalone="no" ?>
<gpx xmlns="http://www.topografix.com/GPX/1/1" xmlns:xsi="http://www.w3.org/2001/XMLSchema-instance" xsi:schemaLocation="http://www.topografix.com/GPX/1/1 http://www.topografix.com/GPX/1/1/gpx.xsd" version="1.1" creator="VisuGPX - https://www.visugpx.com">
  <metadata>
    <name>Champagnat Cyclisme sur route</name>
  </metadata>
  <trk>
    <name><![CDATA[Champagnat Cyclisme sur route_1]]></name>
    <trkseg>
      <trkpt lat="46.48716" lon="5.38189">
        <ele>291.8</ele>
        <time>2022-08-12T04:49:41Z</time>
      </trkpt>
      <trkpt lat="46.48739" lon="5.38213">
        <ele>289.4</ele>
        <time>2022-08-12T04:49:43Z</time>
      </trkpt>
      <trkpt lat="46.4876" lon="5.38239">
        <ele>287.4</ele>
        <time>2022-08-12T04:49:45Z</time>
      </trkpt>
      <trkpt lat="46.48782" lon="5.38262">
        <ele>285</ele>
        <time>2022-08-12T04:49:47Z</time>
      </trkpt>
      <trkpt lat="46.48793" lon="5.38272">
        <ele>283.2</ele>
        <time>2022-08-12T04:49:48Z</time>
      </trkpt>
      <trkpt lat="46.48817" lon="5.3829">
        <ele>281.8</ele>
        <time>2022-08-12T04:49:50Z</time>
      </trkpt>
      <trkpt lat="46.48829" lon="5.38299">
        <ele>281.4</ele>
        <time>2022-08-12T04:49:51Z</time>
      </trkpt>
      <trkpt lat="46.48841" lon="5.38309">
        <ele>280</ele>
        <time>2022-08-12T04:49:52Z</time>
      </trkpt>
      <trkpt lat="46.48865" lon="5.38328">
        <ele>279</ele>
        <time>2022-08-12T04:49:54Z</time>
      </trkpt>
      <trkpt lat="46.48889" lon="5.38344">
        <ele>278</ele>
        <time>2022-08-12T04:49:56Z</time>
      </trkpt>
      <trkpt lat="46.48901" lon="5.38351">
        <ele>277</ele>
        <time>2022-08-12T04:49:57Z</time>
      </trkpt>
      <trkpt lat="46.48925" lon="5.38368">
        <ele>274.4</ele>
        <time>2022-08-12T04:49:59Z</time>
      </trkpt>
      <trkpt lat="46.48936" lon="5.38381">
        <ele>273.6</ele>
        <time>2022-08-12T04:50:00Z</time>
      </trkpt>
      <trkpt lat="46.48944" lon="5.38396">
        <ele>272.6</ele>
        <time>2022-08-12T04:50:01Z</time>
      </trkpt>
      <trkpt lat="46.48948" lon="5.38409">
        <ele>271.8</ele>
        <time>2022-08-12T04:50:02Z</time>
      </trkpt>
      <trkpt lat="46.48953" lon="5.38428">
        <ele>270.8</ele>
        <time>2022-08-12T04:50:03Z</time>
      </trkpt>
      <trkpt lat="46.48956" lon="5.38444">
        <ele>269.2</ele>
        <time>2022-08-12T04:50:04Z</time>
      </trkpt>
      <trkpt lat="46.4896" lon="5.38455">
        <ele>268.8</ele>
        <time>2022-08-12T04:50:05Z</time>
      </trkpt>
      <trkpt lat="46.48966" lon="5.38468">
        <ele>268.2</ele>
        <time>2022-08-12T04:50:06Z</time>
      </trkpt>
      <trkpt lat="46.48975" lon="5.38478">
        <ele>268</ele>
        <time>2022-08-12T04:50:07Z</time>
      </trkpt>
      <trkpt lat="46.48984" lon="5.38486">
        <ele>267.8</ele>
        <time>2022-08-12T04:50:08Z</time>
      </trkpt>
      <trkpt lat="46.48996" lon="5.38493">
        <ele>267.8</ele>
        <time>2022-08-12T04:50:09Z</time>
      </trkpt>
      <trkpt lat="46.49025" lon="5.38505">
        <ele>267.6</ele>
        <time>2022-08-12T04:50:12Z</time>
      </trkpt>
      <trkpt lat="46.49066" lon="5.38516">
        <ele>267</ele>
        <time>2022-08-12T04:50:16Z</time>
      </trkpt>
      <trkpt lat="46.49075" lon="5.38518">
        <ele>267</ele>
        <time>2022-08-12T04:50:17Z</time>
      </trkpt>
      <trkpt lat="46.49085" lon="5.38519">
        <ele>266.6</ele>
        <time>2022-08-12T04:50:18Z</time>
      </trkpt>
      <trkpt lat="46.49137" lon="5.38528">
        <ele>266.2</ele>
        <time>2022-08-12T04:50:24Z</time>
      </trkpt>
      <trkpt lat="46.49158" lon="5.38538">
        <ele>266.4</ele>
        <time>2022-08-12T04:50:27Z</time>
      </trkpt>
      <trkpt lat="46.49162" lon="5.38538">
        <ele>266.4</ele>
        <time>2022-08-12T04:50:28Z</time>
      </trkpt>
      <trkpt lat="46.49167" lon="5.38538">
        <ele>266.8</ele>
        <time>2022-08-12T04:50:29Z</time>
      </trkpt>
      <trkpt lat="46.49176" lon="5.38545">
        <ele>267</ele>
        <time>2022-08-12T04:50:31Z</time>
      </trkpt>
      <trkpt lat="46.49184" lon="5.38575">
        <ele>268.2</ele>
        <time>2022-08-12T04:50:36Z</time>
      </trkpt>
      <trkpt lat="46.49186" lon="5.38581">
        <ele>268.4</ele>
        <time>2022-08-12T04:50:37Z</time>
      </trkpt>
      <trkpt lat="46.49193" lon="5.38599">
        <ele>269</ele>
        <time>2022-08-12T04:50:40Z</time>
      </trkpt>
      <trkpt lat="46.49195" lon="5.38604">
        <ele>269.6</ele>
        <time>2022-08-12T04:50:41Z</time>
      </trkpt>
      <trkpt lat="46.49198" lon="5.38609">
        <ele>269.8</ele>
        <time>2022-08-12T04:50:42Z</time>
      </trkpt>
      <trkpt lat="46.49204" lon="5.3862">
        <ele>270.6</ele>
        <time>2022-08-12T04:50:44Z</time>
      </trkpt>
      <trkpt lat="46.49205" lon="5.38625">
        <ele>270.6</ele>
        <time>2022-08-12T04:50:45Z</time>
      </trkpt>
      <trkpt lat="46.49206" lon="5.38632">
        <ele>271.2</ele>
        <time>2022-08-12T04:50:46Z</time>
      </trkpt>
      <trkpt lat="46.49207" lon="5.38646">
        <ele>271.8</ele>
        <time>2022-08-12T04:50:48Z</time>
      </trkpt>
      <trkpt lat="46.49208" lon="5.38662">
        <ele>272</ele>
        <time>2022-08-12T04:50:50Z</time>
      </trkpt>
      <trkpt lat="46.4921" lon="5.38669">
        <ele>272.2</ele>
        <time>2022-08-12T04:50:51Z</time>
      </trkpt>
      <trkpt lat="46.49214" lon="5.38682">
        <ele>272.4</ele>
        <time>2022-08-12T04:50:53Z</time>
      </trkpt>
      <trkpt lat="46.4922" lon="5.38692">
        <ele>272.6</ele>
        <time>2022-08-12T04:50:55Z</time>
      </trkpt>
      <trkpt lat="46.49223" lon="5.38697">
        <ele>272.8</ele>
        <time>2022-08-12T04:50:56Z</time>
      </trkpt>
      <trkpt lat="46.49228" lon="5.38701">
        <ele>272.8</ele>
        <time>2022-08-12T04:50:57Z</time>
      </trkpt>
      <trkpt lat="46.49238" lon="5.38707">
        <ele>273</ele>
        <time>2022-08-12T04:50:59Z</time>
      </trkpt>
      <trkpt lat="46.49242" lon="5.38709">
        <ele>273</ele>
        <time>2022-08-12T04:51:00Z</time>
      </trkpt>
      <trkpt lat="46.49252" lon="5.38713">
        <ele>273.2</ele>
        <time>2022-08-12T04:51:02Z</time>
      </trkpt>
      <trkpt lat="46.49258" lon="5.38718">
        <ele>273.2</ele>
        <time>2022-08-12T04:51:03Z</time>
      </trkpt>
      <trkpt lat="46.49267" lon="5.38725">
        <ele>273.4</ele>
        <time>2022-08-12T04:51:05Z</time>
      </trkpt>
      <trkpt lat="46.49277" lon="5.38729">
        <ele>273.8</ele>
        <time>2022-08-12T04:51:07Z</time>
      </trkpt>
      <trkpt lat="46.49282" lon="5.38729">
        <ele>273.8</ele>
        <time>2022-08-12T04:51:08Z</time>
      </trkpt>
      <trkpt lat="46.49305" lon="5.38737">
        <ele>274.4</ele>
        <time>2022-08-12T04:51:13Z</time>
      </trkpt>
      <trkpt lat="46.49309" lon="5.38738">
        <ele>274.8</ele>
        <time>2022-08-12T04:51:14Z</time>
      </trkpt>
      <trkpt lat="46.49314" lon="5.38739">
        <ele>274.8</ele>
        <time>2022-08-12T04:51:15Z</time>
      </trkpt>
      <trkpt lat="46.49335" lon="5.38746">
        <ele>275.4</ele>
        <time>2022-08-12T04:51:20Z</time>
      </trkpt>
      <trkpt lat="46.49359" lon="5.38754">
        <ele>276</ele>
        <time>2022-08-12T04:51:25Z</time>
      </trkpt>
      <trkpt lat="46.49368" lon="5.38759">
        <ele>276.2</ele>
        <time>2022-08-12T04:51:27Z</time>
      </trkpt>
      <trkpt lat="46.49389" lon="5.38767">
        <ele>277</ele>
        <time>2022-08-12T04:51:32Z</time>
      </trkpt>
      <trkpt lat="46.49401" lon="5.3877">
        <ele>277.4</ele>
        <time>2022-08-12T04:51:35Z</time>
      </trkpt>
      <trkpt lat="46.49406" lon="5.38771">
        <ele>277.4</ele>
        <time>2022-08-12T04:51:36Z</time>
      </trkpt>
      <trkpt lat="46.4943" lon="5.38774">
        <ele>278.2</ele>
        <time>2022-08-12T04:51:41Z</time>
      </trkpt>
      <trkpt lat="46.49438" lon="5.38776">
        <ele>278.2</ele>
        <time>2022-08-12T04:51:43Z</time>
      </trkpt>
      <trkpt lat="46.49463" lon="5.38782">
        <ele>279</ele>
        <time>2022-08-12T04:51:48Z</time>
      </trkpt>
      <trkpt lat="46.49501" lon="5.38787">
        <ele>279</ele>
        <time>2022-08-12T04:51:54Z</time>
      </trkpt>
      <trkpt lat="46.49537" lon="5.38793">
        <ele>278.2</ele>
        <time>2022-08-12T04:52:00Z</time>
      </trkpt>
      <trkpt lat="46.49597" lon="5.38803">
        <ele>277.6</ele>
        <time>2022-08-12T04:52:10Z</time>
      </trkpt>
      <trkpt lat="46.49609" lon="5.388">
        <ele>277.4</ele>
        <time>2022-08-12T04:52:12Z</time>
      </trkpt>
      <trkpt lat="46.49622" lon="5.38795">
        <ele>277.2</ele>
        <time>2022-08-12T04:52:14Z</time>
      </trkpt>
      <trkpt lat="46.49628" lon="5.38794">
        <ele>277</ele>
        <time>2022-08-12T04:52:15Z</time>
      </trkpt>
      <trkpt lat="46.49665" lon="5.38787">
        <ele>276</ele>
        <time>2022-08-12T04:52:20Z</time>
      </trkpt>
      <trkpt lat="46.49672" lon="5.38786">
        <ele>275.8</ele>
        <time>2022-08-12T04:52:21Z</time>
      </trkpt>
      <trkpt lat="46.49708" lon="5.38778">
        <ele>275</ele>
        <time>2022-08-12T04:52:26Z</time>
      </trkpt>
      <trkpt lat="46.49722" lon="5.38776">
        <ele>274.8</ele>
        <time>2022-08-12T04:52:28Z</time>
      </trkpt>
      <trkpt lat="46.49749" lon="5.3877">
        <ele>274.6</ele>
        <time>2022-08-12T04:52:32Z</time>
      </trkpt>
      <trkpt lat="46.49799" lon="5.3876">
        <ele>274.8</ele>
        <time>2022-08-12T04:52:40Z</time>
      </trkpt>
      <trkpt lat="46.49834" lon="5.38752">
        <ele>275.8</ele>
        <time>2022-08-12T04:52:46Z</time>
      </trkpt>
      <trkpt lat="46.4984" lon="5.38751">
        <ele>276</ele>
        <time>2022-08-12T04:52:47Z</time>
      </trkpt>
      <trkpt lat="46.49865" lon="5.38743">
        <ele>276.8</ele>
        <time>2022-08-12T04:52:52Z</time>
      </trkpt>
      <trkpt lat="46.49894" lon="5.38738">
        <ele>277.8</ele>
        <time>2022-08-12T04:52:57Z</time>
      </trkpt>
      <trkpt lat="46.499" lon="5.38737">
        <ele>278</ele>
        <time>2022-08-12T04:52:58Z</time>
      </trkpt>
      <trkpt lat="46.49936" lon="5.38731">
        <ele>278.4</ele>
        <time>2022-08-12T04:53:04Z</time>
      </trkpt>
      <trkpt lat="46.49973" lon="5.38724">
        <ele>278.4</ele>
        <time>2022-08-12T04:53:09Z</time>
      </trkpt>
      <trkpt lat="46.50021" lon="5.38715">
        <ele>276.8</ele>
        <time>2022-08-12T04:53:15Z</time>
      </trkpt>
      <trkpt lat="46.50029" lon="5.38713">
        <ele>276.4</ele>
        <time>2022-08-12T04:53:16Z</time>
      </trkpt>
      <trkpt lat="46.50054" lon="5.38709">
        <ele>275.8</ele>
        <time>2022-08-12T04:53:19Z</time>
      </trkpt>
      <trkpt lat="46.50096" lon="5.38702">
        <ele>274.6</ele>
        <time>2022-08-12T04:53:24Z</time>
      </trkpt>
      <trkpt lat="46.50111" lon="5.38701">
        <ele>274.4</ele>
        <time>2022-08-12T04:53:26Z</time>
      </trkpt>
      <trkpt lat="46.50125" lon="5.38706">
        <ele>274.4</ele>
        <time>2022-08-12T04:53:28Z</time>
      </trkpt>
      <trkpt lat="46.50137" lon="5.3871">
        <ele>274.4</ele>
        <time>2022-08-12T04:53:30Z</time>
      </trkpt>
      <trkpt lat="46.50143" lon="5.38709">
        <ele>274.6</ele>
        <time>2022-08-12T04:53:31Z</time>
      </trkpt>
      <trkpt lat="46.50148" lon="5.38707">
        <ele>274.6</ele>
        <time>2022-08-12T04:53:32Z</time>
      </trkpt>
      <trkpt lat="46.50155" lon="5.38693">
        <ele>275</ele>
        <time>2022-08-12T04:53:34Z</time>
      </trkpt>
      <trkpt lat="46.50153" lon="5.38685">
        <ele>275.2</ele>
        <time>2022-08-12T04:53:35Z</time>
      </trkpt>
      <trkpt lat="46.50149" lon="5.38675">
        <ele>275.2</ele>
        <time>2022-08-12T04:53:36Z</time>
      </trkpt>
      <trkpt lat="46.50146" lon="5.38665">
        <ele>275.2</ele>
        <time>2022-08-12T04:53:37Z</time>
      </trkpt>
      <trkpt lat="46.50144" lon="5.38642">
        <ele>275.2</ele>
        <time>2022-08-12T04:53:39Z</time>
      </trkpt>
      <trkpt lat="46.5015" lon="5.38603">
        <ele>274.4</ele>
        <time>2022-08-12T04:53:42Z</time>
      </trkpt>
      <trkpt lat="46.50163" lon="5.38563">
        <ele>273.4</ele>
        <time>2022-08-12T04:53:45Z</time>
      </trkpt>
      <trkpt lat="46.50171" lon="5.38536">
        <ele>272</ele>
        <time>2022-08-12T04:53:47Z</time>
      </trkpt>
      <trkpt lat="46.50175" lon="5.38522">
        <ele>271.6</ele>
        <time>2022-08-12T04:53:48Z</time>
      </trkpt>
      <trkpt lat="46.50179" lon="5.38508">
        <ele>270.6</ele>
        <time>2022-08-12T04:53:49Z</time>
      </trkpt>
      <trkpt lat="46.50191" lon="5.38466">
        <ele>269.4</ele>
        <time>2022-08-12T04:53:52Z</time>
      </trkpt>
      <trkpt lat="46.502" lon="5.38438">
        <ele>268.2</ele>
        <time>2022-08-12T04:53:54Z</time>
      </trkpt>
      <trkpt lat="46.50208" lon="5.38412">
        <ele>267</ele>
        <time>2022-08-12T04:53:56Z</time>
      </trkpt>
      <trkpt lat="46.50215" lon="5.38392">
        <ele>266.2</ele>
        <time>2022-08-12T04:53:58Z</time>
      </trkpt>
      <trkpt lat="46.50219" lon="5.38385">
        <ele>265.8</ele>
        <time>2022-08-12T04:53:59Z</time>
      </trkpt>
      <trkpt lat="46.50224" lon="5.38382">
        <ele>265.4</ele>
        <time>2022-08-12T04:54:00Z</time>
      </trkpt>
      <trkpt lat="46.5023" lon="5.38384">
        <ele>264.8</ele>
        <time>2022-08-12T04:54:01Z</time>
      </trkpt>
      <trkpt lat="46.50235" lon="5.38389">
        <ele>264.4</ele>
        <time>2022-08-12T04:54:02Z</time>
      </trkpt>
      <trkpt lat="46.50246" lon="5.38402">
        <ele>263.8</ele>
        <time>2022-08-12T04:54:04Z</time>
      </trkpt>
      <trkpt lat="46.50252" lon="5.38409">
        <ele>263.6</ele>
        <time>2022-08-12T04:54:05Z</time>
      </trkpt>
      <trkpt lat="46.50271" lon="5.38429">
        <ele>262.4</ele>
        <time>2022-08-12T04:54:08Z</time>
      </trkpt>
      <trkpt lat="46.50298" lon="5.38461">
        <ele>262.2</ele>
        <time>2022-08-12T04:54:13Z</time>
      </trkpt>
      <trkpt lat="46.50319" lon="5.38493">
        <ele>263.4</ele>
        <time>2022-08-12T04:54:18Z</time>
      </trkpt>
      <trkpt lat="46.50324" lon="5.38499">
        <ele>264.2</ele>
        <time>2022-08-12T04:54:19Z</time>
      </trkpt>
      <trkpt lat="46.50346" lon="5.38529">
        <ele>265.4</ele>
        <time>2022-08-12T04:54:24Z</time>
      </trkpt>
      <trkpt lat="46.50351" lon="5.38534">
        <ele>265.6</ele>
        <time>2022-08-12T04:54:25Z</time>
      </trkpt>
      <trkpt lat="46.50356" lon="5.38538">
        <ele>265.8</ele>
        <time>2022-08-12T04:54:26Z</time>
      </trkpt>
      <trkpt lat="46.50372" lon="5.3855">
        <ele>266.4</ele>
        <time>2022-08-12T04:54:29Z</time>
      </trkpt>
      <trkpt lat="46.50407" lon="5.38575">
        <ele>267</ele>
        <time>2022-08-12T04:54:35Z</time>
      </trkpt>
      <trkpt lat="46.50442" lon="5.38606">
        <ele>266.2</ele>
        <time>2022-08-12T04:54:40Z</time>
      </trkpt>
      <trkpt lat="46.50459" lon="5.3862">
        <ele>265.4</ele>
        <time>2022-08-12T04:54:42Z</time>
      </trkpt>
      <trkpt lat="46.50481" lon="5.38631">
        <ele>264.4</ele>
        <time>2022-08-12T04:54:44Z</time>
      </trkpt>
      <trkpt lat="46.50493" lon="5.38636">
        <ele>263.6</ele>
        <time>2022-08-12T04:54:45Z</time>
      </trkpt>
      <trkpt lat="46.50517" lon="5.38644">
        <ele>262</ele>
        <time>2022-08-12T04:54:47Z</time>
      </trkpt>
      <trkpt lat="46.50541" lon="5.38651">
        <ele>259.4</ele>
        <time>2022-08-12T04:54:49Z</time>
      </trkpt>
      <trkpt lat="46.50565" lon="5.38656">
        <ele>257</ele>
        <time>2022-08-12T04:54:51Z</time>
      </trkpt>
      <trkpt lat="46.50578" lon="5.38659">
        <ele>255.4</ele>
        <time>2022-08-12T04:54:52Z</time>
      </trkpt>
      <trkpt lat="46.50604" lon="5.38665">
        <ele>253.6</ele>
        <time>2022-08-12T04:54:54Z</time>
      </trkpt>
      <trkpt lat="46.50627" lon="5.3867">
        <ele>252.4</ele>
        <time>2022-08-12T04:54:56Z</time>
      </trkpt>
      <trkpt lat="46.50648" lon="5.38676">
        <ele>251</ele>
        <time>2022-08-12T04:54:58Z</time>
      </trkpt>
      <trkpt lat="46.50676" lon="5.38688">
        <ele>250.6</ele>
        <time>2022-08-12T04:55:01Z</time>
      </trkpt>
      <trkpt lat="46.50709" lon="5.38702">
        <ele>251.4</ele>
        <time>2022-08-12T04:55:05Z</time>
      </trkpt>
      <trkpt lat="46.50714" lon="5.38704">
        <ele>252.4</ele>
        <time>2022-08-12T04:55:06Z</time>
      </trkpt>
      <trkpt lat="46.50728" lon="5.38709">
        <ele>253.2</ele>
        <time>2022-08-12T04:55:08Z</time>
      </trkpt>
      <trkpt lat="46.50742" lon="5.38712">
        <ele>254.4</ele>
        <time>2022-08-12T04:55:10Z</time>
      </trkpt>
      <trkpt lat="46.50761" lon="5.38715">
        <ele>255.8</ele>
        <time>2022-08-12T04:55:13Z</time>
      </trkpt>
      <trkpt lat="46.50784" lon="5.3872">
        <ele>256.6</ele>
        <time>2022-08-12T04:55:16Z</time>
      </trkpt>
      <trkpt lat="46.50836" lon="5.38731">
        <ele>256</ele>
        <time>2022-08-12T04:55:22Z</time>
      </trkpt>
      <trkpt lat="46.50894" lon="5.38746">
        <ele>254.8</ele>
        <time>2022-08-12T04:55:29Z</time>
      </trkpt>
      <trkpt lat="46.50917" lon="5.38751">
        <ele>254.8</ele>
        <time>2022-08-12T04:55:32Z</time>
      </trkpt>
      <trkpt lat="46.50966" lon="5.38763">
        <ele>255.6</ele>
        <time>2022-08-12T04:55:39Z</time>
      </trkpt>
      <trkpt lat="46.51023" lon="5.38774">
        <ele>256</ele>
        <time>2022-08-12T04:55:47Z</time>
      </trkpt>
      <trkpt lat="46.51034" lon="5.38776">
        <ele>256</ele>
        <time>2022-08-12T04:55:49Z</time>
      </trkpt>
      <trkpt lat="46.51071" lon="5.38785">
        <ele>256.8</ele>
        <time>2022-08-12T04:55:55Z</time>
      </trkpt>
      <trkpt lat="46.51094" lon="5.38789">
        <ele>258</ele>
        <time>2022-08-12T04:55:59Z</time>
      </trkpt>
      <trkpt lat="46.51113" lon="5.38792">
        <ele>258.8</ele>
        <time>2022-08-12T04:56:03Z</time>
      </trkpt>
      <trkpt lat="46.51119" lon="5.38792">
        <ele>259.2</ele>
        <time>2022-08-12T04:56:04Z</time>
      </trkpt>
      <trkpt lat="46.5114" lon="5.38795">
        <ele>260</ele>
        <time>2022-08-12T04:56:08Z</time>
      </trkpt>
      <trkpt lat="46.51149" lon="5.38797">
        <ele>260.4</ele>
        <time>2022-08-12T04:56:10Z</time>
      </trkpt>
      <trkpt lat="46.51177" lon="5.38798">
        <ele>261.4</ele>
        <time>2022-08-12T04:56:16Z</time>
      </trkpt>
      <trkpt lat="46.51182" lon="5.38798">
        <ele>262</ele>
        <time>2022-08-12T04:56:17Z</time>
      </trkpt>
      <trkpt lat="46.51194" lon="5.38799">
        <ele>262.6</ele>
        <time>2022-08-12T04:56:19Z</time>
      </trkpt>
      <trkpt lat="46.51221" lon="5.38801">
        <ele>263.4</ele>
        <time>2022-08-12T04:56:24Z</time>
      </trkpt>
      <trkpt lat="46.51239" lon="5.38802">
        <ele>263.6</ele>
        <time>2022-08-12T04:56:27Z</time>
      </trkpt>
      <trkpt lat="46.51275" lon="5.38804">
        <ele>263.6</ele>
        <time>2022-08-12T04:56:33Z</time>
      </trkpt>
      <trkpt lat="46.51296" lon="5.38805">
        <ele>263.4</ele>
        <time>2022-08-12T04:56:36Z</time>
      </trkpt>
      <trkpt lat="46.51342" lon="5.38806">
        <ele>262.2</ele>
        <time>2022-08-12T04:56:43Z</time>
      </trkpt>
      <trkpt lat="46.51355" lon="5.38807">
        <ele>262</ele>
        <time>2022-08-12T04:56:45Z</time>
      </trkpt>
      <trkpt lat="46.51386" lon="5.38811">
        <ele>261.2</ele>
        <time>2022-08-12T04:56:49Z</time>
      </trkpt>
      <trkpt lat="46.51392" lon="5.38812">
        <ele>261</ele>
        <time>2022-08-12T04:56:50Z</time>
      </trkpt>
      <trkpt lat="46.51429" lon="5.38808">
        <ele>260.2</ele>
        <time>2022-08-12T04:56:54Z</time>
      </trkpt>
      <trkpt lat="46.51461" lon="5.38802">
        <ele>258.6</ele>
        <time>2022-08-12T04:56:57Z</time>
      </trkpt>
      <trkpt lat="46.51481" lon="5.38802">
        <ele>256.8</ele>
        <time>2022-08-12T04:56:59Z</time>
      </trkpt>
      <trkpt lat="46.51504" lon="5.38803">
        <ele>254.8</ele>
        <time>2022-08-12T04:57:01Z</time>
      </trkpt>
      <trkpt lat="46.51512" lon="5.38803">
        <ele>253.6</ele>
        <time>2022-08-12T04:57:02Z</time>
      </trkpt>
      <trkpt lat="46.5153" lon="5.38805">
        <ele>252.8</ele>
        <time>2022-08-12T04:57:04Z</time>
      </trkpt>
      <trkpt lat="46.51569" lon="5.38803">
        <ele>253</ele>
        <time>2022-08-12T04:57:09Z</time>
      </trkpt>
      <trkpt lat="46.51601" lon="5.38796">
        <ele>254.6</ele>
        <time>2022-08-12T04:57:14Z</time>
      </trkpt>
      <trkpt lat="46.51608" lon="5.38795">
        <ele>255.2</ele>
        <time>2022-08-12T04:57:15Z</time>
      </trkpt>
      <trkpt lat="46.51614" lon="5.38793">
        <ele>255.6</ele>
        <time>2022-08-12T04:57:16Z</time>
      </trkpt>
      <trkpt lat="46.51635" lon="5.38789">
        <ele>256.6</ele>
        <time>2022-08-12T04:57:20Z</time>
      </trkpt>
      <trkpt lat="46.51643" lon="5.38787">
        <ele>257.4</ele>
        <time>2022-08-12T04:57:22Z</time>
      </trkpt>
      <trkpt lat="46.51654" lon="5.38784">
        <ele>258</ele>
        <time>2022-08-12T04:57:24Z</time>
      </trkpt>
      <trkpt lat="46.51672" lon="5.38782">
        <ele>259</ele>
        <time>2022-08-12T04:57:28Z</time>
      </trkpt>
      <trkpt lat="46.51687" lon="5.38784">
        <ele>260.2</ele>
        <time>2022-08-12T04:57:32Z</time>
      </trkpt>
      <trkpt lat="46.51692" lon="5.38791">
        <ele>260.4</ele>
        <time>2022-08-12T04:57:34Z</time>
      </trkpt>
      <trkpt lat="46.51692" lon="5.38796">
        <ele>260.6</ele>
        <time>2022-08-12T04:57:35Z</time>
      </trkpt>
      <trkpt lat="46.51693" lon="5.38813">
        <ele>261</ele>
        <time>2022-08-12T04:57:38Z</time>
      </trkpt>
      <trkpt lat="46.51696" lon="5.38817">
        <ele>261.2</ele>
        <time>2022-08-12T04:57:39Z</time>
      </trkpt>
      <trkpt lat="46.517" lon="5.3882">
        <ele>261.2</ele>
        <time>2022-08-12T04:57:40Z</time>
      </trkpt>
      <trkpt lat="46.51709" lon="5.38822">
        <ele>261.4</ele>
        <time>2022-08-12T04:57:42Z</time>
      </trkpt>
      <trkpt lat="46.51746" lon="5.38823">
        <ele>261.4</ele>
        <time>2022-08-12T04:57:48Z</time>
      </trkpt>
      <trkpt lat="46.51782" lon="5.38823">
        <ele>260</ele>
        <time>2022-08-12T04:57:53Z</time>
      </trkpt>
      <trkpt lat="46.51789" lon="5.38823">
        <ele>259.8</ele>
        <time>2022-08-12T04:57:54Z</time>
      </trkpt>
      <trkpt lat="46.51817" lon="5.38823">
        <ele>258.8</ele>
        <time>2022-08-12T04:57:57Z</time>
      </trkpt>
      <trkpt lat="46.51845" lon="5.38823">
        <ele>257.8</ele>
        <time>2022-08-12T04:58:00Z</time>
      </trkpt>
      <trkpt lat="46.51855" lon="5.38823">
        <ele>257.4</ele>
        <time>2022-08-12T04:58:01Z</time>
      </trkpt>
      <trkpt lat="46.51885" lon="5.38823">
        <ele>256</ele>
        <time>2022-08-12T04:58:04Z</time>
      </trkpt>
      <trkpt lat="46.51907" lon="5.38823">
        <ele>254.6</ele>
        <time>2022-08-12T04:58:06Z</time>
      </trkpt>
      <trkpt lat="46.51916" lon="5.38823">
        <ele>253.8</ele>
        <time>2022-08-12T04:58:07Z</time>
      </trkpt>
      <trkpt lat="46.51929" lon="5.38823">
        <ele>252.8</ele>
        <time>2022-08-12T04:58:08Z</time>
      </trkpt>
      <trkpt lat="46.51952" lon="5.38824">
        <ele>251.6</ele>
        <time>2022-08-12T04:58:10Z</time>
      </trkpt>
      <trkpt lat="46.51987" lon="5.38825">
        <ele>249.8</ele>
        <time>2022-08-12T04:58:13Z</time>
      </trkpt>
      <trkpt lat="46.51999" lon="5.38826">
        <ele>249.4</ele>
        <time>2022-08-12T04:58:14Z</time>
      </trkpt>
      <trkpt lat="46.52011" lon="5.38827">
        <ele>248.8</ele>
        <time>2022-08-12T04:58:15Z</time>
      </trkpt>
      <trkpt lat="46.52035" lon="5.38831">
        <ele>247.4</ele>
        <time>2022-08-12T04:58:17Z</time>
      </trkpt>
      <trkpt lat="46.52059" lon="5.38835">
        <ele>246.2</ele>
        <time>2022-08-12T04:58:19Z</time>
      </trkpt>
      <trkpt lat="46.52071" lon="5.38837">
        <ele>245</ele>
        <time>2022-08-12T04:58:20Z</time>
      </trkpt>
      <trkpt lat="46.52095" lon="5.38839">
        <ele>243.6</ele>
        <time>2022-08-12T04:58:22Z</time>
      </trkpt>
      <trkpt lat="46.52128" lon="5.38842">
        <ele>242.6</ele>
        <time>2022-08-12T04:58:25Z</time>
      </trkpt>
      <trkpt lat="46.52152" lon="5.38843">
        <ele>241.4</ele>
        <time>2022-08-12T04:58:27Z</time>
      </trkpt>
      <trkpt lat="46.52163" lon="5.38844">
        <ele>241.2</ele>
        <time>2022-08-12T04:58:28Z</time>
      </trkpt>
      <trkpt lat="46.52204" lon="5.38855">
        <ele>240.4</ele>
        <time>2022-08-12T04:58:32Z</time>
      </trkpt>
      <trkpt lat="46.52211" lon="5.38859">
        <ele>240.4</ele>
        <time>2022-08-12T04:58:33Z</time>
      </trkpt>
      <trkpt lat="46.52267" lon="5.38885">
        <ele>240.2</ele>
        <time>2022-08-12T04:58:39Z</time>
      </trkpt>
      <trkpt lat="46.52317" lon="5.38908">
        <ele>240.2</ele>
        <time>2022-08-12T04:58:45Z</time>
      </trkpt>
      <trkpt lat="46.52374" lon="5.38936">
        <ele>239.8</ele>
        <time>2022-08-12T04:58:52Z</time>
      </trkpt>
      <trkpt lat="46.52406" lon="5.38951">
        <ele>239.4</ele>
        <time>2022-08-12T04:58:56Z</time>
      </trkpt>
      <trkpt lat="46.52442" lon="5.38968">
        <ele>238.8</ele>
        <time>2022-08-12T04:59:00Z</time>
      </trkpt>
      <trkpt lat="46.52457" lon="5.38976">
        <ele>238</ele>
        <time>2022-08-12T04:59:02Z</time>
      </trkpt>
      <trkpt lat="46.52508" lon="5.39002">
        <ele>237.4</ele>
        <time>2022-08-12T04:59:08Z</time>
      </trkpt>
      <trkpt lat="46.52524" lon="5.39013">
        <ele>237</ele>
        <time>2022-08-12T04:59:10Z</time>
      </trkpt>
      <trkpt lat="46.52552" lon="5.39032">
        <ele>235.4</ele>
        <time>2022-08-12T04:59:13Z</time>
      </trkpt>
      <trkpt lat="46.52569" lon="5.39046">
        <ele>234.8</ele>
        <time>2022-08-12T04:59:15Z</time>
      </trkpt>
      <trkpt lat="46.52577" lon="5.39051">
        <ele>234.2</ele>
        <time>2022-08-12T04:59:16Z</time>
      </trkpt>
      <trkpt lat="46.52614" lon="5.39083">
        <ele>232.8</ele>
        <time>2022-08-12T04:59:20Z</time>
      </trkpt>
      <trkpt lat="46.52633" lon="5.39099">
        <ele>232.2</ele>
        <time>2022-08-12T04:59:22Z</time>
      </trkpt>
      <trkpt lat="46.52651" lon="5.39115">
        <ele>231.6</ele>
        <time>2022-08-12T04:59:24Z</time>
      </trkpt>
      <trkpt lat="46.52679" lon="5.39136">
        <ele>229.8</ele>
        <time>2022-08-12T04:59:27Z</time>
      </trkpt>
      <trkpt lat="46.52699" lon="5.39148">
        <ele>228.6</ele>
        <time>2022-08-12T04:59:29Z</time>
      </trkpt>
      <trkpt lat="46.5274" lon="5.39168">
        <ele>227.4</ele>
        <time>2022-08-12T04:59:33Z</time>
      </trkpt>
      <trkpt lat="46.52751" lon="5.39172">
        <ele>226.4</ele>
        <time>2022-08-12T04:59:34Z</time>
      </trkpt>
      <trkpt lat="46.52773" lon="5.39176">
        <ele>225.2</ele>
        <time>2022-08-12T04:59:36Z</time>
      </trkpt>
      <trkpt lat="46.52794" lon="5.39176">
        <ele>224.6</ele>
        <time>2022-08-12T04:59:38Z</time>
      </trkpt>
      <trkpt lat="46.52814" lon="5.39171">
        <ele>224.2</ele>
        <time>2022-08-12T04:59:40Z</time>
      </trkpt>
      <trkpt lat="46.52831" lon="5.39166">
        <ele>224</ele>
        <time>2022-08-12T04:59:42Z</time>
      </trkpt>
      <trkpt lat="46.52876" lon="5.39151">
        <ele>224.6</ele>
        <time>2022-08-12T04:59:48Z</time>
      </trkpt>
      <trkpt lat="46.52888" lon="5.39146">
        <ele>225.4</ele>
        <time>2022-08-12T04:59:50Z</time>
      </trkpt>
      <trkpt lat="46.52905" lon="5.3914">
        <ele>227</ele>
        <time>2022-08-12T04:59:53Z</time>
      </trkpt>
      <trkpt lat="46.5291" lon="5.39139">
        <ele>227.4</ele>
        <time>2022-08-12T04:59:54Z</time>
      </trkpt>
      <trkpt lat="46.52921" lon="5.39136">
        <ele>228.4</ele>
        <time>2022-08-12T04:59:56Z</time>
      </trkpt>
      <trkpt lat="46.52936" lon="5.39129">
        <ele>229.8</ele>
        <time>2022-08-12T04:59:59Z</time>
      </trkpt>
      <trkpt lat="46.52944" lon="5.39124">
        <ele>230.4</ele>
        <time>2022-08-12T05:00:01Z</time>
      </trkpt>
      <trkpt lat="46.52958" lon="5.39114">
        <ele>231</ele>
        <time>2022-08-12T05:00:04Z</time>
      </trkpt>
      <trkpt lat="46.52969" lon="5.39102">
        <ele>232</ele>
        <time>2022-08-12T05:00:07Z</time>
      </trkpt>
      <trkpt lat="46.52972" lon="5.39098">
        <ele>232.2</ele>
        <time>2022-08-12T05:00:08Z</time>
      </trkpt>
      <trkpt lat="46.52989" lon="5.39074">
        <ele>233.2</ele>
        <time>2022-08-12T05:00:13Z</time>
      </trkpt>
      <trkpt lat="46.52996" lon="5.39065">
        <ele>233.6</ele>
        <time>2022-08-12T05:00:15Z</time>
      </trkpt>
      <trkpt lat="46.53003" lon="5.39059">
        <ele>234</ele>
        <time>2022-08-12T05:00:17Z</time>
      </trkpt>
      <trkpt lat="46.53011" lon="5.39057">
        <ele>234.4</ele>
        <time>2022-08-12T05:00:19Z</time>
      </trkpt>
      <trkpt lat="46.53019" lon="5.39059">
        <ele>235</ele>
        <time>2022-08-12T05:00:21Z</time>
      </trkpt>
      <trkpt lat="46.53026" lon="5.39064">
        <ele>236</ele>
        <time>2022-08-12T05:00:23Z</time>
      </trkpt>
      <trkpt lat="46.53037" lon="5.39072">
        <ele>236.6</ele>
        <time>2022-08-12T05:00:26Z</time>
      </trkpt>
      <trkpt lat="46.53041" lon="5.39077">
        <ele>237.2</ele>
        <time>2022-08-12T05:00:27Z</time>
      </trkpt>
      <trkpt lat="46.53045" lon="5.3908">
        <ele>237.2</ele>
        <time>2022-08-12T05:00:28Z</time>
      </trkpt>
      <trkpt lat="46.5305" lon="5.39081">
        <ele>237.6</ele>
        <time>2022-08-12T05:00:29Z</time>
      </trkpt>
      <trkpt lat="46.53062" lon="5.39086">
        <ele>238</ele>
        <time>2022-08-12T05:00:32Z</time>
      </trkpt>
      <trkpt lat="46.53071" lon="5.39089">
        <ele>238.4</ele>
        <time>2022-08-12T05:00:34Z</time>
      </trkpt>
      <trkpt lat="46.53078" lon="5.39093">
        <ele>239.4</ele>
        <time>2022-08-12T05:00:36Z</time>
      </trkpt>
      <trkpt lat="46.53081" lon="5.39095">
        <ele>239.6</ele>
        <time>2022-08-12T05:00:37Z</time>
      </trkpt>
      <trkpt lat="46.53083" lon="5.39095">
        <ele>239.4</ele>
        <time>2022-08-12T05:00:38Z</time>
      </trkpt>
      <trkpt lat="46.53085" lon="5.39094">
        <ele>239.8</ele>
        <time>2022-08-12T05:00:39Z</time>
      </trkpt>
      <trkpt lat="46.53087" lon="5.39095">
        <ele>239.8</ele>
        <time>2022-08-12T05:00:40Z</time>
      </trkpt>
      <trkpt lat="46.53086" lon="5.39092">
        <ele>240.2</ele>
        <time>2022-08-12T05:00:43Z</time>
      </trkpt>
      <trkpt lat="46.53087" lon="5.39091">
        <ele>240.2</ele>
        <time>2022-08-12T05:00:44Z</time>
      </trkpt>
      <trkpt lat="46.53094" lon="5.39089">
        <ele>240.4</ele>
        <time>2022-08-12T05:00:47Z</time>
      </trkpt>
      <trkpt lat="46.53117" lon="5.39094">
        <ele>240.8</ele>
        <time>2022-08-12T05:00:53Z</time>
      </trkpt>
      <trkpt lat="46.53159" lon="5.39121">
        <ele>241.2</ele>
        <time>2022-08-12T05:01:01Z</time>
      </trkpt>
      <trkpt lat="46.5317" lon="5.39128">
        <ele>241.2</ele>
        <time>2022-08-12T05:01:03Z</time>
      </trkpt>
      <trkpt lat="46.53182" lon="5.39132">
        <ele>241.4</ele>
        <time>2022-08-12T05:01:06Z</time>
      </trkpt>
      <trkpt lat="46.53213" lon="5.3915">
        <ele>241.6</ele>
        <time>2022-08-12T05:01:12Z</time>
      </trkpt>
      <trkpt lat="46.53252" lon="5.39173">
        <ele>241.8</ele>
        <time>2022-08-12T05:01:19Z</time>
      </trkpt>
      <trkpt lat="46.53286" lon="5.39194">
        <ele>241.8</ele>
        <time>2022-08-12T05:01:25Z</time>
      </trkpt>
      <trkpt lat="46.53291" lon="5.39198">
        <ele>241.8</ele>
        <time>2022-08-12T05:01:26Z</time>
      </trkpt>
      <trkpt lat="46.53329" lon="5.39224">
        <ele>242</ele>
        <time>2022-08-12T05:01:33Z</time>
      </trkpt>
      <trkpt lat="46.53346" lon="5.39236">
        <ele>242.8</ele>
        <time>2022-08-12T05:01:37Z</time>
      </trkpt>
      <trkpt lat="46.5335" lon="5.39239">
        <ele>242.8</ele>
        <time>2022-08-12T05:01:38Z</time>
      </trkpt>
      <trkpt lat="46.53361" lon="5.39242">
        <ele>243</ele>
        <time>2022-08-12T05:01:41Z</time>
      </trkpt>
      <trkpt lat="46.5337" lon="5.39238">
        <ele>243</ele>
        <time>2022-08-12T05:01:43Z</time>
      </trkpt>
      <trkpt lat="46.53375" lon="5.39235">
        <ele>243</ele>
        <time>2022-08-12T05:01:44Z</time>
      </trkpt>
      <trkpt lat="46.53379" lon="5.39231">
        <ele>243</ele>
        <time>2022-08-12T05:01:45Z</time>
      </trkpt>
      <trkpt lat="46.53393" lon="5.39213">
        <ele>243</ele>
        <time>2022-08-12T05:01:48Z</time>
      </trkpt>
      <trkpt lat="46.5341" lon="5.39193">
        <ele>242.6</ele>
        <time>2022-08-12T05:01:51Z</time>
      </trkpt>
      <trkpt lat="46.53412" lon="5.39184">
        <ele>242.4</ele>
        <time>2022-08-12T05:01:52Z</time>
      </trkpt>
      <trkpt lat="46.53411" lon="5.39168">
        <ele>242</ele>
        <time>2022-08-12T05:01:53Z</time>
      </trkpt>
      <trkpt lat="46.53411" lon="5.3915">
        <ele>241.8</ele>
        <time>2022-08-12T05:01:54Z</time>
      </trkpt>
      <trkpt lat="46.53412" lon="5.39136">
        <ele>241.6</ele>
        <time>2022-08-12T05:01:55Z</time>
      </trkpt>
      <trkpt lat="46.5342" lon="5.39069">
        <ele>240.6</ele>
        <time>2022-08-12T05:02:00Z</time>
      </trkpt>
      <trkpt lat="46.53432" lon="5.39015">
        <ele>239.4</ele>
        <time>2022-08-12T05:02:04Z</time>
      </trkpt>
      <trkpt lat="46.53441" lon="5.3898">
        <ele>238.2</ele>
        <time>2022-08-12T05:02:07Z</time>
      </trkpt>
      <trkpt lat="46.53455" lon="5.38928">
        <ele>237</ele>
        <time>2022-08-12T05:02:11Z</time>
      </trkpt>
      <trkpt lat="46.53469" lon="5.38879">
        <ele>235.6</ele>
        <time>2022-08-12T05:02:15Z</time>
      </trkpt>
      <trkpt lat="46.53479" lon="5.38842">
        <ele>234.4</ele>
        <time>2022-08-12T05:02:18Z</time>
      </trkpt>
      <trkpt lat="46.53489" lon="5.38808">
        <ele>233.6</ele>
        <time>2022-08-12T05:02:21Z</time>
      </trkpt>
      <trkpt lat="46.53493" lon="5.38793">
        <ele>233.2</ele>
        <time>2022-08-12T05:02:22Z</time>
      </trkpt>
      <trkpt lat="46.53495" lon="5.38781">
        <ele>232.6</ele>
        <time>2022-08-12T05:02:23Z</time>
      </trkpt>
      <trkpt lat="46.53499" lon="5.38759">
        <ele>232.2</ele>
        <time>2022-08-12T05:02:25Z</time>
      </trkpt>
      <trkpt lat="46.53503" lon="5.38748">
        <ele>232</ele>
        <time>2022-08-12T05:02:26Z</time>
      </trkpt>
      <trkpt lat="46.53509" lon="5.38743">
        <ele>231.6</ele>
        <time>2022-08-12T05:02:27Z</time>
      </trkpt>
      <trkpt lat="46.53521" lon="5.38746">
        <ele>231.2</ele>
        <time>2022-08-12T05:02:29Z</time>
      </trkpt>
      <trkpt lat="46.53527" lon="5.38751">
        <ele>231</ele>
        <time>2022-08-12T05:02:30Z</time>
      </trkpt>
      <trkpt lat="46.53538" lon="5.38769">
        <ele>230.8</ele>
        <time>2022-08-12T05:02:32Z</time>
      </trkpt>
      <trkpt lat="46.53558" lon="5.38799">
        <ele>230.6</ele>
        <time>2022-08-12T05:02:36Z</time>
      </trkpt>
      <trkpt lat="46.53563" lon="5.38804">
        <ele>230.6</ele>
        <time>2022-08-12T05:02:37Z</time>
      </trkpt>
      <trkpt lat="46.53608" lon="5.38832">
        <ele>232</ele>
        <time>2022-08-12T05:02:44Z</time>
      </trkpt>
      <trkpt lat="46.53641" lon="5.38852">
        <ele>232.4</ele>
        <time>2022-08-12T05:02:49Z</time>
      </trkpt>
      <trkpt lat="46.53698" lon="5.38877">
        <ele>232.2</ele>
        <time>2022-08-12T05:02:57Z</time>
      </trkpt>
      <trkpt lat="46.53704" lon="5.3888">
        <ele>232.2</ele>
        <time>2022-08-12T05:02:58Z</time>
      </trkpt>
      <trkpt lat="46.53752" lon="5.38898">
        <ele>231.8</ele>
        <time>2022-08-12T05:03:05Z</time>
      </trkpt>
      <trkpt lat="46.5381" lon="5.38916">
        <ele>231.6</ele>
        <time>2022-08-12T05:03:13Z</time>
      </trkpt>
      <trkpt lat="46.53817" lon="5.38919">
        <ele>231.6</ele>
        <time>2022-08-12T05:03:14Z</time>
      </trkpt>
      <trkpt lat="46.5385" lon="5.38933">
        <ele>231.6</ele>
        <time>2022-08-12T05:03:19Z</time>
      </trkpt>
      <trkpt lat="46.53873" lon="5.38936">
        <ele>231.8</ele>
        <time>2022-08-12T05:03:22Z</time>
      </trkpt>
      <trkpt lat="46.53928" lon="5.38939">
        <ele>231.6</ele>
        <time>2022-08-12T05:03:29Z</time>
      </trkpt>
      <trkpt lat="46.53967" lon="5.38943">
        <ele>230.8</ele>
        <time>2022-08-12T05:03:34Z</time>
      </trkpt>
      <trkpt lat="46.53991" lon="5.38948">
        <ele>230.4</ele>
        <time>2022-08-12T05:03:37Z</time>
      </trkpt>
      <trkpt lat="46.54047" lon="5.38964">
        <ele>230</ele>
        <time>2022-08-12T05:03:44Z</time>
      </trkpt>
      <trkpt lat="46.54055" lon="5.38966">
        <ele>230</ele>
        <time>2022-08-12T05:03:45Z</time>
      </trkpt>
      <trkpt lat="46.54085" lon="5.38981">
        <ele>229.8</ele>
        <time>2022-08-12T05:03:49Z</time>
      </trkpt>
      <trkpt lat="46.54091" lon="5.38983">
        <ele>229.6</ele>
        <time>2022-08-12T05:03:50Z</time>
      </trkpt>
      <trkpt lat="46.54145" lon="5.39004">
        <ele>229.2</ele>
        <time>2022-08-12T05:03:57Z</time>
      </trkpt>
      <trkpt lat="46.54182" lon="5.39017">
        <ele>229.2</ele>
        <time>2022-08-12T05:04:02Z</time>
      </trkpt>
      <trkpt lat="46.54232" lon="5.3904">
        <ele>228.8</ele>
        <time>2022-08-12T05:04:09Z</time>
      </trkpt>
      <trkpt lat="46.54255" lon="5.39053">
        <ele>228.6</ele>
        <time>2022-08-12T05:04:12Z</time>
      </trkpt>
      <trkpt lat="46.5427" lon="5.39061">
        <ele>228.4</ele>
        <time>2022-08-12T05:04:14Z</time>
      </trkpt>
      <trkpt lat="46.54326" lon="5.39092">
        <ele>228.4</ele>
        <time>2022-08-12T05:04:22Z</time>
      </trkpt>
      <trkpt lat="46.54374" lon="5.3911">
        <ele>228.4</ele>
        <time>2022-08-12T05:04:29Z</time>
      </trkpt>
      <trkpt lat="46.5442" lon="5.39127">
        <ele>229</ele>
        <time>2022-08-12T05:04:36Z</time>
      </trkpt>
      <trkpt lat="46.54442" lon="5.39134">
        <ele>229.8</ele>
        <time>2022-08-12T05:04:40Z</time>
      </trkpt>
      <trkpt lat="46.54458" lon="5.39138">
        <ele>230.4</ele>
        <time>2022-08-12T05:04:43Z</time>
      </trkpt>
      <trkpt lat="46.54468" lon="5.39142">
        <ele>231.2</ele>
        <time>2022-08-12T05:04:45Z</time>
      </trkpt>
      <trkpt lat="46.54485" lon="5.39149">
        <ele>232.2</ele>
        <time>2022-08-12T05:04:49Z</time>
      </trkpt>
      <trkpt lat="46.5449" lon="5.3915">
        <ele>232.8</ele>
        <time>2022-08-12T05:04:50Z</time>
      </trkpt>
      <trkpt lat="46.54494" lon="5.39149">
        <ele>233.6</ele>
        <time>2022-08-12T05:04:51Z</time>
      </trkpt>
      <trkpt lat="46.54497" lon="5.39146">
        <ele>233.8</ele>
        <time>2022-08-12T05:04:52Z</time>
      </trkpt>
      <trkpt lat="46.54499" lon="5.39142">
        <ele>234.2</ele>
        <time>2022-08-12T05:04:53Z</time>
      </trkpt>
      <trkpt lat="46.54501" lon="5.39136">
        <ele>234.2</ele>
        <time>2022-08-12T05:04:54Z</time>
      </trkpt>
      <trkpt lat="46.54504" lon="5.39125">
        <ele>234.8</ele>
        <time>2022-08-12T05:04:56Z</time>
      </trkpt>
      <trkpt lat="46.54506" lon="5.39119">
        <ele>235.2</ele>
        <time>2022-08-12T05:04:57Z</time>
      </trkpt>
      <trkpt lat="46.54509" lon="5.39114">
        <ele>235.4</ele>
        <time>2022-08-12T05:04:58Z</time>
      </trkpt>
      <trkpt lat="46.54514" lon="5.39111">
        <ele>235.4</ele>
        <time>2022-08-12T05:04:59Z</time>
      </trkpt>
      <trkpt lat="46.54524" lon="5.39117">
        <ele>235.4</ele>
        <time>2022-08-12T05:05:01Z</time>
      </trkpt>
      <trkpt lat="46.54558" lon="5.3914">
        <ele>235.2</ele>
        <time>2022-08-12T05:05:06Z</time>
      </trkpt>
      <trkpt lat="46.54589" lon="5.39155">
        <ele>233.6</ele>
        <time>2022-08-12T05:05:10Z</time>
      </trkpt>
      <trkpt lat="46.54612" lon="5.39167">
        <ele>232.6</ele>
        <time>2022-08-12T05:05:13Z</time>
      </trkpt>
      <trkpt lat="46.54621" lon="5.3917">
        <ele>232.2</ele>
        <time>2022-08-12T05:05:14Z</time>
      </trkpt>
      <trkpt lat="46.54667" lon="5.39191">
        <ele>231.6</ele>
        <time>2022-08-12T05:05:20Z</time>
      </trkpt>
      <trkpt lat="46.54719" lon="5.39216">
        <ele>232</ele>
        <time>2022-08-12T05:05:27Z</time>
      </trkpt>
      <trkpt lat="46.54734" lon="5.39224">
        <ele>232</ele>
        <time>2022-08-12T05:05:29Z</time>
      </trkpt>
      <trkpt lat="46.54766" lon="5.3924">
        <ele>231.2</ele>
        <time>2022-08-12T05:05:33Z</time>
      </trkpt>
      <trkpt lat="46.54806" lon="5.3926">
        <ele>230</ele>
        <time>2022-08-12T05:05:38Z</time>
      </trkpt>
      <trkpt lat="46.54814" lon="5.39264">
        <ele>229.8</ele>
        <time>2022-08-12T05:05:39Z</time>
      </trkpt>
      <trkpt lat="46.54856" lon="5.39284">
        <ele>229</ele>
        <time>2022-08-12T05:05:44Z</time>
      </trkpt>
      <trkpt lat="46.54883" lon="5.39295">
        <ele>228.2</ele>
        <time>2022-08-12T05:05:47Z</time>
      </trkpt>
      <trkpt lat="46.54893" lon="5.39298">
        <ele>227.8</ele>
        <time>2022-08-12T05:05:48Z</time>
      </trkpt>
      <trkpt lat="46.54922" lon="5.39307">
        <ele>226.6</ele>
        <time>2022-08-12T05:05:51Z</time>
      </trkpt>
      <trkpt lat="46.54932" lon="5.39311">
        <ele>226.4</ele>
        <time>2022-08-12T05:05:52Z</time>
      </trkpt>
      <trkpt lat="46.54953" lon="5.39319">
        <ele>225.2</ele>
        <time>2022-08-12T05:05:54Z</time>
      </trkpt>
      <trkpt lat="46.54973" lon="5.39327">
        <ele>223.8</ele>
        <time>2022-08-12T05:05:56Z</time>
      </trkpt>
      <trkpt lat="46.54991" lon="5.39336">
        <ele>222.6</ele>
        <time>2022-08-12T05:05:58Z</time>
      </trkpt>
      <trkpt lat="46.55" lon="5.3934">
        <ele>222</ele>
        <time>2022-08-12T05:05:59Z</time>
      </trkpt>
      <trkpt lat="46.55009" lon="5.39345">
        <ele>221.4</ele>
        <time>2022-08-12T05:06:00Z</time>
      </trkpt>
      <trkpt lat="46.55031" lon="5.3936">
        <ele>221.2</ele>
        <time>2022-08-12T05:06:03Z</time>
      </trkpt>
      <trkpt lat="46.5506" lon="5.39378">
        <ele>223.2</ele>
        <time>2022-08-12T05:06:08Z</time>
      </trkpt>
      <trkpt lat="46.55071" lon="5.39384">
        <ele>224.4</ele>
        <time>2022-08-12T05:06:10Z</time>
      </trkpt>
      <trkpt lat="46.55083" lon="5.39388">
        <ele>225.4</ele>
        <time>2022-08-12T05:06:12Z</time>
      </trkpt>
      <trkpt lat="46.551" lon="5.39396">
        <ele>226.4</ele>
        <time>2022-08-12T05:06:15Z</time>
      </trkpt>
      <trkpt lat="46.55106" lon="5.39398">
        <ele>226.8</ele>
        <time>2022-08-12T05:06:16Z</time>
      </trkpt>
      <trkpt lat="46.55141" lon="5.39415">
        <ele>227.8</ele>
        <time>2022-08-12T05:06:22Z</time>
      </trkpt>
      <trkpt lat="46.55147" lon="5.39417">
        <ele>227.8</ele>
        <time>2022-08-12T05:06:23Z</time>
      </trkpt>
      <trkpt lat="46.55181" lon="5.39426">
        <ele>227.8</ele>
        <time>2022-08-12T05:06:28Z</time>
      </trkpt>
      <trkpt lat="46.5521" lon="5.39429">
        <ele>227.6</ele>
        <time>2022-08-12T05:06:32Z</time>
      </trkpt>
      <trkpt lat="46.55224" lon="5.39436">
        <ele>227.6</ele>
        <time>2022-08-12T05:06:34Z</time>
      </trkpt>
      <trkpt lat="46.55246" lon="5.39463">
        <ele>227.2</ele>
        <time>2022-08-12T05:06:38Z</time>
      </trkpt>
      <trkpt lat="46.55251" lon="5.39469">
        <ele>227</ele>
        <time>2022-08-12T05:06:39Z</time>
      </trkpt>
      <trkpt lat="46.55275" lon="5.39489">
        <ele>227.2</ele>
        <time>2022-08-12T05:06:44Z</time>
      </trkpt>
      <trkpt lat="46.55328" lon="5.39529">
        <ele>228</ele>
        <time>2022-08-12T05:06:53Z</time>
      </trkpt>
      <trkpt lat="46.5534" lon="5.39539">
        <ele>228</ele>
        <time>2022-08-12T05:06:55Z</time>
      </trkpt>
      <trkpt lat="46.55389" lon="5.39579">
        <ele>228</ele>
        <time>2022-08-12T05:07:03Z</time>
      </trkpt>
      <trkpt lat="46.55409" lon="5.39595">
        <ele>227.6</ele>
        <time>2022-08-12T05:07:06Z</time>
      </trkpt>
      <trkpt lat="46.55451" lon="5.39631">
        <ele>227</ele>
        <time>2022-08-12T05:07:12Z</time>
      </trkpt>
      <trkpt lat="46.5549" lon="5.39664">
        <ele>225.8</ele>
        <time>2022-08-12T05:07:17Z</time>
      </trkpt>
      <trkpt lat="46.55512" lon="5.39682">
        <ele>224.6</ele>
        <time>2022-08-12T05:07:20Z</time>
      </trkpt>
      <trkpt lat="46.55562" lon="5.39724">
        <ele>223.8</ele>
        <time>2022-08-12T05:07:27Z</time>
      </trkpt>
      <trkpt lat="46.55591" lon="5.39748">
        <ele>223.4</ele>
        <time>2022-08-12T05:07:31Z</time>
      </trkpt>
      <trkpt lat="46.55619" lon="5.39769">
        <ele>223</ele>
        <time>2022-08-12T05:07:35Z</time>
      </trkpt>
      <trkpt lat="46.5565" lon="5.39789">
        <ele>223.4</ele>
        <time>2022-08-12T05:07:40Z</time>
      </trkpt>
      <trkpt lat="46.55678" lon="5.39812">
        <ele>224.6</ele>
        <time>2022-08-12T05:07:45Z</time>
      </trkpt>
      <trkpt lat="46.55684" lon="5.39817">
        <ele>224.8</ele>
        <time>2022-08-12T05:07:46Z</time>
      </trkpt>
      <trkpt lat="46.5571" lon="5.3984">
        <ele>225.2</ele>
        <time>2022-08-12T05:07:50Z</time>
      </trkpt>
      <trkpt lat="46.55723" lon="5.39852">
        <ele>225.4</ele>
        <time>2022-08-12T05:07:52Z</time>
      </trkpt>
      <trkpt lat="46.55759" lon="5.39885">
        <ele>224.2</ele>
        <time>2022-08-12T05:07:57Z</time>
      </trkpt>
      <trkpt lat="46.55775" lon="5.39896">
        <ele>223.4</ele>
        <time>2022-08-12T05:07:59Z</time>
      </trkpt>
      <trkpt lat="46.55796" lon="5.39912">
        <ele>222</ele>
        <time>2022-08-12T05:08:02Z</time>
      </trkpt>
      <trkpt lat="46.55802" lon="5.39915">
        <ele>221.8</ele>
        <time>2022-08-12T05:08:03Z</time>
      </trkpt>
      <trkpt lat="46.55807" lon="5.39916">
        <ele>221.4</ele>
        <time>2022-08-12T05:08:04Z</time>
      </trkpt>
      <trkpt lat="46.55812" lon="5.39914">
        <ele>221.2</ele>
        <time>2022-08-12T05:08:05Z</time>
      </trkpt>
      <trkpt lat="46.5582" lon="5.39901">
        <ele>221</ele>
        <time>2022-08-12T05:08:07Z</time>
      </trkpt>
      <trkpt lat="46.5583" lon="5.39861">
        <ele>220.8</ele>
        <time>2022-08-12T05:08:11Z</time>
      </trkpt>
      <trkpt lat="46.55849" lon="5.39783">
        <ele>221</ele>
        <time>2022-08-12T05:08:19Z</time>
      </trkpt>
      <trkpt lat="46.55868" lon="5.39717">
        <ele>221</ele>
        <time>2022-08-12T05:08:25Z</time>
      </trkpt>
      <trkpt lat="46.5588" lon="5.39671">
        <ele>219.8</ele>
        <time>2022-08-12T05:08:29Z</time>
      </trkpt>
      <trkpt lat="46.55885" lon="5.39648">
        <ele>219.2</ele>
        <time>2022-08-12T05:08:31Z</time>
      </trkpt>
      <trkpt lat="46.55888" lon="5.39624">
        <ele>218.6</ele>
        <time>2022-08-12T05:08:33Z</time>
      </trkpt>
      <trkpt lat="46.55901" lon="5.3956">
        <ele>217.8</ele>
        <time>2022-08-12T05:08:39Z</time>
      </trkpt>
      <trkpt lat="46.55911" lon="5.3948">
        <ele>217.8</ele>
        <time>2022-08-12T05:08:46Z</time>
      </trkpt>
      <trkpt lat="46.55912" lon="5.39468">
        <ele>217.8</ele>
        <time>2022-08-12T05:08:47Z</time>
      </trkpt>
      <trkpt lat="46.55916" lon="5.39432">
        <ele>217.4</ele>
        <time>2022-08-12T05:08:50Z</time>
      </trkpt>
      <trkpt lat="46.55921" lon="5.39383">
        <ele>216.8</ele>
        <time>2022-08-12T05:08:54Z</time>
      </trkpt>
      <trkpt lat="46.55926" lon="5.39347">
        <ele>216.4</ele>
        <time>2022-08-12T05:08:57Z</time>
      </trkpt>
      <trkpt lat="46.55939" lon="5.39272">
        <ele>215.4</ele>
        <time>2022-08-12T05:09:03Z</time>
      </trkpt>
      <trkpt lat="46.5594" lon="5.39259">
        <ele>215</ele>
        <time>2022-08-12T05:09:04Z</time>
      </trkpt>
      <trkpt lat="46.55944" lon="5.39197">
        <ele>214.2</ele>
        <time>2022-08-12T05:09:09Z</time>
      </trkpt>
      <trkpt lat="46.55947" lon="5.39126">
        <ele>213.8</ele>
        <time>2022-08-12T05:09:15Z</time>
      </trkpt>
      <trkpt lat="46.5595" lon="5.3909">
        <ele>213</ele>
        <time>2022-08-12T05:09:18Z</time>
      </trkpt>
      <trkpt lat="46.55953" lon="5.39064">
        <ele>212.6</ele>
        <time>2022-08-12T05:09:20Z</time>
      </trkpt>
      <trkpt lat="46.55958" lon="5.39022">
        <ele>212</ele>
        <time>2022-08-12T05:09:23Z</time>
      </trkpt>
      <trkpt lat="46.55962" lon="5.39007">
        <ele>212</ele>
        <time>2022-08-12T05:09:24Z</time>
      </trkpt>
      <trkpt lat="46.55966" lon="5.38994">
        <ele>211.2</ele>
        <time>2022-08-12T05:09:25Z</time>
      </trkpt>
      <trkpt lat="46.55975" lon="5.38968">
        <ele>210.2</ele>
        <time>2022-08-12T05:09:27Z</time>
      </trkpt>
      <trkpt lat="46.55979" lon="5.38956">
        <ele>209.8</ele>
        <time>2022-08-12T05:09:28Z</time>
      </trkpt>
      <trkpt lat="46.55988" lon="5.38931">
        <ele>208.6</ele>
        <time>2022-08-12T05:09:30Z</time>
      </trkpt>
      <trkpt lat="46.56001" lon="5.38883">
        <ele>208</ele>
        <time>2022-08-12T05:09:34Z</time>
      </trkpt>
      <trkpt lat="46.56013" lon="5.38815">
        <ele>208.4</ele>
        <time>2022-08-12T05:09:40Z</time>
      </trkpt>
      <trkpt lat="46.56013" lon="5.38778">
        <ele>209.2</ele>
        <time>2022-08-12T05:09:44Z</time>
      </trkpt>
      <trkpt lat="46.56011" lon="5.38761">
        <ele>209.6</ele>
        <time>2022-08-12T05:09:46Z</time>
      </trkpt>
      <trkpt lat="46.56006" lon="5.38738">
        <ele>211</ele>
        <time>2022-08-12T05:09:49Z</time>
      </trkpt>
      <trkpt lat="46.56005" lon="5.3873">
        <ele>211.6</ele>
        <time>2022-08-12T05:09:50Z</time>
      </trkpt>
      <trkpt lat="46.56004" lon="5.38715">
        <ele>212.4</ele>
        <time>2022-08-12T05:09:52Z</time>
      </trkpt>
      <trkpt lat="46.56003" lon="5.38708">
        <ele>213</ele>
        <time>2022-08-12T05:09:53Z</time>
      </trkpt>
      <trkpt lat="46.56003" lon="5.38692">
        <ele>213.4</ele>
        <time>2022-08-12T05:09:55Z</time>
      </trkpt>
      <trkpt lat="46.56003" lon="5.38684">
        <ele>213.6</ele>
        <time>2022-08-12T05:09:56Z</time>
      </trkpt>
      <trkpt lat="46.55999" lon="5.38631">
        <ele>214.4</ele>
        <time>2022-08-12T05:10:02Z</time>
      </trkpt>
      <trkpt lat="46.55996" lon="5.38612">
        <ele>214.6</ele>
        <time>2022-08-12T05:10:04Z</time>
      </trkpt>
      <trkpt lat="46.55988" lon="5.38556">
        <ele>214.4</ele>
        <time>2022-08-12T05:10:10Z</time>
      </trkpt>
      <trkpt lat="46.55981" lon="5.38474">
        <ele>214.2</ele>
        <time>2022-08-12T05:10:19Z</time>
      </trkpt>
      <trkpt lat="46.55979" lon="5.38455">
        <ele>214.6</ele>
        <time>2022-08-12T05:10:21Z</time>
      </trkpt>
      <trkpt lat="46.55979" lon="5.38445">
        <ele>214.6</ele>
        <time>2022-08-12T05:10:22Z</time>
      </trkpt>
      <trkpt lat="46.55983" lon="5.38415">
        <ele>214.6</ele>
        <time>2022-08-12T05:10:25Z</time>
      </trkpt>
      <trkpt lat="46.55992" lon="5.38348">
        <ele>213.6</ele>
        <time>2022-08-12T05:10:31Z</time>
      </trkpt>
      <trkpt lat="46.55994" lon="5.38337">
        <ele>213.2</ele>
        <time>2022-08-12T05:10:32Z</time>
      </trkpt>
      <trkpt lat="46.56001" lon="5.38289">
        <ele>212</ele>
        <time>2022-08-12T05:10:36Z</time>
      </trkpt>
      <trkpt lat="46.56003" lon="5.38278">
        <ele>211.6</ele>
        <time>2022-08-12T05:10:37Z</time>
      </trkpt>
      <trkpt lat="46.56009" lon="5.38231">
        <ele>211</ele>
        <time>2022-08-12T05:10:41Z</time>
      </trkpt>
      <trkpt lat="46.56013" lon="5.38209">
        <ele>210.8</ele>
        <time>2022-08-12T05:10:43Z</time>
      </trkpt>
      <trkpt lat="46.56017" lon="5.38199">
        <ele>210.8</ele>
        <time>2022-08-12T05:10:44Z</time>
      </trkpt>
      <trkpt lat="46.56022" lon="5.38191">
        <ele>210.8</ele>
        <time>2022-08-12T05:10:45Z</time>
      </trkpt>
      <trkpt lat="46.56035" lon="5.38179">
        <ele>210.6</ele>
        <time>2022-08-12T05:10:47Z</time>
      </trkpt>
      <trkpt lat="46.56066" lon="5.38156">
        <ele>210.8</ele>
        <time>2022-08-12T05:10:52Z</time>
      </trkpt>
      <trkpt lat="46.56115" lon="5.38121">
        <ele>211</ele>
        <time>2022-08-12T05:10:59Z</time>
      </trkpt>
      <trkpt lat="46.5615" lon="5.38093">
        <ele>210.6</ele>
        <time>2022-08-12T05:11:04Z</time>
      </trkpt>
      <trkpt lat="46.56156" lon="5.38085">
        <ele>210.4</ele>
        <time>2022-08-12T05:11:05Z</time>
      </trkpt>
      <trkpt lat="46.56178" lon="5.38054">
        <ele>210</ele>
        <time>2022-08-12T05:11:09Z</time>
      </trkpt>
      <trkpt lat="46.56192" lon="5.38028">
        <ele>210</ele>
        <time>2022-08-12T05:11:12Z</time>
      </trkpt>
      <trkpt lat="46.56203" lon="5.38011">
        <ele>209.8</ele>
        <time>2022-08-12T05:11:14Z</time>
      </trkpt>
      <trkpt lat="46.56209" lon="5.38003">
        <ele>209.8</ele>
        <time>2022-08-12T05:11:15Z</time>
      </trkpt>
      <trkpt lat="46.56222" lon="5.3799">
        <ele>209.6</ele>
        <time>2022-08-12T05:11:17Z</time>
      </trkpt>
      <trkpt lat="46.56265" lon="5.37966">
        <ele>209</ele>
        <time>2022-08-12T05:11:23Z</time>
      </trkpt>
      <trkpt lat="46.5628" lon="5.37959">
        <ele>208.8</ele>
        <time>2022-08-12T05:11:25Z</time>
      </trkpt>
      <trkpt lat="46.56295" lon="5.37954">
        <ele>208.6</ele>
        <time>2022-08-12T05:11:27Z</time>
      </trkpt>
      <trkpt lat="46.56302" lon="5.37953">
        <ele>208.6</ele>
        <time>2022-08-12T05:11:28Z</time>
      </trkpt>
      <trkpt lat="46.56347" lon="5.37955">
        <ele>208.6</ele>
        <time>2022-08-12T05:11:34Z</time>
      </trkpt>
      <trkpt lat="46.56361" lon="5.37951">
        <ele>208.6</ele>
        <time>2022-08-12T05:11:36Z</time>
      </trkpt>
      <trkpt lat="46.56374" lon="5.37944">
        <ele>208.8</ele>
        <time>2022-08-12T05:11:38Z</time>
      </trkpt>
      <trkpt lat="46.56388" lon="5.37938">
        <ele>209</ele>
        <time>2022-08-12T05:11:40Z</time>
      </trkpt>
      <trkpt lat="46.56401" lon="5.37935">
        <ele>209.2</ele>
        <time>2022-08-12T05:11:42Z</time>
      </trkpt>
      <trkpt lat="46.56407" lon="5.37935">
        <ele>209.4</ele>
        <time>2022-08-12T05:11:43Z</time>
      </trkpt>
      <trkpt lat="46.56443" lon="5.37942">
        <ele>209.8</ele>
        <time>2022-08-12T05:11:49Z</time>
      </trkpt>
      <trkpt lat="46.56449" lon="5.37943">
        <ele>210</ele>
        <time>2022-08-12T05:11:50Z</time>
      </trkpt>
      <trkpt lat="46.56483" lon="5.37951">
        <ele>211</ele>
        <time>2022-08-12T05:11:56Z</time>
      </trkpt>
      <trkpt lat="46.56489" lon="5.37952">
        <ele>211.2</ele>
        <time>2022-08-12T05:11:57Z</time>
      </trkpt>
      <trkpt lat="46.56507" lon="5.37954">
        <ele>211.6</ele>
        <time>2022-08-12T05:12:00Z</time>
      </trkpt>
      <trkpt lat="46.56519" lon="5.37951">
        <ele>211.6</ele>
        <time>2022-08-12T05:12:02Z</time>
      </trkpt>
      <trkpt lat="46.56524" lon="5.37949">
        <ele>211.8</ele>
        <time>2022-08-12T05:12:03Z</time>
      </trkpt>
      <trkpt lat="46.56546" lon="5.37933">
        <ele>212</ele>
        <time>2022-08-12T05:12:07Z</time>
      </trkpt>
      <trkpt lat="46.56557" lon="5.37925">
        <ele>212</ele>
        <time>2022-08-12T05:12:09Z</time>
      </trkpt>
      <trkpt lat="46.56575" lon="5.37919">
        <ele>212.2</ele>
        <time>2022-08-12T05:12:12Z</time>
      </trkpt>
      <trkpt lat="46.56612" lon="5.37919">
        <ele>213</ele>
        <time>2022-08-12T05:12:18Z</time>
      </trkpt>
      <trkpt lat="46.56664" lon="5.3793">
        <ele>213</ele>
        <time>2022-08-12T05:12:26Z</time>
      </trkpt>
      <trkpt lat="46.56718" lon="5.37942">
        <ele>212.6</ele>
        <time>2022-08-12T05:12:34Z</time>
      </trkpt>
      <trkpt lat="46.56776" lon="5.37955">
        <ele>211.8</ele>
        <time>2022-08-12T05:12:42Z</time>
      </trkpt>
      <trkpt lat="46.56823" lon="5.37966">
        <ele>211</ele>
        <time>2022-08-12T05:12:48Z</time>
      </trkpt>
      <trkpt lat="46.56831" lon="5.37968">
        <ele>211</ele>
        <time>2022-08-12T05:12:49Z</time>
      </trkpt>
      <trkpt lat="46.56891" lon="5.37982">
        <ele>210.6</ele>
        <time>2022-08-12T05:12:57Z</time>
      </trkpt>
      <trkpt lat="46.56899" lon="5.37983">
        <ele>210.6</ele>
        <time>2022-08-12T05:12:58Z</time>
      </trkpt>
      <trkpt lat="46.56941" lon="5.3799">
        <ele>210.2</ele>
        <time>2022-08-12T05:13:03Z</time>
      </trkpt>
      <trkpt lat="46.56949" lon="5.37988">
        <ele>210</ele>
        <time>2022-08-12T05:13:04Z</time>
      </trkpt>
      <trkpt lat="46.56957" lon="5.37985">
        <ele>209.8</ele>
        <time>2022-08-12T05:13:05Z</time>
      </trkpt>
      <trkpt lat="46.56981" lon="5.3797">
        <ele>208.8</ele>
        <time>2022-08-12T05:13:08Z</time>
      </trkpt>
      <trkpt lat="46.57002" lon="5.37954">
        <ele>207.6</ele>
        <time>2022-08-12T05:13:11Z</time>
      </trkpt>
      <trkpt lat="46.57039" lon="5.37926">
        <ele>206.8</ele>
        <time>2022-08-12T05:13:16Z</time>
      </trkpt>
      <trkpt lat="46.57054" lon="5.37914">
        <ele>206.4</ele>
        <time>2022-08-12T05:13:18Z</time>
      </trkpt>
      <trkpt lat="46.57104" lon="5.3787">
        <ele>205.4</ele>
        <time>2022-08-12T05:13:25Z</time>
      </trkpt>
      <trkpt lat="46.57144" lon="5.37837">
        <ele>205.4</ele>
        <time>2022-08-12T05:13:31Z</time>
      </trkpt>
      <trkpt lat="46.57174" lon="5.37806">
        <ele>206.6</ele>
        <time>2022-08-12T05:13:37Z</time>
      </trkpt>
      <trkpt lat="46.57188" lon="5.3779">
        <ele>207.8</ele>
        <time>2022-08-12T05:13:40Z</time>
      </trkpt>
      <trkpt lat="46.57202" lon="5.37774">
        <ele>209</ele>
        <time>2022-08-12T05:13:43Z</time>
      </trkpt>
      <trkpt lat="46.57207" lon="5.3777">
        <ele>209.2</ele>
        <time>2022-08-12T05:13:44Z</time>
      </trkpt>
      <trkpt lat="46.57212" lon="5.37765">
        <ele>209.2</ele>
        <time>2022-08-12T05:13:45Z</time>
      </trkpt>
      <trkpt lat="46.57223" lon="5.37765">
        <ele>209.6</ele>
        <time>2022-08-12T05:13:47Z</time>
      </trkpt>
      <trkpt lat="46.57234" lon="5.3778">
        <ele>209.6</ele>
        <time>2022-08-12T05:13:49Z</time>
      </trkpt>
      <trkpt lat="46.57239" lon="5.37789">
        <ele>209.6</ele>
        <time>2022-08-12T05:13:50Z</time>
      </trkpt>
      <trkpt lat="46.57253" lon="5.37818">
        <ele>209.6</ele>
        <time>2022-08-12T05:13:53Z</time>
      </trkpt>
      <trkpt lat="46.57258" lon="5.37828">
        <ele>209.6</ele>
        <time>2022-08-12T05:13:54Z</time>
      </trkpt>
      <trkpt lat="46.57281" lon="5.37869">
        <ele>207.8</ele>
        <time>2022-08-12T05:13:58Z</time>
      </trkpt>
      <trkpt lat="46.57291" lon="5.37892">
        <ele>207</ele>
        <time>2022-08-12T05:14:00Z</time>
      </trkpt>
      <trkpt lat="46.57297" lon="5.37903">
        <ele>206.8</ele>
        <time>2022-08-12T05:14:01Z</time>
      </trkpt>
      <trkpt lat="46.57322" lon="5.37948">
        <ele>205.2</ele>
        <time>2022-08-12T05:14:05Z</time>
      </trkpt>
      <trkpt lat="46.57327" lon="5.37959">
        <ele>205</ele>
        <time>2022-08-12T05:14:06Z</time>
      </trkpt>
      <trkpt lat="46.57332" lon="5.3797">
        <ele>204.4</ele>
        <time>2022-08-12T05:14:07Z</time>
      </trkpt>
      <trkpt lat="46.57338" lon="5.37981">
        <ele>204</ele>
        <time>2022-08-12T05:14:08Z</time>
      </trkpt>
      <trkpt lat="46.57344" lon="5.37992">
        <ele>202.8</ele>
        <time>2022-08-12T05:14:09Z</time>
      </trkpt>
      <trkpt lat="46.57362" lon="5.38028">
        <ele>201.6</ele>
        <time>2022-08-12T05:14:12Z</time>
      </trkpt>
      <trkpt lat="46.57373" lon="5.38052">
        <ele>200.6</ele>
        <time>2022-08-12T05:14:14Z</time>
      </trkpt>
      <trkpt lat="46.57378" lon="5.38064">
        <ele>200.2</ele>
        <time>2022-08-12T05:14:15Z</time>
      </trkpt>
      <trkpt lat="46.57384" lon="5.38076">
        <ele>199.6</ele>
        <time>2022-08-12T05:14:16Z</time>
      </trkpt>
      <trkpt lat="46.574" lon="5.38096">
        <ele>198.8</ele>
        <time>2022-08-12T05:14:18Z</time>
      </trkpt>
      <trkpt lat="46.57417" lon="5.38109">
        <ele>197.6</ele>
        <time>2022-08-12T05:14:20Z</time>
      </trkpt>
      <trkpt lat="46.57443" lon="5.38128">
        <ele>196.6</ele>
        <time>2022-08-12T05:14:23Z</time>
      </trkpt>
      <trkpt lat="46.57491" lon="5.38165">
        <ele>195.6</ele>
        <time>2022-08-12T05:14:29Z</time>
      </trkpt>
      <trkpt lat="46.57522" lon="5.38189">
        <ele>195.6</ele>
        <time>2022-08-12T05:14:33Z</time>
      </trkpt>
      <trkpt lat="46.57529" lon="5.38194">
        <ele>195.6</ele>
        <time>2022-08-12T05:14:34Z</time>
      </trkpt>
      <trkpt lat="46.5758" lon="5.38236">
        <ele>195.2</ele>
        <time>2022-08-12T05:14:41Z</time>
      </trkpt>
      <trkpt lat="46.57586" lon="5.38243">
        <ele>195.2</ele>
        <time>2022-08-12T05:14:42Z</time>
      </trkpt>
      <trkpt lat="46.57591" lon="5.38251">
        <ele>195.2</ele>
        <time>2022-08-12T05:14:43Z</time>
      </trkpt>
      <trkpt lat="46.57605" lon="5.38274">
        <ele>195.2</ele>
        <time>2022-08-12T05:14:46Z</time>
      </trkpt>
      <trkpt lat="46.57618" lon="5.38306">
        <ele>196.2</ele>
        <time>2022-08-12T05:14:50Z</time>
      </trkpt>
      <trkpt lat="46.5762" lon="5.38314">
        <ele>196.8</ele>
        <time>2022-08-12T05:14:51Z</time>
      </trkpt>
      <trkpt lat="46.57622" lon="5.38323">
        <ele>197</ele>
        <time>2022-08-12T05:14:52Z</time>
      </trkpt>
      <trkpt lat="46.57622" lon="5.38341">
        <ele>197.6</ele>
        <time>2022-08-12T05:14:54Z</time>
      </trkpt>
      <trkpt lat="46.57621" lon="5.38349">
        <ele>197.8</ele>
        <time>2022-08-12T05:14:55Z</time>
      </trkpt>
      <trkpt lat="46.57614" lon="5.38386">
        <ele>198.8</ele>
        <time>2022-08-12T05:14:59Z</time>
      </trkpt>
      <trkpt lat="46.57612" lon="5.38395">
        <ele>199</ele>
        <time>2022-08-12T05:15:00Z</time>
      </trkpt>
      <trkpt lat="46.57601" lon="5.38441">
        <ele>199</ele>
        <time>2022-08-12T05:15:05Z</time>
      </trkpt>
      <trkpt lat="46.57591" lon="5.38481">
        <ele>199</ele>
        <time>2022-08-12T05:15:10Z</time>
      </trkpt>
      <trkpt lat="46.57589" lon="5.38514">
        <ele>199.2</ele>
        <time>2022-08-12T05:15:14Z</time>
      </trkpt>
      <trkpt lat="46.5759" lon="5.38522">
        <ele>199.4</ele>
        <time>2022-08-12T05:15:15Z</time>
      </trkpt>
      <trkpt lat="46.57594" lon="5.38552">
        <ele>200.2</ele>
        <time>2022-08-12T05:15:19Z</time>
      </trkpt>
      <trkpt lat="46.57595" lon="5.3856">
        <ele>200.2</ele>
        <time>2022-08-12T05:15:20Z</time>
      </trkpt>
      <trkpt lat="46.57599" lon="5.38575">
        <ele>200.4</ele>
        <time>2022-08-12T05:15:22Z</time>
      </trkpt>
      <trkpt lat="46.57601" lon="5.38583">
        <ele>200.6</ele>
        <time>2022-08-12T05:15:23Z</time>
      </trkpt>
      <trkpt lat="46.57604" lon="5.38599">
        <ele>200.8</ele>
        <time>2022-08-12T05:15:25Z</time>
      </trkpt>
      <trkpt lat="46.57604" lon="5.38624">
        <ele>201</ele>
        <time>2022-08-12T05:15:28Z</time>
      </trkpt>
      <trkpt lat="46.57602" lon="5.38639">
        <ele>201</ele>
        <time>2022-08-12T05:15:30Z</time>
      </trkpt>
      <trkpt lat="46.57597" lon="5.38654">
        <ele>201.2</ele>
        <time>2022-08-12T05:15:32Z</time>
      </trkpt>
      <trkpt lat="46.57582" lon="5.38685">
        <ele>202.2</ele>
        <time>2022-08-12T05:15:37Z</time>
      </trkpt>
      <trkpt lat="46.57575" lon="5.38706">
        <ele>202.6</ele>
        <time>2022-08-12T05:15:40Z</time>
      </trkpt>
      <trkpt lat="46.5757" lon="5.38728">
        <ele>203</ele>
        <time>2022-08-12T05:15:43Z</time>
      </trkpt>
      <trkpt lat="46.57569" lon="5.38736">
        <ele>203.2</ele>
        <time>2022-08-12T05:15:44Z</time>
      </trkpt>
      <trkpt lat="46.57568" lon="5.38755">
        <ele>203.4</ele>
        <time>2022-08-12T05:15:46Z</time>
      </trkpt>
      <trkpt lat="46.57567" lon="5.38765">
        <ele>203.4</ele>
        <time>2022-08-12T05:15:47Z</time>
      </trkpt>
      <trkpt lat="46.57562" lon="5.38785">
        <ele>203.2</ele>
        <time>2022-08-12T05:15:49Z</time>
      </trkpt>
      <trkpt lat="46.57551" lon="5.38801">
        <ele>203</ele>
        <time>2022-08-12T05:15:51Z</time>
      </trkpt>
      <trkpt lat="46.57544" lon="5.38806">
        <ele>202.6</ele>
        <time>2022-08-12T05:15:52Z</time>
      </trkpt>
      <trkpt lat="46.57537" lon="5.38811">
        <ele>202</ele>
        <time>2022-08-12T05:15:53Z</time>
      </trkpt>
      <trkpt lat="46.57514" lon="5.38818">
        <ele>201.6</ele>
        <time>2022-08-12T05:15:56Z</time>
      </trkpt>
      <trkpt lat="46.57476" lon="5.38833">
        <ele>201</ele>
        <time>2022-08-12T05:16:01Z</time>
      </trkpt>
      <trkpt lat="46.57462" lon="5.38844">
        <ele>200.8</ele>
        <time>2022-08-12T05:16:03Z</time>
      </trkpt>
      <trkpt lat="46.57451" lon="5.38858">
        <ele>200.4</ele>
        <time>2022-08-12T05:16:05Z</time>
      </trkpt>
      <trkpt lat="46.57447" lon="5.38866">
        <ele>200.4</ele>
        <time>2022-08-12T05:16:06Z</time>
      </trkpt>
      <trkpt lat="46.57443" lon="5.38876">
        <ele>200.2</ele>
        <time>2022-08-12T05:16:07Z</time>
      </trkpt>
      <trkpt lat="46.57437" lon="5.38906">
        <ele>200</ele>
        <time>2022-08-12T05:16:10Z</time>
      </trkpt>
      <trkpt lat="46.57432" lon="5.38975">
        <ele>200</ele>
        <time>2022-08-12T05:16:17Z</time>
      </trkpt>
      <trkpt lat="46.57431" lon="5.38985">
        <ele>200</ele>
        <time>2022-08-12T05:16:18Z</time>
      </trkpt>
      <trkpt lat="46.57431" lon="5.39023">
        <ele>200.6</ele>
        <time>2022-08-12T05:16:22Z</time>
      </trkpt>
      <trkpt lat="46.5743" lon="5.39085">
        <ele>201.4</ele>
        <time>2022-08-12T05:16:29Z</time>
      </trkpt>
      <trkpt lat="46.57436" lon="5.39096">
        <ele>201.2</ele>
        <time>2022-08-12T05:16:31Z</time>
      </trkpt>
      <trkpt lat="46.57448" lon="5.39098">
        <ele>201.4</ele>
        <time>2022-08-12T05:16:33Z</time>
      </trkpt>
      <trkpt lat="46.57454" lon="5.39097">
        <ele>201.6</ele>
        <time>2022-08-12T05:16:34Z</time>
      </trkpt>
      <trkpt lat="46.57472" lon="5.39095">
        <ele>202</ele>
        <time>2022-08-12T05:16:37Z</time>
      </trkpt>
      <trkpt lat="46.57512" lon="5.39089">
        <ele>203</ele>
        <time>2022-08-12T05:16:43Z</time>
      </trkpt>
      <trkpt lat="46.57566" lon="5.39086">
        <ele>202.6</ele>
        <time>2022-08-12T05:16:51Z</time>
      </trkpt>
      <trkpt lat="46.57615" lon="5.39097">
        <ele>202.2</ele>
        <time>2022-08-12T05:16:58Z</time>
      </trkpt>
      <trkpt lat="46.57659" lon="5.39124">
        <ele>202</ele>
        <time>2022-08-12T05:17:05Z</time>
      </trkpt>
      <trkpt lat="46.57678" lon="5.39134">
        <ele>202.2</ele>
        <time>2022-08-12T05:17:08Z</time>
      </trkpt>
      <trkpt lat="46.5769" lon="5.39133">
        <ele>202</ele>
        <time>2022-08-12T05:17:10Z</time>
      </trkpt>
      <trkpt lat="46.57703" lon="5.39121">
        <ele>202</ele>
        <time>2022-08-12T05:17:12Z</time>
      </trkpt>
      <trkpt lat="46.57708" lon="5.39114">
        <ele>202</ele>
        <time>2022-08-12T05:17:13Z</time>
      </trkpt>
      <trkpt lat="46.57714" lon="5.39107">
        <ele>202</ele>
        <time>2022-08-12T05:17:14Z</time>
      </trkpt>
      <trkpt lat="46.57727" lon="5.39102">
        <ele>201.8</ele>
        <time>2022-08-12T05:17:16Z</time>
      </trkpt>
      <trkpt lat="46.57759" lon="5.39111">
        <ele>201.4</ele>
        <time>2022-08-12T05:17:20Z</time>
      </trkpt>
      <trkpt lat="46.57774" lon="5.39116">
        <ele>201</ele>
        <time>2022-08-12T05:17:22Z</time>
      </trkpt>
      <trkpt lat="46.57804" lon="5.39118">
        <ele>200.8</ele>
        <time>2022-08-12T05:17:26Z</time>
      </trkpt>
      <trkpt lat="46.57819" lon="5.39113">
        <ele>200.4</ele>
        <time>2022-08-12T05:17:28Z</time>
      </trkpt>
      <trkpt lat="46.57833" lon="5.39108">
        <ele>200.4</ele>
        <time>2022-08-12T05:17:30Z</time>
      </trkpt>
      <trkpt lat="46.5784" lon="5.39108">
        <ele>200.4</ele>
        <time>2022-08-12T05:17:31Z</time>
      </trkpt>
      <trkpt lat="46.57862" lon="5.39112">
        <ele>200.4</ele>
        <time>2022-08-12T05:17:34Z</time>
      </trkpt>
      <trkpt lat="46.57887" lon="5.3911">
        <ele>200.2</ele>
        <time>2022-08-12T05:17:37Z</time>
      </trkpt>
      <trkpt lat="46.57915" lon="5.39108">
        <ele>200.2</ele>
        <time>2022-08-12T05:17:41Z</time>
      </trkpt>
      <trkpt lat="46.57922" lon="5.39108">
        <ele>200</ele>
        <time>2022-08-12T05:17:42Z</time>
      </trkpt>
      <trkpt lat="46.57928" lon="5.39109">
        <ele>200</ele>
        <time>2022-08-12T05:17:43Z</time>
      </trkpt>
      <trkpt lat="46.57973" lon="5.39114">
        <ele>199.8</ele>
        <time>2022-08-12T05:17:49Z</time>
      </trkpt>
      <trkpt lat="46.58031" lon="5.39119">
        <ele>199.6</ele>
        <time>2022-08-12T05:17:57Z</time>
      </trkpt>
      <trkpt lat="46.58052" lon="5.39121">
        <ele>199.8</ele>
        <time>2022-08-12T05:18:00Z</time>
      </trkpt>
      <trkpt lat="46.58073" lon="5.39125">
        <ele>200.2</ele>
        <time>2022-08-12T05:18:03Z</time>
      </trkpt>
      <trkpt lat="46.58112" lon="5.39128">
        <ele>201</ele>
        <time>2022-08-12T05:18:09Z</time>
      </trkpt>
      <trkpt lat="46.58124" lon="5.3913">
        <ele>201.4</ele>
        <time>2022-08-12T05:18:11Z</time>
      </trkpt>
      <trkpt lat="46.58139" lon="5.39131">
        <ele>202.2</ele>
        <time>2022-08-12T05:18:14Z</time>
      </trkpt>
      <trkpt lat="46.58155" lon="5.39133">
        <ele>202.8</ele>
        <time>2022-08-12T05:18:17Z</time>
      </trkpt>
      <trkpt lat="46.58159" lon="5.39134">
        <ele>203.2</ele>
        <time>2022-08-12T05:18:18Z</time>
      </trkpt>
      <trkpt lat="46.58185" lon="5.39144">
        <ele>204.4</ele>
        <time>2022-08-12T05:18:23Z</time>
      </trkpt>
      <trkpt lat="46.58195" lon="5.39148">
        <ele>205</ele>
        <time>2022-08-12T05:18:25Z</time>
      </trkpt>
      <trkpt lat="46.5821" lon="5.39155">
        <ele>205.4</ele>
        <time>2022-08-12T05:18:28Z</time>
      </trkpt>
      <trkpt lat="46.58215" lon="5.39156">
        <ele>205.6</ele>
        <time>2022-08-12T05:18:29Z</time>
      </trkpt>
      <trkpt lat="46.58226" lon="5.39158">
        <ele>205.8</ele>
        <time>2022-08-12T05:18:31Z</time>
      </trkpt>
      <trkpt lat="46.5825" lon="5.39168">
        <ele>206.6</ele>
        <time>2022-08-12T05:18:36Z</time>
      </trkpt>
      <trkpt lat="46.58259" lon="5.39171">
        <ele>207</ele>
        <time>2022-08-12T05:18:38Z</time>
      </trkpt>
      <trkpt lat="46.583" lon="5.39187">
        <ele>208</ele>
        <time>2022-08-12T05:18:46Z</time>
      </trkpt>
      <trkpt lat="46.58326" lon="5.39198">
        <ele>209</ele>
        <time>2022-08-12T05:18:51Z</time>
      </trkpt>
      <trkpt lat="46.5836" lon="5.39213">
        <ele>209.4</ele>
        <time>2022-08-12T05:18:57Z</time>
      </trkpt>
      <trkpt lat="46.58417" lon="5.39236">
        <ele>209.6</ele>
        <time>2022-08-12T05:19:07Z</time>
      </trkpt>
      <trkpt lat="46.58423" lon="5.39238">
        <ele>209.6</ele>
        <time>2022-08-12T05:19:08Z</time>
      </trkpt>
      <trkpt lat="46.58445" lon="5.39247">
        <ele>210</ele>
        <time>2022-08-12T05:19:12Z</time>
      </trkpt>
      <trkpt lat="46.5848" lon="5.39261">
        <ele>211</ele>
        <time>2022-08-12T05:19:19Z</time>
      </trkpt>
      <trkpt lat="46.58486" lon="5.39263">
        <ele>211.2</ele>
        <time>2022-08-12T05:19:20Z</time>
      </trkpt>
      <trkpt lat="46.58524" lon="5.39275">
        <ele>212.2</ele>
        <time>2022-08-12T05:19:27Z</time>
      </trkpt>
      <trkpt lat="46.58578" lon="5.3929">
        <ele>212.4</ele>
        <time>2022-08-12T05:19:36Z</time>
      </trkpt>
      <trkpt lat="46.5862" lon="5.39307">
        <ele>211.6</ele>
        <time>2022-08-12T05:19:42Z</time>
      </trkpt>
      <trkpt lat="46.58637" lon="5.39314">
        <ele>211</ele>
        <time>2022-08-12T05:19:44Z</time>
      </trkpt>
      <trkpt lat="46.58652" lon="5.3932">
        <ele>209.6</ele>
        <time>2022-08-12T05:19:46Z</time>
      </trkpt>
      <trkpt lat="46.58678" lon="5.39331">
        <ele>208.6</ele>
        <time>2022-08-12T05:19:49Z</time>
      </trkpt>
      <trkpt lat="46.58709" lon="5.39346">
        <ele>207.4</ele>
        <time>2022-08-12T05:19:53Z</time>
      </trkpt>
      <trkpt lat="46.58739" lon="5.39362">
        <ele>207</ele>
        <time>2022-08-12T05:19:57Z</time>
      </trkpt>
      <trkpt lat="46.58778" lon="5.39387">
        <ele>206.4</ele>
        <time>2022-08-12T05:20:02Z</time>
      </trkpt>
      <trkpt lat="46.58785" lon="5.39393">
        <ele>206.2</ele>
        <time>2022-08-12T05:20:03Z</time>
      </trkpt>
      <trkpt lat="46.58801" lon="5.39411">
        <ele>205.2</ele>
        <time>2022-08-12T05:20:05Z</time>
      </trkpt>
      <trkpt lat="46.58813" lon="5.39433">
        <ele>204.4</ele>
        <time>2022-08-12T05:20:07Z</time>
      </trkpt>
      <trkpt lat="46.58818" lon="5.39442">
        <ele>203.8</ele>
        <time>2022-08-12T05:20:08Z</time>
      </trkpt>
      <trkpt lat="46.58831" lon="5.39465">
        <ele>202.6</ele>
        <time>2022-08-12T05:20:10Z</time>
      </trkpt>
      <trkpt lat="46.58848" lon="5.39495">
        <ele>201.6</ele>
        <time>2022-08-12T05:20:13Z</time>
      </trkpt>
      <trkpt lat="46.58866" lon="5.39521">
        <ele>201</ele>
        <time>2022-08-12T05:20:16Z</time>
      </trkpt>
      <trkpt lat="46.58872" lon="5.39526">
        <ele>201</ele>
        <time>2022-08-12T05:20:17Z</time>
      </trkpt>
      <trkpt lat="46.58881" lon="5.39532">
        <ele>200.8</ele>
        <time>2022-08-12T05:20:18Z</time>
      </trkpt>
      <trkpt lat="46.58903" lon="5.3954">
        <ele>201</ele>
        <time>2022-08-12T05:20:21Z</time>
      </trkpt>
      <trkpt lat="46.58932" lon="5.39547">
        <ele>201.4</ele>
        <time>2022-08-12T05:20:25Z</time>
      </trkpt>
      <trkpt lat="46.58948" lon="5.39544">
        <ele>201.6</ele>
        <time>2022-08-12T05:20:27Z</time>
      </trkpt>
      <trkpt lat="46.5896" lon="5.39532">
        <ele>201.6</ele>
        <time>2022-08-12T05:20:29Z</time>
      </trkpt>
      <trkpt lat="46.58965" lon="5.39525">
        <ele>201.6</ele>
        <time>2022-08-12T05:20:30Z</time>
      </trkpt>
      <trkpt lat="46.59009" lon="5.39467">
        <ele>201.4</ele>
        <time>2022-08-12T05:20:38Z</time>
      </trkpt>
      <trkpt lat="46.59014" lon="5.3946">
        <ele>201.4</ele>
        <time>2022-08-12T05:20:39Z</time>
      </trkpt>
      <trkpt lat="46.59027" lon="5.39446">
        <ele>201.4</ele>
        <time>2022-08-12T05:20:41Z</time>
      </trkpt>
      <trkpt lat="46.59038" lon="5.39438">
        <ele>201.4</ele>
        <time>2022-08-12T05:20:43Z</time>
      </trkpt>
      <trkpt lat="46.59046" lon="5.39434">
        <ele>201.4</ele>
        <time>2022-08-12T05:20:44Z</time>
      </trkpt>
      <trkpt lat="46.59058" lon="5.39431">
        <ele>201.4</ele>
        <time>2022-08-12T05:20:46Z</time>
      </trkpt>
      <trkpt lat="46.59081" lon="5.39431">
        <ele>201.8</ele>
        <time>2022-08-12T05:20:49Z</time>
      </trkpt>
      <trkpt lat="46.59118" lon="5.39433">
        <ele>202.6</ele>
        <time>2022-08-12T05:20:55Z</time>
      </trkpt>
      <trkpt lat="46.59153" lon="5.39435">
        <ele>203.8</ele>
        <time>2022-08-12T05:21:01Z</time>
      </trkpt>
      <trkpt lat="46.5918" lon="5.39433">
        <ele>205</ele>
        <time>2022-08-12T05:21:06Z</time>
      </trkpt>
      <trkpt lat="46.59184" lon="5.39432">
        <ele>205.2</ele>
        <time>2022-08-12T05:21:07Z</time>
      </trkpt>
      <trkpt lat="46.592" lon="5.39425">
        <ele>206.4</ele>
        <time>2022-08-12T05:21:10Z</time>
      </trkpt>
      <trkpt lat="46.59212" lon="5.39419">
        <ele>206.8</ele>
        <time>2022-08-12T05:21:12Z</time>
      </trkpt>
      <trkpt lat="46.59227" lon="5.3941">
        <ele>207.4</ele>
        <time>2022-08-12T05:21:15Z</time>
      </trkpt>
      <trkpt lat="46.59232" lon="5.39407">
        <ele>207.6</ele>
        <time>2022-08-12T05:21:16Z</time>
      </trkpt>
      <trkpt lat="46.59241" lon="5.39401">
        <ele>208.2</ele>
        <time>2022-08-12T05:21:18Z</time>
      </trkpt>
      <trkpt lat="46.59273" lon="5.39382">
        <ele>208.6</ele>
        <time>2022-08-12T05:21:24Z</time>
      </trkpt>
      <trkpt lat="46.59278" lon="5.39379">
        <ele>208.6</ele>
        <time>2022-08-12T05:21:25Z</time>
      </trkpt>
      <trkpt lat="46.59302" lon="5.39361">
        <ele>209</ele>
        <time>2022-08-12T05:21:30Z</time>
      </trkpt>
      <trkpt lat="46.59317" lon="5.39348">
        <ele>209.4</ele>
        <time>2022-08-12T05:21:33Z</time>
      </trkpt>
      <trkpt lat="46.5933" lon="5.39335">
        <ele>209.6</ele>
        <time>2022-08-12T05:21:36Z</time>
      </trkpt>
      <trkpt lat="46.59352" lon="5.39309">
        <ele>210.2</ele>
        <time>2022-08-12T05:21:41Z</time>
      </trkpt>
      <trkpt lat="46.59376" lon="5.39281">
        <ele>210.6</ele>
        <time>2022-08-12T05:21:47Z</time>
      </trkpt>
      <trkpt lat="46.5938" lon="5.39277">
        <ele>210.8</ele>
        <time>2022-08-12T05:21:48Z</time>
      </trkpt>
      <trkpt lat="46.59407" lon="5.39253">
        <ele>211.8</ele>
        <time>2022-08-12T05:21:54Z</time>
      </trkpt>
      <trkpt lat="46.59431" lon="5.39239">
        <ele>213.2</ele>
        <time>2022-08-12T05:21:59Z</time>
      </trkpt>
      <trkpt lat="46.5944" lon="5.39236">
        <ele>213.4</ele>
        <time>2022-08-12T05:22:01Z</time>
      </trkpt>
      <trkpt lat="46.59477" lon="5.39225">
        <ele>214.2</ele>
        <time>2022-08-12T05:22:08Z</time>
      </trkpt>
      <trkpt lat="46.59487" lon="5.39223">
        <ele>214.4</ele>
        <time>2022-08-12T05:22:10Z</time>
      </trkpt>
      <trkpt lat="46.59517" lon="5.39213">
        <ele>214.6</ele>
        <time>2022-08-12T05:22:15Z</time>
      </trkpt>
      <trkpt lat="46.59557" lon="5.3921">
        <ele>214.2</ele>
        <time>2022-08-12T05:22:21Z</time>
      </trkpt>
      <trkpt lat="46.59603" lon="5.39195">
        <ele>213.8</ele>
        <time>2022-08-12T05:22:28Z</time>
      </trkpt>
      <trkpt lat="46.59616" lon="5.3919">
        <ele>213.8</ele>
        <time>2022-08-12T05:22:30Z</time>
      </trkpt>
      <trkpt lat="46.59635" lon="5.39188">
        <ele>214</ele>
        <time>2022-08-12T05:22:33Z</time>
      </trkpt>
      <trkpt lat="46.59684" lon="5.39197">
        <ele>214.4</ele>
        <time>2022-08-12T05:22:41Z</time>
      </trkpt>
      <trkpt lat="46.59708" lon="5.39202">
        <ele>214.8</ele>
        <time>2022-08-12T05:22:45Z</time>
      </trkpt>
      <trkpt lat="46.5972" lon="5.39206">
        <ele>214.8</ele>
        <time>2022-08-12T05:22:47Z</time>
      </trkpt>
      <trkpt lat="46.59731" lon="5.39221">
        <ele>215</ele>
        <time>2022-08-12T05:22:50Z</time>
      </trkpt>
      <trkpt lat="46.59743" lon="5.39225">
        <ele>215</ele>
        <time>2022-08-12T05:22:52Z</time>
      </trkpt>
      <trkpt lat="46.59748" lon="5.39223">
        <ele>214.8</ele>
        <time>2022-08-12T05:22:53Z</time>
      </trkpt>
      <trkpt lat="46.59753" lon="5.3922">
        <ele>214.6</ele>
        <time>2022-08-12T05:22:54Z</time>
      </trkpt>
      <trkpt lat="46.59766" lon="5.39209">
        <ele>214.6</ele>
        <time>2022-08-12T05:22:56Z</time>
      </trkpt>
      <trkpt lat="46.59779" lon="5.39202">
        <ele>214.2</ele>
        <time>2022-08-12T05:22:58Z</time>
      </trkpt>
      <trkpt lat="46.59799" lon="5.39196">
        <ele>214</ele>
        <time>2022-08-12T05:23:01Z</time>
      </trkpt>
      <trkpt lat="46.59839" lon="5.39198">
        <ele>213.4</ele>
        <time>2022-08-12T05:23:07Z</time>
      </trkpt>
      <trkpt lat="46.5988" lon="5.39198">
        <ele>213.2</ele>
        <time>2022-08-12T05:23:13Z</time>
      </trkpt>
      <trkpt lat="46.59895" lon="5.39194">
        <ele>213.2</ele>
        <time>2022-08-12T05:23:15Z</time>
      </trkpt>
      <trkpt lat="46.59916" lon="5.39187">
        <ele>213</ele>
        <time>2022-08-12T05:23:18Z</time>
      </trkpt>
      <trkpt lat="46.5993" lon="5.39185">
        <ele>212.8</ele>
        <time>2022-08-12T05:23:20Z</time>
      </trkpt>
      <trkpt lat="46.59969" lon="5.39185">
        <ele>212.2</ele>
        <time>2022-08-12T05:23:25Z</time>
      </trkpt>
      <trkpt lat="46.59993" lon="5.39192">
        <ele>210.8</ele>
        <time>2022-08-12T05:23:28Z</time>
      </trkpt>
      <trkpt lat="46.60006" lon="5.392">
        <ele>210.6</ele>
        <time>2022-08-12T05:23:30Z</time>
      </trkpt>
      <trkpt lat="46.60028" lon="5.39221">
        <ele>210.2</ele>
        <time>2022-08-12T05:23:33Z</time>
      </trkpt>
      <trkpt lat="46.60033" lon="5.39229">
        <ele>210.2</ele>
        <time>2022-08-12T05:23:34Z</time>
      </trkpt>
      <trkpt lat="46.60038" lon="5.39239">
        <ele>210</ele>
        <time>2022-08-12T05:23:35Z</time>
      </trkpt>
      <trkpt lat="46.60042" lon="5.39251">
        <ele>210</ele>
        <time>2022-08-12T05:23:36Z</time>
      </trkpt>
      <trkpt lat="46.60046" lon="5.39266">
        <ele>209.8</ele>
        <time>2022-08-12T05:23:37Z</time>
      </trkpt>
      <trkpt lat="46.6005" lon="5.39292">
        <ele>209</ele>
        <time>2022-08-12T05:23:39Z</time>
      </trkpt>
      <trkpt lat="46.60051" lon="5.39322">
        <ele>207.4</ele>
        <time>2022-08-12T05:23:41Z</time>
      </trkpt>
      <trkpt lat="46.60048" lon="5.39352">
        <ele>206.4</ele>
        <time>2022-08-12T05:23:43Z</time>
      </trkpt>
      <trkpt lat="46.60046" lon="5.39367">
        <ele>206</ele>
        <time>2022-08-12T05:23:44Z</time>
      </trkpt>
      <trkpt lat="46.60043" lon="5.39384">
        <ele>205.4</ele>
        <time>2022-08-12T05:23:45Z</time>
      </trkpt>
      <trkpt lat="46.60041" lon="5.39397">
        <ele>205</ele>
        <time>2022-08-12T05:23:46Z</time>
      </trkpt>
      <trkpt lat="46.60034" lon="5.39435">
        <ele>204.2</ele>
        <time>2022-08-12T05:23:49Z</time>
      </trkpt>
      <trkpt lat="46.60033" lon="5.39445">
        <ele>204.2</ele>
        <time>2022-08-12T05:23:50Z</time>
      </trkpt>
      <trkpt lat="46.60033" lon="5.39457">
        <ele>204.2</ele>
        <time>2022-08-12T05:23:51Z</time>
      </trkpt>
      <trkpt lat="46.60036" lon="5.39483">
        <ele>204.2</ele>
        <time>2022-08-12T05:23:53Z</time>
      </trkpt>
      <trkpt lat="46.60042" lon="5.39507">
        <ele>204.2</ele>
        <time>2022-08-12T05:23:55Z</time>
      </trkpt>
      <trkpt lat="46.60067" lon="5.39561">
        <ele>204</ele>
        <time>2022-08-12T05:24:00Z</time>
      </trkpt>
      <trkpt lat="46.6008" lon="5.39587">
        <ele>203</ele>
        <time>2022-08-12T05:24:02Z</time>
      </trkpt>
      <trkpt lat="46.60087" lon="5.39613">
        <ele>201.8</ele>
        <time>2022-08-12T05:24:04Z</time>
      </trkpt>
      <trkpt lat="46.60089" lon="5.39639">
        <ele>200.8</ele>
        <time>2022-08-12T05:24:06Z</time>
      </trkpt>
      <trkpt lat="46.60087" lon="5.39657">
        <ele>200.8</ele>
        <time>2022-08-12T05:24:07Z</time>
      </trkpt>
      <trkpt lat="46.60084" lon="5.39671">
        <ele>200.4</ele>
        <time>2022-08-12T05:24:08Z</time>
      </trkpt>
      <trkpt lat="46.60075" lon="5.39694">
        <ele>199.8</ele>
        <time>2022-08-12T05:24:10Z</time>
      </trkpt>
      <trkpt lat="46.60069" lon="5.39708">
        <ele>199.2</ele>
        <time>2022-08-12T05:24:11Z</time>
      </trkpt>
      <trkpt lat="46.60065" lon="5.39721">
        <ele>198.8</ele>
        <time>2022-08-12T05:24:12Z</time>
      </trkpt>
      <trkpt lat="46.60064" lon="5.39731">
        <ele>198</ele>
        <time>2022-08-12T05:24:13Z</time>
      </trkpt>
      <trkpt lat="46.60064" lon="5.39745">
        <ele>197.6</ele>
        <time>2022-08-12T05:24:14Z</time>
      </trkpt>
      <trkpt lat="46.6007" lon="5.3977">
        <ele>197</ele>
        <time>2022-08-12T05:24:16Z</time>
      </trkpt>
      <trkpt lat="46.60083" lon="5.39805">
        <ele>195.8</ele>
        <time>2022-08-12T05:24:19Z</time>
      </trkpt>
      <trkpt lat="46.6009" lon="5.39818">
        <ele>195.6</ele>
        <time>2022-08-12T05:24:20Z</time>
      </trkpt>
      <trkpt lat="46.60119" lon="5.39848">
        <ele>195</ele>
        <time>2022-08-12T05:24:24Z</time>
      </trkpt>
      <trkpt lat="46.60147" lon="5.39872">
        <ele>194.8</ele>
        <time>2022-08-12T05:24:28Z</time>
      </trkpt>
      <trkpt lat="46.60161" lon="5.39886">
        <ele>194.6</ele>
        <time>2022-08-12T05:24:30Z</time>
      </trkpt>
      <trkpt lat="46.60172" lon="5.399">
        <ele>194.8</ele>
        <time>2022-08-12T05:24:32Z</time>
      </trkpt>
      <trkpt lat="46.60181" lon="5.3992">
        <ele>194.8</ele>
        <time>2022-08-12T05:24:34Z</time>
      </trkpt>
      <trkpt lat="46.60187" lon="5.39951">
        <ele>195.2</ele>
        <time>2022-08-12T05:24:37Z</time>
      </trkpt>
      <trkpt lat="46.60188" lon="5.39959">
        <ele>195.6</ele>
        <time>2022-08-12T05:24:38Z</time>
      </trkpt>
      <trkpt lat="46.60188" lon="5.39977">
        <ele>196</ele>
        <time>2022-08-12T05:24:40Z</time>
      </trkpt>
      <trkpt lat="46.60188" lon="5.39997">
        <ele>196.4</ele>
        <time>2022-08-12T05:24:42Z</time>
      </trkpt>
      <trkpt lat="46.60188" lon="5.40004">
        <ele>196.8</ele>
        <time>2022-08-12T05:24:43Z</time>
      </trkpt>
      <trkpt lat="46.60188" lon="5.40013">
        <ele>197.2</ele>
        <time>2022-08-12T05:24:44Z</time>
      </trkpt>
      <trkpt lat="46.60189" lon="5.40033">
        <ele>198</ele>
        <time>2022-08-12T05:24:46Z</time>
      </trkpt>
      <trkpt lat="46.60189" lon="5.4004">
        <ele>198.2</ele>
        <time>2022-08-12T05:24:47Z</time>
      </trkpt>
      <trkpt lat="46.6019" lon="5.40051">
        <ele>198.2</ele>
        <time>2022-08-12T05:24:48Z</time>
      </trkpt>
      <trkpt lat="46.6019" lon="5.40057">
        <ele>198.2</ele>
        <time>2022-08-12T05:24:49Z</time>
      </trkpt>
      <trkpt lat="46.60186" lon="5.40136">
        <ele>199.2</ele>
        <time>2022-08-12T05:24:58Z</time>
      </trkpt>
      <trkpt lat="46.60185" lon="5.40146">
        <ele>199.4</ele>
        <time>2022-08-12T05:24:59Z</time>
      </trkpt>
      <trkpt lat="46.60174" lon="5.40199">
        <ele>200.4</ele>
        <time>2022-08-12T05:25:05Z</time>
      </trkpt>
      <trkpt lat="46.60173" lon="5.40211">
        <ele>200.4</ele>
        <time>2022-08-12T05:25:06Z</time>
      </trkpt>
      <trkpt lat="46.60175" lon="5.40231">
        <ele>200.6</ele>
        <time>2022-08-12T05:25:08Z</time>
      </trkpt>
      <trkpt lat="46.60177" lon="5.40238">
        <ele>200.6</ele>
        <time>2022-08-12T05:25:09Z</time>
      </trkpt>
      <trkpt lat="46.6018" lon="5.40249">
        <ele>200.6</ele>
        <time>2022-08-12T05:25:10Z</time>
      </trkpt>
      <trkpt lat="46.60191" lon="5.40275">
        <ele>200.4</ele>
        <time>2022-08-12T05:25:13Z</time>
      </trkpt>
      <trkpt lat="46.60215" lon="5.40344">
        <ele>201</ele>
        <time>2022-08-12T05:25:21Z</time>
      </trkpt>
      <trkpt lat="46.60218" lon="5.4036">
        <ele>201</ele>
        <time>2022-08-12T05:25:23Z</time>
      </trkpt>
      <trkpt lat="46.60221" lon="5.40377">
        <ele>201.2</ele>
        <time>2022-08-12T05:25:25Z</time>
      </trkpt>
      <trkpt lat="46.60221" lon="5.4039">
        <ele>201.2</ele>
        <time>2022-08-12T05:25:26Z</time>
      </trkpt>
      <trkpt lat="46.60218" lon="5.4045">
        <ele>200.6</ele>
        <time>2022-08-12T05:25:31Z</time>
      </trkpt>
      <trkpt lat="46.60219" lon="5.40473">
        <ele>199.2</ele>
        <time>2022-08-12T05:25:33Z</time>
      </trkpt>
      <trkpt lat="46.6022" lon="5.40487">
        <ele>198.6</ele>
        <time>2022-08-12T05:25:34Z</time>
      </trkpt>
      <trkpt lat="46.60222" lon="5.40502">
        <ele>198</ele>
        <time>2022-08-12T05:25:35Z</time>
      </trkpt>
      <trkpt lat="46.60228" lon="5.40528">
        <ele>196.8</ele>
        <time>2022-08-12T05:25:37Z</time>
      </trkpt>
      <trkpt lat="46.60235" lon="5.40566">
        <ele>195.6</ele>
        <time>2022-08-12T05:25:40Z</time>
      </trkpt>
      <trkpt lat="46.60236" lon="5.40591">
        <ele>195.2</ele>
        <time>2022-08-12T05:25:42Z</time>
      </trkpt>
      <trkpt lat="46.60235" lon="5.40602">
        <ele>195</ele>
        <time>2022-08-12T05:25:43Z</time>
      </trkpt>
      <trkpt lat="46.60231" lon="5.40616">
        <ele>194.8</ele>
        <time>2022-08-12T05:25:44Z</time>
      </trkpt>
      <trkpt lat="46.60222" lon="5.40635">
        <ele>194.8</ele>
        <time>2022-08-12T05:25:46Z</time>
      </trkpt>
      <trkpt lat="46.60188" lon="5.40694">
        <ele>194.6</ele>
        <time>2022-08-12T05:25:52Z</time>
      </trkpt>
      <trkpt lat="46.60179" lon="5.40714">
        <ele>194.6</ele>
        <time>2022-08-12T05:25:54Z</time>
      </trkpt>
      <trkpt lat="46.60174" lon="5.40734">
        <ele>194.6</ele>
        <time>2022-08-12T05:25:56Z</time>
      </trkpt>
      <trkpt lat="46.60172" lon="5.4076">
        <ele>194.6</ele>
        <time>2022-08-12T05:25:58Z</time>
      </trkpt>
      <trkpt lat="46.60173" lon="5.40772">
        <ele>194.6</ele>
        <time>2022-08-12T05:25:59Z</time>
      </trkpt>
      <trkpt lat="46.60175" lon="5.40784">
        <ele>194.6</ele>
        <time>2022-08-12T05:26:00Z</time>
      </trkpt>
      <trkpt lat="46.60182" lon="5.40805">
        <ele>194.6</ele>
        <time>2022-08-12T05:26:02Z</time>
      </trkpt>
      <trkpt lat="46.60192" lon="5.40821">
        <ele>194.4</ele>
        <time>2022-08-12T05:26:04Z</time>
      </trkpt>
      <trkpt lat="46.60199" lon="5.40828">
        <ele>194.4</ele>
        <time>2022-08-12T05:26:05Z</time>
      </trkpt>
      <trkpt lat="46.60237" lon="5.40861">
        <ele>194.6</ele>
        <time>2022-08-12T05:26:11Z</time>
      </trkpt>
      <trkpt lat="46.60266" lon="5.40884">
        <ele>194.8</ele>
        <time>2022-08-12T05:26:16Z</time>
      </trkpt>
      <trkpt lat="46.60283" lon="5.40897">
        <ele>196</ele>
        <time>2022-08-12T05:26:19Z</time>
      </trkpt>
      <trkpt lat="46.60293" lon="5.40908">
        <ele>196.4</ele>
        <time>2022-08-12T05:26:21Z</time>
      </trkpt>
      <trkpt lat="46.60297" lon="5.40914">
        <ele>196.8</ele>
        <time>2022-08-12T05:26:22Z</time>
      </trkpt>
      <trkpt lat="46.60301" lon="5.40921">
        <ele>197</ele>
        <time>2022-08-12T05:26:23Z</time>
      </trkpt>
      <trkpt lat="46.60314" lon="5.40949">
        <ele>197.6</ele>
        <time>2022-08-12T05:26:27Z</time>
      </trkpt>
      <trkpt lat="46.60321" lon="5.40961">
        <ele>198</ele>
        <time>2022-08-12T05:26:29Z</time>
      </trkpt>
      <trkpt lat="46.6033" lon="5.40978">
        <ele>199.2</ele>
        <time>2022-08-12T05:26:32Z</time>
      </trkpt>
      <trkpt lat="46.60334" lon="5.40983">
        <ele>200.2</ele>
        <time>2022-08-12T05:26:33Z</time>
      </trkpt>
      <trkpt lat="46.60337" lon="5.40988">
        <ele>200.8</ele>
        <time>2022-08-12T05:26:34Z</time>
      </trkpt>
      <trkpt lat="46.6034" lon="5.40991">
        <ele>201.2</ele>
        <time>2022-08-12T05:26:35Z</time>
      </trkpt>
      <trkpt lat="46.60347" lon="5.40999">
        <ele>202</ele>
        <time>2022-08-12T05:26:37Z</time>
      </trkpt>
      <trkpt lat="46.6035" lon="5.41002">
        <ele>202.4</ele>
        <time>2022-08-12T05:26:38Z</time>
      </trkpt>
      <trkpt lat="46.60359" lon="5.41007">
        <ele>203.2</ele>
        <time>2022-08-12T05:26:40Z</time>
      </trkpt>
      <trkpt lat="46.60372" lon="5.41015">
        <ele>204.2</ele>
        <time>2022-08-12T05:26:43Z</time>
      </trkpt>
      <trkpt lat="46.60376" lon="5.41017">
        <ele>204.4</ele>
        <time>2022-08-12T05:26:44Z</time>
      </trkpt>
      <trkpt lat="46.60379" lon="5.4102">
        <ele>204.8</ele>
        <time>2022-08-12T05:26:45Z</time>
      </trkpt>
      <trkpt lat="46.6039" lon="5.41031">
        <ele>205</ele>
        <time>2022-08-12T05:26:48Z</time>
      </trkpt>
      <trkpt lat="46.60393" lon="5.41036">
        <ele>205.8</ele>
        <time>2022-08-12T05:26:49Z</time>
      </trkpt>
      <trkpt lat="46.60399" lon="5.41045">
        <ele>206.4</ele>
        <time>2022-08-12T05:26:51Z</time>
      </trkpt>
      <trkpt lat="46.60402" lon="5.41051">
        <ele>206.4</ele>
        <time>2022-08-12T05:26:52Z</time>
      </trkpt>
      <trkpt lat="46.60407" lon="5.41062">
        <ele>206.8</ele>
        <time>2022-08-12T05:26:54Z</time>
      </trkpt>
      <trkpt lat="46.60409" lon="5.41068">
        <ele>206.8</ele>
        <time>2022-08-12T05:26:55Z</time>
      </trkpt>
      <trkpt lat="46.60411" lon="5.41075">
        <ele>207.2</ele>
        <time>2022-08-12T05:26:56Z</time>
      </trkpt>
      <trkpt lat="46.60419" lon="5.41095">
        <ele>207.4</ele>
        <time>2022-08-12T05:26:59Z</time>
      </trkpt>
      <trkpt lat="46.60426" lon="5.41109">
        <ele>207.4</ele>
        <time>2022-08-12T05:27:01Z</time>
      </trkpt>
      <trkpt lat="46.60435" lon="5.41119">
        <ele>207.4</ele>
        <time>2022-08-12T05:27:03Z</time>
      </trkpt>
      <trkpt lat="46.60447" lon="5.41129">
        <ele>207.2</ele>
        <time>2022-08-12T05:27:05Z</time>
      </trkpt>
      <trkpt lat="46.6046" lon="5.41134">
        <ele>206.8</ele>
        <time>2022-08-12T05:27:07Z</time>
      </trkpt>
      <trkpt lat="46.60481" lon="5.41138">
        <ele>206</ele>
        <time>2022-08-12T05:27:10Z</time>
      </trkpt>
      <trkpt lat="46.60511" lon="5.4114">
        <ele>205.6</ele>
        <time>2022-08-12T05:27:14Z</time>
      </trkpt>
      <trkpt lat="46.60537" lon="5.41142">
        <ele>204</ele>
        <time>2022-08-12T05:27:17Z</time>
      </trkpt>
      <trkpt lat="46.60562" lon="5.41146">
        <ele>203</ele>
        <time>2022-08-12T05:27:20Z</time>
      </trkpt>
      <trkpt lat="46.60611" lon="5.41158">
        <ele>201.4</ele>
        <time>2022-08-12T05:27:26Z</time>
      </trkpt>
      <trkpt lat="46.60619" lon="5.41161">
        <ele>201</ele>
        <time>2022-08-12T05:27:27Z</time>
      </trkpt>
      <trkpt lat="46.60643" lon="5.41169">
        <ele>200.4</ele>
        <time>2022-08-12T05:27:30Z</time>
      </trkpt>
      <trkpt lat="46.60676" lon="5.41182">
        <ele>199.2</ele>
        <time>2022-08-12T05:27:34Z</time>
      </trkpt>
      <trkpt lat="46.60683" lon="5.41186">
        <ele>199</ele>
        <time>2022-08-12T05:27:35Z</time>
      </trkpt>
      <trkpt lat="46.60709" lon="5.41213">
        <ele>198.2</ele>
        <time>2022-08-12T05:27:39Z</time>
      </trkpt>
      <trkpt lat="46.60715" lon="5.4122">
        <ele>198.2</ele>
        <time>2022-08-12T05:27:40Z</time>
      </trkpt>
      <trkpt lat="46.60742" lon="5.41256">
        <ele>198.4</ele>
        <time>2022-08-12T05:27:45Z</time>
      </trkpt>
      <trkpt lat="46.60775" lon="5.41291">
        <ele>199.2</ele>
        <time>2022-08-12T05:27:51Z</time>
      </trkpt>
      <trkpt lat="46.60811" lon="5.41324">
        <ele>199</ele>
        <time>2022-08-12T05:27:56Z</time>
      </trkpt>
      <trkpt lat="46.60827" lon="5.41332">
        <ele>198.6</ele>
        <time>2022-08-12T05:27:58Z</time>
      </trkpt>
      <trkpt lat="46.60836" lon="5.41334">
        <ele>197.6</ele>
        <time>2022-08-12T05:27:59Z</time>
      </trkpt>
      <trkpt lat="46.60843" lon="5.41334">
        <ele>197.2</ele>
        <time>2022-08-12T05:28:00Z</time>
      </trkpt>
      <trkpt lat="46.60856" lon="5.41327">
        <ele>196.2</ele>
        <time>2022-08-12T05:28:02Z</time>
      </trkpt>
      <trkpt lat="46.60861" lon="5.41323">
        <ele>195.8</ele>
        <time>2022-08-12T05:28:03Z</time>
      </trkpt>
      <trkpt lat="46.60869" lon="5.41315">
        <ele>195.6</ele>
        <time>2022-08-12T05:28:04Z</time>
      </trkpt>
      <trkpt lat="46.6088" lon="5.413">
        <ele>195</ele>
        <time>2022-08-12T05:28:06Z</time>
      </trkpt>
      <trkpt lat="46.60892" lon="5.41284">
        <ele>194.6</ele>
        <time>2022-08-12T05:28:08Z</time>
      </trkpt>
      <trkpt lat="46.60928" lon="5.41239">
        <ele>193.6</ele>
        <time>2022-08-12T05:28:14Z</time>
      </trkpt>
      <trkpt lat="46.60934" lon="5.41232">
        <ele>193.4</ele>
        <time>2022-08-12T05:28:15Z</time>
      </trkpt>
      <trkpt lat="46.60974" lon="5.41194">
        <ele>193.2</ele>
        <time>2022-08-12T05:28:21Z</time>
      </trkpt>
      <trkpt lat="46.61008" lon="5.41165">
        <ele>192.6</ele>
        <time>2022-08-12T05:28:26Z</time>
      </trkpt>
      <trkpt lat="46.61022" lon="5.41157">
        <ele>192.4</ele>
        <time>2022-08-12T05:28:28Z</time>
      </trkpt>
      <trkpt lat="46.61029" lon="5.41154">
        <ele>192.4</ele>
        <time>2022-08-12T05:28:29Z</time>
      </trkpt>
      <trkpt lat="46.61042" lon="5.41154">
        <ele>192.4</ele>
        <time>2022-08-12T05:28:31Z</time>
      </trkpt>
      <trkpt lat="46.61051" lon="5.41167">
        <ele>192.2</ele>
        <time>2022-08-12T05:28:33Z</time>
      </trkpt>
      <trkpt lat="46.61061" lon="5.41208">
        <ele>192.2</ele>
        <time>2022-08-12T05:28:37Z</time>
      </trkpt>
      <trkpt lat="46.61083" lon="5.41265">
        <ele>191.8</ele>
        <time>2022-08-12T05:28:43Z</time>
      </trkpt>
      <trkpt lat="46.61105" lon="5.41307">
        <ele>191.8</ele>
        <time>2022-08-12T05:28:48Z</time>
      </trkpt>
      <trkpt lat="46.61108" lon="5.41317">
        <ele>192</ele>
        <time>2022-08-12T05:28:49Z</time>
      </trkpt>
      <trkpt lat="46.6111" lon="5.41327">
        <ele>192</ele>
        <time>2022-08-12T05:28:50Z</time>
      </trkpt>
      <trkpt lat="46.61115" lon="5.4137">
        <ele>192.4</ele>
        <time>2022-08-12T05:28:54Z</time>
      </trkpt>
      <trkpt lat="46.61123" lon="5.41434">
        <ele>192.4</ele>
        <time>2022-08-12T05:29:00Z</time>
      </trkpt>
      <trkpt lat="46.61141" lon="5.41492">
        <ele>192.4</ele>
        <time>2022-08-12T05:29:06Z</time>
      </trkpt>
      <trkpt lat="46.61168" lon="5.41541">
        <ele>192.2</ele>
        <time>2022-08-12T05:29:12Z</time>
      </trkpt>
      <trkpt lat="46.61204" lon="5.41596">
        <ele>192.4</ele>
        <time>2022-08-12T05:29:19Z</time>
      </trkpt>
      <trkpt lat="46.6123" lon="5.41646">
        <ele>192.6</ele>
        <time>2022-08-12T05:29:25Z</time>
      </trkpt>
      <trkpt lat="46.61264" lon="5.41712">
        <ele>193</ele>
        <time>2022-08-12T05:29:33Z</time>
      </trkpt>
      <trkpt lat="46.61274" lon="5.41727">
        <ele>193</ele>
        <time>2022-08-12T05:29:35Z</time>
      </trkpt>
      <trkpt lat="46.61314" lon="5.41784">
        <ele>193</ele>
        <time>2022-08-12T05:29:43Z</time>
      </trkpt>
      <trkpt lat="46.61354" lon="5.41838">
        <ele>193.2</ele>
        <time>2022-08-12T05:29:51Z</time>
      </trkpt>
      <trkpt lat="46.61359" lon="5.41844">
        <ele>193.2</ele>
        <time>2022-08-12T05:29:52Z</time>
      </trkpt>
      <trkpt lat="46.6138" lon="5.41867">
        <ele>193.4</ele>
        <time>2022-08-12T05:29:56Z</time>
      </trkpt>
      <trkpt lat="46.61395" lon="5.41884">
        <ele>193.4</ele>
        <time>2022-08-12T05:29:59Z</time>
      </trkpt>
      <trkpt lat="46.61405" lon="5.41898">
        <ele>193.6</ele>
        <time>2022-08-12T05:30:01Z</time>
      </trkpt>
      <trkpt lat="46.61417" lon="5.41922">
        <ele>193.6</ele>
        <time>2022-08-12T05:30:04Z</time>
      </trkpt>
      <trkpt lat="46.61448" lon="5.41987">
        <ele>193.8</ele>
        <time>2022-08-12T05:30:12Z</time>
      </trkpt>
      <trkpt lat="46.61455" lon="5.42004">
        <ele>193.8</ele>
        <time>2022-08-12T05:30:14Z</time>
      </trkpt>
      <trkpt lat="46.61462" lon="5.4202">
        <ele>193.6</ele>
        <time>2022-08-12T05:30:16Z</time>
      </trkpt>
      <trkpt lat="46.61484" lon="5.42057">
        <ele>193.4</ele>
        <time>2022-08-12T05:30:21Z</time>
      </trkpt>
      <trkpt lat="46.61499" lon="5.42076">
        <ele>193.4</ele>
        <time>2022-08-12T05:30:24Z</time>
      </trkpt>
      <trkpt lat="46.61507" lon="5.42092">
        <ele>193.4</ele>
        <time>2022-08-12T05:30:26Z</time>
      </trkpt>
      <trkpt lat="46.61531" lon="5.42162">
        <ele>193.8</ele>
        <time>2022-08-12T05:30:34Z</time>
      </trkpt>
      <trkpt lat="46.6155" lon="5.42236">
        <ele>193.2</ele>
        <time>2022-08-12T05:30:42Z</time>
      </trkpt>
      <trkpt lat="46.61563" lon="5.42315">
        <ele>193.2</ele>
        <time>2022-08-12T05:30:50Z</time>
      </trkpt>
      <trkpt lat="46.61564" lon="5.42325">
        <ele>193.4</ele>
        <time>2022-08-12T05:30:51Z</time>
      </trkpt>
      <trkpt lat="46.61574" lon="5.42411">
        <ele>193.6</ele>
        <time>2022-08-12T05:31:00Z</time>
      </trkpt>
      <trkpt lat="46.61591" lon="5.42462">
        <ele>194.4</ele>
        <time>2022-08-12T05:31:06Z</time>
      </trkpt>
      <trkpt lat="46.6161" lon="5.42506">
        <ele>194.6</ele>
        <time>2022-08-12T05:31:12Z</time>
      </trkpt>
      <trkpt lat="46.61614" lon="5.42511">
        <ele>194.6</ele>
        <time>2022-08-12T05:31:13Z</time>
      </trkpt>
      <trkpt lat="46.61624" lon="5.42521">
        <ele>194.8</ele>
        <time>2022-08-12T05:31:15Z</time>
      </trkpt>
      <trkpt lat="46.6164" lon="5.42531">
        <ele>195</ele>
        <time>2022-08-12T05:31:18Z</time>
      </trkpt>
      <trkpt lat="46.6165" lon="5.42538">
        <ele>195.4</ele>
        <time>2022-08-12T05:31:20Z</time>
      </trkpt>
      <trkpt lat="46.61673" lon="5.42555">
        <ele>196.6</ele>
        <time>2022-08-12T05:31:25Z</time>
      </trkpt>
      <trkpt lat="46.61677" lon="5.42558">
        <ele>196.8</ele>
        <time>2022-08-12T05:31:26Z</time>
      </trkpt>
      <trkpt lat="46.61685" lon="5.42565">
        <ele>197.6</ele>
        <time>2022-08-12T05:31:28Z</time>
      </trkpt>
      <trkpt lat="46.61697" lon="5.42577">
        <ele>198.4</ele>
        <time>2022-08-12T05:31:31Z</time>
      </trkpt>
      <trkpt lat="46.61701" lon="5.42581">
        <ele>198.8</ele>
        <time>2022-08-12T05:31:32Z</time>
      </trkpt>
      <trkpt lat="46.61725" lon="5.42607">
        <ele>200</ele>
        <time>2022-08-12T05:31:38Z</time>
      </trkpt>
      <trkpt lat="46.61733" lon="5.42624">
        <ele>200.4</ele>
        <time>2022-08-12T05:31:41Z</time>
      </trkpt>
      <trkpt lat="46.61735" lon="5.42631">
        <ele>200.6</ele>
        <time>2022-08-12T05:31:42Z</time>
      </trkpt>
      <trkpt lat="46.61736" lon="5.42638">
        <ele>200.8</ele>
        <time>2022-08-12T05:31:43Z</time>
      </trkpt>
      <trkpt lat="46.61734" lon="5.42651">
        <ele>200.8</ele>
        <time>2022-08-12T05:31:45Z</time>
      </trkpt>
      <trkpt lat="46.61725" lon="5.42658">
        <ele>201</ele>
        <time>2022-08-12T05:31:47Z</time>
      </trkpt>
      <trkpt lat="46.6172" lon="5.42658">
        <ele>201</ele>
        <time>2022-08-12T05:31:48Z</time>
      </trkpt>
      <trkpt lat="46.61698" lon="5.42658">
        <ele>200.8</ele>
        <time>2022-08-12T05:31:51Z</time>
      </trkpt>
      <trkpt lat="46.61691" lon="5.4266">
        <ele>200.6</ele>
        <time>2022-08-12T05:31:52Z</time>
      </trkpt>
      <trkpt lat="46.61677" lon="5.42668">
        <ele>200</ele>
        <time>2022-08-12T05:31:54Z</time>
      </trkpt>
      <trkpt lat="46.6167" lon="5.42674">
        <ele>199.8</ele>
        <time>2022-08-12T05:31:55Z</time>
      </trkpt>
      <trkpt lat="46.61649" lon="5.42694">
        <ele>198.8</ele>
        <time>2022-08-12T05:31:58Z</time>
      </trkpt>
      <trkpt lat="46.61634" lon="5.42707">
        <ele>198</ele>
        <time>2022-08-12T05:32:00Z</time>
      </trkpt>
      <trkpt lat="46.61626" lon="5.42714">
        <ele>197.4</ele>
        <time>2022-08-12T05:32:01Z</time>
      </trkpt>
      <trkpt lat="46.6161" lon="5.42727">
        <ele>196.4</ele>
        <time>2022-08-12T05:32:03Z</time>
      </trkpt>
      <trkpt lat="46.61594" lon="5.42741">
        <ele>195.4</ele>
        <time>2022-08-12T05:32:05Z</time>
      </trkpt>
      <trkpt lat="46.61579" lon="5.42755">
        <ele>194.6</ele>
        <time>2022-08-12T05:32:07Z</time>
      </trkpt>
      <trkpt lat="46.6155" lon="5.42778">
        <ele>194.2</ele>
        <time>2022-08-12T05:32:11Z</time>
      </trkpt>
      <trkpt lat="46.61543" lon="5.42783">
        <ele>194</ele>
        <time>2022-08-12T05:32:12Z</time>
      </trkpt>
      <trkpt lat="46.61494" lon="5.4282">
        <ele>193.8</ele>
        <time>2022-08-12T05:32:19Z</time>
      </trkpt>
      <trkpt lat="46.61487" lon="5.42825">
        <ele>193.8</ele>
        <time>2022-08-12T05:32:20Z</time>
      </trkpt>
      <trkpt lat="46.61444" lon="5.42866">
        <ele>194</ele>
        <time>2022-08-12T05:32:27Z</time>
      </trkpt>
      <trkpt lat="46.61411" lon="5.42906">
        <ele>194</ele>
        <time>2022-08-12T05:32:33Z</time>
      </trkpt>
      <trkpt lat="46.61379" lon="5.42954">
        <ele>194.2</ele>
        <time>2022-08-12T05:32:40Z</time>
      </trkpt>
      <trkpt lat="46.61356" lon="5.42981">
        <ele>195.4</ele>
        <time>2022-08-12T05:32:45Z</time>
      </trkpt>
      <trkpt lat="46.61349" lon="5.42991">
        <ele>196</ele>
        <time>2022-08-12T05:32:47Z</time>
      </trkpt>
      <trkpt lat="46.61342" lon="5.43001">
        <ele>196.6</ele>
        <time>2022-08-12T05:32:49Z</time>
      </trkpt>
      <trkpt lat="46.6134" lon="5.43007">
        <ele>196.8</ele>
        <time>2022-08-12T05:32:50Z</time>
      </trkpt>
      <trkpt lat="46.61338" lon="5.43013">
        <ele>197.2</ele>
        <time>2022-08-12T05:32:51Z</time>
      </trkpt>
      <trkpt lat="46.61337" lon="5.4302">
        <ele>197.8</ele>
        <time>2022-08-12T05:32:52Z</time>
      </trkpt>
      <trkpt lat="46.61339" lon="5.43034">
        <ele>198.6</ele>
        <time>2022-08-12T05:32:54Z</time>
      </trkpt>
      <trkpt lat="46.61343" lon="5.43047">
        <ele>199.2</ele>
        <time>2022-08-12T05:32:56Z</time>
      </trkpt>
      <trkpt lat="46.61349" lon="5.43059">
        <ele>199.6</ele>
        <time>2022-08-12T05:32:58Z</time>
      </trkpt>
      <trkpt lat="46.61361" lon="5.43076">
        <ele>200.2</ele>
        <time>2022-08-12T05:33:01Z</time>
      </trkpt>
      <trkpt lat="46.61375" lon="5.43091">
        <ele>200.4</ele>
        <time>2022-08-12T05:33:04Z</time>
      </trkpt>
      <trkpt lat="46.61391" lon="5.43111">
        <ele>200</ele>
        <time>2022-08-12T05:33:07Z</time>
      </trkpt>
      <trkpt lat="46.61396" lon="5.43119">
        <ele>199.8</ele>
        <time>2022-08-12T05:33:08Z</time>
      </trkpt>
      <trkpt lat="46.6142" lon="5.43175">
        <ele>198.8</ele>
        <time>2022-08-12T05:33:14Z</time>
      </trkpt>
      <trkpt lat="46.61422" lon="5.43186">
        <ele>198.4</ele>
        <time>2022-08-12T05:33:15Z</time>
      </trkpt>
      <trkpt lat="46.61423" lon="5.43208">
        <ele>198.4</ele>
        <time>2022-08-12T05:33:17Z</time>
      </trkpt>
      <trkpt lat="46.61418" lon="5.43228">
        <ele>198.2</ele>
        <time>2022-08-12T05:33:19Z</time>
      </trkpt>
      <trkpt lat="46.61414" lon="5.43235">
        <ele>198.2</ele>
        <time>2022-08-12T05:33:20Z</time>
      </trkpt>
      <trkpt lat="46.61387" lon="5.43283">
        <ele>198</ele>
        <time>2022-08-12T05:33:26Z</time>
      </trkpt>
      <trkpt lat="46.61374" lon="5.43309">
        <ele>197.8</ele>
        <time>2022-08-12T05:33:29Z</time>
      </trkpt>
      <trkpt lat="46.61364" lon="5.43335">
        <ele>197.8</ele>
        <time>2022-08-12T05:33:32Z</time>
      </trkpt>
      <trkpt lat="46.61354" lon="5.43372">
        <ele>198</ele>
        <time>2022-08-12T05:33:36Z</time>
      </trkpt>
      <trkpt lat="46.61353" lon="5.43382">
        <ele>198</ele>
        <time>2022-08-12T05:33:37Z</time>
      </trkpt>
      <trkpt lat="46.61352" lon="5.43401">
        <ele>198.2</ele>
        <time>2022-08-12T05:33:39Z</time>
      </trkpt>
      <trkpt lat="46.61355" lon="5.43429">
        <ele>198.4</ele>
        <time>2022-08-12T05:33:42Z</time>
      </trkpt>
      <trkpt lat="46.61357" lon="5.43466">
        <ele>198.8</ele>
        <time>2022-08-12T05:33:46Z</time>
      </trkpt>
      <trkpt lat="46.61356" lon="5.43495">
        <ele>198.8</ele>
        <time>2022-08-12T05:33:49Z</time>
      </trkpt>
      <trkpt lat="46.6135" lon="5.43574">
        <ele>199.2</ele>
        <time>2022-08-12T05:33:57Z</time>
      </trkpt>
      <trkpt lat="46.61348" lon="5.4364">
        <ele>199.4</ele>
        <time>2022-08-12T05:34:04Z</time>
      </trkpt>
      <trkpt lat="46.61348" lon="5.43726">
        <ele>199.6</ele>
        <time>2022-08-12T05:34:13Z</time>
      </trkpt>
      <trkpt lat="46.61349" lon="5.43736">
        <ele>199.8</ele>
        <time>2022-08-12T05:34:14Z</time>
      </trkpt>
      <trkpt lat="46.61355" lon="5.43808">
        <ele>200.4</ele>
        <time>2022-08-12T05:34:22Z</time>
      </trkpt>
      <trkpt lat="46.61364" lon="5.4385">
        <ele>200.8</ele>
        <time>2022-08-12T05:34:27Z</time>
      </trkpt>
      <trkpt lat="46.61366" lon="5.43858">
        <ele>201</ele>
        <time>2022-08-12T05:34:28Z</time>
      </trkpt>
      <trkpt lat="46.61374" lon="5.43896">
        <ele>202</ele>
        <time>2022-08-12T05:34:33Z</time>
      </trkpt>
      <trkpt lat="46.61377" lon="5.43912">
        <ele>202.6</ele>
        <time>2022-08-12T05:34:35Z</time>
      </trkpt>
      <trkpt lat="46.61382" lon="5.43955">
        <ele>203</ele>
        <time>2022-08-12T05:34:40Z</time>
      </trkpt>
      <trkpt lat="46.61386" lon="5.43981">
        <ele>203.2</ele>
        <time>2022-08-12T05:34:43Z</time>
      </trkpt>
      <trkpt lat="46.61388" lon="5.44041">
        <ele>203.2</ele>
        <time>2022-08-12T05:34:49Z</time>
      </trkpt>
      <trkpt lat="46.61379" lon="5.4411">
        <ele>202.8</ele>
        <time>2022-08-12T05:34:56Z</time>
      </trkpt>
      <trkpt lat="46.61363" lon="5.44154">
        <ele>202.6</ele>
        <time>2022-08-12T05:35:01Z</time>
      </trkpt>
      <trkpt lat="46.61338" lon="5.44207">
        <ele>203</ele>
        <time>2022-08-12T05:35:08Z</time>
      </trkpt>
      <trkpt lat="46.61325" lon="5.44256">
        <ele>203</ele>
        <time>2022-08-12T05:35:13Z</time>
      </trkpt>
      <trkpt lat="46.61318" lon="5.44325">
        <ele>202.6</ele>
        <time>2022-08-12T05:35:20Z</time>
      </trkpt>
      <trkpt lat="46.61306" lon="5.44398">
        <ele>203.2</ele>
        <time>2022-08-12T05:35:28Z</time>
      </trkpt>
      <trkpt lat="46.6129" lon="5.44476">
        <ele>204</ele>
        <time>2022-08-12T05:35:37Z</time>
      </trkpt>
      <trkpt lat="46.61274" lon="5.44549">
        <ele>204.8</ele>
        <time>2022-08-12T05:35:46Z</time>
      </trkpt>
      <trkpt lat="46.61272" lon="5.44557">
        <ele>205.2</ele>
        <time>2022-08-12T05:35:47Z</time>
      </trkpt>
      <trkpt lat="46.61264" lon="5.44594">
        <ele>206.4</ele>
        <time>2022-08-12T05:35:52Z</time>
      </trkpt>
      <trkpt lat="46.61258" lon="5.44617">
        <ele>207</ele>
        <time>2022-08-12T05:35:55Z</time>
      </trkpt>
      <trkpt lat="46.61255" lon="5.44631">
        <ele>207.4</ele>
        <time>2022-08-12T05:35:57Z</time>
      </trkpt>
      <trkpt lat="46.61248" lon="5.44672">
        <ele>208.6</ele>
        <time>2022-08-12T05:36:03Z</time>
      </trkpt>
      <trkpt lat="46.61245" lon="5.4469">
        <ele>209.4</ele>
        <time>2022-08-12T05:36:06Z</time>
      </trkpt>
      <trkpt lat="46.61243" lon="5.44698">
        <ele>209.6</ele>
        <time>2022-08-12T05:36:07Z</time>
      </trkpt>
      <trkpt lat="46.61241" lon="5.4471">
        <ele>210.8</ele>
        <time>2022-08-12T05:36:09Z</time>
      </trkpt>
      <trkpt lat="46.61238" lon="5.4473">
        <ele>211.8</ele>
        <time>2022-08-12T05:36:12Z</time>
      </trkpt>
      <trkpt lat="46.61235" lon="5.44757">
        <ele>213</ele>
        <time>2022-08-12T05:36:16Z</time>
      </trkpt>
      <trkpt lat="46.61234" lon="5.44764">
        <ele>213.2</ele>
        <time>2022-08-12T05:36:17Z</time>
      </trkpt>
      <trkpt lat="46.6123" lon="5.44789">
        <ele>214</ele>
        <time>2022-08-12T05:36:21Z</time>
      </trkpt>
      <trkpt lat="46.61227" lon="5.44802">
        <ele>214.2</ele>
        <time>2022-08-12T05:36:23Z</time>
      </trkpt>
      <trkpt lat="46.61223" lon="5.44816">
        <ele>214.8</ele>
        <time>2022-08-12T05:36:25Z</time>
      </trkpt>
      <trkpt lat="46.61219" lon="5.44831">
        <ele>215</ele>
        <time>2022-08-12T05:36:27Z</time>
      </trkpt>
      <trkpt lat="46.61211" lon="5.44852">
        <ele>215.6</ele>
        <time>2022-08-12T05:36:30Z</time>
      </trkpt>
      <trkpt lat="46.61205" lon="5.44865">
        <ele>215.8</ele>
        <time>2022-08-12T05:36:32Z</time>
      </trkpt>
      <trkpt lat="46.61194" lon="5.44882">
        <ele>216.2</ele>
        <time>2022-08-12T05:36:35Z</time>
      </trkpt>
      <trkpt lat="46.6119" lon="5.44886">
        <ele>216.2</ele>
        <time>2022-08-12T05:36:36Z</time>
      </trkpt>
      <trkpt lat="46.61147" lon="5.44925">
        <ele>217.2</ele>
        <time>2022-08-12T05:36:45Z</time>
      </trkpt>
      <trkpt lat="46.61143" lon="5.44929">
        <ele>217.2</ele>
        <time>2022-08-12T05:36:46Z</time>
      </trkpt>
      <trkpt lat="46.61125" lon="5.4495">
        <ele>217.2</ele>
        <time>2022-08-12T05:36:50Z</time>
      </trkpt>
      <trkpt lat="46.61121" lon="5.44957">
        <ele>217.2</ele>
        <time>2022-08-12T05:36:51Z</time>
      </trkpt>
      <trkpt lat="46.61115" lon="5.4497">
        <ele>217.4</ele>
        <time>2022-08-12T05:36:53Z</time>
      </trkpt>
      <trkpt lat="46.61109" lon="5.44993">
        <ele>217.4</ele>
        <time>2022-08-12T05:36:56Z</time>
      </trkpt>
      <trkpt lat="46.61101" lon="5.4505">
        <ele>218.2</ele>
        <time>2022-08-12T05:37:03Z</time>
      </trkpt>
      <trkpt lat="46.61094" lon="5.4513">
        <ele>219</ele>
        <time>2022-08-12T05:37:13Z</time>
      </trkpt>
      <trkpt lat="46.61093" lon="5.45138">
        <ele>219.4</ele>
        <time>2022-08-12T05:37:14Z</time>
      </trkpt>
      <trkpt lat="46.61084" lon="5.45194">
        <ele>220</ele>
        <time>2022-08-12T05:37:21Z</time>
      </trkpt>
      <trkpt lat="46.61065" lon="5.45267">
        <ele>220</ele>
        <time>2022-08-12T05:37:29Z</time>
      </trkpt>
      <trkpt lat="46.61048" lon="5.45345">
        <ele>220.4</ele>
        <time>2022-08-12T05:37:38Z</time>
      </trkpt>
      <trkpt lat="46.61045" lon="5.4538">
        <ele>220.4</ele>
        <time>2022-08-12T05:37:42Z</time>
      </trkpt>
      <trkpt lat="46.61042" lon="5.45415">
        <ele>220.6</ele>
        <time>2022-08-12T05:37:46Z</time>
      </trkpt>
      <trkpt lat="46.61037" lon="5.45476">
        <ele>221.4</ele>
        <time>2022-08-12T05:37:53Z</time>
      </trkpt>
      <trkpt lat="46.61036" lon="5.45485">
        <ele>221.4</ele>
        <time>2022-08-12T05:37:54Z</time>
      </trkpt>
      <trkpt lat="46.61037" lon="5.45495">
        <ele>221.4</ele>
        <time>2022-08-12T05:37:55Z</time>
      </trkpt>
      <trkpt lat="46.61034" lon="5.45549">
        <ele>221.8</ele>
        <time>2022-08-12T05:38:01Z</time>
      </trkpt>
      <trkpt lat="46.61018" lon="5.45629">
        <ele>222.2</ele>
        <time>2022-08-12T05:38:10Z</time>
      </trkpt>
      <trkpt lat="46.61013" lon="5.45648">
        <ele>222.2</ele>
        <time>2022-08-12T05:38:12Z</time>
      </trkpt>
      <trkpt lat="46.60994" lon="5.45728">
        <ele>222.6</ele>
        <time>2022-08-12T05:38:21Z</time>
      </trkpt>
      <trkpt lat="46.60993" lon="5.45735">
        <ele>222.6</ele>
        <time>2022-08-12T05:38:22Z</time>
      </trkpt>
      <trkpt lat="46.60973" lon="5.45808">
        <ele>222.8</ele>
        <time>2022-08-12T05:38:30Z</time>
      </trkpt>
      <trkpt lat="46.6097" lon="5.45817">
        <ele>222.8</ele>
        <time>2022-08-12T05:38:31Z</time>
      </trkpt>
      <trkpt lat="46.6095" lon="5.45891">
        <ele>222.8</ele>
        <time>2022-08-12T05:38:39Z</time>
      </trkpt>
      <trkpt lat="46.60938" lon="5.45975">
        <ele>221.8</ele>
        <time>2022-08-12T05:38:47Z</time>
      </trkpt>
      <trkpt lat="46.60937" lon="5.45986">
        <ele>221.8</ele>
        <time>2022-08-12T05:38:48Z</time>
      </trkpt>
      <trkpt lat="46.60935" lon="5.45996">
        <ele>221.6</ele>
        <time>2022-08-12T05:38:49Z</time>
      </trkpt>
      <trkpt lat="46.60929" lon="5.46017">
        <ele>221.6</ele>
        <time>2022-08-12T05:38:51Z</time>
      </trkpt>
      <trkpt lat="46.60926" lon="5.46027">
        <ele>221.4</ele>
        <time>2022-08-12T05:38:52Z</time>
      </trkpt>
      <trkpt lat="46.60918" lon="5.46043">
        <ele>221.4</ele>
        <time>2022-08-12T05:38:54Z</time>
      </trkpt>
      <trkpt lat="46.60901" lon="5.46069">
        <ele>221.2</ele>
        <time>2022-08-12T05:38:57Z</time>
      </trkpt>
      <trkpt lat="46.60867" lon="5.4612">
        <ele>220.4</ele>
        <time>2022-08-12T05:39:03Z</time>
      </trkpt>
      <trkpt lat="46.60843" lon="5.46153">
        <ele>219.4</ele>
        <time>2022-08-12T05:39:07Z</time>
      </trkpt>
      <trkpt lat="46.60835" lon="5.46163">
        <ele>219</ele>
        <time>2022-08-12T05:39:08Z</time>
      </trkpt>
      <trkpt lat="46.60813" lon="5.46187">
        <ele>218</ele>
        <time>2022-08-12T05:39:11Z</time>
      </trkpt>
      <trkpt lat="46.60798" lon="5.46203">
        <ele>217</ele>
        <time>2022-08-12T05:39:13Z</time>
      </trkpt>
      <trkpt lat="46.6079" lon="5.46211">
        <ele>216.8</ele>
        <time>2022-08-12T05:39:14Z</time>
      </trkpt>
      <trkpt lat="46.60768" lon="5.46235">
        <ele>215.6</ele>
        <time>2022-08-12T05:39:17Z</time>
      </trkpt>
      <trkpt lat="46.60738" lon="5.46271">
        <ele>214.4</ele>
        <time>2022-08-12T05:39:21Z</time>
      </trkpt>
      <trkpt lat="46.60716" lon="5.46299">
        <ele>212.8</ele>
        <time>2022-08-12T05:39:24Z</time>
      </trkpt>
      <trkpt lat="46.607" lon="5.46316">
        <ele>211.6</ele>
        <time>2022-08-12T05:39:26Z</time>
      </trkpt>
      <trkpt lat="46.60691" lon="5.46324">
        <ele>211.2</ele>
        <time>2022-08-12T05:39:27Z</time>
      </trkpt>
      <trkpt lat="46.60682" lon="5.46332">
        <ele>210.6</ele>
        <time>2022-08-12T05:39:28Z</time>
      </trkpt>
      <trkpt lat="46.60657" lon="5.46356">
        <ele>209</ele>
        <time>2022-08-12T05:39:31Z</time>
      </trkpt>
      <trkpt lat="46.60643" lon="5.46376">
        <ele>208.4</ele>
        <time>2022-08-12T05:39:33Z</time>
      </trkpt>
      <trkpt lat="46.60631" lon="5.46397">
        <ele>207.6</ele>
        <time>2022-08-12T05:39:35Z</time>
      </trkpt>
      <trkpt lat="46.60615" lon="5.46431">
        <ele>206.8</ele>
        <time>2022-08-12T05:39:38Z</time>
      </trkpt>
      <trkpt lat="46.60609" lon="5.46442">
        <ele>206.6</ele>
        <time>2022-08-12T05:39:39Z</time>
      </trkpt>
      <trkpt lat="46.60597" lon="5.46462">
        <ele>206.4</ele>
        <time>2022-08-12T05:39:41Z</time>
      </trkpt>
      <trkpt lat="46.60591" lon="5.4647">
        <ele>206.2</ele>
        <time>2022-08-12T05:39:42Z</time>
      </trkpt>
      <trkpt lat="46.60583" lon="5.46477">
        <ele>206</ele>
        <time>2022-08-12T05:39:43Z</time>
      </trkpt>
      <trkpt lat="46.60559" lon="5.46491">
        <ele>206</ele>
        <time>2022-08-12T05:39:46Z</time>
      </trkpt>
      <trkpt lat="46.60536" lon="5.46502">
        <ele>205.8</ele>
        <time>2022-08-12T05:39:49Z</time>
      </trkpt>
      <trkpt lat="46.6053" lon="5.46507">
        <ele>206</ele>
        <time>2022-08-12T05:39:50Z</time>
      </trkpt>
      <trkpt lat="46.60517" lon="5.4652">
        <ele>206</ele>
        <time>2022-08-12T05:39:52Z</time>
      </trkpt>
      <trkpt lat="46.60506" lon="5.46536">
        <ele>206</ele>
        <time>2022-08-12T05:39:54Z</time>
      </trkpt>
      <trkpt lat="46.60479" lon="5.46588">
        <ele>206.2</ele>
        <time>2022-08-12T05:40:00Z</time>
      </trkpt>
      <trkpt lat="46.60456" lon="5.46634">
        <ele>206.8</ele>
        <time>2022-08-12T05:40:06Z</time>
      </trkpt>
      <trkpt lat="46.60445" lon="5.46649">
        <ele>207.2</ele>
        <time>2022-08-12T05:40:09Z</time>
      </trkpt>
      <trkpt lat="46.60438" lon="5.46654">
        <ele>207.4</ele>
        <time>2022-08-12T05:40:11Z</time>
      </trkpt>
      <trkpt lat="46.60436" lon="5.46654">
        <ele>207.6</ele>
        <time>2022-08-12T05:40:12Z</time>
      </trkpt>
      <trkpt lat="46.60434" lon="5.46653">
        <ele>208</ele>
        <time>2022-08-12T05:40:13Z</time>
      </trkpt>
      <trkpt lat="46.60433" lon="5.46651">
        <ele>208</ele>
        <time>2022-08-12T05:40:14Z</time>
      </trkpt>
      <trkpt lat="46.60431" lon="5.46648">
        <ele>208.4</ele>
        <time>2022-08-12T05:40:16Z</time>
      </trkpt>
      <trkpt lat="46.6043" lon="5.46647">
        <ele>208.6</ele>
        <time>2022-08-12T05:40:18Z</time>
      </trkpt>
      <trkpt lat="46.6043" lon="5.46647">
        <ele>208.8</ele>
        <time>2022-08-12T05:40:20Z</time>
      </trkpt>
      <trkpt lat="46.60428" lon="5.4665">
        <ele>208.8</ele>
        <time>2022-08-12T05:40:33Z</time>
      </trkpt>
      <trkpt lat="46.60426" lon="5.46655">
        <ele>208.8</ele>
        <time>2022-08-12T05:40:34Z</time>
      </trkpt>
      <trkpt lat="46.60427" lon="5.46684">
        <ele>208.6</ele>
        <time>2022-08-12T05:40:38Z</time>
      </trkpt>
      <trkpt lat="46.60421" lon="5.46733">
        <ele>207.8</ele>
        <time>2022-08-12T05:40:43Z</time>
      </trkpt>
      <trkpt lat="46.60417" lon="5.46794">
        <ele>207.6</ele>
        <time>2022-08-12T05:40:49Z</time>
      </trkpt>
      <trkpt lat="46.60403" lon="5.46857">
        <ele>208.6</ele>
        <time>2022-08-12T05:40:56Z</time>
      </trkpt>
      <trkpt lat="46.60396" lon="5.46883">
        <ele>209</ele>
        <time>2022-08-12T05:40:59Z</time>
      </trkpt>
      <trkpt lat="46.6039" lon="5.46909">
        <ele>209.2</ele>
        <time>2022-08-12T05:41:02Z</time>
      </trkpt>
      <trkpt lat="46.60372" lon="5.46967">
        <ele>210</ele>
        <time>2022-08-12T05:41:09Z</time>
      </trkpt>
      <trkpt lat="46.60355" lon="5.47034">
        <ele>211.2</ele>
        <time>2022-08-12T05:41:17Z</time>
      </trkpt>
      <trkpt lat="46.60353" lon="5.47042">
        <ele>211.4</ele>
        <time>2022-08-12T05:41:18Z</time>
      </trkpt>
      <trkpt lat="46.60343" lon="5.47098">
        <ele>212.2</ele>
        <time>2022-08-12T05:41:25Z</time>
      </trkpt>
      <trkpt lat="46.60341" lon="5.47114">
        <ele>212.6</ele>
        <time>2022-08-12T05:41:27Z</time>
      </trkpt>
      <trkpt lat="46.60335" lon="5.47146">
        <ele>213.4</ele>
        <time>2022-08-12T05:41:31Z</time>
      </trkpt>
      <trkpt lat="46.60327" lon="5.47192">
        <ele>214.4</ele>
        <time>2022-08-12T05:41:37Z</time>
      </trkpt>
      <trkpt lat="46.6032" lon="5.47238">
        <ele>215.6</ele>
        <time>2022-08-12T05:41:43Z</time>
      </trkpt>
      <trkpt lat="46.60317" lon="5.47253">
        <ele>215.8</ele>
        <time>2022-08-12T05:41:45Z</time>
      </trkpt>
      <trkpt lat="46.60307" lon="5.47289">
        <ele>216.8</ele>
        <time>2022-08-12T05:41:50Z</time>
      </trkpt>
      <trkpt lat="46.60301" lon="5.47309">
        <ele>217.2</ele>
        <time>2022-08-12T05:41:53Z</time>
      </trkpt>
      <trkpt lat="46.60294" lon="5.47338">
        <ele>218</ele>
        <time>2022-08-12T05:41:57Z</time>
      </trkpt>
      <trkpt lat="46.60287" lon="5.47372">
        <ele>218.8</ele>
        <time>2022-08-12T05:42:02Z</time>
      </trkpt>
      <trkpt lat="46.60287" lon="5.47379">
        <ele>219.2</ele>
        <time>2022-08-12T05:42:03Z</time>
      </trkpt>
      <trkpt lat="46.60288" lon="5.4741">
        <ele>219.6</ele>
        <time>2022-08-12T05:42:07Z</time>
      </trkpt>
      <trkpt lat="46.60288" lon="5.47419">
        <ele>219.6</ele>
        <time>2022-08-12T05:42:08Z</time>
      </trkpt>
      <trkpt lat="46.60288" lon="5.47436">
        <ele>219.6</ele>
        <time>2022-08-12T05:42:10Z</time>
      </trkpt>
      <trkpt lat="46.60288" lon="5.47484">
        <ele>219.8</ele>
        <time>2022-08-12T05:42:16Z</time>
      </trkpt>
      <trkpt lat="46.60288" lon="5.47499">
        <ele>220.2</ele>
        <time>2022-08-12T05:42:18Z</time>
      </trkpt>
      <trkpt lat="46.60287" lon="5.47528">
        <ele>221.4</ele>
        <time>2022-08-12T05:42:22Z</time>
      </trkpt>
      <trkpt lat="46.60287" lon="5.47536">
        <ele>221.6</ele>
        <time>2022-08-12T05:42:23Z</time>
      </trkpt>
      <trkpt lat="46.60276" lon="5.47585">
        <ele>222.4</ele>
        <time>2022-08-12T05:42:29Z</time>
      </trkpt>
      <trkpt lat="46.60269" lon="5.476">
        <ele>222.4</ele>
        <time>2022-08-12T05:42:31Z</time>
      </trkpt>
      <trkpt lat="46.6026" lon="5.47612">
        <ele>222.4</ele>
        <time>2022-08-12T05:42:33Z</time>
      </trkpt>
      <trkpt lat="46.60249" lon="5.4762">
        <ele>222.2</ele>
        <time>2022-08-12T05:42:35Z</time>
      </trkpt>
      <trkpt lat="46.60236" lon="5.47624">
        <ele>222.2</ele>
        <time>2022-08-12T05:42:37Z</time>
      </trkpt>
      <trkpt lat="46.60192" lon="5.47635">
        <ele>222</ele>
        <time>2022-08-12T05:42:44Z</time>
      </trkpt>
      <trkpt lat="46.60162" lon="5.47656">
        <ele>222.2</ele>
        <time>2022-08-12T05:42:49Z</time>
      </trkpt>
      <trkpt lat="46.60121" lon="5.47696">
        <ele>223</ele>
        <time>2022-08-12T05:42:57Z</time>
      </trkpt>
      <trkpt lat="46.60103" lon="5.4772">
        <ele>223.6</ele>
        <time>2022-08-12T05:43:01Z</time>
      </trkpt>
      <trkpt lat="46.60092" lon="5.47737">
        <ele>224</ele>
        <time>2022-08-12T05:43:04Z</time>
      </trkpt>
      <trkpt lat="46.60082" lon="5.47753">
        <ele>224.2</ele>
        <time>2022-08-12T05:43:07Z</time>
      </trkpt>
      <trkpt lat="46.6008" lon="5.47757">
        <ele>224.6</ele>
        <time>2022-08-12T05:43:08Z</time>
      </trkpt>
      <trkpt lat="46.60077" lon="5.47762">
        <ele>225</ele>
        <time>2022-08-12T05:43:09Z</time>
      </trkpt>
      <trkpt lat="46.60067" lon="5.47792">
        <ele>225.8</ele>
        <time>2022-08-12T05:43:14Z</time>
      </trkpt>
      <trkpt lat="46.60065" lon="5.47809">
        <ele>226.4</ele>
        <time>2022-08-12T05:43:17Z</time>
      </trkpt>
      <trkpt lat="46.60064" lon="5.47822">
        <ele>226.8</ele>
        <time>2022-08-12T05:43:19Z</time>
      </trkpt>
      <trkpt lat="46.60064" lon="5.47847">
        <ele>227.8</ele>
        <time>2022-08-12T05:43:23Z</time>
      </trkpt>
      <trkpt lat="46.6006" lon="5.47865">
        <ele>228.8</ele>
        <time>2022-08-12T05:43:26Z</time>
      </trkpt>
      <trkpt lat="46.60057" lon="5.47872">
        <ele>229.2</ele>
        <time>2022-08-12T05:43:27Z</time>
      </trkpt>
      <trkpt lat="46.60052" lon="5.47879">
        <ele>229.2</ele>
        <time>2022-08-12T05:43:28Z</time>
      </trkpt>
      <trkpt lat="46.60042" lon="5.47891">
        <ele>229.2</ele>
        <time>2022-08-12T05:43:30Z</time>
      </trkpt>
      <trkpt lat="46.60023" lon="5.47912">
        <ele>229</ele>
        <time>2022-08-12T05:43:33Z</time>
      </trkpt>
      <trkpt lat="46.60018" lon="5.4792">
        <ele>228.6</ele>
        <time>2022-08-12T05:43:34Z</time>
      </trkpt>
      <trkpt lat="46.60014" lon="5.47928">
        <ele>228.4</ele>
        <time>2022-08-12T05:43:35Z</time>
      </trkpt>
      <trkpt lat="46.60007" lon="5.47946">
        <ele>227.8</ele>
        <time>2022-08-12T05:43:37Z</time>
      </trkpt>
      <trkpt lat="46.60005" lon="5.47955">
        <ele>227.4</ele>
        <time>2022-08-12T05:43:38Z</time>
      </trkpt>
      <trkpt lat="46.60005" lon="5.47963">
        <ele>227.4</ele>
        <time>2022-08-12T05:43:39Z</time>
      </trkpt>
      <trkpt lat="46.60006" lon="5.4798">
        <ele>227.2</ele>
        <time>2022-08-12T05:43:41Z</time>
      </trkpt>
      <trkpt lat="46.60009" lon="5.47994">
        <ele>227.2</ele>
        <time>2022-08-12T05:43:43Z</time>
      </trkpt>
      <trkpt lat="46.60015" lon="5.48016">
        <ele>227.6</ele>
        <time>2022-08-12T05:43:46Z</time>
      </trkpt>
      <trkpt lat="46.6002" lon="5.48029">
        <ele>228.2</ele>
        <time>2022-08-12T05:43:48Z</time>
      </trkpt>
      <trkpt lat="46.60027" lon="5.48048">
        <ele>228.8</ele>
        <time>2022-08-12T05:43:51Z</time>
      </trkpt>
      <trkpt lat="46.60028" lon="5.48055">
        <ele>229.4</ele>
        <time>2022-08-12T05:43:52Z</time>
      </trkpt>
      <trkpt lat="46.60028" lon="5.48063">
        <ele>229.6</ele>
        <time>2022-08-12T05:43:53Z</time>
      </trkpt>
      <trkpt lat="46.60029" lon="5.48087">
        <ele>230.2</ele>
        <time>2022-08-12T05:43:56Z</time>
      </trkpt>
      <trkpt lat="46.60028" lon="5.48096">
        <ele>230.2</ele>
        <time>2022-08-12T05:43:57Z</time>
      </trkpt>
      <trkpt lat="46.60028" lon="5.48129">
        <ele>230.2</ele>
        <time>2022-08-12T05:44:00Z</time>
      </trkpt>
      <trkpt lat="46.60033" lon="5.48181">
        <ele>228.4</ele>
        <time>2022-08-12T05:44:04Z</time>
      </trkpt>
      <trkpt lat="46.60033" lon="5.48195">
        <ele>228</ele>
        <time>2022-08-12T05:44:05Z</time>
      </trkpt>
      <trkpt lat="46.60032" lon="5.4821">
        <ele>226.6</ele>
        <time>2022-08-12T05:44:06Z</time>
      </trkpt>
      <trkpt lat="46.6003" lon="5.48224">
        <ele>226.2</ele>
        <time>2022-08-12T05:44:07Z</time>
      </trkpt>
      <trkpt lat="46.60027" lon="5.48238">
        <ele>224.8</ele>
        <time>2022-08-12T05:44:08Z</time>
      </trkpt>
      <trkpt lat="46.60019" lon="5.48266">
        <ele>223.6</ele>
        <time>2022-08-12T05:44:10Z</time>
      </trkpt>
      <trkpt lat="46.60015" lon="5.48279">
        <ele>222.6</ele>
        <time>2022-08-12T05:44:11Z</time>
      </trkpt>
      <trkpt lat="46.60007" lon="5.48304">
        <ele>221.4</ele>
        <time>2022-08-12T05:44:13Z</time>
      </trkpt>
      <trkpt lat="46.59993" lon="5.48354">
        <ele>220.4</ele>
        <time>2022-08-12T05:44:17Z</time>
      </trkpt>
      <trkpt lat="46.59986" lon="5.48379">
        <ele>220</ele>
        <time>2022-08-12T05:44:19Z</time>
      </trkpt>
      <trkpt lat="46.59971" lon="5.48428">
        <ele>219.2</ele>
        <time>2022-08-12T05:44:23Z</time>
      </trkpt>
      <trkpt lat="46.59957" lon="5.48475">
        <ele>219.2</ele>
        <time>2022-08-12T05:44:27Z</time>
      </trkpt>
      <trkpt lat="46.59937" lon="5.48544">
        <ele>219.8</ele>
        <time>2022-08-12T05:44:33Z</time>
      </trkpt>
      <trkpt lat="46.59927" lon="5.4863">
        <ele>220</ele>
        <time>2022-08-12T05:44:40Z</time>
      </trkpt>
      <trkpt lat="46.59925" lon="5.487">
        <ele>220.2</ele>
        <time>2022-08-12T05:44:46Z</time>
      </trkpt>
      <trkpt lat="46.59924" lon="5.48711">
        <ele>220.4</ele>
        <time>2022-08-12T05:44:47Z</time>
      </trkpt>
      <trkpt lat="46.59922" lon="5.48754">
        <ele>221.2</ele>
        <time>2022-08-12T05:44:51Z</time>
      </trkpt>
      <trkpt lat="46.59922" lon="5.48764">
        <ele>221.4</ele>
        <time>2022-08-12T05:44:52Z</time>
      </trkpt>
      <trkpt lat="46.59921" lon="5.48775">
        <ele>221.8</ele>
        <time>2022-08-12T05:44:53Z</time>
      </trkpt>
      <trkpt lat="46.59916" lon="5.48796">
        <ele>222</ele>
        <time>2022-08-12T05:44:55Z</time>
      </trkpt>
      <trkpt lat="46.59892" lon="5.48872">
        <ele>222.4</ele>
        <time>2022-08-12T05:45:03Z</time>
      </trkpt>
      <trkpt lat="46.59886" lon="5.4889">
        <ele>222.4</ele>
        <time>2022-08-12T05:45:05Z</time>
      </trkpt>
      <trkpt lat="46.59882" lon="5.48908">
        <ele>222.6</ele>
        <time>2022-08-12T05:45:07Z</time>
      </trkpt>
      <trkpt lat="46.5988" lon="5.48927">
        <ele>222.8</ele>
        <time>2022-08-12T05:45:09Z</time>
      </trkpt>
      <trkpt lat="46.59873" lon="5.48979">
        <ele>223.6</ele>
        <time>2022-08-12T05:45:15Z</time>
      </trkpt>
      <trkpt lat="46.59871" lon="5.48987">
        <ele>223.8</ele>
        <time>2022-08-12T05:45:16Z</time>
      </trkpt>
      <trkpt lat="46.59866" lon="5.49024">
        <ele>224.6</ele>
        <time>2022-08-12T05:45:21Z</time>
      </trkpt>
      <trkpt lat="46.59866" lon="5.49047">
        <ele>225.2</ele>
        <time>2022-08-12T05:45:24Z</time>
      </trkpt>
      <trkpt lat="46.59868" lon="5.49063">
        <ele>225.4</ele>
        <time>2022-08-12T05:45:26Z</time>
      </trkpt>
      <trkpt lat="46.59869" lon="5.49072">
        <ele>225.6</ele>
        <time>2022-08-12T05:45:27Z</time>
      </trkpt>
      <trkpt lat="46.59878" lon="5.49119">
        <ele>225.8</ele>
        <time>2022-08-12T05:45:32Z</time>
      </trkpt>
      <trkpt lat="46.5989" lon="5.49189">
        <ele>225.2</ele>
        <time>2022-08-12T05:45:39Z</time>
      </trkpt>
      <trkpt lat="46.59898" lon="5.49227">
        <ele>225</ele>
        <time>2022-08-12T05:45:43Z</time>
      </trkpt>
      <trkpt lat="46.599" lon="5.49246">
        <ele>225</ele>
        <time>2022-08-12T05:45:45Z</time>
      </trkpt>
      <trkpt lat="46.599" lon="5.49256">
        <ele>225</ele>
        <time>2022-08-12T05:45:46Z</time>
      </trkpt>
      <trkpt lat="46.59897" lon="5.4932">
        <ele>225.4</ele>
        <time>2022-08-12T05:45:53Z</time>
      </trkpt>
      <trkpt lat="46.599" lon="5.49337">
        <ele>225.4</ele>
        <time>2022-08-12T05:45:55Z</time>
      </trkpt>
      <trkpt lat="46.59907" lon="5.49361">
        <ele>225.8</ele>
        <time>2022-08-12T05:45:58Z</time>
      </trkpt>
      <trkpt lat="46.59913" lon="5.49387">
        <ele>226.2</ele>
        <time>2022-08-12T05:46:01Z</time>
      </trkpt>
      <trkpt lat="46.59919" lon="5.49424">
        <ele>226.2</ele>
        <time>2022-08-12T05:46:05Z</time>
      </trkpt>
      <trkpt lat="46.5992" lon="5.49433">
        <ele>226.2</ele>
        <time>2022-08-12T05:46:06Z</time>
      </trkpt>
      <trkpt lat="46.59919" lon="5.4947">
        <ele>226.2</ele>
        <time>2022-08-12T05:46:10Z</time>
      </trkpt>
      <trkpt lat="46.59924" lon="5.49522">
        <ele>227.2</ele>
        <time>2022-08-12T05:46:16Z</time>
      </trkpt>
      <trkpt lat="46.59926" lon="5.49529">
        <ele>227.4</ele>
        <time>2022-08-12T05:46:17Z</time>
      </trkpt>
      <trkpt lat="46.59935" lon="5.49557">
        <ele>228.2</ele>
        <time>2022-08-12T05:46:21Z</time>
      </trkpt>
      <trkpt lat="46.59938" lon="5.4957">
        <ele>228.6</ele>
        <time>2022-08-12T05:46:23Z</time>
      </trkpt>
      <trkpt lat="46.59941" lon="5.49584">
        <ele>229</ele>
        <time>2022-08-12T05:46:25Z</time>
      </trkpt>
      <trkpt lat="46.59943" lon="5.496">
        <ele>229.4</ele>
        <time>2022-08-12T05:46:27Z</time>
      </trkpt>
      <trkpt lat="46.59944" lon="5.49609">
        <ele>229.8</ele>
        <time>2022-08-12T05:46:28Z</time>
      </trkpt>
      <trkpt lat="46.59947" lon="5.49653">
        <ele>230.6</ele>
        <time>2022-08-12T05:46:33Z</time>
      </trkpt>
      <trkpt lat="46.59948" lon="5.49679">
        <ele>230.8</ele>
        <time>2022-08-12T05:46:36Z</time>
      </trkpt>
      <trkpt lat="46.59947" lon="5.49712">
        <ele>231.2</ele>
        <time>2022-08-12T05:46:40Z</time>
      </trkpt>
      <trkpt lat="46.59945" lon="5.49745">
        <ele>231.8</ele>
        <time>2022-08-12T05:46:44Z</time>
      </trkpt>
      <trkpt lat="46.59942" lon="5.49778">
        <ele>232.2</ele>
        <time>2022-08-12T05:46:48Z</time>
      </trkpt>
      <trkpt lat="46.59939" lon="5.49801">
        <ele>232.4</ele>
        <time>2022-08-12T05:46:51Z</time>
      </trkpt>
      <trkpt lat="46.59936" lon="5.49816">
        <ele>233</ele>
        <time>2022-08-12T05:46:53Z</time>
      </trkpt>
      <trkpt lat="46.59935" lon="5.49823">
        <ele>233.2</ele>
        <time>2022-08-12T05:46:54Z</time>
      </trkpt>
      <trkpt lat="46.59933" lon="5.4983">
        <ele>233.6</ele>
        <time>2022-08-12T05:46:55Z</time>
      </trkpt>
      <trkpt lat="46.59931" lon="5.49837">
        <ele>233.6</ele>
        <time>2022-08-12T05:46:56Z</time>
      </trkpt>
      <trkpt lat="46.59927" lon="5.49851">
        <ele>234.2</ele>
        <time>2022-08-12T05:46:58Z</time>
      </trkpt>
      <trkpt lat="46.59923" lon="5.49886">
        <ele>234.6</ele>
        <time>2022-08-12T05:47:03Z</time>
      </trkpt>
      <trkpt lat="46.5992" lon="5.49921">
        <ele>235.2</ele>
        <time>2022-08-12T05:47:08Z</time>
      </trkpt>
      <trkpt lat="46.5992" lon="5.49934">
        <ele>235.4</ele>
        <time>2022-08-12T05:47:10Z</time>
      </trkpt>
      <trkpt lat="46.5992" lon="5.49962">
        <ele>236.4</ele>
        <time>2022-08-12T05:47:14Z</time>
      </trkpt>
      <trkpt lat="46.59919" lon="5.49982">
        <ele>236.6</ele>
        <time>2022-08-12T05:47:17Z</time>
      </trkpt>
      <trkpt lat="46.59918" lon="5.49988">
        <ele>236.8</ele>
        <time>2022-08-12T05:47:18Z</time>
      </trkpt>
      <trkpt lat="46.59915" lon="5.50001">
        <ele>237</ele>
        <time>2022-08-12T05:47:20Z</time>
      </trkpt>
      <trkpt lat="46.59911" lon="5.50012">
        <ele>237.2</ele>
        <time>2022-08-12T05:47:22Z</time>
      </trkpt>
      <trkpt lat="46.59909" lon="5.50017">
        <ele>237.4</ele>
        <time>2022-08-12T05:47:23Z</time>
      </trkpt>
      <trkpt lat="46.5989" lon="5.50054">
        <ele>238.6</ele>
        <time>2022-08-12T05:47:29Z</time>
      </trkpt>
      <trkpt lat="46.59887" lon="5.50061">
        <ele>238.6</ele>
        <time>2022-08-12T05:47:30Z</time>
      </trkpt>
      <trkpt lat="46.59869" lon="5.50098">
        <ele>239.6</ele>
        <time>2022-08-12T05:47:37Z</time>
      </trkpt>
      <trkpt lat="46.5986" lon="5.50115">
        <ele>240.8</ele>
        <time>2022-08-12T05:47:41Z</time>
      </trkpt>
      <trkpt lat="46.59852" lon="5.50124">
        <ele>242.2</ele>
        <time>2022-08-12T05:47:44Z</time>
      </trkpt>
      <trkpt lat="46.59838" lon="5.5014">
        <ele>243.4</ele>
        <time>2022-08-12T05:47:49Z</time>
      </trkpt>
      <trkpt lat="46.5983" lon="5.5015">
        <ele>244.2</ele>
        <time>2022-08-12T05:47:52Z</time>
      </trkpt>
      <trkpt lat="46.59828" lon="5.50154">
        <ele>244.4</ele>
        <time>2022-08-12T05:47:53Z</time>
      </trkpt>
      <trkpt lat="46.59817" lon="5.50169">
        <ele>245.2</ele>
        <time>2022-08-12T05:47:57Z</time>
      </trkpt>
      <trkpt lat="46.59806" lon="5.5018">
        <ele>246</ele>
        <time>2022-08-12T05:48:00Z</time>
      </trkpt>
      <trkpt lat="46.59799" lon="5.50187">
        <ele>246.2</ele>
        <time>2022-08-12T05:48:02Z</time>
      </trkpt>
      <trkpt lat="46.59789" lon="5.50198">
        <ele>246.4</ele>
        <time>2022-08-12T05:48:05Z</time>
      </trkpt>
      <trkpt lat="46.59786" lon="5.50201">
        <ele>246.6</ele>
        <time>2022-08-12T05:48:06Z</time>
      </trkpt>
      <trkpt lat="46.59779" lon="5.50207">
        <ele>246.8</ele>
        <time>2022-08-12T05:48:08Z</time>
      </trkpt>
      <trkpt lat="46.59771" lon="5.50211">
        <ele>247.2</ele>
        <time>2022-08-12T05:48:10Z</time>
      </trkpt>
      <trkpt lat="46.59766" lon="5.50213">
        <ele>247.4</ele>
        <time>2022-08-12T05:48:11Z</time>
      </trkpt>
      <trkpt lat="46.59761" lon="5.50214">
        <ele>247.4</ele>
        <time>2022-08-12T05:48:12Z</time>
      </trkpt>
      <trkpt lat="46.59723" lon="5.50227">
        <ele>247.6</ele>
        <time>2022-08-12T05:48:19Z</time>
      </trkpt>
      <trkpt lat="46.59708" lon="5.50235">
        <ele>247.6</ele>
        <time>2022-08-12T05:48:22Z</time>
      </trkpt>
      <trkpt lat="46.59699" lon="5.5024">
        <ele>247.4</ele>
        <time>2022-08-12T05:48:24Z</time>
      </trkpt>
      <trkpt lat="46.59694" lon="5.50243">
        <ele>247.4</ele>
        <time>2022-08-12T05:48:25Z</time>
      </trkpt>
      <trkpt lat="46.59687" lon="5.5025">
        <ele>247.6</ele>
        <time>2022-08-12T05:48:27Z</time>
      </trkpt>
      <trkpt lat="46.59684" lon="5.50254">
        <ele>247.6</ele>
        <time>2022-08-12T05:48:28Z</time>
      </trkpt>
      <trkpt lat="46.59682" lon="5.5026">
        <ele>247.8</ele>
        <time>2022-08-12T05:48:29Z</time>
      </trkpt>
      <trkpt lat="46.59682" lon="5.50271">
        <ele>248</ele>
        <time>2022-08-12T05:48:31Z</time>
      </trkpt>
      <trkpt lat="46.59683" lon="5.50277">
        <ele>248.6</ele>
        <time>2022-08-12T05:48:32Z</time>
      </trkpt>
      <trkpt lat="46.59684" lon="5.50282">
        <ele>248.8</ele>
        <time>2022-08-12T05:48:33Z</time>
      </trkpt>
      <trkpt lat="46.59688" lon="5.50291">
        <ele>249.2</ele>
        <time>2022-08-12T05:48:35Z</time>
      </trkpt>
      <trkpt lat="46.59694" lon="5.50298">
        <ele>249.8</ele>
        <time>2022-08-12T05:48:37Z</time>
      </trkpt>
      <trkpt lat="46.59697" lon="5.503">
        <ele>250</ele>
        <time>2022-08-12T05:48:38Z</time>
      </trkpt>
      <trkpt lat="46.59713" lon="5.50298">
        <ele>251</ele>
        <time>2022-08-12T05:48:42Z</time>
      </trkpt>
      <trkpt lat="46.59724" lon="5.50291">
        <ele>252</ele>
        <time>2022-08-12T05:48:45Z</time>
      </trkpt>
      <trkpt lat="46.59741" lon="5.50277">
        <ele>253.2</ele>
        <time>2022-08-12T05:48:50Z</time>
      </trkpt>
      <trkpt lat="46.59756" lon="5.50267">
        <ele>254.4</ele>
        <time>2022-08-12T05:48:54Z</time>
      </trkpt>
      <trkpt lat="46.59769" lon="5.50258">
        <ele>255.4</ele>
        <time>2022-08-12T05:48:58Z</time>
      </trkpt>
      <trkpt lat="46.59782" lon="5.50249">
        <ele>256.8</ele>
        <time>2022-08-12T05:49:02Z</time>
      </trkpt>
      <trkpt lat="46.59785" lon="5.50246">
        <ele>257</ele>
        <time>2022-08-12T05:49:03Z</time>
      </trkpt>
      <trkpt lat="46.59802" lon="5.50237">
        <ele>257.8</ele>
        <time>2022-08-12T05:49:07Z</time>
      </trkpt>
      <trkpt lat="46.59815" lon="5.50229">
        <ele>259</ele>
        <time>2022-08-12T05:49:12Z</time>
      </trkpt>
      <trkpt lat="46.59834" lon="5.50219">
        <ele>260.2</ele>
        <time>2022-08-12T05:49:18Z</time>
      </trkpt>
      <trkpt lat="46.59838" lon="5.50218">
        <ele>260.4</ele>
        <time>2022-08-12T05:49:19Z</time>
      </trkpt>
      <trkpt lat="46.59851" lon="5.50209">
        <ele>261.4</ele>
        <time>2022-08-12T05:49:23Z</time>
      </trkpt>
      <trkpt lat="46.59858" lon="5.50207">
        <ele>261.8</ele>
        <time>2022-08-12T05:49:25Z</time>
      </trkpt>
      <trkpt lat="46.59868" lon="5.50204">
        <ele>262.4</ele>
        <time>2022-08-12T05:49:28Z</time>
      </trkpt>
      <trkpt lat="46.59882" lon="5.502">
        <ele>263.4</ele>
        <time>2022-08-12T05:49:32Z</time>
      </trkpt>
      <trkpt lat="46.59885" lon="5.50199">
        <ele>263.6</ele>
        <time>2022-08-12T05:49:33Z</time>
      </trkpt>
      <trkpt lat="46.59899" lon="5.50197">
        <ele>264.6</ele>
        <time>2022-08-12T05:49:37Z</time>
      </trkpt>
      <trkpt lat="46.5991" lon="5.50195">
        <ele>265</ele>
        <time>2022-08-12T05:49:40Z</time>
      </trkpt>
      <trkpt lat="46.59922" lon="5.50193">
        <ele>266</ele>
        <time>2022-08-12T05:49:44Z</time>
      </trkpt>
      <trkpt lat="46.59938" lon="5.5019">
        <ele>266.6</ele>
        <time>2022-08-12T05:49:49Z</time>
      </trkpt>
      <trkpt lat="46.59945" lon="5.5019">
        <ele>267.2</ele>
        <time>2022-08-12T05:49:51Z</time>
      </trkpt>
      <trkpt lat="46.59959" lon="5.50193">
        <ele>268.2</ele>
        <time>2022-08-12T05:49:55Z</time>
      </trkpt>
      <trkpt lat="46.59962" lon="5.50196">
        <ele>268.4</ele>
        <time>2022-08-12T05:49:56Z</time>
      </trkpt>
      <trkpt lat="46.59972" lon="5.50216">
        <ele>269</ele>
        <time>2022-08-12T05:50:01Z</time>
      </trkpt>
      <trkpt lat="46.59973" lon="5.5022">
        <ele>269.4</ele>
        <time>2022-08-12T05:50:02Z</time>
      </trkpt>
      <trkpt lat="46.59979" lon="5.50242">
        <ele>270.4</ele>
        <time>2022-08-12T05:50:07Z</time>
      </trkpt>
      <trkpt lat="46.59986" lon="5.50253">
        <ele>271.2</ele>
        <time>2022-08-12T05:50:10Z</time>
      </trkpt>
      <trkpt lat="46.59988" lon="5.50256">
        <ele>271.8</ele>
        <time>2022-08-12T05:50:11Z</time>
      </trkpt>
      <trkpt lat="46.59999" lon="5.50269">
        <ele>272.8</ele>
        <time>2022-08-12T05:50:15Z</time>
      </trkpt>
      <trkpt lat="46.60007" lon="5.50278">
        <ele>273.2</ele>
        <time>2022-08-12T05:50:18Z</time>
      </trkpt>
      <trkpt lat="46.60015" lon="5.50284">
        <ele>273.8</ele>
        <time>2022-08-12T05:50:21Z</time>
      </trkpt>
      <trkpt lat="46.60021" lon="5.50287">
        <ele>274.2</ele>
        <time>2022-08-12T05:50:23Z</time>
      </trkpt>
      <trkpt lat="46.60036" lon="5.50292">
        <ele>274.8</ele>
        <time>2022-08-12T05:50:27Z</time>
      </trkpt>
      <trkpt lat="46.60042" lon="5.50294">
        <ele>275.2</ele>
        <time>2022-08-12T05:50:29Z</time>
      </trkpt>
      <trkpt lat="46.60057" lon="5.50294">
        <ele>276</ele>
        <time>2022-08-12T05:50:33Z</time>
      </trkpt>
      <trkpt lat="46.60061" lon="5.50294">
        <ele>276.4</ele>
        <time>2022-08-12T05:50:34Z</time>
      </trkpt>
      <trkpt lat="46.60073" lon="5.50297">
        <ele>277</ele>
        <time>2022-08-12T05:50:37Z</time>
      </trkpt>
      <trkpt lat="46.60093" lon="5.50301">
        <ele>277.6</ele>
        <time>2022-08-12T05:50:42Z</time>
      </trkpt>
      <trkpt lat="46.60109" lon="5.50308">
        <ele>278.2</ele>
        <time>2022-08-12T05:50:45Z</time>
      </trkpt>
      <trkpt lat="46.60112" lon="5.5031">
        <ele>278.4</ele>
        <time>2022-08-12T05:50:46Z</time>
      </trkpt>
      <trkpt lat="46.60114" lon="5.50312">
        <ele>278.6</ele>
        <time>2022-08-12T05:50:47Z</time>
      </trkpt>
      <trkpt lat="46.60124" lon="5.50321">
        <ele>279.4</ele>
        <time>2022-08-12T05:50:51Z</time>
      </trkpt>
      <trkpt lat="46.60132" lon="5.50324">
        <ele>280</ele>
        <time>2022-08-12T05:50:53Z</time>
      </trkpt>
      <trkpt lat="46.60139" lon="5.50327">
        <ele>280.6</ele>
        <time>2022-08-12T05:50:55Z</time>
      </trkpt>
      <trkpt lat="46.60142" lon="5.5033">
        <ele>280.8</ele>
        <time>2022-08-12T05:50:57Z</time>
      </trkpt>
      <trkpt lat="46.60148" lon="5.50339">
        <ele>281.4</ele>
        <time>2022-08-12T05:51:00Z</time>
      </trkpt>
      <trkpt lat="46.60154" lon="5.50343">
        <ele>281.8</ele>
        <time>2022-08-12T05:51:02Z</time>
      </trkpt>
      <trkpt lat="46.60161" lon="5.50349">
        <ele>282.4</ele>
        <time>2022-08-12T05:51:04Z</time>
      </trkpt>
      <trkpt lat="46.6017" lon="5.50355">
        <ele>283</ele>
        <time>2022-08-12T05:51:07Z</time>
      </trkpt>
      <trkpt lat="46.60171" lon="5.50356">
        <ele>283.2</ele>
        <time>2022-08-12T05:51:08Z</time>
      </trkpt>
      <trkpt lat="46.60171" lon="5.50356">
        <ele>283.6</ele>
        <time>2022-08-12T05:51:09Z</time>
      </trkpt>
      <trkpt lat="46.60178" lon="5.50355">
        <ele>283.8</ele>
        <time>2022-08-12T05:51:10Z</time>
      </trkpt>
      <trkpt lat="46.60183" lon="5.50356">
        <ele>284.2</ele>
        <time>2022-08-12T05:51:11Z</time>
      </trkpt>
      <trkpt lat="46.60194" lon="5.50363">
        <ele>284.8</ele>
        <time>2022-08-12T05:51:13Z</time>
      </trkpt>
      <trkpt lat="46.60194" lon="5.50363">
        <ele>285.2</ele>
        <time>2022-08-12T05:51:14Z</time>
      </trkpt>
      <trkpt lat="46.60204" lon="5.50369">
        <ele>285.8</ele>
        <time>2022-08-12T05:51:19Z</time>
      </trkpt>
      <trkpt lat="46.6021" lon="5.50372">
        <ele>286</ele>
        <time>2022-08-12T05:51:20Z</time>
      </trkpt>
      <trkpt lat="46.60219" lon="5.50373">
        <ele>286.4</ele>
        <time>2022-08-12T05:51:22Z</time>
      </trkpt>
      <trkpt lat="46.60226" lon="5.50373">
        <ele>286.8</ele>
        <time>2022-08-12T05:51:24Z</time>
      </trkpt>
      <trkpt lat="46.60232" lon="5.50373">
        <ele>287.2</ele>
        <time>2022-08-12T05:51:25Z</time>
      </trkpt>
      <trkpt lat="46.60237" lon="5.50372">
        <ele>287.2</ele>
        <time>2022-08-12T05:51:26Z</time>
      </trkpt>
      <trkpt lat="46.60246" lon="5.5037">
        <ele>287.8</ele>
        <time>2022-08-12T05:51:29Z</time>
      </trkpt>
      <trkpt lat="46.6026" lon="5.50369">
        <ele>288.2</ele>
        <time>2022-08-12T05:51:31Z</time>
      </trkpt>
      <trkpt lat="46.60274" lon="5.50373">
        <ele>289</ele>
        <time>2022-08-12T05:51:35Z</time>
      </trkpt>
      <trkpt lat="46.60281" lon="5.50377">
        <ele>289.2</ele>
        <time>2022-08-12T05:51:37Z</time>
      </trkpt>
      <trkpt lat="46.60295" lon="5.50392">
        <ele>290.4</ele>
        <time>2022-08-12T05:51:42Z</time>
      </trkpt>
      <trkpt lat="46.603" lon="5.50399">
        <ele>290.6</ele>
        <time>2022-08-12T05:51:44Z</time>
      </trkpt>
      <trkpt lat="46.60311" lon="5.50412">
        <ele>291.4</ele>
        <time>2022-08-12T05:51:48Z</time>
      </trkpt>
      <trkpt lat="46.60322" lon="5.50422">
        <ele>292.6</ele>
        <time>2022-08-12T05:51:52Z</time>
      </trkpt>
      <trkpt lat="46.6033" lon="5.50429">
        <ele>293.6</ele>
        <time>2022-08-12T05:51:55Z</time>
      </trkpt>
      <trkpt lat="46.60343" lon="5.50445">
        <ele>294.4</ele>
        <time>2022-08-12T05:52:00Z</time>
      </trkpt>
      <trkpt lat="46.60343" lon="5.50445">
        <ele>294.4</ele>
        <time>2022-08-12T05:52:01Z</time>
      </trkpt>
      <trkpt lat="46.60351" lon="5.50473">
        <ele>295.2</ele>
        <time>2022-08-12T05:52:06Z</time>
      </trkpt>
      <trkpt lat="46.60353" lon="5.50478">
        <ele>295.4</ele>
        <time>2022-08-12T05:52:07Z</time>
      </trkpt>
      <trkpt lat="46.6036" lon="5.50497">
        <ele>296.6</ele>
        <time>2022-08-12T05:52:11Z</time>
      </trkpt>
      <trkpt lat="46.60362" lon="5.50502">
        <ele>296.8</ele>
        <time>2022-08-12T05:52:12Z</time>
      </trkpt>
      <trkpt lat="46.60364" lon="5.50507">
        <ele>296.8</ele>
        <time>2022-08-12T05:52:13Z</time>
      </trkpt>
      <trkpt lat="46.60375" lon="5.50529">
        <ele>297.6</ele>
        <time>2022-08-12T05:52:18Z</time>
      </trkpt>
      <trkpt lat="46.60382" lon="5.5054">
        <ele>298.2</ele>
        <time>2022-08-12T05:52:21Z</time>
      </trkpt>
      <trkpt lat="46.60387" lon="5.50548">
        <ele>298.8</ele>
        <time>2022-08-12T05:52:23Z</time>
      </trkpt>
      <trkpt lat="46.60398" lon="5.50561">
        <ele>300</ele>
        <time>2022-08-12T05:52:28Z</time>
      </trkpt>
      <trkpt lat="46.60406" lon="5.5057">
        <ele>300.4</ele>
        <time>2022-08-12T05:52:30Z</time>
      </trkpt>
      <trkpt lat="46.60415" lon="5.50578">
        <ele>301</ele>
        <time>2022-08-12T05:52:33Z</time>
      </trkpt>
      <trkpt lat="46.60427" lon="5.5059">
        <ele>302.2</ele>
        <time>2022-08-12T05:52:37Z</time>
      </trkpt>
      <trkpt lat="46.60433" lon="5.50596">
        <ele>302.6</ele>
        <time>2022-08-12T05:52:39Z</time>
      </trkpt>
      <trkpt lat="46.60445" lon="5.50606">
        <ele>303.2</ele>
        <time>2022-08-12T05:52:43Z</time>
      </trkpt>
      <trkpt lat="46.60461" lon="5.50618">
        <ele>304.2</ele>
        <time>2022-08-12T05:52:48Z</time>
      </trkpt>
      <trkpt lat="46.60478" lon="5.5063">
        <ele>305.4</ele>
        <time>2022-08-12T05:52:53Z</time>
      </trkpt>
      <trkpt lat="46.60488" lon="5.50636">
        <ele>306.2</ele>
        <time>2022-08-12T05:52:56Z</time>
      </trkpt>
      <trkpt lat="46.60495" lon="5.50639">
        <ele>306.6</ele>
        <time>2022-08-12T05:52:58Z</time>
      </trkpt>
      <trkpt lat="46.60509" lon="5.50645">
        <ele>307.8</ele>
        <time>2022-08-12T05:53:02Z</time>
      </trkpt>
      <trkpt lat="46.60518" lon="5.50649">
        <ele>308.4</ele>
        <time>2022-08-12T05:53:04Z</time>
      </trkpt>
      <trkpt lat="46.60518" lon="5.50649">
        <ele>308.8</ele>
        <time>2022-08-12T05:53:05Z</time>
      </trkpt>
      <trkpt lat="46.6054" lon="5.50654">
        <ele>309.8</ele>
        <time>2022-08-12T05:53:10Z</time>
      </trkpt>
      <trkpt lat="46.60547" lon="5.50655">
        <ele>310.4</ele>
        <time>2022-08-12T05:53:12Z</time>
      </trkpt>
      <trkpt lat="46.60554" lon="5.50656">
        <ele>310.8</ele>
        <time>2022-08-12T05:53:14Z</time>
      </trkpt>
      <trkpt lat="46.60571" lon="5.50652">
        <ele>311.8</ele>
        <time>2022-08-12T05:53:19Z</time>
      </trkpt>
      <trkpt lat="46.60588" lon="5.50647">
        <ele>312.8</ele>
        <time>2022-08-12T05:53:24Z</time>
      </trkpt>
      <trkpt lat="46.60598" lon="5.50644">
        <ele>313.2</ele>
        <time>2022-08-12T05:53:27Z</time>
      </trkpt>
      <trkpt lat="46.60608" lon="5.50642">
        <ele>314</ele>
        <time>2022-08-12T05:53:30Z</time>
      </trkpt>
      <trkpt lat="46.6063" lon="5.50642">
        <ele>314.8</ele>
        <time>2022-08-12T05:53:36Z</time>
      </trkpt>
      <trkpt lat="46.60636" lon="5.50643">
        <ele>315.2</ele>
        <time>2022-08-12T05:53:38Z</time>
      </trkpt>
      <trkpt lat="46.60657" lon="5.50646">
        <ele>316.4</ele>
        <time>2022-08-12T05:53:44Z</time>
      </trkpt>
      <trkpt lat="46.60674" lon="5.50649">
        <ele>317.6</ele>
        <time>2022-08-12T05:53:49Z</time>
      </trkpt>
      <trkpt lat="46.60684" lon="5.5065">
        <ele>318.6</ele>
        <time>2022-08-12T05:53:53Z</time>
      </trkpt>
      <trkpt lat="46.60691" lon="5.50651">
        <ele>319</ele>
        <time>2022-08-12T05:53:54Z</time>
      </trkpt>
      <trkpt lat="46.60705" lon="5.50652">
        <ele>319.8</ele>
        <time>2022-08-12T05:53:58Z</time>
      </trkpt>
      <trkpt lat="46.60715" lon="5.50651">
        <ele>320.2</ele>
        <time>2022-08-12T05:54:01Z</time>
      </trkpt>
      <trkpt lat="46.6073" lon="5.50649">
        <ele>320.8</ele>
        <time>2022-08-12T05:54:05Z</time>
      </trkpt>
      <trkpt lat="46.60744" lon="5.50647">
        <ele>321.4</ele>
        <time>2022-08-12T05:54:09Z</time>
      </trkpt>
      <trkpt lat="46.60755" lon="5.50645">
        <ele>322</ele>
        <time>2022-08-12T05:54:12Z</time>
      </trkpt>
      <trkpt lat="46.60772" lon="5.50649">
        <ele>323.2</ele>
        <time>2022-08-12T05:54:17Z</time>
      </trkpt>
      <trkpt lat="46.60788" lon="5.50658">
        <ele>324.2</ele>
        <time>2022-08-12T05:54:22Z</time>
      </trkpt>
      <trkpt lat="46.60798" lon="5.50664">
        <ele>324.8</ele>
        <time>2022-08-12T05:54:25Z</time>
      </trkpt>
      <trkpt lat="46.60804" lon="5.50669">
        <ele>325.2</ele>
        <time>2022-08-12T05:54:27Z</time>
      </trkpt>
      <trkpt lat="46.60814" lon="5.50681">
        <ele>326.2</ele>
        <time>2022-08-12T05:54:31Z</time>
      </trkpt>
      <trkpt lat="46.60816" lon="5.50685">
        <ele>326.4</ele>
        <time>2022-08-12T05:54:32Z</time>
      </trkpt>
      <trkpt lat="46.60818" lon="5.50689">
        <ele>326.8</ele>
        <time>2022-08-12T05:54:33Z</time>
      </trkpt>
      <trkpt lat="46.60821" lon="5.50697">
        <ele>327.6</ele>
        <time>2022-08-12T05:54:35Z</time>
      </trkpt>
      <trkpt lat="46.60821" lon="5.50702">
        <ele>328</ele>
        <time>2022-08-12T05:54:36Z</time>
      </trkpt>
      <trkpt lat="46.6082" lon="5.50707">
        <ele>328</ele>
        <time>2022-08-12T05:54:37Z</time>
      </trkpt>
      <trkpt lat="46.60812" lon="5.50716">
        <ele>328.8</ele>
        <time>2022-08-12T05:54:40Z</time>
      </trkpt>
      <trkpt lat="46.60808" lon="5.50716">
        <ele>329</ele>
        <time>2022-08-12T05:54:41Z</time>
      </trkpt>
      <trkpt lat="46.60797" lon="5.50715">
        <ele>330</ele>
        <time>2022-08-12T05:54:44Z</time>
      </trkpt>
      <trkpt lat="46.60787" lon="5.50714">
        <ele>330.6</ele>
        <time>2022-08-12T05:54:47Z</time>
      </trkpt>
      <trkpt lat="46.60773" lon="5.50714">
        <ele>331.2</ele>
        <time>2022-08-12T05:54:51Z</time>
      </trkpt>
      <trkpt lat="46.60766" lon="5.50713">
        <ele>331.6</ele>
        <time>2022-08-12T05:54:53Z</time>
      </trkpt>
      <trkpt lat="46.60754" lon="5.50712">
        <ele>332.2</ele>
        <time>2022-08-12T05:54:56Z</time>
      </trkpt>
      <trkpt lat="46.6073" lon="5.50714">
        <ele>333</ele>
        <time>2022-08-12T05:55:02Z</time>
      </trkpt>
      <trkpt lat="46.60726" lon="5.50715">
        <ele>333.2</ele>
        <time>2022-08-12T05:55:03Z</time>
      </trkpt>
      <trkpt lat="46.60704" lon="5.50728">
        <ele>334.2</ele>
        <time>2022-08-12T05:55:09Z</time>
      </trkpt>
      <trkpt lat="46.607" lon="5.5073">
        <ele>334.6</ele>
        <time>2022-08-12T05:55:10Z</time>
      </trkpt>
      <trkpt lat="46.60678" lon="5.50743">
        <ele>335.8</ele>
        <time>2022-08-12T05:55:16Z</time>
      </trkpt>
      <trkpt lat="46.60662" lon="5.50751">
        <ele>336.4</ele>
        <time>2022-08-12T05:55:20Z</time>
      </trkpt>
      <trkpt lat="46.60646" lon="5.50758">
        <ele>337</ele>
        <time>2022-08-12T05:55:24Z</time>
      </trkpt>
      <trkpt lat="46.60627" lon="5.50764">
        <ele>338</ele>
        <time>2022-08-12T05:55:29Z</time>
      </trkpt>
      <trkpt lat="46.60624" lon="5.50765">
        <ele>338</ele>
        <time>2022-08-12T05:55:30Z</time>
      </trkpt>
      <trkpt lat="46.60606" lon="5.50768">
        <ele>339.2</ele>
        <time>2022-08-12T05:55:35Z</time>
      </trkpt>
      <trkpt lat="46.60599" lon="5.50768">
        <ele>339.8</ele>
        <time>2022-08-12T05:55:37Z</time>
      </trkpt>
      <trkpt lat="46.60588" lon="5.50768">
        <ele>340.4</ele>
        <time>2022-08-12T05:55:40Z</time>
      </trkpt>
      <trkpt lat="46.60575" lon="5.5077">
        <ele>341</ele>
        <time>2022-08-12T05:55:44Z</time>
      </trkpt>
      <trkpt lat="46.60571" lon="5.5077">
        <ele>341.2</ele>
        <time>2022-08-12T05:55:45Z</time>
      </trkpt>
      <trkpt lat="46.60563" lon="5.50771">
        <ele>341.6</ele>
        <time>2022-08-12T05:55:47Z</time>
      </trkpt>
      <trkpt lat="46.60541" lon="5.50773">
        <ele>342.4</ele>
        <time>2022-08-12T05:55:53Z</time>
      </trkpt>
      <trkpt lat="46.60537" lon="5.50773">
        <ele>342.6</ele>
        <time>2022-08-12T05:55:54Z</time>
      </trkpt>
      <trkpt lat="46.60512" lon="5.50773">
        <ele>343.6</ele>
        <time>2022-08-12T05:56:01Z</time>
      </trkpt>
      <trkpt lat="46.60501" lon="5.50772">
        <ele>344.2</ele>
        <time>2022-08-12T05:56:04Z</time>
      </trkpt>
      <trkpt lat="46.6049" lon="5.50771">
        <ele>344.6</ele>
        <time>2022-08-12T05:56:07Z</time>
      </trkpt>
      <trkpt lat="46.60468" lon="5.50768">
        <ele>345.8</ele>
        <time>2022-08-12T05:56:13Z</time>
      </trkpt>
      <trkpt lat="46.60442" lon="5.50764">
        <ele>347</ele>
        <time>2022-08-12T05:56:20Z</time>
      </trkpt>
      <trkpt lat="46.60428" lon="5.5076">
        <ele>347.6</ele>
        <time>2022-08-12T05:56:24Z</time>
      </trkpt>
      <trkpt lat="46.60417" lon="5.50757">
        <ele>348.2</ele>
        <time>2022-08-12T05:56:27Z</time>
      </trkpt>
      <trkpt lat="46.60397" lon="5.50749">
        <ele>349.6</ele>
        <time>2022-08-12T05:56:33Z</time>
      </trkpt>
      <trkpt lat="46.6039" lon="5.50746">
        <ele>349.8</ele>
        <time>2022-08-12T05:56:35Z</time>
      </trkpt>
      <trkpt lat="46.60372" lon="5.50739">
        <ele>350.6</ele>
        <time>2022-08-12T05:56:40Z</time>
      </trkpt>
      <trkpt lat="46.60358" lon="5.50734">
        <ele>351.6</ele>
        <time>2022-08-12T05:56:44Z</time>
      </trkpt>
      <trkpt lat="46.60355" lon="5.50733">
        <ele>351.8</ele>
        <time>2022-08-12T05:56:45Z</time>
      </trkpt>
      <trkpt lat="46.60337" lon="5.50728">
        <ele>352.8</ele>
        <time>2022-08-12T05:56:50Z</time>
      </trkpt>
      <trkpt lat="46.60325" lon="5.50726">
        <ele>353.2</ele>
        <time>2022-08-12T05:56:53Z</time>
      </trkpt>
      <trkpt lat="46.60302" lon="5.50725">
        <ele>354</ele>
        <time>2022-08-12T05:56:59Z</time>
      </trkpt>
      <trkpt lat="46.60282" lon="5.50725">
        <ele>355.2</ele>
        <time>2022-08-12T05:57:04Z</time>
      </trkpt>
      <trkpt lat="46.60262" lon="5.50727">
        <ele>355.8</ele>
        <time>2022-08-12T05:57:09Z</time>
      </trkpt>
      <trkpt lat="46.60251" lon="5.50726">
        <ele>356.2</ele>
        <time>2022-08-12T05:57:12Z</time>
      </trkpt>
      <trkpt lat="46.60248" lon="5.50725">
        <ele>356.6</ele>
        <time>2022-08-12T05:57:13Z</time>
      </trkpt>
      <trkpt lat="46.60233" lon="5.50722">
        <ele>357.2</ele>
        <time>2022-08-12T05:57:17Z</time>
      </trkpt>
      <trkpt lat="46.60224" lon="5.50719">
        <ele>357.6</ele>
        <time>2022-08-12T05:57:19Z</time>
      </trkpt>
      <trkpt lat="46.60208" lon="5.5071">
        <ele>358.4</ele>
        <time>2022-08-12T05:57:24Z</time>
      </trkpt>
      <trkpt lat="46.60206" lon="5.50709">
        <ele>358.8</ele>
        <time>2022-08-12T05:57:25Z</time>
      </trkpt>
      <trkpt lat="46.60199" lon="5.50709">
        <ele>358.8</ele>
        <time>2022-08-12T05:57:27Z</time>
      </trkpt>
      <trkpt lat="46.60189" lon="5.50706">
        <ele>359.2</ele>
        <time>2022-08-12T05:57:30Z</time>
      </trkpt>
      <trkpt lat="46.60182" lon="5.50703">
        <ele>359.8</ele>
        <time>2022-08-12T05:57:32Z</time>
      </trkpt>
      <trkpt lat="46.60179" lon="5.50702">
        <ele>359.8</ele>
        <time>2022-08-12T05:57:33Z</time>
      </trkpt>
      <trkpt lat="46.60169" lon="5.50695">
        <ele>360.6</ele>
        <time>2022-08-12T05:57:36Z</time>
      </trkpt>
      <trkpt lat="46.60165" lon="5.50692">
        <ele>360.8</ele>
        <time>2022-08-12T05:57:37Z</time>
      </trkpt>
      <trkpt lat="46.60149" lon="5.50682">
        <ele>361.8</ele>
        <time>2022-08-12T05:57:41Z</time>
      </trkpt>
      <trkpt lat="46.6014" lon="5.50679">
        <ele>362.4</ele>
        <time>2022-08-12T05:57:43Z</time>
      </trkpt>
      <trkpt lat="46.60128" lon="5.50672">
        <ele>362.8</ele>
        <time>2022-08-12T05:57:46Z</time>
      </trkpt>
      <trkpt lat="46.60119" lon="5.50662">
        <ele>363.6</ele>
        <time>2022-08-12T05:57:49Z</time>
      </trkpt>
      <trkpt lat="46.60115" lon="5.50659">
        <ele>363.8</ele>
        <time>2022-08-12T05:57:50Z</time>
      </trkpt>
      <trkpt lat="46.60099" lon="5.50645">
        <ele>364.8</ele>
        <time>2022-08-12T05:57:55Z</time>
      </trkpt>
      <trkpt lat="46.60096" lon="5.50642">
        <ele>365</ele>
        <time>2022-08-12T05:57:56Z</time>
      </trkpt>
      <trkpt lat="46.60076" lon="5.50625">
        <ele>366</ele>
        <time>2022-08-12T05:58:02Z</time>
      </trkpt>
      <trkpt lat="46.60073" lon="5.50622">
        <ele>366</ele>
        <time>2022-08-12T05:58:03Z</time>
      </trkpt>
      <trkpt lat="46.60057" lon="5.50606">
        <ele>367</ele>
        <time>2022-08-12T05:58:08Z</time>
      </trkpt>
      <trkpt lat="46.60039" lon="5.50587">
        <ele>368</ele>
        <time>2022-08-12T05:58:14Z</time>
      </trkpt>
      <trkpt lat="46.60014" lon="5.50563">
        <ele>369.2</ele>
        <time>2022-08-12T05:58:22Z</time>
      </trkpt>
      <trkpt lat="46.60008" lon="5.50558">
        <ele>369.6</ele>
        <time>2022-08-12T05:58:24Z</time>
      </trkpt>
      <trkpt lat="46.59994" lon="5.50549">
        <ele>370.4</ele>
        <time>2022-08-12T05:58:28Z</time>
      </trkpt>
      <trkpt lat="46.59977" lon="5.50543">
        <ele>371.4</ele>
        <time>2022-08-12T05:58:33Z</time>
      </trkpt>
      <trkpt lat="46.59949" lon="5.50542">
        <ele>372.4</ele>
        <time>2022-08-12T05:58:41Z</time>
      </trkpt>
      <trkpt lat="46.59945" lon="5.50543">
        <ele>372.6</ele>
        <time>2022-08-12T05:58:42Z</time>
      </trkpt>
      <trkpt lat="46.59933" lon="5.50561">
        <ele>373.4</ele>
        <time>2022-08-12T05:58:47Z</time>
      </trkpt>
      <trkpt lat="46.59933" lon="5.50566">
        <ele>373.6</ele>
        <time>2022-08-12T05:58:48Z</time>
      </trkpt>
      <trkpt lat="46.59936" lon="5.5058">
        <ele>373.8</ele>
        <time>2022-08-12T05:58:51Z</time>
      </trkpt>
      <trkpt lat="46.59949" lon="5.50589">
        <ele>374.2</ele>
        <time>2022-08-12T05:58:55Z</time>
      </trkpt>
      <trkpt lat="46.59956" lon="5.50587">
        <ele>374.6</ele>
        <time>2022-08-12T05:58:57Z</time>
      </trkpt>
      <trkpt lat="46.59959" lon="5.50585">
        <ele>374.6</ele>
        <time>2022-08-12T05:58:58Z</time>
      </trkpt>
      <trkpt lat="46.59965" lon="5.50582">
        <ele>375</ele>
        <time>2022-08-12T05:59:00Z</time>
      </trkpt>
      <trkpt lat="46.59976" lon="5.50581">
        <ele>375.6</ele>
        <time>2022-08-12T05:59:03Z</time>
      </trkpt>
      <trkpt lat="46.59991" lon="5.50586">
        <ele>376.6</ele>
        <time>2022-08-12T05:59:07Z</time>
      </trkpt>
      <trkpt lat="46.59994" lon="5.50588">
        <ele>376.6</ele>
        <time>2022-08-12T05:59:08Z</time>
      </trkpt>
      <trkpt lat="46.60006" lon="5.50602">
        <ele>377.6</ele>
        <time>2022-08-12T05:59:13Z</time>
      </trkpt>
      <trkpt lat="46.60012" lon="5.50609">
        <ele>378.2</ele>
        <time>2022-08-12T05:59:15Z</time>
      </trkpt>
      <trkpt lat="46.6002" lon="5.50616">
        <ele>378.8</ele>
        <time>2022-08-12T05:59:18Z</time>
      </trkpt>
      <trkpt lat="46.60032" lon="5.50627">
        <ele>379.8</ele>
        <time>2022-08-12T05:59:22Z</time>
      </trkpt>
      <trkpt lat="46.60034" lon="5.5063">
        <ele>380</ele>
        <time>2022-08-12T05:59:23Z</time>
      </trkpt>
      <trkpt lat="46.60036" lon="5.5064">
        <ele>380.2</ele>
        <time>2022-08-12T05:59:25Z</time>
      </trkpt>
      <trkpt lat="46.60033" lon="5.50649">
        <ele>380.8</ele>
        <time>2022-08-12T05:59:27Z</time>
      </trkpt>
      <trkpt lat="46.60031" lon="5.50651">
        <ele>381</ele>
        <time>2022-08-12T05:59:28Z</time>
      </trkpt>
      <trkpt lat="46.60027" lon="5.50653">
        <ele>381.2</ele>
        <time>2022-08-12T05:59:29Z</time>
      </trkpt>
      <trkpt lat="46.60019" lon="5.50648">
        <ele>381.6</ele>
        <time>2022-08-12T05:59:31Z</time>
      </trkpt>
      <trkpt lat="46.60011" lon="5.50634">
        <ele>382.2</ele>
        <time>2022-08-12T05:59:34Z</time>
      </trkpt>
      <trkpt lat="46.60006" lon="5.50627">
        <ele>382.8</ele>
        <time>2022-08-12T05:59:36Z</time>
      </trkpt>
      <trkpt lat="46.59999" lon="5.5062">
        <ele>383.2</ele>
        <time>2022-08-12T05:59:38Z</time>
      </trkpt>
      <trkpt lat="46.59979" lon="5.50607">
        <ele>384</ele>
        <time>2022-08-12T05:59:44Z</time>
      </trkpt>
      <trkpt lat="46.59968" lon="5.50608">
        <ele>384.4</ele>
        <time>2022-08-12T05:59:47Z</time>
      </trkpt>
      <trkpt lat="46.59965" lon="5.5061">
        <ele>384.6</ele>
        <time>2022-08-12T05:59:48Z</time>
      </trkpt>
      <trkpt lat="46.59953" lon="5.50628">
        <ele>385.2</ele>
        <time>2022-08-12T05:59:53Z</time>
      </trkpt>
      <trkpt lat="46.59952" lon="5.50632">
        <ele>385.4</ele>
        <time>2022-08-12T05:59:54Z</time>
      </trkpt>
      <trkpt lat="46.59947" lon="5.50657">
        <ele>386.2</ele>
        <time>2022-08-12T05:59:59Z</time>
      </trkpt>
      <trkpt lat="46.59947" lon="5.50662">
        <ele>386.6</ele>
        <time>2022-08-12T06:00:00Z</time>
      </trkpt>
      <trkpt lat="46.59944" lon="5.50682">
        <ele>387.2</ele>
        <time>2022-08-12T06:00:04Z</time>
      </trkpt>
      <trkpt lat="46.59942" lon="5.50692">
        <ele>387.6</ele>
        <time>2022-08-12T06:00:06Z</time>
      </trkpt>
      <trkpt lat="46.59935" lon="5.50716">
        <ele>388.8</ele>
        <time>2022-08-12T06:00:11Z</time>
      </trkpt>
      <trkpt lat="46.59931" lon="5.50726">
        <ele>389.2</ele>
        <time>2022-08-12T06:00:13Z</time>
      </trkpt>
      <trkpt lat="46.59927" lon="5.50736">
        <ele>389.6</ele>
        <time>2022-08-12T06:00:15Z</time>
      </trkpt>
      <trkpt lat="46.59922" lon="5.50746">
        <ele>389.8</ele>
        <time>2022-08-12T06:00:17Z</time>
      </trkpt>
      <trkpt lat="46.59911" lon="5.5077">
        <ele>390.8</ele>
        <time>2022-08-12T06:00:22Z</time>
      </trkpt>
      <trkpt lat="46.59899" lon="5.50791">
        <ele>392</ele>
        <time>2022-08-12T06:00:27Z</time>
      </trkpt>
      <trkpt lat="46.59893" lon="5.50804">
        <ele>392.6</ele>
        <time>2022-08-12T06:00:30Z</time>
      </trkpt>
      <trkpt lat="46.59889" lon="5.50813">
        <ele>393.2</ele>
        <time>2022-08-12T06:00:32Z</time>
      </trkpt>
      <trkpt lat="46.59883" lon="5.50832">
        <ele>394.2</ele>
        <time>2022-08-12T06:00:36Z</time>
      </trkpt>
      <trkpt lat="46.59881" lon="5.50843">
        <ele>394.6</ele>
        <time>2022-08-12T06:00:38Z</time>
      </trkpt>
      <trkpt lat="46.5988" lon="5.50854">
        <ele>395.2</ele>
        <time>2022-08-12T06:00:40Z</time>
      </trkpt>
      <trkpt lat="46.59883" lon="5.5087">
        <ele>395.6</ele>
        <time>2022-08-12T06:00:43Z</time>
      </trkpt>
      <trkpt lat="46.59889" lon="5.50883">
        <ele>396.4</ele>
        <time>2022-08-12T06:00:46Z</time>
      </trkpt>
      <trkpt lat="46.59896" lon="5.50893">
        <ele>397</ele>
        <time>2022-08-12T06:00:49Z</time>
      </trkpt>
      <trkpt lat="46.59904" lon="5.50903">
        <ele>397.4</ele>
        <time>2022-08-12T06:00:52Z</time>
      </trkpt>
      <trkpt lat="46.59916" lon="5.50922">
        <ele>398.4</ele>
        <time>2022-08-12T06:00:57Z</time>
      </trkpt>
      <trkpt lat="46.59918" lon="5.50927">
        <ele>398.6</ele>
        <time>2022-08-12T06:00:58Z</time>
      </trkpt>
      <trkpt lat="46.59921" lon="5.50947">
        <ele>399.4</ele>
        <time>2022-08-12T06:01:02Z</time>
      </trkpt>
      <trkpt lat="46.59921" lon="5.50958">
        <ele>400</ele>
        <time>2022-08-12T06:01:04Z</time>
      </trkpt>
      <trkpt lat="46.59917" lon="5.50977">
        <ele>400.6</ele>
        <time>2022-08-12T06:01:08Z</time>
      </trkpt>
      <trkpt lat="46.59914" lon="5.50986">
        <ele>401.4</ele>
        <time>2022-08-12T06:01:10Z</time>
      </trkpt>
      <trkpt lat="46.59911" lon="5.50996">
        <ele>401.6</ele>
        <time>2022-08-12T06:01:12Z</time>
      </trkpt>
      <trkpt lat="46.59905" lon="5.51013">
        <ele>402.2</ele>
        <time>2022-08-12T06:01:16Z</time>
      </trkpt>
      <trkpt lat="46.599" lon="5.5102">
        <ele>402.6</ele>
        <time>2022-08-12T06:01:18Z</time>
      </trkpt>
      <trkpt lat="46.59888" lon="5.51034">
        <ele>403.8</ele>
        <time>2022-08-12T06:01:23Z</time>
      </trkpt>
      <trkpt lat="46.59885" lon="5.51037">
        <ele>404</ele>
        <time>2022-08-12T06:01:24Z</time>
      </trkpt>
      <trkpt lat="46.59872" lon="5.51043">
        <ele>404.8</ele>
        <time>2022-08-12T06:01:28Z</time>
      </trkpt>
      <trkpt lat="46.59861" lon="5.51047">
        <ele>405.8</ele>
        <time>2022-08-12T06:01:31Z</time>
      </trkpt>
      <trkpt lat="46.59854" lon="5.51049">
        <ele>406.2</ele>
        <time>2022-08-12T06:01:33Z</time>
      </trkpt>
      <trkpt lat="46.59835" lon="5.51055">
        <ele>406.6</ele>
        <time>2022-08-12T06:01:38Z</time>
      </trkpt>
      <trkpt lat="46.59827" lon="5.51057">
        <ele>407</ele>
        <time>2022-08-12T06:01:40Z</time>
      </trkpt>
      <trkpt lat="46.59812" lon="5.51062">
        <ele>408</ele>
        <time>2022-08-12T06:01:44Z</time>
      </trkpt>
      <trkpt lat="46.59809" lon="5.51063">
        <ele>408.2</ele>
        <time>2022-08-12T06:01:45Z</time>
      </trkpt>
      <trkpt lat="46.59792" lon="5.5107">
        <ele>409.4</ele>
        <time>2022-08-12T06:01:50Z</time>
      </trkpt>
      <trkpt lat="46.59776" lon="5.51068">
        <ele>410.4</ele>
        <time>2022-08-12T06:01:55Z</time>
      </trkpt>
      <trkpt lat="46.59763" lon="5.51058">
        <ele>411.6</ele>
        <time>2022-08-12T06:02:00Z</time>
      </trkpt>
      <trkpt lat="46.59749" lon="5.51052">
        <ele>412.6</ele>
        <time>2022-08-12T06:02:04Z</time>
      </trkpt>
      <trkpt lat="46.59735" lon="5.51044">
        <ele>413.6</ele>
        <time>2022-08-12T06:02:08Z</time>
      </trkpt>
      <trkpt lat="46.59718" lon="5.51032">
        <ele>414.6</ele>
        <time>2022-08-12T06:02:14Z</time>
      </trkpt>
      <trkpt lat="46.59702" lon="5.51028">
        <ele>415.8</ele>
        <time>2022-08-12T06:02:19Z</time>
      </trkpt>
      <trkpt lat="46.5969" lon="5.51026">
        <ele>416.4</ele>
        <time>2022-08-12T06:02:22Z</time>
      </trkpt>
      <trkpt lat="46.59681" lon="5.51023">
        <ele>416.8</ele>
        <time>2022-08-12T06:02:25Z</time>
      </trkpt>
      <trkpt lat="46.59674" lon="5.51023">
        <ele>417.2</ele>
        <time>2022-08-12T06:02:27Z</time>
      </trkpt>
      <trkpt lat="46.5967" lon="5.51022">
        <ele>417.4</ele>
        <time>2022-08-12T06:02:28Z</time>
      </trkpt>
      <trkpt lat="46.59666" lon="5.51022">
        <ele>417.8</ele>
        <time>2022-08-12T06:02:29Z</time>
      </trkpt>
      <trkpt lat="46.5966" lon="5.51019">
        <ele>418.2</ele>
        <time>2022-08-12T06:02:31Z</time>
      </trkpt>
      <trkpt lat="46.59646" lon="5.51015">
        <ele>419</ele>
        <time>2022-08-12T06:02:35Z</time>
      </trkpt>
      <trkpt lat="46.59638" lon="5.51013">
        <ele>419.4</ele>
        <time>2022-08-12T06:02:37Z</time>
      </trkpt>
      <trkpt lat="46.59634" lon="5.51011">
        <ele>419.6</ele>
        <time>2022-08-12T06:02:38Z</time>
      </trkpt>
      <trkpt lat="46.59624" lon="5.51005">
        <ele>420.2</ele>
        <time>2022-08-12T06:02:41Z</time>
      </trkpt>
      <trkpt lat="46.59607" lon="5.51002">
        <ele>420.8</ele>
        <time>2022-08-12T06:02:45Z</time>
      </trkpt>
      <trkpt lat="46.59604" lon="5.51001">
        <ele>421</ele>
        <time>2022-08-12T06:02:46Z</time>
      </trkpt>
      <trkpt lat="46.59587" lon="5.50995">
        <ele>422</ele>
        <time>2022-08-12T06:02:51Z</time>
      </trkpt>
      <trkpt lat="46.59574" lon="5.50991">
        <ele>423.2</ele>
        <time>2022-08-12T06:02:55Z</time>
      </trkpt>
      <trkpt lat="46.59571" lon="5.5099">
        <ele>423.4</ele>
        <time>2022-08-12T06:02:56Z</time>
      </trkpt>
      <trkpt lat="46.59563" lon="5.50985">
        <ele>424.2</ele>
        <time>2022-08-12T06:02:59Z</time>
      </trkpt>
      <trkpt lat="46.59552" lon="5.50985">
        <ele>424.6</ele>
        <time>2022-08-12T06:03:02Z</time>
      </trkpt>
      <trkpt lat="46.59545" lon="5.50984">
        <ele>425.2</ele>
        <time>2022-08-12T06:03:04Z</time>
      </trkpt>
      <trkpt lat="46.59523" lon="5.50983">
        <ele>426.6</ele>
        <time>2022-08-12T06:03:10Z</time>
      </trkpt>
      <trkpt lat="46.59519" lon="5.50983">
        <ele>426.6</ele>
        <time>2022-08-12T06:03:11Z</time>
      </trkpt>
      <trkpt lat="46.59504" lon="5.50985">
        <ele>427.6</ele>
        <time>2022-08-12T06:03:15Z</time>
      </trkpt>
      <trkpt lat="46.59489" lon="5.50989">
        <ele>428.2</ele>
        <time>2022-08-12T06:03:19Z</time>
      </trkpt>
      <trkpt lat="46.59482" lon="5.50992">
        <ele>428.6</ele>
        <time>2022-08-12T06:03:21Z</time>
      </trkpt>
      <trkpt lat="46.59465" lon="5.51003">
        <ele>429.4</ele>
        <time>2022-08-12T06:03:26Z</time>
      </trkpt>
      <trkpt lat="46.59458" lon="5.51008">
        <ele>429.6</ele>
        <time>2022-08-12T06:03:28Z</time>
      </trkpt>
      <trkpt lat="46.59444" lon="5.51022">
        <ele>430.6</ele>
        <time>2022-08-12T06:03:33Z</time>
      </trkpt>
      <trkpt lat="46.59442" lon="5.51026">
        <ele>430.8</ele>
        <time>2022-08-12T06:03:34Z</time>
      </trkpt>
      <trkpt lat="46.59435" lon="5.51042">
        <ele>431.8</ele>
        <time>2022-08-12T06:03:38Z</time>
      </trkpt>
      <trkpt lat="46.59434" lon="5.51045">
        <ele>431.8</ele>
        <time>2022-08-12T06:03:39Z</time>
      </trkpt>
      <trkpt lat="46.59428" lon="5.51073">
        <ele>432.8</ele>
        <time>2022-08-12T06:03:45Z</time>
      </trkpt>
      <trkpt lat="46.59425" lon="5.51093">
        <ele>433.4</ele>
        <time>2022-08-12T06:03:49Z</time>
      </trkpt>
      <trkpt lat="46.59422" lon="5.51108">
        <ele>434</ele>
        <time>2022-08-12T06:03:52Z</time>
      </trkpt>
      <trkpt lat="46.5942" lon="5.51127">
        <ele>434.8</ele>
        <time>2022-08-12T06:03:56Z</time>
      </trkpt>
      <trkpt lat="46.5942" lon="5.51132">
        <ele>435.2</ele>
        <time>2022-08-12T06:03:57Z</time>
      </trkpt>
      <trkpt lat="46.59424" lon="5.51161">
        <ele>436</ele>
        <time>2022-08-12T06:04:03Z</time>
      </trkpt>
      <trkpt lat="46.59431" lon="5.51192">
        <ele>437</ele>
        <time>2022-08-12T06:04:09Z</time>
      </trkpt>
      <trkpt lat="46.59431" lon="5.51197">
        <ele>437.4</ele>
        <time>2022-08-12T06:04:10Z</time>
      </trkpt>
      <trkpt lat="46.59428" lon="5.51223">
        <ele>438.2</ele>
        <time>2022-08-12T06:04:15Z</time>
      </trkpt>
      <trkpt lat="46.59427" lon="5.51233">
        <ele>438.6</ele>
        <time>2022-08-12T06:04:17Z</time>
      </trkpt>
      <trkpt lat="46.59424" lon="5.51252">
        <ele>439.8</ele>
        <time>2022-08-12T06:04:21Z</time>
      </trkpt>
      <trkpt lat="46.59425" lon="5.51267">
        <ele>440.4</ele>
        <time>2022-08-12T06:04:24Z</time>
      </trkpt>
      <trkpt lat="46.59431" lon="5.5128">
        <ele>440.8</ele>
        <time>2022-08-12T06:04:27Z</time>
      </trkpt>
      <trkpt lat="46.59437" lon="5.51288">
        <ele>441.2</ele>
        <time>2022-08-12T06:04:29Z</time>
      </trkpt>
      <trkpt lat="46.59445" lon="5.513">
        <ele>441.8</ele>
        <time>2022-08-12T06:04:32Z</time>
      </trkpt>
      <trkpt lat="46.59457" lon="5.51319">
        <ele>442.6</ele>
        <time>2022-08-12T06:04:36Z</time>
      </trkpt>
      <trkpt lat="46.59468" lon="5.51338">
        <ele>443</ele>
        <time>2022-08-12T06:04:40Z</time>
      </trkpt>
      <trkpt lat="46.59485" lon="5.51363">
        <ele>444</ele>
        <time>2022-08-12T06:04:46Z</time>
      </trkpt>
      <trkpt lat="46.59491" lon="5.5137">
        <ele>444.2</ele>
        <time>2022-08-12T06:04:48Z</time>
      </trkpt>
      <trkpt lat="46.59502" lon="5.5138">
        <ele>444.4</ele>
        <time>2022-08-12T06:04:51Z</time>
      </trkpt>
      <trkpt lat="46.59513" lon="5.51385">
        <ele>444.4</ele>
        <time>2022-08-12T06:04:53Z</time>
      </trkpt>
      <trkpt lat="46.59553" lon="5.51396">
        <ele>444.2</ele>
        <time>2022-08-12T06:04:59Z</time>
      </trkpt>
      <trkpt lat="46.596" lon="5.51405">
        <ele>442.6</ele>
        <time>2022-08-12T06:05:05Z</time>
      </trkpt>
      <trkpt lat="46.59625" lon="5.51425">
        <ele>441.6</ele>
        <time>2022-08-12T06:05:09Z</time>
      </trkpt>
      <trkpt lat="46.59653" lon="5.51443">
        <ele>441.6</ele>
        <time>2022-08-12T06:05:14Z</time>
      </trkpt>
      <trkpt lat="46.59673" lon="5.51453">
        <ele>443</ele>
        <time>2022-08-12T06:05:18Z</time>
      </trkpt>
      <trkpt lat="46.59682" lon="5.51456">
        <ele>443.6</ele>
        <time>2022-08-12T06:05:20Z</time>
      </trkpt>
      <trkpt lat="46.59691" lon="5.5146">
        <ele>444</ele>
        <time>2022-08-12T06:05:22Z</time>
      </trkpt>
      <trkpt lat="46.59709" lon="5.51468">
        <ele>445.2</ele>
        <time>2022-08-12T06:05:26Z</time>
      </trkpt>
      <trkpt lat="46.59713" lon="5.5147">
        <ele>445.4</ele>
        <time>2022-08-12T06:05:27Z</time>
      </trkpt>
      <trkpt lat="46.59717" lon="5.51472">
        <ele>445.6</ele>
        <time>2022-08-12T06:05:28Z</time>
      </trkpt>
      <trkpt lat="46.5973" lon="5.51479">
        <ele>446.6</ele>
        <time>2022-08-12T06:05:31Z</time>
      </trkpt>
      <trkpt lat="46.59746" lon="5.51486">
        <ele>447</ele>
        <time>2022-08-12T06:05:34Z</time>
      </trkpt>
      <trkpt lat="46.59752" lon="5.51487">
        <ele>447.2</ele>
        <time>2022-08-12T06:05:35Z</time>
      </trkpt>
      <trkpt lat="46.59763" lon="5.51486">
        <ele>447.4</ele>
        <time>2022-08-12T06:05:37Z</time>
      </trkpt>
      <trkpt lat="46.59768" lon="5.51484">
        <ele>447.4</ele>
        <time>2022-08-12T06:05:38Z</time>
      </trkpt>
      <trkpt lat="46.59773" lon="5.51481">
        <ele>447.4</ele>
        <time>2022-08-12T06:05:39Z</time>
      </trkpt>
      <trkpt lat="46.59793" lon="5.51464">
        <ele>447</ele>
        <time>2022-08-12T06:05:43Z</time>
      </trkpt>
      <trkpt lat="46.59798" lon="5.5146">
        <ele>447</ele>
        <time>2022-08-12T06:05:44Z</time>
      </trkpt>
      <trkpt lat="46.59816" lon="5.51449">
        <ele>447.4</ele>
        <time>2022-08-12T06:05:48Z</time>
      </trkpt>
      <trkpt lat="46.59826" lon="5.51444">
        <ele>447.4</ele>
        <time>2022-08-12T06:05:50Z</time>
      </trkpt>
      <trkpt lat="46.59838" lon="5.51437">
        <ele>448.2</ele>
        <time>2022-08-12T06:05:53Z</time>
      </trkpt>
      <trkpt lat="46.59842" lon="5.51435">
        <ele>448.8</ele>
        <time>2022-08-12T06:05:54Z</time>
      </trkpt>
      <trkpt lat="46.59863" lon="5.51424">
        <ele>450</ele>
        <time>2022-08-12T06:05:59Z</time>
      </trkpt>
      <trkpt lat="46.59871" lon="5.5142">
        <ele>450.6</ele>
        <time>2022-08-12T06:06:01Z</time>
      </trkpt>
      <trkpt lat="46.59884" lon="5.51415">
        <ele>451.2</ele>
        <time>2022-08-12T06:06:04Z</time>
      </trkpt>
      <trkpt lat="46.59908" lon="5.5141">
        <ele>452.2</ele>
        <time>2022-08-12T06:06:09Z</time>
      </trkpt>
      <trkpt lat="46.59927" lon="5.51411">
        <ele>452.6</ele>
        <time>2022-08-12T06:06:12Z</time>
      </trkpt>
      <trkpt lat="46.59934" lon="5.51414">
        <ele>452.4</ele>
        <time>2022-08-12T06:06:13Z</time>
      </trkpt>
      <trkpt lat="46.5994" lon="5.51417">
        <ele>452.2</ele>
        <time>2022-08-12T06:06:14Z</time>
      </trkpt>
      <trkpt lat="46.59952" lon="5.51429">
        <ele>452</ele>
        <time>2022-08-12T06:06:16Z</time>
      </trkpt>
      <trkpt lat="46.59962" lon="5.51446">
        <ele>451.2</ele>
        <time>2022-08-12T06:06:18Z</time>
      </trkpt>
      <trkpt lat="46.59965" lon="5.51456">
        <ele>450.8</ele>
        <time>2022-08-12T06:06:19Z</time>
      </trkpt>
      <trkpt lat="46.5997" lon="5.51475">
        <ele>450.2</ele>
        <time>2022-08-12T06:06:21Z</time>
      </trkpt>
      <trkpt lat="46.59973" lon="5.51504">
        <ele>449</ele>
        <time>2022-08-12T06:06:24Z</time>
      </trkpt>
      <trkpt lat="46.59978" lon="5.51562">
        <ele>449.6</ele>
        <time>2022-08-12T06:06:31Z</time>
      </trkpt>
      <trkpt lat="46.59977" lon="5.51576">
        <ele>450.2</ele>
        <time>2022-08-12T06:06:33Z</time>
      </trkpt>
      <trkpt lat="46.59975" lon="5.51601">
        <ele>451</ele>
        <time>2022-08-12T06:06:37Z</time>
      </trkpt>
      <trkpt lat="46.59974" lon="5.51607">
        <ele>451.2</ele>
        <time>2022-08-12T06:06:38Z</time>
      </trkpt>
      <trkpt lat="46.59969" lon="5.51621">
        <ele>452.4</ele>
        <time>2022-08-12T06:06:41Z</time>
      </trkpt>
      <trkpt lat="46.59967" lon="5.51625">
        <ele>452.6</ele>
        <time>2022-08-12T06:06:42Z</time>
      </trkpt>
      <trkpt lat="46.59959" lon="5.51638">
        <ele>453.4</ele>
        <time>2022-08-12T06:06:45Z</time>
      </trkpt>
      <trkpt lat="46.59947" lon="5.5166">
        <ele>454.8</ele>
        <time>2022-08-12T06:06:50Z</time>
      </trkpt>
      <trkpt lat="46.59937" lon="5.51679">
        <ele>456.4</ele>
        <time>2022-08-12T06:06:55Z</time>
      </trkpt>
      <trkpt lat="46.5993" lon="5.51691">
        <ele>457.2</ele>
        <time>2022-08-12T06:06:58Z</time>
      </trkpt>
      <trkpt lat="46.59928" lon="5.51695">
        <ele>457.6</ele>
        <time>2022-08-12T06:06:59Z</time>
      </trkpt>
      <trkpt lat="46.5992" lon="5.51716">
        <ele>458.6</ele>
        <time>2022-08-12T06:07:04Z</time>
      </trkpt>
      <trkpt lat="46.59917" lon="5.51726">
        <ele>459.2</ele>
        <time>2022-08-12T06:07:06Z</time>
      </trkpt>
      <trkpt lat="46.59914" lon="5.51742">
        <ele>459.8</ele>
        <time>2022-08-12T06:07:09Z</time>
      </trkpt>
      <trkpt lat="46.59907" lon="5.51769">
        <ele>460.8</ele>
        <time>2022-08-12T06:07:14Z</time>
      </trkpt>
      <trkpt lat="46.59894" lon="5.51793">
        <ele>461.8</ele>
        <time>2022-08-12T06:07:20Z</time>
      </trkpt>
      <trkpt lat="46.59881" lon="5.5181">
        <ele>463</ele>
        <time>2022-08-12T06:07:25Z</time>
      </trkpt>
      <trkpt lat="46.59876" lon="5.51818">
        <ele>463.2</ele>
        <time>2022-08-12T06:07:27Z</time>
      </trkpt>
      <trkpt lat="46.59861" lon="5.51836">
        <ele>464</ele>
        <time>2022-08-12T06:07:32Z</time>
      </trkpt>
      <trkpt lat="46.59851" lon="5.51846">
        <ele>464.4</ele>
        <time>2022-08-12T06:07:35Z</time>
      </trkpt>
      <trkpt lat="46.59831" lon="5.51864">
        <ele>465.2</ele>
        <time>2022-08-12T06:07:41Z</time>
      </trkpt>
      <trkpt lat="46.59821" lon="5.51872">
        <ele>465.6</ele>
        <time>2022-08-12T06:07:44Z</time>
      </trkpt>
      <trkpt lat="46.59807" lon="5.51881">
        <ele>466.2</ele>
        <time>2022-08-12T06:07:48Z</time>
      </trkpt>
      <trkpt lat="46.5979" lon="5.51891">
        <ele>467</ele>
        <time>2022-08-12T06:07:53Z</time>
      </trkpt>
      <trkpt lat="46.59783" lon="5.51894">
        <ele>467.4</ele>
        <time>2022-08-12T06:07:55Z</time>
      </trkpt>
      <trkpt lat="46.59758" lon="5.51907">
        <ele>468.4</ele>
        <time>2022-08-12T06:08:02Z</time>
      </trkpt>
      <trkpt lat="46.59754" lon="5.51909">
        <ele>468.6</ele>
        <time>2022-08-12T06:08:03Z</time>
      </trkpt>
      <trkpt lat="46.59725" lon="5.51921">
        <ele>469.4</ele>
        <time>2022-08-12T06:08:10Z</time>
      </trkpt>
      <trkpt lat="46.59721" lon="5.51923">
        <ele>469.6</ele>
        <time>2022-08-12T06:08:11Z</time>
      </trkpt>
      <trkpt lat="46.59712" lon="5.51926">
        <ele>469.6</ele>
        <time>2022-08-12T06:08:13Z</time>
      </trkpt>
      <trkpt lat="46.59703" lon="5.51926">
        <ele>469.8</ele>
        <time>2022-08-12T06:08:15Z</time>
      </trkpt>
      <trkpt lat="46.59699" lon="5.51924">
        <ele>469.8</ele>
        <time>2022-08-12T06:08:16Z</time>
      </trkpt>
      <trkpt lat="46.59687" lon="5.51917">
        <ele>470</ele>
        <time>2022-08-12T06:08:19Z</time>
      </trkpt>
      <trkpt lat="46.59679" lon="5.51917">
        <ele>470</ele>
        <time>2022-08-12T06:08:21Z</time>
      </trkpt>
      <trkpt lat="46.59675" lon="5.51918">
        <ele>470.2</ele>
        <time>2022-08-12T06:08:22Z</time>
      </trkpt>
      <trkpt lat="46.59672" lon="5.51921">
        <ele>470.2</ele>
        <time>2022-08-12T06:08:23Z</time>
      </trkpt>
      <trkpt lat="46.59666" lon="5.51929">
        <ele>470.6</ele>
        <time>2022-08-12T06:08:25Z</time>
      </trkpt>
      <trkpt lat="46.59662" lon="5.51948">
        <ele>471.2</ele>
        <time>2022-08-12T06:08:29Z</time>
      </trkpt>
      <trkpt lat="46.59662" lon="5.51957">
        <ele>471.4</ele>
        <time>2022-08-12T06:08:31Z</time>
      </trkpt>
      <trkpt lat="46.59663" lon="5.51961">
        <ele>471.6</ele>
        <time>2022-08-12T06:08:32Z</time>
      </trkpt>
      <trkpt lat="46.59666" lon="5.51965">
        <ele>471.6</ele>
        <time>2022-08-12T06:08:33Z</time>
      </trkpt>
      <trkpt lat="46.59674" lon="5.51969">
        <ele>471.8</ele>
        <time>2022-08-12T06:08:35Z</time>
      </trkpt>
      <trkpt lat="46.59698" lon="5.51967">
        <ele>472.4</ele>
        <time>2022-08-12T06:08:40Z</time>
      </trkpt>
      <trkpt lat="46.59703" lon="5.51966">
        <ele>472.4</ele>
        <time>2022-08-12T06:08:41Z</time>
      </trkpt>
      <trkpt lat="46.59738" lon="5.51963">
        <ele>473</ele>
        <time>2022-08-12T06:08:48Z</time>
      </trkpt>
      <trkpt lat="46.59747" lon="5.51963">
        <ele>473.4</ele>
        <time>2022-08-12T06:08:50Z</time>
      </trkpt>
      <trkpt lat="46.5977" lon="5.51961">
        <ele>474.6</ele>
        <time>2022-08-12T06:08:55Z</time>
      </trkpt>
      <trkpt lat="46.59784" lon="5.5196">
        <ele>475.2</ele>
        <time>2022-08-12T06:08:58Z</time>
      </trkpt>
      <trkpt lat="46.59794" lon="5.51959">
        <ele>475.6</ele>
        <time>2022-08-12T06:09:00Z</time>
      </trkpt>
      <trkpt lat="46.59832" lon="5.51958">
        <ele>476.8</ele>
        <time>2022-08-12T06:09:08Z</time>
      </trkpt>
      <trkpt lat="46.5987" lon="5.51957">
        <ele>477.6</ele>
        <time>2022-08-12T06:09:16Z</time>
      </trkpt>
      <trkpt lat="46.59879" lon="5.51957">
        <ele>477.8</ele>
        <time>2022-08-12T06:09:18Z</time>
      </trkpt>
      <trkpt lat="46.59911" lon="5.51961">
        <ele>479</ele>
        <time>2022-08-12T06:09:25Z</time>
      </trkpt>
      <trkpt lat="46.5995" lon="5.51968">
        <ele>480</ele>
        <time>2022-08-12T06:09:33Z</time>
      </trkpt>
      <trkpt lat="46.5999" lon="5.51979">
        <ele>480.2</ele>
        <time>2022-08-12T06:09:40Z</time>
      </trkpt>
      <trkpt lat="46.59996" lon="5.51981">
        <ele>480.2</ele>
        <time>2022-08-12T06:09:41Z</time>
      </trkpt>
      <trkpt lat="46.60032" lon="5.51992">
        <ele>479.8</ele>
        <time>2022-08-12T06:09:47Z</time>
      </trkpt>
      <trkpt lat="46.60086" lon="5.52006">
        <ele>479.2</ele>
        <time>2022-08-12T06:09:55Z</time>
      </trkpt>
      <trkpt lat="46.60093" lon="5.52007">
        <ele>478.8</ele>
        <time>2022-08-12T06:09:56Z</time>
      </trkpt>
      <trkpt lat="46.60135" lon="5.52014">
        <ele>477.8</ele>
        <time>2022-08-12T06:10:01Z</time>
      </trkpt>
      <trkpt lat="46.60161" lon="5.52017">
        <ele>476.6</ele>
        <time>2022-08-12T06:10:04Z</time>
      </trkpt>
      <trkpt lat="46.60189" lon="5.52016">
        <ele>475.6</ele>
        <time>2022-08-12T06:10:07Z</time>
      </trkpt>
      <trkpt lat="46.60228" lon="5.52018">
        <ele>474.2</ele>
        <time>2022-08-12T06:10:11Z</time>
      </trkpt>
      <trkpt lat="46.60237" lon="5.52021">
        <ele>473.6</ele>
        <time>2022-08-12T06:10:12Z</time>
      </trkpt>
      <trkpt lat="46.60256" lon="5.52026">
        <ele>472.6</ele>
        <time>2022-08-12T06:10:14Z</time>
      </trkpt>
      <trkpt lat="46.60273" lon="5.52032">
        <ele>471.6</ele>
        <time>2022-08-12T06:10:16Z</time>
      </trkpt>
      <trkpt lat="46.6029" lon="5.5204">
        <ele>471</ele>
        <time>2022-08-12T06:10:18Z</time>
      </trkpt>
      <trkpt lat="46.60329" lon="5.5206">
        <ele>470.4</ele>
        <time>2022-08-12T06:10:23Z</time>
      </trkpt>
      <trkpt lat="46.60352" lon="5.52071">
        <ele>470.2</ele>
        <time>2022-08-12T06:10:26Z</time>
      </trkpt>
      <trkpt lat="46.60367" lon="5.52077">
        <ele>470</ele>
        <time>2022-08-12T06:10:28Z</time>
      </trkpt>
      <trkpt lat="46.60382" lon="5.52084">
        <ele>469.8</ele>
        <time>2022-08-12T06:10:30Z</time>
      </trkpt>
      <trkpt lat="46.60394" lon="5.521">
        <ele>469.6</ele>
        <time>2022-08-12T06:10:32Z</time>
      </trkpt>
      <trkpt lat="46.60397" lon="5.52109">
        <ele>469.4</ele>
        <time>2022-08-12T06:10:33Z</time>
      </trkpt>
      <trkpt lat="46.60396" lon="5.52117">
        <ele>469.4</ele>
        <time>2022-08-12T06:10:34Z</time>
      </trkpt>
      <trkpt lat="46.6039" lon="5.52124">
        <ele>469</ele>
        <time>2022-08-12T06:10:35Z</time>
      </trkpt>
      <trkpt lat="46.6037" lon="5.52135">
        <ele>468.4</ele>
        <time>2022-08-12T06:10:37Z</time>
      </trkpt>
      <trkpt lat="46.60359" lon="5.5214">
        <ele>468</ele>
        <time>2022-08-12T06:10:38Z</time>
      </trkpt>
      <trkpt lat="46.60335" lon="5.52147">
        <ele>466.2</ele>
        <time>2022-08-12T06:10:40Z</time>
      </trkpt>
      <trkpt lat="46.6031" lon="5.52153">
        <ele>464.4</ele>
        <time>2022-08-12T06:10:42Z</time>
      </trkpt>
      <trkpt lat="46.60286" lon="5.52162">
        <ele>463.4</ele>
        <time>2022-08-12T06:10:44Z</time>
      </trkpt>
      <trkpt lat="46.60273" lon="5.52167">
        <ele>462.4</ele>
        <time>2022-08-12T06:10:45Z</time>
      </trkpt>
      <trkpt lat="46.60261" lon="5.52177">
        <ele>462</ele>
        <time>2022-08-12T06:10:46Z</time>
      </trkpt>
      <trkpt lat="46.60249" lon="5.52189">
        <ele>461</ele>
        <time>2022-08-12T06:10:47Z</time>
      </trkpt>
      <trkpt lat="46.60229" lon="5.52217">
        <ele>459.6</ele>
        <time>2022-08-12T06:10:49Z</time>
      </trkpt>
      <trkpt lat="46.60218" lon="5.52245">
        <ele>457.4</ele>
        <time>2022-08-12T06:10:51Z</time>
      </trkpt>
      <trkpt lat="46.60219" lon="5.5228">
        <ele>455.4</ele>
        <time>2022-08-12T06:10:53Z</time>
      </trkpt>
      <trkpt lat="46.60224" lon="5.52317">
        <ele>454.2</ele>
        <time>2022-08-12T06:10:55Z</time>
      </trkpt>
      <trkpt lat="46.60223" lon="5.52375">
        <ele>453.6</ele>
        <time>2022-08-12T06:10:59Z</time>
      </trkpt>
      <trkpt lat="46.60217" lon="5.52454">
        <ele>453.8</ele>
        <time>2022-08-12T06:11:05Z</time>
      </trkpt>
      <trkpt lat="46.60212" lon="5.52477">
        <ele>454</ele>
        <time>2022-08-12T06:11:07Z</time>
      </trkpt>
      <trkpt lat="46.60206" lon="5.52499">
        <ele>454.6</ele>
        <time>2022-08-12T06:11:09Z</time>
      </trkpt>
      <trkpt lat="46.60192" lon="5.52545">
        <ele>455.6</ele>
        <time>2022-08-12T06:11:14Z</time>
      </trkpt>
      <trkpt lat="46.60184" lon="5.5257">
        <ele>456.8</ele>
        <time>2022-08-12T06:11:17Z</time>
      </trkpt>
      <trkpt lat="46.60177" lon="5.52591">
        <ele>457.6</ele>
        <time>2022-08-12T06:11:20Z</time>
      </trkpt>
      <trkpt lat="46.60174" lon="5.52604">
        <ele>458.8</ele>
        <time>2022-08-12T06:11:22Z</time>
      </trkpt>
      <trkpt lat="46.60171" lon="5.52616">
        <ele>459.8</ele>
        <time>2022-08-12T06:11:24Z</time>
      </trkpt>
      <trkpt lat="46.60169" lon="5.52626">
        <ele>461</ele>
        <time>2022-08-12T06:11:26Z</time>
      </trkpt>
      <trkpt lat="46.60166" lon="5.52641">
        <ele>462.2</ele>
        <time>2022-08-12T06:11:29Z</time>
      </trkpt>
      <trkpt lat="46.60165" lon="5.52654">
        <ele>463.4</ele>
        <time>2022-08-12T06:11:32Z</time>
      </trkpt>
      <trkpt lat="46.60164" lon="5.52664">
        <ele>464</ele>
        <time>2022-08-12T06:11:34Z</time>
      </trkpt>
      <trkpt lat="46.60164" lon="5.52668">
        <ele>464.4</ele>
        <time>2022-08-12T06:11:35Z</time>
      </trkpt>
      <trkpt lat="46.60164" lon="5.52682">
        <ele>465.8</ele>
        <time>2022-08-12T06:11:38Z</time>
      </trkpt>
      <trkpt lat="46.60161" lon="5.52709">
        <ele>466.6</ele>
        <time>2022-08-12T06:11:43Z</time>
      </trkpt>
      <trkpt lat="46.6016" lon="5.52715">
        <ele>467</ele>
        <time>2022-08-12T06:11:44Z</time>
      </trkpt>
      <trkpt lat="46.60151" lon="5.5274">
        <ele>467.6</ele>
        <time>2022-08-12T06:11:49Z</time>
      </trkpt>
      <trkpt lat="46.60144" lon="5.52751">
        <ele>468</ele>
        <time>2022-08-12T06:11:52Z</time>
      </trkpt>
      <trkpt lat="46.60134" lon="5.52763">
        <ele>469</ele>
        <time>2022-08-12T06:11:56Z</time>
      </trkpt>
      <trkpt lat="46.60131" lon="5.52766">
        <ele>469.2</ele>
        <time>2022-08-12T06:11:57Z</time>
      </trkpt>
      <trkpt lat="46.6012" lon="5.52775">
        <ele>470.2</ele>
        <time>2022-08-12T06:12:01Z</time>
      </trkpt>
      <trkpt lat="46.60112" lon="5.52782">
        <ele>470.8</ele>
        <time>2022-08-12T06:12:04Z</time>
      </trkpt>
      <trkpt lat="46.60109" lon="5.52784">
        <ele>471.2</ele>
        <time>2022-08-12T06:12:05Z</time>
      </trkpt>
      <trkpt lat="46.60095" lon="5.52792">
        <ele>472.4</ele>
        <time>2022-08-12T06:12:10Z</time>
      </trkpt>
      <trkpt lat="46.60083" lon="5.52799">
        <ele>473.2</ele>
        <time>2022-08-12T06:12:14Z</time>
      </trkpt>
      <trkpt lat="46.60077" lon="5.52802">
        <ele>473.6</ele>
        <time>2022-08-12T06:12:16Z</time>
      </trkpt>
      <trkpt lat="46.60065" lon="5.52808">
        <ele>474.6</ele>
        <time>2022-08-12T06:12:20Z</time>
      </trkpt>
      <trkpt lat="46.60049" lon="5.52816">
        <ele>475.4</ele>
        <time>2022-08-12T06:12:25Z</time>
      </trkpt>
      <trkpt lat="46.60046" lon="5.52817">
        <ele>475.6</ele>
        <time>2022-08-12T06:12:26Z</time>
      </trkpt>
      <trkpt lat="46.60026" lon="5.52826">
        <ele>476.4</ele>
        <time>2022-08-12T06:12:32Z</time>
      </trkpt>
      <trkpt lat="46.60008" lon="5.52835">
        <ele>477.4</ele>
        <time>2022-08-12T06:12:37Z</time>
      </trkpt>
      <trkpt lat="46.60004" lon="5.52836">
        <ele>477.8</ele>
        <time>2022-08-12T06:12:38Z</time>
      </trkpt>
      <trkpt lat="46.59987" lon="5.52843">
        <ele>479</ele>
        <time>2022-08-12T06:12:43Z</time>
      </trkpt>
      <trkpt lat="46.59973" lon="5.52847">
        <ele>479.6</ele>
        <time>2022-08-12T06:12:47Z</time>
      </trkpt>
      <trkpt lat="46.59967" lon="5.52848">
        <ele>480</ele>
        <time>2022-08-12T06:12:49Z</time>
      </trkpt>
      <trkpt lat="46.59947" lon="5.52854">
        <ele>481.2</ele>
        <time>2022-08-12T06:12:55Z</time>
      </trkpt>
      <trkpt lat="46.5994" lon="5.52856">
        <ele>481.8</ele>
        <time>2022-08-12T06:12:57Z</time>
      </trkpt>
      <trkpt lat="46.59934" lon="5.52858">
        <ele>482.4</ele>
        <time>2022-08-12T06:12:59Z</time>
      </trkpt>
      <trkpt lat="46.59923" lon="5.52864">
        <ele>483</ele>
        <time>2022-08-12T06:13:03Z</time>
      </trkpt>
      <trkpt lat="46.5992" lon="5.52866">
        <ele>483.4</ele>
        <time>2022-08-12T06:13:04Z</time>
      </trkpt>
      <trkpt lat="46.59909" lon="5.52879">
        <ele>484.6</ele>
        <time>2022-08-12T06:13:08Z</time>
      </trkpt>
      <trkpt lat="46.59906" lon="5.52881">
        <ele>484.8</ele>
        <time>2022-08-12T06:13:09Z</time>
      </trkpt>
      <trkpt lat="46.59896" lon="5.52897">
        <ele>485.8</ele>
        <time>2022-08-12T06:13:13Z</time>
      </trkpt>
      <trkpt lat="46.5989" lon="5.52909">
        <ele>486.4</ele>
        <time>2022-08-12T06:13:16Z</time>
      </trkpt>
      <trkpt lat="46.59887" lon="5.52917">
        <ele>487</ele>
        <time>2022-08-12T06:13:18Z</time>
      </trkpt>
      <trkpt lat="46.59882" lon="5.52938">
        <ele>487.6</ele>
        <time>2022-08-12T06:13:23Z</time>
      </trkpt>
      <trkpt lat="46.59881" lon="5.52949">
        <ele>488.2</ele>
        <time>2022-08-12T06:13:25Z</time>
      </trkpt>
      <trkpt lat="46.59881" lon="5.52977">
        <ele>488.8</ele>
        <time>2022-08-12T06:13:30Z</time>
      </trkpt>
      <trkpt lat="46.59881" lon="5.52983">
        <ele>488.6</ele>
        <time>2022-08-12T06:13:31Z</time>
      </trkpt>
      <trkpt lat="46.59879" lon="5.52997">
        <ele>488.6</ele>
        <time>2022-08-12T06:13:33Z</time>
      </trkpt>
      <trkpt lat="46.59877" lon="5.53005">
        <ele>488.6</ele>
        <time>2022-08-12T06:13:34Z</time>
      </trkpt>
      <trkpt lat="46.59874" lon="5.53012">
        <ele>488.6</ele>
        <time>2022-08-12T06:13:35Z</time>
      </trkpt>
      <trkpt lat="46.59864" lon="5.53026">
        <ele>488.6</ele>
        <time>2022-08-12T06:13:37Z</time>
      </trkpt>
      <trkpt lat="46.59852" lon="5.53034">
        <ele>488.2</ele>
        <time>2022-08-12T06:13:39Z</time>
      </trkpt>
      <trkpt lat="46.59839" lon="5.5304">
        <ele>487.6</ele>
        <time>2022-08-12T06:13:41Z</time>
      </trkpt>
      <trkpt lat="46.59808" lon="5.53055">
        <ele>486.8</ele>
        <time>2022-08-12T06:13:46Z</time>
      </trkpt>
      <trkpt lat="46.5979" lon="5.53067">
        <ele>486.6</ele>
        <time>2022-08-12T06:13:49Z</time>
      </trkpt>
      <trkpt lat="46.59754" lon="5.53099">
        <ele>485.6</ele>
        <time>2022-08-12T06:13:55Z</time>
      </trkpt>
      <trkpt lat="46.59716" lon="5.53119">
        <ele>485.4</ele>
        <time>2022-08-12T06:14:01Z</time>
      </trkpt>
      <trkpt lat="46.59687" lon="5.5313">
        <ele>485.8</ele>
        <time>2022-08-12T06:14:06Z</time>
      </trkpt>
      <trkpt lat="46.59651" lon="5.53146">
        <ele>487</ele>
        <time>2022-08-12T06:14:13Z</time>
      </trkpt>
      <trkpt lat="46.59633" lon="5.53155">
        <ele>488</ele>
        <time>2022-08-12T06:14:16Z</time>
      </trkpt>
      <trkpt lat="46.5961" lon="5.53166">
        <ele>488.4</ele>
        <time>2022-08-12T06:14:20Z</time>
      </trkpt>
      <trkpt lat="46.59561" lon="5.53191">
        <ele>488.8</ele>
        <time>2022-08-12T06:14:28Z</time>
      </trkpt>
      <trkpt lat="46.59517" lon="5.53213">
        <ele>487</ele>
        <time>2022-08-12T06:14:34Z</time>
      </trkpt>
      <trkpt lat="46.5951" lon="5.53216">
        <ele>486.8</ele>
        <time>2022-08-12T06:14:35Z</time>
      </trkpt>
      <trkpt lat="46.59482" lon="5.5322">
        <ele>486</ele>
        <time>2022-08-12T06:14:39Z</time>
      </trkpt>
      <trkpt lat="46.59475" lon="5.53221">
        <ele>486</ele>
        <time>2022-08-12T06:14:40Z</time>
      </trkpt>
      <trkpt lat="46.59451" lon="5.53223">
        <ele>485.8</ele>
        <time>2022-08-12T06:14:44Z</time>
      </trkpt>
      <trkpt lat="46.59417" lon="5.53228">
        <ele>487.2</ele>
        <time>2022-08-12T06:14:50Z</time>
      </trkpt>
      <trkpt lat="46.5941" lon="5.53229">
        <ele>487.4</ele>
        <time>2022-08-12T06:14:51Z</time>
      </trkpt>
      <trkpt lat="46.59374" lon="5.53244">
        <ele>487.2</ele>
        <time>2022-08-12T06:14:56Z</time>
      </trkpt>
      <trkpt lat="46.59367" lon="5.53249">
        <ele>486.6</ele>
        <time>2022-08-12T06:14:57Z</time>
      </trkpt>
      <trkpt lat="46.5936" lon="5.53255">
        <ele>486</ele>
        <time>2022-08-12T06:14:58Z</time>
      </trkpt>
      <trkpt lat="46.59354" lon="5.53262">
        <ele>485.4</ele>
        <time>2022-08-12T06:14:59Z</time>
      </trkpt>
      <trkpt lat="46.59348" lon="5.53271">
        <ele>484.8</ele>
        <time>2022-08-12T06:15:00Z</time>
      </trkpt>
      <trkpt lat="46.59321" lon="5.53318">
        <ele>483.4</ele>
        <time>2022-08-12T06:15:05Z</time>
      </trkpt>
      <trkpt lat="46.59295" lon="5.5335">
        <ele>482.4</ele>
        <time>2022-08-12T06:15:09Z</time>
      </trkpt>
      <trkpt lat="46.59288" lon="5.53356">
        <ele>482.2</ele>
        <time>2022-08-12T06:15:10Z</time>
      </trkpt>
      <trkpt lat="46.5927" lon="5.53374">
        <ele>481.4</ele>
        <time>2022-08-12T06:15:13Z</time>
      </trkpt>
      <trkpt lat="46.59245" lon="5.53398">
        <ele>481</ele>
        <time>2022-08-12T06:15:17Z</time>
      </trkpt>
      <trkpt lat="46.59231" lon="5.5341">
        <ele>480.8</ele>
        <time>2022-08-12T06:15:19Z</time>
      </trkpt>
      <trkpt lat="46.59217" lon="5.53418">
        <ele>480.4</ele>
        <time>2022-08-12T06:15:21Z</time>
      </trkpt>
      <trkpt lat="46.59211" lon="5.53422">
        <ele>480.2</ele>
        <time>2022-08-12T06:15:22Z</time>
      </trkpt>
      <trkpt lat="46.59201" lon="5.53427">
        <ele>480</ele>
        <time>2022-08-12T06:15:24Z</time>
      </trkpt>
      <trkpt lat="46.59197" lon="5.53429">
        <ele>480</ele>
        <time>2022-08-12T06:15:25Z</time>
      </trkpt>
      <trkpt lat="46.59193" lon="5.53432">
        <ele>479.8</ele>
        <time>2022-08-12T06:15:26Z</time>
      </trkpt>
      <trkpt lat="46.59189" lon="5.53439">
        <ele>479.8</ele>
        <time>2022-08-12T06:15:28Z</time>
      </trkpt>
      <trkpt lat="46.59189" lon="5.53448">
        <ele>480</ele>
        <time>2022-08-12T06:15:32Z</time>
      </trkpt>
      <trkpt lat="46.59189" lon="5.53449">
        <ele>480.6</ele>
        <time>2022-08-12T06:15:35Z</time>
      </trkpt>
      <trkpt lat="46.59188" lon="5.53445">
        <ele>481</ele>
        <time>2022-08-12T06:16:17Z</time>
      </trkpt>
      <trkpt lat="46.59188" lon="5.53441">
        <ele>480.8</ele>
        <time>2022-08-12T06:16:18Z</time>
      </trkpt>
      <trkpt lat="46.59187" lon="5.53436">
        <ele>480.8</ele>
        <time>2022-08-12T06:16:19Z</time>
      </trkpt>
      <trkpt lat="46.59182" lon="5.53426">
        <ele>480.8</ele>
        <time>2022-08-12T06:16:21Z</time>
      </trkpt>
      <trkpt lat="46.59173" lon="5.53418">
        <ele>480.6</ele>
        <time>2022-08-12T06:16:23Z</time>
      </trkpt>
      <trkpt lat="46.59162" lon="5.53411">
        <ele>480.2</ele>
        <time>2022-08-12T06:16:25Z</time>
      </trkpt>
      <trkpt lat="46.59134" lon="5.53389">
        <ele>479.4</ele>
        <time>2022-08-12T06:16:30Z</time>
      </trkpt>
      <trkpt lat="46.59115" lon="5.53373">
        <ele>478.6</ele>
        <time>2022-08-12T06:16:33Z</time>
      </trkpt>
      <trkpt lat="46.59089" lon="5.53354">
        <ele>477.4</ele>
        <time>2022-08-12T06:16:37Z</time>
      </trkpt>
      <trkpt lat="46.5906" lon="5.53333">
        <ele>476.2</ele>
        <time>2022-08-12T06:16:41Z</time>
      </trkpt>
      <trkpt lat="46.59045" lon="5.5332">
        <ele>475.6</ele>
        <time>2022-08-12T06:16:43Z</time>
      </trkpt>
      <trkpt lat="46.59033" lon="5.53307">
        <ele>475.2</ele>
        <time>2022-08-12T06:16:45Z</time>
      </trkpt>
      <trkpt lat="46.59023" lon="5.53294">
        <ele>474.8</ele>
        <time>2022-08-12T06:16:47Z</time>
      </trkpt>
      <trkpt lat="46.58999" lon="5.53266">
        <ele>474.6</ele>
        <time>2022-08-12T06:16:52Z</time>
      </trkpt>
      <trkpt lat="46.58954" lon="5.53218">
        <ele>475.2</ele>
        <time>2022-08-12T06:17:01Z</time>
      </trkpt>
      <trkpt lat="46.5893" lon="5.53191">
        <ele>476.2</ele>
        <time>2022-08-12T06:17:07Z</time>
      </trkpt>
      <trkpt lat="46.58906" lon="5.53167">
        <ele>477.4</ele>
        <time>2022-08-12T06:17:13Z</time>
      </trkpt>
      <trkpt lat="46.58898" lon="5.53158">
        <ele>477.8</ele>
        <time>2022-08-12T06:17:15Z</time>
      </trkpt>
      <trkpt lat="46.58884" lon="5.53149">
        <ele>478.6</ele>
        <time>2022-08-12T06:17:18Z</time>
      </trkpt>
      <trkpt lat="46.5888" lon="5.53145">
        <ele>478.8</ele>
        <time>2022-08-12T06:17:19Z</time>
      </trkpt>
      <trkpt lat="46.58867" lon="5.53134">
        <ele>479.4</ele>
        <time>2022-08-12T06:17:22Z</time>
      </trkpt>
      <trkpt lat="46.58863" lon="5.53131">
        <ele>479.4</ele>
        <time>2022-08-12T06:17:23Z</time>
      </trkpt>
      <trkpt lat="46.58859" lon="5.53128">
        <ele>479.8</ele>
        <time>2022-08-12T06:17:24Z</time>
      </trkpt>
      <trkpt lat="46.58843" lon="5.53117">
        <ele>480.4</ele>
        <time>2022-08-12T06:17:28Z</time>
      </trkpt>
      <trkpt lat="46.58838" lon="5.53114">
        <ele>480.8</ele>
        <time>2022-08-12T06:17:29Z</time>
      </trkpt>
      <trkpt lat="46.58825" lon="5.53108">
        <ele>481.2</ele>
        <time>2022-08-12T06:17:32Z</time>
      </trkpt>
      <trkpt lat="46.58816" lon="5.53105">
        <ele>482</ele>
        <time>2022-08-12T06:17:34Z</time>
      </trkpt>
      <trkpt lat="46.58801" lon="5.53102">
        <ele>482.6</ele>
        <time>2022-08-12T06:17:37Z</time>
      </trkpt>
      <trkpt lat="46.58784" lon="5.53102">
        <ele>483.2</ele>
        <time>2022-08-12T06:17:40Z</time>
      </trkpt>
      <trkpt lat="46.5874" lon="5.53098">
        <ele>483.8</ele>
        <time>2022-08-12T06:17:47Z</time>
      </trkpt>
      <trkpt lat="46.58713" lon="5.53093">
        <ele>482.6</ele>
        <time>2022-08-12T06:17:51Z</time>
      </trkpt>
      <trkpt lat="46.58693" lon="5.53085">
        <ele>482.4</ele>
        <time>2022-08-12T06:17:54Z</time>
      </trkpt>
      <trkpt lat="46.58656" lon="5.53062">
        <ele>482</ele>
        <time>2022-08-12T06:18:00Z</time>
      </trkpt>
      <trkpt lat="46.58602" lon="5.53027">
        <ele>481.6</ele>
        <time>2022-08-12T06:18:09Z</time>
      </trkpt>
      <trkpt lat="46.58598" lon="5.53023">
        <ele>481.8</ele>
        <time>2022-08-12T06:18:10Z</time>
      </trkpt>
      <trkpt lat="46.58584" lon="5.53011">
        <ele>482.2</ele>
        <time>2022-08-12T06:18:13Z</time>
      </trkpt>
      <trkpt lat="46.58579" lon="5.53008">
        <ele>482.2</ele>
        <time>2022-08-12T06:18:14Z</time>
      </trkpt>
      <trkpt lat="46.58557" lon="5.52997">
        <ele>483.2</ele>
        <time>2022-08-12T06:18:18Z</time>
      </trkpt>
      <trkpt lat="46.58552" lon="5.52996">
        <ele>483.4</ele>
        <time>2022-08-12T06:18:19Z</time>
      </trkpt>
      <trkpt lat="46.58541" lon="5.52994">
        <ele>484</ele>
        <time>2022-08-12T06:18:21Z</time>
      </trkpt>
      <trkpt lat="46.58536" lon="5.52993">
        <ele>484.6</ele>
        <time>2022-08-12T06:18:22Z</time>
      </trkpt>
      <trkpt lat="46.58513" lon="5.52987">
        <ele>485.8</ele>
        <time>2022-08-12T06:18:27Z</time>
      </trkpt>
      <trkpt lat="46.58489" lon="5.52982">
        <ele>487.2</ele>
        <time>2022-08-12T06:18:32Z</time>
      </trkpt>
      <trkpt lat="46.58484" lon="5.52981">
        <ele>487.4</ele>
        <time>2022-08-12T06:18:33Z</time>
      </trkpt>
      <trkpt lat="46.58462" lon="5.52974">
        <ele>488.2</ele>
        <time>2022-08-12T06:18:37Z</time>
      </trkpt>
      <trkpt lat="46.58445" lon="5.52969">
        <ele>488.4</ele>
        <time>2022-08-12T06:18:40Z</time>
      </trkpt>
      <trkpt lat="46.58415" lon="5.52959">
        <ele>488.6</ele>
        <time>2022-08-12T06:18:45Z</time>
      </trkpt>
      <trkpt lat="46.58403" lon="5.52955">
        <ele>488.6</ele>
        <time>2022-08-12T06:18:47Z</time>
      </trkpt>
      <trkpt lat="46.58379" lon="5.5295">
        <ele>488.6</ele>
        <time>2022-08-12T06:18:51Z</time>
      </trkpt>
      <trkpt lat="46.58368" lon="5.52953">
        <ele>488.6</ele>
        <time>2022-08-12T06:18:53Z</time>
      </trkpt>
      <trkpt lat="46.58342" lon="5.5296">
        <ele>489.2</ele>
        <time>2022-08-12T06:18:58Z</time>
      </trkpt>
      <trkpt lat="46.58315" lon="5.52975">
        <ele>490.4</ele>
        <time>2022-08-12T06:19:04Z</time>
      </trkpt>
      <trkpt lat="46.58281" lon="5.52978">
        <ele>491.4</ele>
        <time>2022-08-12T06:19:10Z</time>
      </trkpt>
      <trkpt lat="46.5827" lon="5.52976">
        <ele>491.6</ele>
        <time>2022-08-12T06:19:12Z</time>
      </trkpt>
      <trkpt lat="46.58241" lon="5.5297">
        <ele>492</ele>
        <time>2022-08-12T06:19:17Z</time>
      </trkpt>
      <trkpt lat="46.58197" lon="5.52961">
        <ele>491.8</ele>
        <time>2022-08-12T06:19:24Z</time>
      </trkpt>
      <trkpt lat="46.5819" lon="5.5296">
        <ele>491.4</ele>
        <time>2022-08-12T06:19:25Z</time>
      </trkpt>
      <trkpt lat="46.58154" lon="5.52958">
        <ele>491</ele>
        <time>2022-08-12T06:19:31Z</time>
      </trkpt>
      <trkpt lat="46.58143" lon="5.52955">
        <ele>491</ele>
        <time>2022-08-12T06:19:33Z</time>
      </trkpt>
      <trkpt lat="46.58126" lon="5.52947">
        <ele>491</ele>
        <time>2022-08-12T06:19:36Z</time>
      </trkpt>
      <trkpt lat="46.58074" lon="5.52911">
        <ele>491</ele>
        <time>2022-08-12T06:19:45Z</time>
      </trkpt>
      <trkpt lat="46.58038" lon="5.52884">
        <ele>490.6</ele>
        <time>2022-08-12T06:19:51Z</time>
      </trkpt>
      <trkpt lat="46.57996" lon="5.52852">
        <ele>490.2</ele>
        <time>2022-08-12T06:19:58Z</time>
      </trkpt>
      <trkpt lat="46.57978" lon="5.52838">
        <ele>490</ele>
        <time>2022-08-12T06:20:01Z</time>
      </trkpt>
      <trkpt lat="46.57925" lon="5.52804">
        <ele>489.8</ele>
        <time>2022-08-12T06:20:09Z</time>
      </trkpt>
      <trkpt lat="46.57883" lon="5.52772">
        <ele>489.8</ele>
        <time>2022-08-12T06:20:16Z</time>
      </trkpt>
      <trkpt lat="46.5787" lon="5.52762">
        <ele>489.6</ele>
        <time>2022-08-12T06:20:18Z</time>
      </trkpt>
      <trkpt lat="46.57847" lon="5.52753">
        <ele>489.4</ele>
        <time>2022-08-12T06:20:21Z</time>
      </trkpt>
      <trkpt lat="46.57802" lon="5.52742">
        <ele>489</ele>
        <time>2022-08-12T06:20:27Z</time>
      </trkpt>
      <trkpt lat="46.57795" lon="5.52739">
        <ele>489</ele>
        <time>2022-08-12T06:20:28Z</time>
      </trkpt>
      <trkpt lat="46.57745" lon="5.52714">
        <ele>489.8</ele>
        <time>2022-08-12T06:20:36Z</time>
      </trkpt>
      <trkpt lat="46.57707" lon="5.527">
        <ele>490</ele>
        <time>2022-08-12T06:20:42Z</time>
      </trkpt>
      <trkpt lat="46.577" lon="5.527">
        <ele>490</ele>
        <time>2022-08-12T06:20:43Z</time>
      </trkpt>
      <trkpt lat="46.57692" lon="5.527">
        <ele>490</ele>
        <time>2022-08-12T06:20:44Z</time>
      </trkpt>
      <trkpt lat="46.57678" lon="5.52703">
        <ele>490</ele>
        <time>2022-08-12T06:20:46Z</time>
      </trkpt>
      <trkpt lat="46.57672" lon="5.52706">
        <ele>490</ele>
        <time>2022-08-12T06:20:47Z</time>
      </trkpt>
      <trkpt lat="46.57639" lon="5.52711">
        <ele>490.2</ele>
        <time>2022-08-12T06:20:52Z</time>
      </trkpt>
      <trkpt lat="46.57632" lon="5.5271">
        <ele>490.2</ele>
        <time>2022-08-12T06:20:53Z</time>
      </trkpt>
      <trkpt lat="46.57598" lon="5.52701">
        <ele>490.2</ele>
        <time>2022-08-12T06:20:58Z</time>
      </trkpt>
      <trkpt lat="46.5755" lon="5.52681">
        <ele>490.2</ele>
        <time>2022-08-12T06:21:05Z</time>
      </trkpt>
      <trkpt lat="46.57502" lon="5.52647">
        <ele>490</ele>
        <time>2022-08-12T06:21:12Z</time>
      </trkpt>
      <trkpt lat="46.5746" lon="5.52613">
        <ele>489</ele>
        <time>2022-08-12T06:21:18Z</time>
      </trkpt>
      <trkpt lat="46.57452" lon="5.52608">
        <ele>488.8</ele>
        <time>2022-08-12T06:21:19Z</time>
      </trkpt>
      <trkpt lat="46.57436" lon="5.52596">
        <ele>488.4</ele>
        <time>2022-08-12T06:21:21Z</time>
      </trkpt>
      <trkpt lat="46.5742" lon="5.52586">
        <ele>487.8</ele>
        <time>2022-08-12T06:21:23Z</time>
      </trkpt>
      <trkpt lat="46.57413" lon="5.52581">
        <ele>487.4</ele>
        <time>2022-08-12T06:21:24Z</time>
      </trkpt>
      <trkpt lat="46.57397" lon="5.5257">
        <ele>486.4</ele>
        <time>2022-08-12T06:21:26Z</time>
      </trkpt>
      <trkpt lat="46.57355" lon="5.52548">
        <ele>485.6</ele>
        <time>2022-08-12T06:21:31Z</time>
      </trkpt>
      <trkpt lat="46.57346" lon="5.52545">
        <ele>484.8</ele>
        <time>2022-08-12T06:21:32Z</time>
      </trkpt>
      <trkpt lat="46.573" lon="5.52522">
        <ele>483.4</ele>
        <time>2022-08-12T06:21:37Z</time>
      </trkpt>
      <trkpt lat="46.57282" lon="5.5251">
        <ele>482.4</ele>
        <time>2022-08-12T06:21:39Z</time>
      </trkpt>
      <trkpt lat="46.57262" lon="5.52499">
        <ele>481.2</ele>
        <time>2022-08-12T06:21:41Z</time>
      </trkpt>
      <trkpt lat="46.57252" lon="5.52495">
        <ele>480.2</ele>
        <time>2022-08-12T06:21:42Z</time>
      </trkpt>
      <trkpt lat="46.57241" lon="5.52493">
        <ele>479.8</ele>
        <time>2022-08-12T06:21:43Z</time>
      </trkpt>
      <trkpt lat="46.5723" lon="5.52494">
        <ele>479.2</ele>
        <time>2022-08-12T06:21:44Z</time>
      </trkpt>
      <trkpt lat="46.57219" lon="5.52497">
        <ele>479</ele>
        <time>2022-08-12T06:21:45Z</time>
      </trkpt>
      <trkpt lat="46.57197" lon="5.52508">
        <ele>477.6</ele>
        <time>2022-08-12T06:21:47Z</time>
      </trkpt>
      <trkpt lat="46.57175" lon="5.52519">
        <ele>476.2</ele>
        <time>2022-08-12T06:21:49Z</time>
      </trkpt>
      <trkpt lat="46.57152" lon="5.52532">
        <ele>474.8</ele>
        <time>2022-08-12T06:21:51Z</time>
      </trkpt>
      <trkpt lat="46.57129" lon="5.52545">
        <ele>473</ele>
        <time>2022-08-12T06:21:53Z</time>
      </trkpt>
      <trkpt lat="46.57105" lon="5.52557">
        <ele>471</ele>
        <time>2022-08-12T06:21:55Z</time>
      </trkpt>
      <trkpt lat="46.57093" lon="5.52562">
        <ele>469.6</ele>
        <time>2022-08-12T06:21:56Z</time>
      </trkpt>
      <trkpt lat="46.57069" lon="5.52574">
        <ele>468</ele>
        <time>2022-08-12T06:21:58Z</time>
      </trkpt>
      <trkpt lat="46.57058" lon="5.5258">
        <ele>467.6</ele>
        <time>2022-08-12T06:21:59Z</time>
      </trkpt>
      <trkpt lat="46.57047" lon="5.52585">
        <ele>466.4</ele>
        <time>2022-08-12T06:22:00Z</time>
      </trkpt>
      <trkpt lat="46.57026" lon="5.52584">
        <ele>465</ele>
        <time>2022-08-12T06:22:02Z</time>
      </trkpt>
      <trkpt lat="46.57006" lon="5.52575">
        <ele>464.4</ele>
        <time>2022-08-12T06:22:04Z</time>
      </trkpt>
      <trkpt lat="46.56995" lon="5.52572">
        <ele>464</ele>
        <time>2022-08-12T06:22:05Z</time>
      </trkpt>
      <trkpt lat="46.56985" lon="5.52572">
        <ele>464</ele>
        <time>2022-08-12T06:22:06Z</time>
      </trkpt>
      <trkpt lat="46.56949" lon="5.52584">
        <ele>463.6</ele>
        <time>2022-08-12T06:22:10Z</time>
      </trkpt>
      <trkpt lat="46.56903" lon="5.52604">
        <ele>464.8</ele>
        <time>2022-08-12T06:22:16Z</time>
      </trkpt>
      <trkpt lat="46.56896" lon="5.52607">
        <ele>465.2</ele>
        <time>2022-08-12T06:22:17Z</time>
      </trkpt>
      <trkpt lat="46.56856" lon="5.52617">
        <ele>466</ele>
        <time>2022-08-12T06:22:22Z</time>
      </trkpt>
      <trkpt lat="46.56848" lon="5.52617">
        <ele>466</ele>
        <time>2022-08-12T06:22:23Z</time>
      </trkpt>
      <trkpt lat="46.5681" lon="5.52616">
        <ele>466.2</ele>
        <time>2022-08-12T06:22:28Z</time>
      </trkpt>
      <trkpt lat="46.56774" lon="5.52624">
        <ele>465.8</ele>
        <time>2022-08-12T06:22:33Z</time>
      </trkpt>
      <trkpt lat="46.56718" lon="5.52634">
        <ele>465.4</ele>
        <time>2022-08-12T06:22:40Z</time>
      </trkpt>
      <trkpt lat="46.56702" lon="5.52636">
        <ele>465</ele>
        <time>2022-08-12T06:22:42Z</time>
      </trkpt>
      <trkpt lat="46.56686" lon="5.5264">
        <ele>464.8</ele>
        <time>2022-08-12T06:22:44Z</time>
      </trkpt>
      <trkpt lat="46.56654" lon="5.52654">
        <ele>464.2</ele>
        <time>2022-08-12T06:22:48Z</time>
      </trkpt>
      <trkpt lat="46.56647" lon="5.5266">
        <ele>463.8</ele>
        <time>2022-08-12T06:22:49Z</time>
      </trkpt>
      <trkpt lat="46.56621" lon="5.52686">
        <ele>463.4</ele>
        <time>2022-08-12T06:22:53Z</time>
      </trkpt>
      <trkpt lat="46.56574" lon="5.52733">
        <ele>463</ele>
        <time>2022-08-12T06:23:00Z</time>
      </trkpt>
      <trkpt lat="46.56559" lon="5.52747">
        <ele>462.8</ele>
        <time>2022-08-12T06:23:02Z</time>
      </trkpt>
      <trkpt lat="46.56529" lon="5.52773">
        <ele>461.2</ele>
        <time>2022-08-12T06:23:06Z</time>
      </trkpt>
      <trkpt lat="46.56479" lon="5.52813">
        <ele>460.4</ele>
        <time>2022-08-12T06:23:13Z</time>
      </trkpt>
      <trkpt lat="46.56459" lon="5.52826">
        <ele>460.2</ele>
        <time>2022-08-12T06:23:16Z</time>
      </trkpt>
      <trkpt lat="46.56451" lon="5.52829">
        <ele>460.2</ele>
        <time>2022-08-12T06:23:17Z</time>
      </trkpt>
      <trkpt lat="46.56429" lon="5.52831">
        <ele>460.4</ele>
        <time>2022-08-12T06:23:20Z</time>
      </trkpt>
      <trkpt lat="46.56369" lon="5.5283">
        <ele>460.6</ele>
        <time>2022-08-12T06:23:28Z</time>
      </trkpt>
      <trkpt lat="46.56311" lon="5.5283">
        <ele>460.8</ele>
        <time>2022-08-12T06:23:36Z</time>
      </trkpt>
      <trkpt lat="46.56283" lon="5.52829">
        <ele>461</ele>
        <time>2022-08-12T06:23:40Z</time>
      </trkpt>
      <trkpt lat="46.56231" lon="5.52828">
        <ele>461.6</ele>
        <time>2022-08-12T06:23:48Z</time>
      </trkpt>
      <trkpt lat="46.56176" lon="5.52828">
        <ele>462</ele>
        <time>2022-08-12T06:23:56Z</time>
      </trkpt>
      <trkpt lat="46.56171" lon="5.52828">
        <ele>462.2</ele>
        <time>2022-08-12T06:23:57Z</time>
      </trkpt>
      <trkpt lat="46.56157" lon="5.52827">
        <ele>462.4</ele>
        <time>2022-08-12T06:23:59Z</time>
      </trkpt>
      <trkpt lat="46.56114" lon="5.52827">
        <ele>462.8</ele>
        <time>2022-08-12T06:24:06Z</time>
      </trkpt>
      <trkpt lat="46.5609" lon="5.52827">
        <ele>463.2</ele>
        <time>2022-08-12T06:24:10Z</time>
      </trkpt>
      <trkpt lat="46.56047" lon="5.52827">
        <ele>464.2</ele>
        <time>2022-08-12T06:24:17Z</time>
      </trkpt>
      <trkpt lat="46.56035" lon="5.52827">
        <ele>464.4</ele>
        <time>2022-08-12T06:24:19Z</time>
      </trkpt>
      <trkpt lat="46.56" lon="5.52827">
        <ele>464.4</ele>
        <time>2022-08-12T06:24:24Z</time>
      </trkpt>
      <trkpt lat="46.55945" lon="5.52826">
        <ele>463.6</ele>
        <time>2022-08-12T06:24:32Z</time>
      </trkpt>
      <trkpt lat="46.55923" lon="5.52826">
        <ele>463.4</ele>
        <time>2022-08-12T06:24:35Z</time>
      </trkpt>
      <trkpt lat="46.55872" lon="5.52827">
        <ele>463</ele>
        <time>2022-08-12T06:24:43Z</time>
      </trkpt>
      <trkpt lat="46.55831" lon="5.52825">
        <ele>464.4</ele>
        <time>2022-08-12T06:24:50Z</time>
      </trkpt>
      <trkpt lat="46.55824" lon="5.52825">
        <ele>464.4</ele>
        <time>2022-08-12T06:24:51Z</time>
      </trkpt>
      <trkpt lat="46.55791" lon="5.52825">
        <ele>465</ele>
        <time>2022-08-12T06:24:56Z</time>
      </trkpt>
      <trkpt lat="46.55772" lon="5.52825">
        <ele>465.4</ele>
        <time>2022-08-12T06:24:59Z</time>
      </trkpt>
      <trkpt lat="46.55735" lon="5.52824">
        <ele>465.6</ele>
        <time>2022-08-12T06:25:04Z</time>
      </trkpt>
      <trkpt lat="46.55676" lon="5.52823">
        <ele>465.2</ele>
        <time>2022-08-12T06:25:13Z</time>
      </trkpt>
      <trkpt lat="46.55621" lon="5.52821">
        <ele>466.2</ele>
        <time>2022-08-12T06:25:22Z</time>
      </trkpt>
      <trkpt lat="46.55614" lon="5.52819">
        <ele>466.4</ele>
        <time>2022-08-12T06:25:23Z</time>
      </trkpt>
      <trkpt lat="46.55602" lon="5.52813">
        <ele>466.6</ele>
        <time>2022-08-12T06:25:25Z</time>
      </trkpt>
      <trkpt lat="46.55596" lon="5.52809">
        <ele>466.6</ele>
        <time>2022-08-12T06:25:26Z</time>
      </trkpt>
      <trkpt lat="46.55579" lon="5.52796">
        <ele>466.6</ele>
        <time>2022-08-12T06:25:29Z</time>
      </trkpt>
      <trkpt lat="46.55564" lon="5.52779">
        <ele>466.6</ele>
        <time>2022-08-12T06:25:32Z</time>
      </trkpt>
      <trkpt lat="46.5554" lon="5.52759">
        <ele>467.8</ele>
        <time>2022-08-12T06:25:37Z</time>
      </trkpt>
      <trkpt lat="46.55528" lon="5.52755">
        <ele>468.2</ele>
        <time>2022-08-12T06:25:39Z</time>
      </trkpt>
      <trkpt lat="46.55508" lon="5.52752">
        <ele>468.6</ele>
        <time>2022-08-12T06:25:42Z</time>
      </trkpt>
      <trkpt lat="46.55463" lon="5.52756">
        <ele>468.6</ele>
        <time>2022-08-12T06:25:49Z</time>
      </trkpt>
      <trkpt lat="46.55422" lon="5.52762">
        <ele>468.6</ele>
        <time>2022-08-12T06:25:55Z</time>
      </trkpt>
      <trkpt lat="46.55373" lon="5.52752">
        <ele>467.6</ele>
        <time>2022-08-12T06:26:01Z</time>
      </trkpt>
      <trkpt lat="46.5534" lon="5.52742">
        <ele>466.6</ele>
        <time>2022-08-12T06:26:05Z</time>
      </trkpt>
      <trkpt lat="46.55325" lon="5.52737">
        <ele>465.2</ele>
        <time>2022-08-12T06:26:07Z</time>
      </trkpt>
      <trkpt lat="46.55303" lon="5.52727">
        <ele>464.6</ele>
        <time>2022-08-12T06:26:10Z</time>
      </trkpt>
      <trkpt lat="46.55269" lon="5.52709">
        <ele>464.4</ele>
        <time>2022-08-12T06:26:15Z</time>
      </trkpt>
      <trkpt lat="46.55224" lon="5.52688">
        <ele>464.8</ele>
        <time>2022-08-12T06:26:22Z</time>
      </trkpt>
      <trkpt lat="46.55177" lon="5.52664">
        <ele>465.6</ele>
        <time>2022-08-12T06:26:30Z</time>
      </trkpt>
      <trkpt lat="46.55139" lon="5.52637">
        <ele>466</ele>
        <time>2022-08-12T06:26:37Z</time>
      </trkpt>
      <trkpt lat="46.5513" lon="5.5263">
        <ele>466</ele>
        <time>2022-08-12T06:26:39Z</time>
      </trkpt>
      <trkpt lat="46.55114" lon="5.52618">
        <ele>466.4</ele>
        <time>2022-08-12T06:26:43Z</time>
      </trkpt>
      <trkpt lat="46.5511" lon="5.52617">
        <ele>466.4</ele>
        <time>2022-08-12T06:26:44Z</time>
      </trkpt>
      <trkpt lat="46.55103" lon="5.52617">
        <ele>466.8</ele>
        <time>2022-08-12T06:26:46Z</time>
      </trkpt>
      <trkpt lat="46.551" lon="5.5262">
        <ele>466.8</ele>
        <time>2022-08-12T06:26:47Z</time>
      </trkpt>
      <trkpt lat="46.55097" lon="5.52625">
        <ele>467.2</ele>
        <time>2022-08-12T06:26:48Z</time>
      </trkpt>
      <trkpt lat="46.55096" lon="5.5263">
        <ele>467.4</ele>
        <time>2022-08-12T06:26:49Z</time>
      </trkpt>
      <trkpt lat="46.55092" lon="5.52645">
        <ele>467.8</ele>
        <time>2022-08-12T06:26:51Z</time>
      </trkpt>
      <trkpt lat="46.55086" lon="5.52656">
        <ele>467.8</ele>
        <time>2022-08-12T06:26:53Z</time>
      </trkpt>
      <trkpt lat="46.5508" lon="5.52662">
        <ele>467.8</ele>
        <time>2022-08-12T06:26:54Z</time>
      </trkpt>
      <trkpt lat="46.55074" lon="5.52664">
        <ele>467.8</ele>
        <time>2022-08-12T06:26:55Z</time>
      </trkpt>
      <trkpt lat="46.55064" lon="5.52663">
        <ele>467.8</ele>
        <time>2022-08-12T06:26:57Z</time>
      </trkpt>
      <trkpt lat="46.55051" lon="5.52644">
        <ele>467</ele>
        <time>2022-08-12T06:27:00Z</time>
      </trkpt>
      <trkpt lat="46.55014" lon="5.52592">
        <ele>466.4</ele>
        <time>2022-08-12T06:27:08Z</time>
      </trkpt>
      <trkpt lat="46.54973" lon="5.5253">
        <ele>466.6</ele>
        <time>2022-08-12T06:27:17Z</time>
      </trkpt>
      <trkpt lat="46.54947" lon="5.52481">
        <ele>466.6</ele>
        <time>2022-08-12T06:27:24Z</time>
      </trkpt>
      <trkpt lat="46.54925" lon="5.52454">
        <ele>466.8</ele>
        <time>2022-08-12T06:27:29Z</time>
      </trkpt>
      <trkpt lat="46.54899" lon="5.52439">
        <ele>468.2</ele>
        <time>2022-08-12T06:27:34Z</time>
      </trkpt>
      <trkpt lat="46.54894" lon="5.52438">
        <ele>468.4</ele>
        <time>2022-08-12T06:27:35Z</time>
      </trkpt>
      <trkpt lat="46.54876" lon="5.52437">
        <ele>468.8</ele>
        <time>2022-08-12T06:27:38Z</time>
      </trkpt>
      <trkpt lat="46.54864" lon="5.52438">
        <ele>469.2</ele>
        <time>2022-08-12T06:27:40Z</time>
      </trkpt>
      <trkpt lat="46.54852" lon="5.5244">
        <ele>469.4</ele>
        <time>2022-08-12T06:27:42Z</time>
      </trkpt>
      <trkpt lat="46.54812" lon="5.52445">
        <ele>470.2</ele>
        <time>2022-08-12T06:27:49Z</time>
      </trkpt>
      <trkpt lat="46.54807" lon="5.52446">
        <ele>470.2</ele>
        <time>2022-08-12T06:27:50Z</time>
      </trkpt>
      <trkpt lat="46.54758" lon="5.52448">
        <ele>471.2</ele>
        <time>2022-08-12T06:27:59Z</time>
      </trkpt>
      <trkpt lat="46.54753" lon="5.52448">
        <ele>471.2</ele>
        <time>2022-08-12T06:28:00Z</time>
      </trkpt>
      <trkpt lat="46.54715" lon="5.52452">
        <ele>472.4</ele>
        <time>2022-08-12T06:28:07Z</time>
      </trkpt>
      <trkpt lat="46.54702" lon="5.52452">
        <ele>472.6</ele>
        <time>2022-08-12T06:28:09Z</time>
      </trkpt>
      <trkpt lat="46.54645" lon="5.52443">
        <ele>473</ele>
        <time>2022-08-12T06:28:18Z</time>
      </trkpt>
      <trkpt lat="46.54613" lon="5.5244">
        <ele>472.8</ele>
        <time>2022-08-12T06:28:23Z</time>
      </trkpt>
      <trkpt lat="46.54601" lon="5.5244">
        <ele>472.6</ele>
        <time>2022-08-12T06:28:25Z</time>
      </trkpt>
      <trkpt lat="46.54563" lon="5.52432">
        <ele>472.4</ele>
        <time>2022-08-12T06:28:31Z</time>
      </trkpt>
      <trkpt lat="46.54509" lon="5.52421">
        <ele>472.6</ele>
        <time>2022-08-12T06:28:39Z</time>
      </trkpt>
      <trkpt lat="46.54502" lon="5.52419">
        <ele>472.6</ele>
        <time>2022-08-12T06:28:40Z</time>
      </trkpt>
      <trkpt lat="46.54457" lon="5.52408">
        <ele>473.2</ele>
        <time>2022-08-12T06:28:47Z</time>
      </trkpt>
      <trkpt lat="46.54451" lon="5.52407">
        <ele>473.2</ele>
        <time>2022-08-12T06:28:48Z</time>
      </trkpt>
      <trkpt lat="46.54425" lon="5.52404">
        <ele>474</ele>
        <time>2022-08-12T06:28:52Z</time>
      </trkpt>
      <trkpt lat="46.5442" lon="5.52404">
        <ele>474</ele>
        <time>2022-08-12T06:28:53Z</time>
      </trkpt>
      <trkpt lat="46.54401" lon="5.52403">
        <ele>474.6</ele>
        <time>2022-08-12T06:28:56Z</time>
      </trkpt>
      <trkpt lat="46.54388" lon="5.524">
        <ele>474.8</ele>
        <time>2022-08-12T06:28:58Z</time>
      </trkpt>
      <trkpt lat="46.54369" lon="5.52391">
        <ele>474.8</ele>
        <time>2022-08-12T06:29:01Z</time>
      </trkpt>
      <trkpt lat="46.54357" lon="5.52386">
        <ele>475</ele>
        <time>2022-08-12T06:29:03Z</time>
      </trkpt>
      <trkpt lat="46.54339" lon="5.52376">
        <ele>475.2</ele>
        <time>2022-08-12T06:29:06Z</time>
      </trkpt>
      <trkpt lat="46.54333" lon="5.52374">
        <ele>475.2</ele>
        <time>2022-08-12T06:29:07Z</time>
      </trkpt>
      <trkpt lat="46.54309" lon="5.52364">
        <ele>476.2</ele>
        <time>2022-08-12T06:29:11Z</time>
      </trkpt>
      <trkpt lat="46.54296" lon="5.52358">
        <ele>476.4</ele>
        <time>2022-08-12T06:29:13Z</time>
      </trkpt>
      <trkpt lat="46.54259" lon="5.52346">
        <ele>476.6</ele>
        <time>2022-08-12T06:29:19Z</time>
      </trkpt>
      <trkpt lat="46.5424" lon="5.52339">
        <ele>477.2</ele>
        <time>2022-08-12T06:29:22Z</time>
      </trkpt>
      <trkpt lat="46.54209" lon="5.52329">
        <ele>478.2</ele>
        <time>2022-08-12T06:29:27Z</time>
      </trkpt>
      <trkpt lat="46.54158" lon="5.52312">
        <ele>478.6</ele>
        <time>2022-08-12T06:29:35Z</time>
      </trkpt>
      <trkpt lat="46.54152" lon="5.5231">
        <ele>478.6</ele>
        <time>2022-08-12T06:29:36Z</time>
      </trkpt>
      <trkpt lat="46.54139" lon="5.52304">
        <ele>478.6</ele>
        <time>2022-08-12T06:29:38Z</time>
      </trkpt>
      <trkpt lat="46.54112" lon="5.52287">
        <ele>478.4</ele>
        <time>2022-08-12T06:29:42Z</time>
      </trkpt>
      <trkpt lat="46.54058" lon="5.52251">
        <ele>477.8</ele>
        <time>2022-08-12T06:29:50Z</time>
      </trkpt>
      <trkpt lat="46.54011" lon="5.52224">
        <ele>477.2</ele>
        <time>2022-08-12T06:29:57Z</time>
      </trkpt>
      <trkpt lat="46.53956" lon="5.52199">
        <ele>477.6</ele>
        <time>2022-08-12T06:30:05Z</time>
      </trkpt>
      <trkpt lat="46.5395" lon="5.52195">
        <ele>477.8</ele>
        <time>2022-08-12T06:30:06Z</time>
      </trkpt>
      <trkpt lat="46.53914" lon="5.52164">
        <ele>478</ele>
        <time>2022-08-12T06:30:12Z</time>
      </trkpt>
      <trkpt lat="46.53864" lon="5.52116">
        <ele>478.4</ele>
        <time>2022-08-12T06:30:21Z</time>
      </trkpt>
      <trkpt lat="46.53854" lon="5.52105">
        <ele>478.8</ele>
        <time>2022-08-12T06:30:23Z</time>
      </trkpt>
      <trkpt lat="46.53849" lon="5.52098">
        <ele>478.8</ele>
        <time>2022-08-12T06:30:24Z</time>
      </trkpt>
      <trkpt lat="46.53834" lon="5.5207">
        <ele>479</ele>
        <time>2022-08-12T06:30:28Z</time>
      </trkpt>
      <trkpt lat="46.53831" lon="5.52065">
        <ele>479.2</ele>
        <time>2022-08-12T06:30:29Z</time>
      </trkpt>
      <trkpt lat="46.53813" lon="5.52039">
        <ele>479.6</ele>
        <time>2022-08-12T06:30:33Z</time>
      </trkpt>
      <trkpt lat="46.53792" lon="5.52017">
        <ele>480</ele>
        <time>2022-08-12T06:30:37Z</time>
      </trkpt>
      <trkpt lat="46.53781" lon="5.52007">
        <ele>480.2</ele>
        <time>2022-08-12T06:30:39Z</time>
      </trkpt>
      <trkpt lat="46.53737" lon="5.51978">
        <ele>480.8</ele>
        <time>2022-08-12T06:30:46Z</time>
      </trkpt>
      <trkpt lat="46.53713" lon="5.51963">
        <ele>481.2</ele>
        <time>2022-08-12T06:30:50Z</time>
      </trkpt>
      <trkpt lat="46.53672" lon="5.51933">
        <ele>481.6</ele>
        <time>2022-08-12T06:30:57Z</time>
      </trkpt>
      <trkpt lat="46.53639" lon="5.5189">
        <ele>482</ele>
        <time>2022-08-12T06:31:04Z</time>
      </trkpt>
      <trkpt lat="46.5362" lon="5.51866">
        <ele>482.4</ele>
        <time>2022-08-12T06:31:08Z</time>
      </trkpt>
      <trkpt lat="46.53596" lon="5.51827">
        <ele>483.2</ele>
        <time>2022-08-12T06:31:14Z</time>
      </trkpt>
      <trkpt lat="46.5359" lon="5.51813">
        <ele>483.4</ele>
        <time>2022-08-12T06:31:16Z</time>
      </trkpt>
      <trkpt lat="46.53579" lon="5.51793">
        <ele>483.6</ele>
        <time>2022-08-12T06:31:19Z</time>
      </trkpt>
      <trkpt lat="46.53575" lon="5.51787">
        <ele>483.8</ele>
        <time>2022-08-12T06:31:20Z</time>
      </trkpt>
      <trkpt lat="46.5357" lon="5.51781">
        <ele>484</ele>
        <time>2022-08-12T06:31:21Z</time>
      </trkpt>
      <trkpt lat="46.53544" lon="5.51755">
        <ele>484.2</ele>
        <time>2022-08-12T06:31:26Z</time>
      </trkpt>
      <trkpt lat="46.53508" lon="5.5172">
        <ele>484.6</ele>
        <time>2022-08-12T06:31:33Z</time>
      </trkpt>
      <trkpt lat="46.53488" lon="5.51701">
        <ele>485.4</ele>
        <time>2022-08-12T06:31:37Z</time>
      </trkpt>
      <trkpt lat="46.53479" lon="5.51692">
        <ele>485.6</ele>
        <time>2022-08-12T06:31:39Z</time>
      </trkpt>
      <trkpt lat="46.53449" lon="5.51671">
        <ele>486.4</ele>
        <time>2022-08-12T06:31:45Z</time>
      </trkpt>
      <trkpt lat="46.53439" lon="5.51664">
        <ele>486.6</ele>
        <time>2022-08-12T06:31:47Z</time>
      </trkpt>
      <trkpt lat="46.53434" lon="5.51661">
        <ele>487</ele>
        <time>2022-08-12T06:31:48Z</time>
      </trkpt>
      <trkpt lat="46.5342" lon="5.51652">
        <ele>487.6</ele>
        <time>2022-08-12T06:31:51Z</time>
      </trkpt>
      <trkpt lat="46.53395" lon="5.51638">
        <ele>488.4</ele>
        <time>2022-08-12T06:31:56Z</time>
      </trkpt>
      <trkpt lat="46.53385" lon="5.51632">
        <ele>488.6</ele>
        <time>2022-08-12T06:31:58Z</time>
      </trkpt>
      <trkpt lat="46.53361" lon="5.51616">
        <ele>489.6</ele>
        <time>2022-08-12T06:32:03Z</time>
      </trkpt>
      <trkpt lat="46.53318" lon="5.51589">
        <ele>490.8</ele>
        <time>2022-08-12T06:32:12Z</time>
      </trkpt>
      <trkpt lat="46.53313" lon="5.51586">
        <ele>491</ele>
        <time>2022-08-12T06:32:13Z</time>
      </trkpt>
      <trkpt lat="46.53295" lon="5.51572">
        <ele>492</ele>
        <time>2022-08-12T06:32:17Z</time>
      </trkpt>
      <trkpt lat="46.53281" lon="5.51565">
        <ele>492.6</ele>
        <time>2022-08-12T06:32:20Z</time>
      </trkpt>
      <trkpt lat="46.53277" lon="5.51562">
        <ele>493</ele>
        <time>2022-08-12T06:32:21Z</time>
      </trkpt>
      <trkpt lat="46.5326" lon="5.51553">
        <ele>494</ele>
        <time>2022-08-12T06:32:25Z</time>
      </trkpt>
      <trkpt lat="46.53251" lon="5.5155">
        <ele>494.6</ele>
        <time>2022-08-12T06:32:27Z</time>
      </trkpt>
      <trkpt lat="46.53246" lon="5.51549">
        <ele>494.8</ele>
        <time>2022-08-12T06:32:28Z</time>
      </trkpt>
      <trkpt lat="46.53238" lon="5.51547">
        <ele>495.2</ele>
        <time>2022-08-12T06:32:30Z</time>
      </trkpt>
      <trkpt lat="46.53229" lon="5.51546">
        <ele>495.8</ele>
        <time>2022-08-12T06:32:32Z</time>
      </trkpt>
      <trkpt lat="46.53225" lon="5.51546">
        <ele>496.2</ele>
        <time>2022-08-12T06:32:33Z</time>
      </trkpt>
      <trkpt lat="46.53217" lon="5.51546">
        <ele>496.4</ele>
        <time>2022-08-12T06:32:35Z</time>
      </trkpt>
      <trkpt lat="46.53197" lon="5.51548">
        <ele>497.2</ele>
        <time>2022-08-12T06:32:40Z</time>
      </trkpt>
      <trkpt lat="46.53189" lon="5.51549">
        <ele>497.6</ele>
        <time>2022-08-12T06:32:42Z</time>
      </trkpt>
      <trkpt lat="46.53172" lon="5.5155">
        <ele>498.2</ele>
        <time>2022-08-12T06:32:46Z</time>
      </trkpt>
      <trkpt lat="46.53155" lon="5.51553">
        <ele>498.8</ele>
        <time>2022-08-12T06:32:50Z</time>
      </trkpt>
      <trkpt lat="46.53138" lon="5.51555">
        <ele>499.4</ele>
        <time>2022-08-12T06:32:54Z</time>
      </trkpt>
      <trkpt lat="46.53113" lon="5.51555">
        <ele>500.4</ele>
        <time>2022-08-12T06:33:00Z</time>
      </trkpt>
      <trkpt lat="46.53108" lon="5.51555">
        <ele>500.6</ele>
        <time>2022-08-12T06:33:01Z</time>
      </trkpt>
      <trkpt lat="46.53083" lon="5.51548">
        <ele>501.6</ele>
        <time>2022-08-12T06:33:07Z</time>
      </trkpt>
      <trkpt lat="46.53067" lon="5.51544">
        <ele>501.8</ele>
        <time>2022-08-12T06:33:10Z</time>
      </trkpt>
      <trkpt lat="46.53041" lon="5.51528">
        <ele>502.6</ele>
        <time>2022-08-12T06:33:15Z</time>
      </trkpt>
      <trkpt lat="46.53035" lon="5.51524">
        <ele>502.6</ele>
        <time>2022-08-12T06:33:16Z</time>
      </trkpt>
      <trkpt lat="46.53006" lon="5.51501">
        <ele>502.2</ele>
        <time>2022-08-12T06:33:21Z</time>
      </trkpt>
      <trkpt lat="46.52971" lon="5.51466">
        <ele>502</ele>
        <time>2022-08-12T06:33:27Z</time>
      </trkpt>
      <trkpt lat="46.52929" lon="5.51425">
        <ele>501.8</ele>
        <time>2022-08-12T06:33:34Z</time>
      </trkpt>
      <trkpt lat="46.52891" lon="5.51404">
        <ele>502</ele>
        <time>2022-08-12T06:33:40Z</time>
      </trkpt>
      <trkpt lat="46.52841" lon="5.5138">
        <ele>502.8</ele>
        <time>2022-08-12T06:33:48Z</time>
      </trkpt>
      <trkpt lat="46.52788" lon="5.51348">
        <ele>503.4</ele>
        <time>2022-08-12T06:33:57Z</time>
      </trkpt>
      <trkpt lat="46.52751" lon="5.51329">
        <ele>503.6</ele>
        <time>2022-08-12T06:34:03Z</time>
      </trkpt>
      <trkpt lat="46.52717" lon="5.51309">
        <ele>504</ele>
        <time>2022-08-12T06:34:09Z</time>
      </trkpt>
      <trkpt lat="46.52694" lon="5.51296">
        <ele>504.4</ele>
        <time>2022-08-12T06:34:13Z</time>
      </trkpt>
      <trkpt lat="46.52672" lon="5.51283">
        <ele>505</ele>
        <time>2022-08-12T06:34:17Z</time>
      </trkpt>
      <trkpt lat="46.52655" lon="5.51274">
        <ele>505.4</ele>
        <time>2022-08-12T06:34:20Z</time>
      </trkpt>
      <trkpt lat="46.52622" lon="5.51258">
        <ele>506</ele>
        <time>2022-08-12T06:34:26Z</time>
      </trkpt>
      <trkpt lat="46.52606" lon="5.51251">
        <ele>506.4</ele>
        <time>2022-08-12T06:34:29Z</time>
      </trkpt>
      <trkpt lat="46.5258" lon="5.51239">
        <ele>506.6</ele>
        <time>2022-08-12T06:34:34Z</time>
      </trkpt>
      <trkpt lat="46.5255" lon="5.51227">
        <ele>507.6</ele>
        <time>2022-08-12T06:34:40Z</time>
      </trkpt>
      <trkpt lat="46.5254" lon="5.51222">
        <ele>508</ele>
        <time>2022-08-12T06:34:42Z</time>
      </trkpt>
      <trkpt lat="46.5253" lon="5.51218">
        <ele>508.6</ele>
        <time>2022-08-12T06:34:44Z</time>
      </trkpt>
      <trkpt lat="46.5251" lon="5.51207">
        <ele>508.8</ele>
        <time>2022-08-12T06:34:48Z</time>
      </trkpt>
      <trkpt lat="46.52501" lon="5.51202">
        <ele>509</ele>
        <time>2022-08-12T06:34:50Z</time>
      </trkpt>
      <trkpt lat="46.52476" lon="5.51187">
        <ele>509.4</ele>
        <time>2022-08-12T06:34:55Z</time>
      </trkpt>
      <trkpt lat="46.52445" lon="5.51169">
        <ele>510.4</ele>
        <time>2022-08-12T06:35:01Z</time>
      </trkpt>
      <trkpt lat="46.52435" lon="5.51163">
        <ele>510.8</ele>
        <time>2022-08-12T06:35:03Z</time>
      </trkpt>
      <trkpt lat="46.52415" lon="5.5115">
        <ele>511.6</ele>
        <time>2022-08-12T06:35:07Z</time>
      </trkpt>
      <trkpt lat="46.52391" lon="5.51135">
        <ele>512</ele>
        <time>2022-08-12T06:35:12Z</time>
      </trkpt>
      <trkpt lat="46.52351" lon="5.51109">
        <ele>512.4</ele>
        <time>2022-08-12T06:35:19Z</time>
      </trkpt>
      <trkpt lat="46.5231" lon="5.51083">
        <ele>511.6</ele>
        <time>2022-08-12T06:35:25Z</time>
      </trkpt>
      <trkpt lat="46.52272" lon="5.5106">
        <ele>510.2</ele>
        <time>2022-08-12T06:35:30Z</time>
      </trkpt>
      <trkpt lat="46.52255" lon="5.51049">
        <ele>509.4</ele>
        <time>2022-08-12T06:35:32Z</time>
      </trkpt>
      <trkpt lat="46.52241" lon="5.51038">
        <ele>509</ele>
        <time>2022-08-12T06:35:34Z</time>
      </trkpt>
      <trkpt lat="46.52197" lon="5.50998">
        <ele>508</ele>
        <time>2022-08-12T06:35:40Z</time>
      </trkpt>
      <trkpt lat="46.52187" lon="5.50982">
        <ele>508</ele>
        <time>2022-08-12T06:35:42Z</time>
      </trkpt>
      <trkpt lat="46.52178" lon="5.50966">
        <ele>507.8</ele>
        <time>2022-08-12T06:35:44Z</time>
      </trkpt>
      <trkpt lat="46.52156" lon="5.50933">
        <ele>508</ele>
        <time>2022-08-12T06:35:49Z</time>
      </trkpt>
      <trkpt lat="46.52116" lon="5.50899">
        <ele>508.6</ele>
        <time>2022-08-12T06:35:55Z</time>
      </trkpt>
      <trkpt lat="46.52073" lon="5.50872">
        <ele>508.6</ele>
        <time>2022-08-12T06:36:01Z</time>
      </trkpt>
      <trkpt lat="46.5202" lon="5.50848">
        <ele>508.8</ele>
        <time>2022-08-12T06:36:09Z</time>
      </trkpt>
      <trkpt lat="46.51979" lon="5.50833">
        <ele>509.4</ele>
        <time>2022-08-12T06:36:15Z</time>
      </trkpt>
      <trkpt lat="46.51972" lon="5.50833">
        <ele>509.6</ele>
        <time>2022-08-12T06:36:16Z</time>
      </trkpt>
      <trkpt lat="46.51966" lon="5.50833">
        <ele>509.6</ele>
        <time>2022-08-12T06:36:17Z</time>
      </trkpt>
      <trkpt lat="46.51946" lon="5.50837">
        <ele>510</ele>
        <time>2022-08-12T06:36:20Z</time>
      </trkpt>
      <trkpt lat="46.5194" lon="5.50838">
        <ele>510.2</ele>
        <time>2022-08-12T06:36:21Z</time>
      </trkpt>
      <trkpt lat="46.51914" lon="5.50841">
        <ele>511</ele>
        <time>2022-08-12T06:36:25Z</time>
      </trkpt>
      <trkpt lat="46.51901" lon="5.50838">
        <ele>511.4</ele>
        <time>2022-08-12T06:36:27Z</time>
      </trkpt>
      <trkpt lat="46.51878" lon="5.50832">
        <ele>512.2</ele>
        <time>2022-08-12T06:36:31Z</time>
      </trkpt>
      <trkpt lat="46.51853" lon="5.50822">
        <ele>513</ele>
        <time>2022-08-12T06:36:35Z</time>
      </trkpt>
      <trkpt lat="46.51842" lon="5.50814">
        <ele>513.4</ele>
        <time>2022-08-12T06:36:37Z</time>
      </trkpt>
      <trkpt lat="46.51818" lon="5.50799">
        <ele>514</ele>
        <time>2022-08-12T06:36:42Z</time>
      </trkpt>
      <trkpt lat="46.51808" lon="5.50792">
        <ele>514.8</ele>
        <time>2022-08-12T06:36:44Z</time>
      </trkpt>
      <trkpt lat="46.51784" lon="5.50779">
        <ele>516</ele>
        <time>2022-08-12T06:36:49Z</time>
      </trkpt>
      <trkpt lat="46.5175" lon="5.50753">
        <ele>516.6</ele>
        <time>2022-08-12T06:36:55Z</time>
      </trkpt>
      <trkpt lat="46.51718" lon="5.50731">
        <ele>516.2</ele>
        <time>2022-08-12T06:37:00Z</time>
      </trkpt>
      <trkpt lat="46.5168" lon="5.50719">
        <ele>515</ele>
        <time>2022-08-12T06:37:05Z</time>
      </trkpt>
      <trkpt lat="46.51672" lon="5.50717">
        <ele>514.8</ele>
        <time>2022-08-12T06:37:06Z</time>
      </trkpt>
      <trkpt lat="46.5164" lon="5.50707">
        <ele>513.6</ele>
        <time>2022-08-12T06:37:10Z</time>
      </trkpt>
      <trkpt lat="46.51617" lon="5.50698">
        <ele>512.8</ele>
        <time>2022-08-12T06:37:13Z</time>
      </trkpt>
      <trkpt lat="46.51593" lon="5.50687">
        <ele>512.4</ele>
        <time>2022-08-12T06:37:16Z</time>
      </trkpt>
      <trkpt lat="46.51563" lon="5.50676">
        <ele>511.8</ele>
        <time>2022-08-12T06:37:20Z</time>
      </trkpt>
      <trkpt lat="46.51526" lon="5.50672">
        <ele>511.4</ele>
        <time>2022-08-12T06:37:25Z</time>
      </trkpt>
      <trkpt lat="46.51512" lon="5.50671">
        <ele>511.6</ele>
        <time>2022-08-12T06:37:27Z</time>
      </trkpt>
      <trkpt lat="46.51455" lon="5.50668">
        <ele>511.8</ele>
        <time>2022-08-12T06:37:35Z</time>
      </trkpt>
      <trkpt lat="46.51448" lon="5.50666">
        <ele>511.8</ele>
        <time>2022-08-12T06:37:36Z</time>
      </trkpt>
      <trkpt lat="46.51393" lon="5.50648">
        <ele>511.8</ele>
        <time>2022-08-12T06:37:44Z</time>
      </trkpt>
      <trkpt lat="46.51388" lon="5.50647">
        <ele>512</ele>
        <time>2022-08-12T06:37:45Z</time>
      </trkpt>
      <trkpt lat="46.51333" lon="5.50642">
        <ele>511.6</ele>
        <time>2022-08-12T06:37:52Z</time>
      </trkpt>
      <trkpt lat="46.51318" lon="5.5064">
        <ele>511.2</ele>
        <time>2022-08-12T06:37:54Z</time>
      </trkpt>
      <trkpt lat="46.51308" lon="5.50638">
        <ele>511.2</ele>
        <time>2022-08-12T06:37:55Z</time>
      </trkpt>
      <trkpt lat="46.51252" lon="5.50632">
        <ele>510.4</ele>
        <time>2022-08-12T06:38:02Z</time>
      </trkpt>
      <trkpt lat="46.51244" lon="5.50631">
        <ele>510</ele>
        <time>2022-08-12T06:38:03Z</time>
      </trkpt>
      <trkpt lat="46.51236" lon="5.50631">
        <ele>510</ele>
        <time>2022-08-12T06:38:04Z</time>
      </trkpt>
      <trkpt lat="46.51188" lon="5.50634">
        <ele>509</ele>
        <time>2022-08-12T06:38:10Z</time>
      </trkpt>
      <trkpt lat="46.51173" lon="5.50637">
        <ele>508.8</ele>
        <time>2022-08-12T06:38:12Z</time>
      </trkpt>
      <trkpt lat="46.5113" lon="5.50641">
        <ele>507.8</ele>
        <time>2022-08-12T06:38:17Z</time>
      </trkpt>
      <trkpt lat="46.51111" lon="5.50641">
        <ele>507.4</ele>
        <time>2022-08-12T06:38:19Z</time>
      </trkpt>
      <trkpt lat="46.51103" lon="5.5064">
        <ele>507.2</ele>
        <time>2022-08-12T06:38:20Z</time>
      </trkpt>
      <trkpt lat="46.51086" lon="5.50636">
        <ele>506.8</ele>
        <time>2022-08-12T06:38:22Z</time>
      </trkpt>
      <trkpt lat="46.51052" lon="5.50628">
        <ele>505.6</ele>
        <time>2022-08-12T06:38:26Z</time>
      </trkpt>
      <trkpt lat="46.51044" lon="5.50625">
        <ele>505.6</ele>
        <time>2022-08-12T06:38:27Z</time>
      </trkpt>
      <trkpt lat="46.50985" lon="5.5061">
        <ele>505</ele>
        <time>2022-08-12T06:38:34Z</time>
      </trkpt>
      <trkpt lat="46.5096" lon="5.50606">
        <ele>504.6</ele>
        <time>2022-08-12T06:38:37Z</time>
      </trkpt>
      <trkpt lat="46.50951" lon="5.50604">
        <ele>504.6</ele>
        <time>2022-08-12T06:38:38Z</time>
      </trkpt>
      <trkpt lat="46.50903" lon="5.50606">
        <ele>504</ele>
        <time>2022-08-12T06:38:44Z</time>
      </trkpt>
      <trkpt lat="46.5085" lon="5.50615">
        <ele>503.8</ele>
        <time>2022-08-12T06:38:51Z</time>
      </trkpt>
      <trkpt lat="46.50791" lon="5.50613">
        <ele>504.4</ele>
        <time>2022-08-12T06:38:59Z</time>
      </trkpt>
      <trkpt lat="46.50748" lon="5.506">
        <ele>504.4</ele>
        <time>2022-08-12T06:39:05Z</time>
      </trkpt>
      <trkpt lat="46.50716" lon="5.50583">
        <ele>505</ele>
        <time>2022-08-12T06:39:10Z</time>
      </trkpt>
      <trkpt lat="46.5071" lon="5.50581">
        <ele>505.2</ele>
        <time>2022-08-12T06:39:11Z</time>
      </trkpt>
      <trkpt lat="46.50696" lon="5.50579">
        <ele>505.6</ele>
        <time>2022-08-12T06:39:13Z</time>
      </trkpt>
      <trkpt lat="46.50689" lon="5.50577">
        <ele>505.8</ele>
        <time>2022-08-12T06:39:14Z</time>
      </trkpt>
      <trkpt lat="46.5066" lon="5.50571">
        <ele>506</ele>
        <time>2022-08-12T06:39:18Z</time>
      </trkpt>
      <trkpt lat="46.50633" lon="5.50555">
        <ele>506</ele>
        <time>2022-08-12T06:39:22Z</time>
      </trkpt>
      <trkpt lat="46.50606" lon="5.50528">
        <ele>506</ele>
        <time>2022-08-12T06:39:27Z</time>
      </trkpt>
      <trkpt lat="46.5058" lon="5.50493">
        <ele>506</ele>
        <time>2022-08-12T06:39:32Z</time>
      </trkpt>
      <trkpt lat="46.50571" lon="5.50486">
        <ele>506</ele>
        <time>2022-08-12T06:39:33Z</time>
      </trkpt>
      <trkpt lat="46.50546" lon="5.5047">
        <ele>505.6</ele>
        <time>2022-08-12T06:39:36Z</time>
      </trkpt>
      <trkpt lat="46.50538" lon="5.50466">
        <ele>505</ele>
        <time>2022-08-12T06:39:37Z</time>
      </trkpt>
      <trkpt lat="46.50529" lon="5.50463">
        <ele>504.4</ele>
        <time>2022-08-12T06:39:38Z</time>
      </trkpt>
      <trkpt lat="46.5051" lon="5.50462">
        <ele>503.4</ele>
        <time>2022-08-12T06:39:40Z</time>
      </trkpt>
      <trkpt lat="46.50501" lon="5.50462">
        <ele>502.4</ele>
        <time>2022-08-12T06:39:41Z</time>
      </trkpt>
      <trkpt lat="46.50474" lon="5.50464">
        <ele>501.2</ele>
        <time>2022-08-12T06:39:44Z</time>
      </trkpt>
      <trkpt lat="46.50465" lon="5.50463">
        <ele>500.8</ele>
        <time>2022-08-12T06:39:45Z</time>
      </trkpt>
      <trkpt lat="46.50457" lon="5.50461">
        <ele>500.2</ele>
        <time>2022-08-12T06:39:46Z</time>
      </trkpt>
      <trkpt lat="46.50441" lon="5.50454">
        <ele>499.4</ele>
        <time>2022-08-12T06:39:48Z</time>
      </trkpt>
      <trkpt lat="46.50408" lon="5.5044">
        <ele>498.8</ele>
        <time>2022-08-12T06:39:52Z</time>
      </trkpt>
      <trkpt lat="46.50393" lon="5.50435">
        <ele>498.4</ele>
        <time>2022-08-12T06:39:54Z</time>
      </trkpt>
      <trkpt lat="46.50366" lon="5.50427">
        <ele>497.6</ele>
        <time>2022-08-12T06:39:57Z</time>
      </trkpt>
      <trkpt lat="46.50341" lon="5.50422">
        <ele>497.2</ele>
        <time>2022-08-12T06:40:00Z</time>
      </trkpt>
      <trkpt lat="46.50316" lon="5.50425">
        <ele>496.4</ele>
        <time>2022-08-12T06:40:03Z</time>
      </trkpt>
      <trkpt lat="46.50308" lon="5.50429">
        <ele>496.2</ele>
        <time>2022-08-12T06:40:04Z</time>
      </trkpt>
      <trkpt lat="46.503" lon="5.50435">
        <ele>496</ele>
        <time>2022-08-12T06:40:05Z</time>
      </trkpt>
      <trkpt lat="46.50286" lon="5.50446">
        <ele>495.4</ele>
        <time>2022-08-12T06:40:07Z</time>
      </trkpt>
      <trkpt lat="46.50262" lon="5.50466">
        <ele>494.4</ele>
        <time>2022-08-12T06:40:10Z</time>
      </trkpt>
      <trkpt lat="46.50245" lon="5.50472">
        <ele>494</ele>
        <time>2022-08-12T06:40:12Z</time>
      </trkpt>
      <trkpt lat="46.50228" lon="5.50464">
        <ele>493</ele>
        <time>2022-08-12T06:40:14Z</time>
      </trkpt>
      <trkpt lat="46.50219" lon="5.50457">
        <ele>492.8</ele>
        <time>2022-08-12T06:40:15Z</time>
      </trkpt>
      <trkpt lat="46.50185" lon="5.50433">
        <ele>491.4</ele>
        <time>2022-08-12T06:40:19Z</time>
      </trkpt>
      <trkpt lat="46.50167" lon="5.50423">
        <ele>489.8</ele>
        <time>2022-08-12T06:40:21Z</time>
      </trkpt>
      <trkpt lat="46.50133" lon="5.50407">
        <ele>488.8</ele>
        <time>2022-08-12T06:40:25Z</time>
      </trkpt>
      <trkpt lat="46.50127" lon="5.50404">
        <ele>488.6</ele>
        <time>2022-08-12T06:40:26Z</time>
      </trkpt>
      <trkpt lat="46.50111" lon="5.50398">
        <ele>488.2</ele>
        <time>2022-08-12T06:40:28Z</time>
      </trkpt>
      <trkpt lat="46.50103" lon="5.504">
        <ele>488.2</ele>
        <time>2022-08-12T06:40:29Z</time>
      </trkpt>
      <trkpt lat="46.50097" lon="5.50406">
        <ele>488</ele>
        <time>2022-08-12T06:40:30Z</time>
      </trkpt>
      <trkpt lat="46.50078" lon="5.50427">
        <ele>487.8</ele>
        <time>2022-08-12T06:40:33Z</time>
      </trkpt>
      <trkpt lat="46.50066" lon="5.50443">
        <ele>487.6</ele>
        <time>2022-08-12T06:40:35Z</time>
      </trkpt>
      <trkpt lat="46.5005" lon="5.50468">
        <ele>487.2</ele>
        <time>2022-08-12T06:40:38Z</time>
      </trkpt>
      <trkpt lat="46.50039" lon="5.50483">
        <ele>487.2</ele>
        <time>2022-08-12T06:40:40Z</time>
      </trkpt>
      <trkpt lat="46.50028" lon="5.50493">
        <ele>487.2</ele>
        <time>2022-08-12T06:40:42Z</time>
      </trkpt>
      <trkpt lat="46.50009" lon="5.50507">
        <ele>487.6</ele>
        <time>2022-08-12T06:40:45Z</time>
      </trkpt>
      <trkpt lat="46.49991" lon="5.50519">
        <ele>488.4</ele>
        <time>2022-08-12T06:40:48Z</time>
      </trkpt>
      <trkpt lat="46.49979" lon="5.50527">
        <ele>488.8</ele>
        <time>2022-08-12T06:40:50Z</time>
      </trkpt>
      <trkpt lat="46.49966" lon="5.50533">
        <ele>489.2</ele>
        <time>2022-08-12T06:40:52Z</time>
      </trkpt>
      <trkpt lat="46.49953" lon="5.50534">
        <ele>489.6</ele>
        <time>2022-08-12T06:40:54Z</time>
      </trkpt>
      <trkpt lat="46.49946" lon="5.50533">
        <ele>489.8</ele>
        <time>2022-08-12T06:40:55Z</time>
      </trkpt>
      <trkpt lat="46.4994" lon="5.50532">
        <ele>490</ele>
        <time>2022-08-12T06:40:56Z</time>
      </trkpt>
      <trkpt lat="46.4992" lon="5.50523">
        <ele>490</ele>
        <time>2022-08-12T06:40:59Z</time>
      </trkpt>
      <trkpt lat="46.4988" lon="5.50494">
        <ele>489.6</ele>
        <time>2022-08-12T06:41:05Z</time>
      </trkpt>
      <trkpt lat="46.49846" lon="5.50473">
        <ele>489.6</ele>
        <time>2022-08-12T06:41:10Z</time>
      </trkpt>
      <trkpt lat="46.49788" lon="5.50457">
        <ele>489.2</ele>
        <time>2022-08-12T06:41:18Z</time>
      </trkpt>
      <trkpt lat="46.49772" lon="5.50452">
        <ele>489.4</ele>
        <time>2022-08-12T06:41:20Z</time>
      </trkpt>
      <trkpt lat="46.49753" lon="5.5044">
        <ele>489.6</ele>
        <time>2022-08-12T06:41:23Z</time>
      </trkpt>
      <trkpt lat="46.49747" lon="5.50435">
        <ele>489.6</ele>
        <time>2022-08-12T06:41:24Z</time>
      </trkpt>
      <trkpt lat="46.49742" lon="5.50429">
        <ele>489.6</ele>
        <time>2022-08-12T06:41:25Z</time>
      </trkpt>
      <trkpt lat="46.49728" lon="5.50409">
        <ele>489.8</ele>
        <time>2022-08-12T06:41:28Z</time>
      </trkpt>
      <trkpt lat="46.49713" lon="5.50385">
        <ele>490.6</ele>
        <time>2022-08-12T06:41:32Z</time>
      </trkpt>
      <trkpt lat="46.49709" lon="5.50381">
        <ele>491</ele>
        <time>2022-08-12T06:41:33Z</time>
      </trkpt>
      <trkpt lat="46.49692" lon="5.50363">
        <ele>491.8</ele>
        <time>2022-08-12T06:41:37Z</time>
      </trkpt>
      <trkpt lat="46.49688" lon="5.50359">
        <ele>492</ele>
        <time>2022-08-12T06:41:38Z</time>
      </trkpt>
      <trkpt lat="46.49684" lon="5.50353">
        <ele>492.2</ele>
        <time>2022-08-12T06:41:39Z</time>
      </trkpt>
      <trkpt lat="46.49668" lon="5.50326">
        <ele>493</ele>
        <time>2022-08-12T06:41:43Z</time>
      </trkpt>
      <trkpt lat="46.49663" lon="5.50319">
        <ele>493.2</ele>
        <time>2022-08-12T06:41:44Z</time>
      </trkpt>
      <trkpt lat="46.49636" lon="5.50271">
        <ele>493.4</ele>
        <time>2022-08-12T06:41:50Z</time>
      </trkpt>
      <trkpt lat="46.496" lon="5.50212">
        <ele>492.2</ele>
        <time>2022-08-12T06:41:56Z</time>
      </trkpt>
      <trkpt lat="46.49592" lon="5.50199">
        <ele>492</ele>
        <time>2022-08-12T06:41:57Z</time>
      </trkpt>
      <trkpt lat="46.49572" lon="5.50164">
        <ele>490.2</ele>
        <time>2022-08-12T06:42:00Z</time>
      </trkpt>
      <trkpt lat="46.49566" lon="5.50151">
        <ele>489.4</ele>
        <time>2022-08-12T06:42:01Z</time>
      </trkpt>
      <trkpt lat="46.49561" lon="5.50138">
        <ele>489</ele>
        <time>2022-08-12T06:42:02Z</time>
      </trkpt>
      <trkpt lat="46.49556" lon="5.50125">
        <ele>487.2</ele>
        <time>2022-08-12T06:42:03Z</time>
      </trkpt>
      <trkpt lat="46.49548" lon="5.50097">
        <ele>485.8</ele>
        <time>2022-08-12T06:42:05Z</time>
      </trkpt>
      <trkpt lat="46.49545" lon="5.50086">
        <ele>485.6</ele>
        <time>2022-08-12T06:42:06Z</time>
      </trkpt>
      <trkpt lat="46.49539" lon="5.50056">
        <ele>484.2</ele>
        <time>2022-08-12T06:42:08Z</time>
      </trkpt>
      <trkpt lat="46.49532" lon="5.50033">
        <ele>483.6</ele>
        <time>2022-08-12T06:42:10Z</time>
      </trkpt>
      <trkpt lat="46.49504" lon="5.49972">
        <ele>483.4</ele>
        <time>2022-08-12T06:42:16Z</time>
      </trkpt>
      <trkpt lat="46.49472" lon="5.49907">
        <ele>483.2</ele>
        <time>2022-08-12T06:42:22Z</time>
      </trkpt>
      <trkpt lat="46.49467" lon="5.49895">
        <ele>483.2</ele>
        <time>2022-08-12T06:42:23Z</time>
      </trkpt>
      <trkpt lat="46.49449" lon="5.4986">
        <ele>481.6</ele>
        <time>2022-08-12T06:42:26Z</time>
      </trkpt>
      <trkpt lat="46.49432" lon="5.49828">
        <ele>480.6</ele>
        <time>2022-08-12T06:42:29Z</time>
      </trkpt>
      <trkpt lat="46.49409" lon="5.49781">
        <ele>480.6</ele>
        <time>2022-08-12T06:42:34Z</time>
      </trkpt>
      <trkpt lat="46.49396" lon="5.49747">
        <ele>482</ele>
        <time>2022-08-12T06:42:38Z</time>
      </trkpt>
      <trkpt lat="46.49394" lon="5.49738">
        <ele>482.2</ele>
        <time>2022-08-12T06:42:39Z</time>
      </trkpt>
      <trkpt lat="46.49387" lon="5.49712">
        <ele>482.8</ele>
        <time>2022-08-12T06:42:42Z</time>
      </trkpt>
      <trkpt lat="46.49384" lon="5.49704">
        <ele>483.2</ele>
        <time>2022-08-12T06:42:43Z</time>
      </trkpt>
      <trkpt lat="46.49381" lon="5.49697">
        <ele>483.2</ele>
        <time>2022-08-12T06:42:44Z</time>
      </trkpt>
      <trkpt lat="46.49378" lon="5.4969">
        <ele>483.6</ele>
        <time>2022-08-12T06:42:45Z</time>
      </trkpt>
      <trkpt lat="46.49369" lon="5.49677">
        <ele>484.2</ele>
        <time>2022-08-12T06:42:47Z</time>
      </trkpt>
      <trkpt lat="46.49364" lon="5.49673">
        <ele>484.4</ele>
        <time>2022-08-12T06:42:48Z</time>
      </trkpt>
      <trkpt lat="46.49358" lon="5.49669">
        <ele>484.6</ele>
        <time>2022-08-12T06:42:49Z</time>
      </trkpt>
      <trkpt lat="46.49341" lon="5.49661">
        <ele>485.2</ele>
        <time>2022-08-12T06:42:52Z</time>
      </trkpt>
      <trkpt lat="46.49335" lon="5.49659">
        <ele>485.2</ele>
        <time>2022-08-12T06:42:53Z</time>
      </trkpt>
      <trkpt lat="46.49297" lon="5.49639">
        <ele>486.2</ele>
        <time>2022-08-12T06:42:59Z</time>
      </trkpt>
      <trkpt lat="46.49286" lon="5.49631">
        <ele>486.4</ele>
        <time>2022-08-12T06:43:01Z</time>
      </trkpt>
      <trkpt lat="46.4928" lon="5.49625">
        <ele>486.4</ele>
        <time>2022-08-12T06:43:02Z</time>
      </trkpt>
      <trkpt lat="46.49263" lon="5.496">
        <ele>486.4</ele>
        <time>2022-08-12T06:43:05Z</time>
      </trkpt>
      <trkpt lat="46.4925" lon="5.49582">
        <ele>486.4</ele>
        <time>2022-08-12T06:43:07Z</time>
      </trkpt>
      <trkpt lat="46.49241" lon="5.49561">
        <ele>486.2</ele>
        <time>2022-08-12T06:43:09Z</time>
      </trkpt>
      <trkpt lat="46.49241" lon="5.49536">
        <ele>485.4</ele>
        <time>2022-08-12T06:43:11Z</time>
      </trkpt>
      <trkpt lat="46.49244" lon="5.49523">
        <ele>485.2</ele>
        <time>2022-08-12T06:43:12Z</time>
      </trkpt>
      <trkpt lat="46.49247" lon="5.49513">
        <ele>484.6</ele>
        <time>2022-08-12T06:43:13Z</time>
      </trkpt>
      <trkpt lat="46.49252" lon="5.49502">
        <ele>484.4</ele>
        <time>2022-08-12T06:43:14Z</time>
      </trkpt>
      <trkpt lat="46.49258" lon="5.49488">
        <ele>483.8</ele>
        <time>2022-08-12T06:43:15Z</time>
      </trkpt>
      <trkpt lat="46.4927" lon="5.49454">
        <ele>482.6</ele>
        <time>2022-08-12T06:43:18Z</time>
      </trkpt>
      <trkpt lat="46.49278" lon="5.49429">
        <ele>481.8</ele>
        <time>2022-08-12T06:43:20Z</time>
      </trkpt>
      <trkpt lat="46.49284" lon="5.49401">
        <ele>481.2</ele>
        <time>2022-08-12T06:43:22Z</time>
      </trkpt>
      <trkpt lat="46.49291" lon="5.49353">
        <ele>480.2</ele>
        <time>2022-08-12T06:43:26Z</time>
      </trkpt>
      <trkpt lat="46.49298" lon="5.49301">
        <ele>479.6</ele>
        <time>2022-08-12T06:43:30Z</time>
      </trkpt>
      <trkpt lat="46.49298" lon="5.49285">
        <ele>479.2</ele>
        <time>2022-08-12T06:43:31Z</time>
      </trkpt>
      <trkpt lat="46.49297" lon="5.49275">
        <ele>479</ele>
        <time>2022-08-12T06:43:32Z</time>
      </trkpt>
      <trkpt lat="46.49295" lon="5.4926">
        <ele>478.6</ele>
        <time>2022-08-12T06:43:33Z</time>
      </trkpt>
      <trkpt lat="46.49289" lon="5.49236">
        <ele>478</ele>
        <time>2022-08-12T06:43:35Z</time>
      </trkpt>
      <trkpt lat="46.49285" lon="5.49222">
        <ele>477.8</ele>
        <time>2022-08-12T06:43:36Z</time>
      </trkpt>
      <trkpt lat="46.49267" lon="5.49165">
        <ele>476.4</ele>
        <time>2022-08-12T06:43:40Z</time>
      </trkpt>
      <trkpt lat="46.49263" lon="5.49153">
        <ele>475.8</ele>
        <time>2022-08-12T06:43:41Z</time>
      </trkpt>
      <trkpt lat="46.49256" lon="5.49127">
        <ele>475</ele>
        <time>2022-08-12T06:43:43Z</time>
      </trkpt>
      <trkpt lat="46.49241" lon="5.49077">
        <ele>474</ele>
        <time>2022-08-12T06:43:47Z</time>
      </trkpt>
      <trkpt lat="46.49237" lon="5.49065">
        <ele>473.8</ele>
        <time>2022-08-12T06:43:48Z</time>
      </trkpt>
      <trkpt lat="46.49212" lon="5.48985">
        <ele>473.6</ele>
        <time>2022-08-12T06:43:55Z</time>
      </trkpt>
      <trkpt lat="46.49187" lon="5.4891">
        <ele>473.4</ele>
        <time>2022-08-12T06:44:02Z</time>
      </trkpt>
      <trkpt lat="46.49179" lon="5.48888">
        <ele>473.4</ele>
        <time>2022-08-12T06:44:04Z</time>
      </trkpt>
      <trkpt lat="46.49162" lon="5.48842">
        <ele>473.6</ele>
        <time>2022-08-12T06:44:09Z</time>
      </trkpt>
      <trkpt lat="46.49136" lon="5.48783">
        <ele>474.6</ele>
        <time>2022-08-12T06:44:16Z</time>
      </trkpt>
      <trkpt lat="46.49104" lon="5.48726">
        <ele>475</ele>
        <time>2022-08-12T06:44:22Z</time>
      </trkpt>
      <trkpt lat="46.49071" lon="5.48697">
        <ele>474.2</ele>
        <time>2022-08-12T06:44:27Z</time>
      </trkpt>
      <trkpt lat="46.49047" lon="5.48669">
        <ele>474.2</ele>
        <time>2022-08-12T06:44:32Z</time>
      </trkpt>
      <trkpt lat="46.49038" lon="5.48658">
        <ele>475</ele>
        <time>2022-08-12T06:44:34Z</time>
      </trkpt>
      <trkpt lat="46.49026" lon="5.48641">
        <ele>476</ele>
        <time>2022-08-12T06:44:37Z</time>
      </trkpt>
      <trkpt lat="46.49018" lon="5.48631">
        <ele>476.6</ele>
        <time>2022-08-12T06:44:39Z</time>
      </trkpt>
      <trkpt lat="46.48999" lon="5.48601">
        <ele>477.2</ele>
        <time>2022-08-12T06:44:43Z</time>
      </trkpt>
      <trkpt lat="46.48989" lon="5.48584">
        <ele>477.4</ele>
        <time>2022-08-12T06:44:45Z</time>
      </trkpt>
      <trkpt lat="46.48985" lon="5.48576">
        <ele>477.2</ele>
        <time>2022-08-12T06:44:46Z</time>
      </trkpt>
      <trkpt lat="46.48975" lon="5.48549">
        <ele>476.8</ele>
        <time>2022-08-12T06:44:49Z</time>
      </trkpt>
      <trkpt lat="46.48967" lon="5.48535">
        <ele>476.6</ele>
        <time>2022-08-12T06:44:51Z</time>
      </trkpt>
      <trkpt lat="46.48959" lon="5.48525">
        <ele>476.2</ele>
        <time>2022-08-12T06:44:53Z</time>
      </trkpt>
      <trkpt lat="46.48947" lon="5.48513">
        <ele>476.2</ele>
        <time>2022-08-12T06:44:55Z</time>
      </trkpt>
      <trkpt lat="46.48923" lon="5.48489">
        <ele>476.2</ele>
        <time>2022-08-12T06:44:59Z</time>
      </trkpt>
      <trkpt lat="46.48888" lon="5.48452">
        <ele>475.4</ele>
        <time>2022-08-12T06:45:04Z</time>
      </trkpt>
      <trkpt lat="46.48882" lon="5.48447">
        <ele>474.4</ele>
        <time>2022-08-12T06:45:05Z</time>
      </trkpt>
      <trkpt lat="46.48873" lon="5.48439">
        <ele>472.8</ele>
        <time>2022-08-12T06:45:06Z</time>
      </trkpt>
      <trkpt lat="46.48857" lon="5.48426">
        <ele>471.4</ele>
        <time>2022-08-12T06:45:08Z</time>
      </trkpt>
      <trkpt lat="46.48835" lon="5.4841">
        <ele>470.2</ele>
        <time>2022-08-12T06:45:11Z</time>
      </trkpt>
      <trkpt lat="46.48819" lon="5.48396">
        <ele>469</ele>
        <time>2022-08-12T06:45:13Z</time>
      </trkpt>
      <trkpt lat="46.48794" lon="5.48376">
        <ele>467.6</ele>
        <time>2022-08-12T06:45:16Z</time>
      </trkpt>
      <trkpt lat="46.48783" lon="5.48368">
        <ele>467.2</ele>
        <time>2022-08-12T06:45:17Z</time>
      </trkpt>
      <trkpt lat="46.48777" lon="5.48361">
        <ele>466.2</ele>
        <time>2022-08-12T06:45:18Z</time>
      </trkpt>
      <trkpt lat="46.48757" lon="5.48335">
        <ele>464.8</ele>
        <time>2022-08-12T06:45:20Z</time>
      </trkpt>
      <trkpt lat="46.48747" lon="5.48322">
        <ele>464</ele>
        <time>2022-08-12T06:45:21Z</time>
      </trkpt>
      <trkpt lat="46.48737" lon="5.48311">
        <ele>463.4</ele>
        <time>2022-08-12T06:45:22Z</time>
      </trkpt>
      <trkpt lat="46.48713" lon="5.48289">
        <ele>462</ele>
        <time>2022-08-12T06:45:24Z</time>
      </trkpt>
      <trkpt lat="46.487" lon="5.48278">
        <ele>461</ele>
        <time>2022-08-12T06:45:25Z</time>
      </trkpt>
      <trkpt lat="46.48685" lon="5.48268">
        <ele>460.2</ele>
        <time>2022-08-12T06:45:26Z</time>
      </trkpt>
      <trkpt lat="46.48673" lon="5.48258">
        <ele>459.2</ele>
        <time>2022-08-12T06:45:27Z</time>
      </trkpt>
      <trkpt lat="46.48647" lon="5.48238">
        <ele>457.2</ele>
        <time>2022-08-12T06:45:29Z</time>
      </trkpt>
      <trkpt lat="46.48634" lon="5.48227">
        <ele>455.6</ele>
        <time>2022-08-12T06:45:30Z</time>
      </trkpt>
      <trkpt lat="46.48607" lon="5.48204">
        <ele>453.4</ele>
        <time>2022-08-12T06:45:32Z</time>
      </trkpt>
      <trkpt lat="46.4858" lon="5.48179">
        <ele>450.4</ele>
        <time>2022-08-12T06:45:34Z</time>
      </trkpt>
      <trkpt lat="46.48567" lon="5.48165">
        <ele>448.4</ele>
        <time>2022-08-12T06:45:35Z</time>
      </trkpt>
      <trkpt lat="46.48557" lon="5.48154">
        <ele>447</ele>
        <time>2022-08-12T06:45:36Z</time>
      </trkpt>
      <trkpt lat="46.48544" lon="5.4814">
        <ele>445.4</ele>
        <time>2022-08-12T06:45:37Z</time>
      </trkpt>
      <trkpt lat="46.48513" lon="5.48107">
        <ele>443.6</ele>
        <time>2022-08-12T06:45:39Z</time>
      </trkpt>
      <trkpt lat="46.48498" lon="5.48096">
        <ele>443.2</ele>
        <time>2022-08-12T06:45:40Z</time>
      </trkpt>
      <trkpt lat="46.48484" lon="5.48087">
        <ele>441</ele>
        <time>2022-08-12T06:45:41Z</time>
      </trkpt>
      <trkpt lat="46.48471" lon="5.48078">
        <ele>439.4</ele>
        <time>2022-08-12T06:45:42Z</time>
      </trkpt>
      <trkpt lat="46.48456" lon="5.4807">
        <ele>438.2</ele>
        <time>2022-08-12T06:45:43Z</time>
      </trkpt>
      <trkpt lat="46.48442" lon="5.48062">
        <ele>435.8</ele>
        <time>2022-08-12T06:45:44Z</time>
      </trkpt>
      <trkpt lat="46.48428" lon="5.48055">
        <ele>434.6</ele>
        <time>2022-08-12T06:45:45Z</time>
      </trkpt>
      <trkpt lat="46.48414" lon="5.48048">
        <ele>432.6</ele>
        <time>2022-08-12T06:45:46Z</time>
      </trkpt>
      <trkpt lat="46.48386" lon="5.48035">
        <ele>429.8</ele>
        <time>2022-08-12T06:45:48Z</time>
      </trkpt>
      <trkpt lat="46.48372" lon="5.48029">
        <ele>428.2</ele>
        <time>2022-08-12T06:45:49Z</time>
      </trkpt>
      <trkpt lat="46.48342" lon="5.48019">
        <ele>425.2</ele>
        <time>2022-08-12T06:45:51Z</time>
      </trkpt>
      <trkpt lat="46.48327" lon="5.48014">
        <ele>424</ele>
        <time>2022-08-12T06:45:52Z</time>
      </trkpt>
      <trkpt lat="46.48312" lon="5.48008">
        <ele>422.4</ele>
        <time>2022-08-12T06:45:53Z</time>
      </trkpt>
      <trkpt lat="46.48295" lon="5.48001">
        <ele>421</ele>
        <time>2022-08-12T06:45:54Z</time>
      </trkpt>
      <trkpt lat="46.4828" lon="5.47995">
        <ele>418.6</ele>
        <time>2022-08-12T06:45:55Z</time>
      </trkpt>
      <trkpt lat="46.48264" lon="5.47988">
        <ele>416.6</ele>
        <time>2022-08-12T06:45:56Z</time>
      </trkpt>
      <trkpt lat="46.48249" lon="5.47979">
        <ele>415</ele>
        <time>2022-08-12T06:45:57Z</time>
      </trkpt>
      <trkpt lat="46.48233" lon="5.47971">
        <ele>412.8</ele>
        <time>2022-08-12T06:45:58Z</time>
      </trkpt>
      <trkpt lat="46.48217" lon="5.47962">
        <ele>412.2</ele>
        <time>2022-08-12T06:45:59Z</time>
      </trkpt>
      <trkpt lat="46.48201" lon="5.47952">
        <ele>411.2</ele>
        <time>2022-08-12T06:46:00Z</time>
      </trkpt>
      <trkpt lat="46.48187" lon="5.47944">
        <ele>410</ele>
        <time>2022-08-12T06:46:01Z</time>
      </trkpt>
      <trkpt lat="46.48173" lon="5.47935">
        <ele>408</ele>
        <time>2022-08-12T06:46:02Z</time>
      </trkpt>
      <trkpt lat="46.48159" lon="5.47924">
        <ele>406.4</ele>
        <time>2022-08-12T06:46:03Z</time>
      </trkpt>
      <trkpt lat="46.48135" lon="5.47899">
        <ele>404.8</ele>
        <time>2022-08-12T06:46:05Z</time>
      </trkpt>
      <trkpt lat="46.48124" lon="5.47884">
        <ele>404.4</ele>
        <time>2022-08-12T06:46:06Z</time>
      </trkpt>
      <trkpt lat="46.48116" lon="5.47868">
        <ele>403.2</ele>
        <time>2022-08-12T06:46:07Z</time>
      </trkpt>
      <trkpt lat="46.481" lon="5.47831">
        <ele>401.2</ele>
        <time>2022-08-12T06:46:09Z</time>
      </trkpt>
      <trkpt lat="46.48094" lon="5.47812">
        <ele>400.2</ele>
        <time>2022-08-12T06:46:10Z</time>
      </trkpt>
      <trkpt lat="46.48082" lon="5.47776">
        <ele>398.6</ele>
        <time>2022-08-12T06:46:12Z</time>
      </trkpt>
      <trkpt lat="46.48077" lon="5.47758">
        <ele>398</ele>
        <time>2022-08-12T06:46:13Z</time>
      </trkpt>
      <trkpt lat="46.48073" lon="5.47738">
        <ele>396.8</ele>
        <time>2022-08-12T06:46:14Z</time>
      </trkpt>
      <trkpt lat="46.48071" lon="5.47718">
        <ele>396.2</ele>
        <time>2022-08-12T06:46:15Z</time>
      </trkpt>
      <trkpt lat="46.4807" lon="5.47698">
        <ele>395.6</ele>
        <time>2022-08-12T06:46:16Z</time>
      </trkpt>
      <trkpt lat="46.48072" lon="5.47656">
        <ele>393.8</ele>
        <time>2022-08-12T06:46:18Z</time>
      </trkpt>
      <trkpt lat="46.48076" lon="5.47635">
        <ele>392.6</ele>
        <time>2022-08-12T06:46:19Z</time>
      </trkpt>
      <trkpt lat="46.48086" lon="5.47593">
        <ele>390.6</ele>
        <time>2022-08-12T06:46:21Z</time>
      </trkpt>
      <trkpt lat="46.48093" lon="5.47552">
        <ele>388.2</ele>
        <time>2022-08-12T06:46:23Z</time>
      </trkpt>
      <trkpt lat="46.48096" lon="5.47533">
        <ele>386.6</ele>
        <time>2022-08-12T06:46:24Z</time>
      </trkpt>
      <trkpt lat="46.48099" lon="5.47513">
        <ele>385.6</ele>
        <time>2022-08-12T06:46:25Z</time>
      </trkpt>
      <trkpt lat="46.48101" lon="5.47495">
        <ele>384.2</ele>
        <time>2022-08-12T06:46:26Z</time>
      </trkpt>
      <trkpt lat="46.48102" lon="5.47477">
        <ele>383.8</ele>
        <time>2022-08-12T06:46:27Z</time>
      </trkpt>
      <trkpt lat="46.48103" lon="5.4746">
        <ele>383</ele>
        <time>2022-08-12T06:46:28Z</time>
      </trkpt>
      <trkpt lat="46.48104" lon="5.4741">
        <ele>381.6</ele>
        <time>2022-08-12T06:46:31Z</time>
      </trkpt>
      <trkpt lat="46.48103" lon="5.47396">
        <ele>381.4</ele>
        <time>2022-08-12T06:46:32Z</time>
      </trkpt>
      <trkpt lat="46.48094" lon="5.47352">
        <ele>381.2</ele>
        <time>2022-08-12T06:46:35Z</time>
      </trkpt>
      <trkpt lat="46.48084" lon="5.47314">
        <ele>381.6</ele>
        <time>2022-08-12T06:46:38Z</time>
      </trkpt>
      <trkpt lat="46.48081" lon="5.47301">
        <ele>381.8</ele>
        <time>2022-08-12T06:46:39Z</time>
      </trkpt>
      <trkpt lat="46.48081" lon="5.47287">
        <ele>381.8</ele>
        <time>2022-08-12T06:46:40Z</time>
      </trkpt>
      <trkpt lat="46.48085" lon="5.4726">
        <ele>381.8</ele>
        <time>2022-08-12T06:46:42Z</time>
      </trkpt>
      <trkpt lat="46.48106" lon="5.47176">
        <ele>381.8</ele>
        <time>2022-08-12T06:46:48Z</time>
      </trkpt>
      <trkpt lat="46.48117" lon="5.47135">
        <ele>381</ele>
        <time>2022-08-12T06:46:51Z</time>
      </trkpt>
      <trkpt lat="46.48125" lon="5.47109">
        <ele>380.4</ele>
        <time>2022-08-12T06:46:53Z</time>
      </trkpt>
      <trkpt lat="46.48138" lon="5.47074">
        <ele>379.6</ele>
        <time>2022-08-12T06:46:56Z</time>
      </trkpt>
      <trkpt lat="46.48143" lon="5.47062">
        <ele>379.4</ele>
        <time>2022-08-12T06:46:57Z</time>
      </trkpt>
      <trkpt lat="46.48148" lon="5.47051">
        <ele>379.2</ele>
        <time>2022-08-12T06:46:58Z</time>
      </trkpt>
      <trkpt lat="46.48176" lon="5.47004">
        <ele>379</ele>
        <time>2022-08-12T06:47:02Z</time>
      </trkpt>
      <trkpt lat="46.48196" lon="5.46975">
        <ele>378.2</ele>
        <time>2022-08-12T06:47:05Z</time>
      </trkpt>
      <trkpt lat="46.48217" lon="5.46939">
        <ele>377</ele>
        <time>2022-08-12T06:47:08Z</time>
      </trkpt>
      <trkpt lat="46.48223" lon="5.46926">
        <ele>376.6</ele>
        <time>2022-08-12T06:47:09Z</time>
      </trkpt>
      <trkpt lat="46.48233" lon="5.469">
        <ele>375.6</ele>
        <time>2022-08-12T06:47:11Z</time>
      </trkpt>
      <trkpt lat="46.48244" lon="5.46873">
        <ele>374.6</ele>
        <time>2022-08-12T06:47:13Z</time>
      </trkpt>
      <trkpt lat="46.48259" lon="5.46835">
        <ele>373.6</ele>
        <time>2022-08-12T06:47:16Z</time>
      </trkpt>
      <trkpt lat="46.48264" lon="5.46822">
        <ele>373</ele>
        <time>2022-08-12T06:47:17Z</time>
      </trkpt>
      <trkpt lat="46.48283" lon="5.46774">
        <ele>371.6</ele>
        <time>2022-08-12T06:47:21Z</time>
      </trkpt>
      <trkpt lat="46.48288" lon="5.46762">
        <ele>371.2</ele>
        <time>2022-08-12T06:47:22Z</time>
      </trkpt>
      <trkpt lat="46.4831" lon="5.46706">
        <ele>370.8</ele>
        <time>2022-08-12T06:47:27Z</time>
      </trkpt>
      <trkpt lat="46.48318" lon="5.46685">
        <ele>370.4</ele>
        <time>2022-08-12T06:47:29Z</time>
      </trkpt>
      <trkpt lat="46.48338" lon="5.46635">
        <ele>370</ele>
        <time>2022-08-12T06:47:34Z</time>
      </trkpt>
      <trkpt lat="46.48344" lon="5.46622">
        <ele>369.6</ele>
        <time>2022-08-12T06:47:36Z</time>
      </trkpt>
      <trkpt lat="46.48346" lon="5.46618">
        <ele>369.6</ele>
        <time>2022-08-12T06:47:37Z</time>
      </trkpt>
      <trkpt lat="46.48349" lon="5.46609">
        <ele>369.8</ele>
        <time>2022-08-12T06:47:40Z</time>
      </trkpt>
      <trkpt lat="46.48341" lon="5.466">
        <ele>370</ele>
        <time>2022-08-12T06:47:43Z</time>
      </trkpt>
      <trkpt lat="46.48337" lon="5.46598">
        <ele>370</ele>
        <time>2022-08-12T06:47:44Z</time>
      </trkpt>
      <trkpt lat="46.4832" lon="5.46593">
        <ele>370.2</ele>
        <time>2022-08-12T06:47:47Z</time>
      </trkpt>
      <trkpt lat="46.48285" lon="5.46585">
        <ele>370.2</ele>
        <time>2022-08-12T06:47:52Z</time>
      </trkpt>
      <trkpt lat="46.48238" lon="5.46577">
        <ele>369.8</ele>
        <time>2022-08-12T06:47:58Z</time>
      </trkpt>
      <trkpt lat="46.48184" lon="5.46568">
        <ele>369.8</ele>
        <time>2022-08-12T06:48:05Z</time>
      </trkpt>
      <trkpt lat="46.48153" lon="5.46563">
        <ele>369.8</ele>
        <time>2022-08-12T06:48:09Z</time>
      </trkpt>
      <trkpt lat="46.48093" lon="5.46553">
        <ele>369.8</ele>
        <time>2022-08-12T06:48:17Z</time>
      </trkpt>
      <trkpt lat="46.4805" lon="5.46545">
        <ele>370.2</ele>
        <time>2022-08-12T06:48:23Z</time>
      </trkpt>
      <trkpt lat="46.47991" lon="5.46535">
        <ele>370.2</ele>
        <time>2022-08-12T06:48:31Z</time>
      </trkpt>
      <trkpt lat="46.47969" lon="5.4653">
        <ele>370.4</ele>
        <time>2022-08-12T06:48:34Z</time>
      </trkpt>
      <trkpt lat="46.47924" lon="5.46523">
        <ele>370.4</ele>
        <time>2022-08-12T06:48:40Z</time>
      </trkpt>
      <trkpt lat="46.47863" lon="5.46512">
        <ele>370.4</ele>
        <time>2022-08-12T06:48:48Z</time>
      </trkpt>
      <trkpt lat="46.47848" lon="5.46509">
        <ele>370.4</ele>
        <time>2022-08-12T06:48:50Z</time>
      </trkpt>
      <trkpt lat="46.47794" lon="5.46498">
        <ele>370</ele>
        <time>2022-08-12T06:48:57Z</time>
      </trkpt>
      <trkpt lat="46.47787" lon="5.46497">
        <ele>370</ele>
        <time>2022-08-12T06:48:58Z</time>
      </trkpt>
      <trkpt lat="46.47733" lon="5.46488">
        <ele>369.8</ele>
        <time>2022-08-12T06:49:05Z</time>
      </trkpt>
      <trkpt lat="46.47702" lon="5.46481">
        <ele>369.8</ele>
        <time>2022-08-12T06:49:09Z</time>
      </trkpt>
      <trkpt lat="46.47648" lon="5.46472">
        <ele>369.6</ele>
        <time>2022-08-12T06:49:16Z</time>
      </trkpt>
      <trkpt lat="46.47624" lon="5.46468">
        <ele>369.6</ele>
        <time>2022-08-12T06:49:19Z</time>
      </trkpt>
      <trkpt lat="46.47568" lon="5.46457">
        <ele>369</ele>
        <time>2022-08-12T06:49:26Z</time>
      </trkpt>
      <trkpt lat="46.47559" lon="5.46455">
        <ele>368.8</ele>
        <time>2022-08-12T06:49:27Z</time>
      </trkpt>
      <trkpt lat="46.47542" lon="5.46452">
        <ele>368.8</ele>
        <time>2022-08-12T06:49:29Z</time>
      </trkpt>
      <trkpt lat="46.47483" lon="5.46442">
        <ele>367.8</ele>
        <time>2022-08-12T06:49:36Z</time>
      </trkpt>
      <trkpt lat="46.47457" lon="5.46438">
        <ele>367.4</ele>
        <time>2022-08-12T06:49:39Z</time>
      </trkpt>
      <trkpt lat="46.47422" lon="5.46432">
        <ele>366.6</ele>
        <time>2022-08-12T06:49:43Z</time>
      </trkpt>
      <trkpt lat="46.47379" lon="5.46423">
        <ele>366</ele>
        <time>2022-08-12T06:49:48Z</time>
      </trkpt>
      <trkpt lat="46.47353" lon="5.46419">
        <ele>365.6</ele>
        <time>2022-08-12T06:49:51Z</time>
      </trkpt>
      <trkpt lat="46.4731" lon="5.46412">
        <ele>364.8</ele>
        <time>2022-08-12T06:49:56Z</time>
      </trkpt>
      <trkpt lat="46.47277" lon="5.46406">
        <ele>364.6</ele>
        <time>2022-08-12T06:50:00Z</time>
      </trkpt>
      <trkpt lat="46.4724" lon="5.46399">
        <ele>363.8</ele>
        <time>2022-08-12T06:50:04Z</time>
      </trkpt>
      <trkpt lat="46.47223" lon="5.46396">
        <ele>363.2</ele>
        <time>2022-08-12T06:50:06Z</time>
      </trkpt>
      <trkpt lat="46.47164" lon="5.46385">
        <ele>362.6</ele>
        <time>2022-08-12T06:50:13Z</time>
      </trkpt>
      <trkpt lat="46.47155" lon="5.46384">
        <ele>362.6</ele>
        <time>2022-08-12T06:50:14Z</time>
      </trkpt>
      <trkpt lat="46.47106" lon="5.46375">
        <ele>362.4</ele>
        <time>2022-08-12T06:50:20Z</time>
      </trkpt>
      <trkpt lat="46.47082" lon="5.46371">
        <ele>362.2</ele>
        <time>2022-08-12T06:50:23Z</time>
      </trkpt>
      <trkpt lat="46.47027" lon="5.46361">
        <ele>361.8</ele>
        <time>2022-08-12T06:50:30Z</time>
      </trkpt>
      <trkpt lat="46.47011" lon="5.46358">
        <ele>361.8</ele>
        <time>2022-08-12T06:50:32Z</time>
      </trkpt>
      <trkpt lat="46.46957" lon="5.46348">
        <ele>361.6</ele>
        <time>2022-08-12T06:50:39Z</time>
      </trkpt>
      <trkpt lat="46.46941" lon="5.46345">
        <ele>361.6</ele>
        <time>2022-08-12T06:50:41Z</time>
      </trkpt>
      <trkpt lat="46.46896" lon="5.46337">
        <ele>361.4</ele>
        <time>2022-08-12T06:50:47Z</time>
      </trkpt>
      <trkpt lat="46.46882" lon="5.46334">
        <ele>361.2</ele>
        <time>2022-08-12T06:50:49Z</time>
      </trkpt>
      <trkpt lat="46.46824" lon="5.46324">
        <ele>361</ele>
        <time>2022-08-12T06:50:57Z</time>
      </trkpt>
      <trkpt lat="46.46801" lon="5.46319">
        <ele>361.2</ele>
        <time>2022-08-12T06:51:00Z</time>
      </trkpt>
      <trkpt lat="46.46741" lon="5.46309">
        <ele>361.2</ele>
        <time>2022-08-12T06:51:08Z</time>
      </trkpt>
      <trkpt lat="46.46703" lon="5.46302">
        <ele>361.2</ele>
        <time>2022-08-12T06:51:13Z</time>
      </trkpt>
      <trkpt lat="46.46644" lon="5.46291">
        <ele>360.6</ele>
        <time>2022-08-12T06:51:21Z</time>
      </trkpt>
      <trkpt lat="46.46636" lon="5.46289">
        <ele>360.6</ele>
        <time>2022-08-12T06:51:22Z</time>
      </trkpt>
      <trkpt lat="46.46577" lon="5.46279">
        <ele>360.6</ele>
        <time>2022-08-12T06:51:30Z</time>
      </trkpt>
      <trkpt lat="46.46562" lon="5.46276">
        <ele>360.4</ele>
        <time>2022-08-12T06:51:32Z</time>
      </trkpt>
      <trkpt lat="46.46501" lon="5.46265">
        <ele>360.4</ele>
        <time>2022-08-12T06:51:40Z</time>
      </trkpt>
      <trkpt lat="46.46471" lon="5.4626">
        <ele>360.4</ele>
        <time>2022-08-12T06:51:44Z</time>
      </trkpt>
      <trkpt lat="46.4641" lon="5.46249">
        <ele>360</ele>
        <time>2022-08-12T06:51:52Z</time>
      </trkpt>
      <trkpt lat="46.46373" lon="5.46242">
        <ele>359.6</ele>
        <time>2022-08-12T06:51:57Z</time>
      </trkpt>
      <trkpt lat="46.46313" lon="5.46232">
        <ele>360</ele>
        <time>2022-08-12T06:52:05Z</time>
      </trkpt>
      <trkpt lat="46.46283" lon="5.46227">
        <ele>360</ele>
        <time>2022-08-12T06:52:09Z</time>
      </trkpt>
      <trkpt lat="46.46223" lon="5.46216">
        <ele>360.2</ele>
        <time>2022-08-12T06:52:17Z</time>
      </trkpt>
      <trkpt lat="46.46216" lon="5.46214">
        <ele>360.2</ele>
        <time>2022-08-12T06:52:18Z</time>
      </trkpt>
      <trkpt lat="46.46156" lon="5.46205">
        <ele>360.2</ele>
        <time>2022-08-12T06:52:26Z</time>
      </trkpt>
      <trkpt lat="46.46141" lon="5.46202">
        <ele>360.2</ele>
        <time>2022-08-12T06:52:28Z</time>
      </trkpt>
      <trkpt lat="46.46081" lon="5.46191">
        <ele>360.2</ele>
        <time>2022-08-12T06:52:36Z</time>
      </trkpt>
      <trkpt lat="46.46059" lon="5.46187">
        <ele>360.2</ele>
        <time>2022-08-12T06:52:39Z</time>
      </trkpt>
      <trkpt lat="46.45999" lon="5.46176">
        <ele>360.2</ele>
        <time>2022-08-12T06:52:47Z</time>
      </trkpt>
      <trkpt lat="46.45976" lon="5.46171">
        <ele>360</ele>
        <time>2022-08-12T06:52:50Z</time>
      </trkpt>
      <trkpt lat="46.45916" lon="5.46161">
        <ele>359.8</ele>
        <time>2022-08-12T06:52:58Z</time>
      </trkpt>
      <trkpt lat="46.45909" lon="5.4616">
        <ele>359.8</ele>
        <time>2022-08-12T06:52:59Z</time>
      </trkpt>
      <trkpt lat="46.45849" lon="5.46149">
        <ele>360</ele>
        <time>2022-08-12T06:53:07Z</time>
      </trkpt>
      <trkpt lat="46.45819" lon="5.46144">
        <ele>360</ele>
        <time>2022-08-12T06:53:11Z</time>
      </trkpt>
      <trkpt lat="46.45759" lon="5.46133">
        <ele>360.6</ele>
        <time>2022-08-12T06:53:19Z</time>
      </trkpt>
      <trkpt lat="46.45744" lon="5.4613">
        <ele>360.6</ele>
        <time>2022-08-12T06:53:21Z</time>
      </trkpt>
      <trkpt lat="46.45684" lon="5.4612">
        <ele>360.6</ele>
        <time>2022-08-12T06:53:29Z</time>
      </trkpt>
      <trkpt lat="46.4567" lon="5.46117">
        <ele>360.6</ele>
        <time>2022-08-12T06:53:31Z</time>
      </trkpt>
      <trkpt lat="46.45613" lon="5.46107">
        <ele>361.4</ele>
        <time>2022-08-12T06:53:39Z</time>
      </trkpt>
      <trkpt lat="46.456" lon="5.46106">
        <ele>361.6</ele>
        <time>2022-08-12T06:53:41Z</time>
      </trkpt>
      <trkpt lat="46.45572" lon="5.46101">
        <ele>361.8</ele>
        <time>2022-08-12T06:53:45Z</time>
      </trkpt>
      <trkpt lat="46.45551" lon="5.46098">
        <ele>362.2</ele>
        <time>2022-08-12T06:53:48Z</time>
      </trkpt>
      <trkpt lat="46.45523" lon="5.46095">
        <ele>362.6</ele>
        <time>2022-08-12T06:53:52Z</time>
      </trkpt>
      <trkpt lat="46.45516" lon="5.46093">
        <ele>363</ele>
        <time>2022-08-12T06:53:53Z</time>
      </trkpt>
      <trkpt lat="46.45509" lon="5.46091">
        <ele>363.2</ele>
        <time>2022-08-12T06:53:54Z</time>
      </trkpt>
      <trkpt lat="46.45466" lon="5.46082">
        <ele>364</ele>
        <time>2022-08-12T06:54:00Z</time>
      </trkpt>
      <trkpt lat="46.45419" lon="5.46073">
        <ele>365</ele>
        <time>2022-08-12T06:54:07Z</time>
      </trkpt>
      <trkpt lat="46.45399" lon="5.4607">
        <ele>365.6</ele>
        <time>2022-08-12T06:54:10Z</time>
      </trkpt>
      <trkpt lat="46.45386" lon="5.46068">
        <ele>366</ele>
        <time>2022-08-12T06:54:12Z</time>
      </trkpt>
      <trkpt lat="46.45341" lon="5.4606">
        <ele>366.8</ele>
        <time>2022-08-12T06:54:19Z</time>
      </trkpt>
      <trkpt lat="46.45315" lon="5.46055">
        <ele>367.2</ele>
        <time>2022-08-12T06:54:23Z</time>
      </trkpt>
      <trkpt lat="46.45283" lon="5.4605">
        <ele>367.6</ele>
        <time>2022-08-12T06:54:28Z</time>
      </trkpt>
      <trkpt lat="46.45237" lon="5.46041">
        <ele>367.8</ele>
        <time>2022-08-12T06:54:35Z</time>
      </trkpt>
      <trkpt lat="46.45223" lon="5.46034">
        <ele>367.6</ele>
        <time>2022-08-12T06:54:37Z</time>
      </trkpt>
      <trkpt lat="46.45217" lon="5.46028">
        <ele>367.6</ele>
        <time>2022-08-12T06:54:38Z</time>
      </trkpt>
      <trkpt lat="46.45195" lon="5.46008">
        <ele>367.2</ele>
        <time>2022-08-12T06:54:41Z</time>
      </trkpt>
      <trkpt lat="46.45162" lon="5.45986">
        <ele>366</ele>
        <time>2022-08-12T06:54:45Z</time>
      </trkpt>
      <trkpt lat="46.45155" lon="5.45981">
        <ele>365.8</ele>
        <time>2022-08-12T06:54:46Z</time>
      </trkpt>
      <trkpt lat="46.45132" lon="5.45961">
        <ele>364.6</ele>
        <time>2022-08-12T06:54:49Z</time>
      </trkpt>
      <trkpt lat="46.45116" lon="5.45949">
        <ele>364</ele>
        <time>2022-08-12T06:54:51Z</time>
      </trkpt>
      <trkpt lat="46.4511" lon="5.45946">
        <ele>363.8</ele>
        <time>2022-08-12T06:54:52Z</time>
      </trkpt>
      <trkpt lat="46.45099" lon="5.4594">
        <ele>363.4</ele>
        <time>2022-08-12T06:54:53Z</time>
      </trkpt>
      <trkpt lat="46.45074" lon="5.45928">
        <ele>362.2</ele>
        <time>2022-08-12T06:54:56Z</time>
      </trkpt>
      <trkpt lat="46.45065" lon="5.45923">
        <ele>362</ele>
        <time>2022-08-12T06:54:57Z</time>
      </trkpt>
      <trkpt lat="46.45058" lon="5.45918">
        <ele>361.8</ele>
        <time>2022-08-12T06:54:58Z</time>
      </trkpt>
      <trkpt lat="46.45005" lon="5.45885">
        <ele>361.4</ele>
        <time>2022-08-12T06:55:05Z</time>
      </trkpt>
      <trkpt lat="46.44999" lon="5.45881">
        <ele>361.8</ele>
        <time>2022-08-12T06:55:06Z</time>
      </trkpt>
      <trkpt lat="46.44957" lon="5.45856">
        <ele>362.8</ele>
        <time>2022-08-12T06:55:12Z</time>
      </trkpt>
      <trkpt lat="46.44937" lon="5.45844">
        <ele>363.2</ele>
        <time>2022-08-12T06:55:15Z</time>
      </trkpt>
      <trkpt lat="46.44905" lon="5.45824">
        <ele>364.4</ele>
        <time>2022-08-12T06:55:20Z</time>
      </trkpt>
      <trkpt lat="46.44867" lon="5.45801">
        <ele>365.6</ele>
        <time>2022-08-12T06:55:26Z</time>
      </trkpt>
      <trkpt lat="46.44833" lon="5.45783">
        <ele>366</ele>
        <time>2022-08-12T06:55:31Z</time>
      </trkpt>
      <trkpt lat="46.44776" lon="5.45751">
        <ele>366</ele>
        <time>2022-08-12T06:55:39Z</time>
      </trkpt>
      <trkpt lat="46.4477" lon="5.45748">
        <ele>365.8</ele>
        <time>2022-08-12T06:55:40Z</time>
      </trkpt>
      <trkpt lat="46.44716" lon="5.4572">
        <ele>365</ele>
        <time>2022-08-12T06:55:48Z</time>
      </trkpt>
      <trkpt lat="46.447" lon="5.45713">
        <ele>364.8</ele>
        <time>2022-08-12T06:55:50Z</time>
      </trkpt>
      <trkpt lat="46.4466" lon="5.45698">
        <ele>364.4</ele>
        <time>2022-08-12T06:55:55Z</time>
      </trkpt>
      <trkpt lat="46.44629" lon="5.45687">
        <ele>364.2</ele>
        <time>2022-08-12T06:55:59Z</time>
      </trkpt>
      <trkpt lat="46.44575" lon="5.4567">
        <ele>364</ele>
        <time>2022-08-12T06:56:06Z</time>
      </trkpt>
      <trkpt lat="46.44538" lon="5.45659">
        <ele>364.4</ele>
        <time>2022-08-12T06:56:11Z</time>
      </trkpt>
      <trkpt lat="46.4448" lon="5.45644">
        <ele>364.8</ele>
        <time>2022-08-12T06:56:19Z</time>
      </trkpt>
      <trkpt lat="46.44426" lon="5.45638">
        <ele>364.8</ele>
        <time>2022-08-12T06:56:26Z</time>
      </trkpt>
      <trkpt lat="46.44418" lon="5.45637">
        <ele>364.8</ele>
        <time>2022-08-12T06:56:27Z</time>
      </trkpt>
      <trkpt lat="46.44357" lon="5.45631">
        <ele>363.6</ele>
        <time>2022-08-12T06:56:34Z</time>
      </trkpt>
      <trkpt lat="46.44346" lon="5.4563">
        <ele>363</ele>
        <time>2022-08-12T06:56:35Z</time>
      </trkpt>
      <trkpt lat="46.44328" lon="5.45627">
        <ele>362.2</ele>
        <time>2022-08-12T06:56:37Z</time>
      </trkpt>
      <trkpt lat="46.44292" lon="5.45624">
        <ele>361.2</ele>
        <time>2022-08-12T06:56:41Z</time>
      </trkpt>
      <trkpt lat="46.44266" lon="5.45623">
        <ele>360.8</ele>
        <time>2022-08-12T06:56:44Z</time>
      </trkpt>
      <trkpt lat="46.44219" lon="5.45628">
        <ele>360.2</ele>
        <time>2022-08-12T06:56:49Z</time>
      </trkpt>
      <trkpt lat="46.4421" lon="5.4563">
        <ele>360</ele>
        <time>2022-08-12T06:56:50Z</time>
      </trkpt>
      <trkpt lat="46.44174" lon="5.45637">
        <ele>359</ele>
        <time>2022-08-12T06:56:54Z</time>
      </trkpt>
      <trkpt lat="46.44113" lon="5.45649">
        <ele>358.4</ele>
        <time>2022-08-12T06:57:01Z</time>
      </trkpt>
      <trkpt lat="46.44055" lon="5.4566">
        <ele>358.2</ele>
        <time>2022-08-12T06:57:08Z</time>
      </trkpt>
      <trkpt lat="46.44029" lon="5.45665">
        <ele>358</ele>
        <time>2022-08-12T06:57:11Z</time>
      </trkpt>
      <trkpt lat="46.43969" lon="5.45676">
        <ele>357.6</ele>
        <time>2022-08-12T06:57:18Z</time>
      </trkpt>
      <trkpt lat="46.43932" lon="5.45683">
        <ele>357.4</ele>
        <time>2022-08-12T06:57:22Z</time>
      </trkpt>
      <trkpt lat="46.43873" lon="5.45693">
        <ele>357</ele>
        <time>2022-08-12T06:57:29Z</time>
      </trkpt>
      <trkpt lat="46.4384" lon="5.45696">
        <ele>357</ele>
        <time>2022-08-12T06:57:33Z</time>
      </trkpt>
      <trkpt lat="46.43806" lon="5.45695">
        <ele>357</ele>
        <time>2022-08-12T06:57:37Z</time>
      </trkpt>
      <trkpt lat="46.43756" lon="5.45694">
        <ele>357</ele>
        <time>2022-08-12T06:57:43Z</time>
      </trkpt>
      <trkpt lat="46.43698" lon="5.45693">
        <ele>356.8</ele>
        <time>2022-08-12T06:57:50Z</time>
      </trkpt>
      <trkpt lat="46.43665" lon="5.45693">
        <ele>356</ele>
        <time>2022-08-12T06:57:54Z</time>
      </trkpt>
      <trkpt lat="46.43633" lon="5.45692">
        <ele>356</ele>
        <time>2022-08-12T06:57:58Z</time>
      </trkpt>
      <trkpt lat="46.43577" lon="5.45691">
        <ele>356.2</ele>
        <time>2022-08-12T06:58:05Z</time>
      </trkpt>
      <trkpt lat="46.43522" lon="5.4569">
        <ele>356.4</ele>
        <time>2022-08-12T06:58:12Z</time>
      </trkpt>
      <trkpt lat="46.43475" lon="5.45689">
        <ele>356.4</ele>
        <time>2022-08-12T06:58:18Z</time>
      </trkpt>
      <trkpt lat="46.43414" lon="5.45688">
        <ele>356</ele>
        <time>2022-08-12T06:58:26Z</time>
      </trkpt>
      <trkpt lat="46.43383" lon="5.45688">
        <ele>355.8</ele>
        <time>2022-08-12T06:58:30Z</time>
      </trkpt>
      <trkpt lat="46.43328" lon="5.45686">
        <ele>355.6</ele>
        <time>2022-08-12T06:58:37Z</time>
      </trkpt>
      <trkpt lat="46.43305" lon="5.45685">
        <ele>355.4</ele>
        <time>2022-08-12T06:58:40Z</time>
      </trkpt>
      <trkpt lat="46.4325" lon="5.45684">
        <ele>355.4</ele>
        <time>2022-08-12T06:58:47Z</time>
      </trkpt>
      <trkpt lat="46.4322" lon="5.45683">
        <ele>355.6</ele>
        <time>2022-08-12T06:58:51Z</time>
      </trkpt>
      <trkpt lat="46.43211" lon="5.45683">
        <ele>355.6</ele>
        <time>2022-08-12T06:58:52Z</time>
      </trkpt>
      <trkpt lat="46.4315" lon="5.45682">
        <ele>355.4</ele>
        <time>2022-08-12T06:59:00Z</time>
      </trkpt>
      <trkpt lat="46.43136" lon="5.45681">
        <ele>355.8</ele>
        <time>2022-08-12T06:59:02Z</time>
      </trkpt>
      <trkpt lat="46.43089" lon="5.45679">
        <ele>357.2</ele>
        <time>2022-08-12T06:59:09Z</time>
      </trkpt>
      <trkpt lat="46.43082" lon="5.45678">
        <ele>357.6</ele>
        <time>2022-08-12T06:59:10Z</time>
      </trkpt>
      <trkpt lat="46.43046" lon="5.45676">
        <ele>358.2</ele>
        <time>2022-08-12T06:59:16Z</time>
      </trkpt>
      <trkpt lat="46.4304" lon="5.45676">
        <ele>358.4</ele>
        <time>2022-08-12T06:59:17Z</time>
      </trkpt>
      <trkpt lat="46.42995" lon="5.45675">
        <ele>359.6</ele>
        <time>2022-08-12T06:59:24Z</time>
      </trkpt>
      <trkpt lat="46.42988" lon="5.45675">
        <ele>360</ele>
        <time>2022-08-12T06:59:25Z</time>
      </trkpt>
      <trkpt lat="46.42962" lon="5.45675">
        <ele>360.6</ele>
        <time>2022-08-12T06:59:29Z</time>
      </trkpt>
      <trkpt lat="46.42924" lon="5.45675">
        <ele>361.2</ele>
        <time>2022-08-12T06:59:35Z</time>
      </trkpt>
      <trkpt lat="46.42901" lon="5.45675">
        <ele>361.8</ele>
        <time>2022-08-12T06:59:39Z</time>
      </trkpt>
      <trkpt lat="46.42878" lon="5.45675">
        <ele>362.8</ele>
        <time>2022-08-12T06:59:43Z</time>
      </trkpt>
      <trkpt lat="46.42873" lon="5.45675">
        <ele>362.8</ele>
        <time>2022-08-12T06:59:44Z</time>
      </trkpt>
      <trkpt lat="46.4283" lon="5.45675">
        <ele>364</ele>
        <time>2022-08-12T06:59:52Z</time>
      </trkpt>
      <trkpt lat="46.42772" lon="5.45668">
        <ele>364.8</ele>
        <time>2022-08-12T07:00:02Z</time>
      </trkpt>
      <trkpt lat="46.42734" lon="5.4566">
        <ele>365.2</ele>
        <time>2022-08-12T07:00:08Z</time>
      </trkpt>
      <trkpt lat="46.42728" lon="5.45659">
        <ele>365.2</ele>
        <time>2022-08-12T07:00:09Z</time>
      </trkpt>
      <trkpt lat="46.42669" lon="5.45639">
        <ele>365.4</ele>
        <time>2022-08-12T07:00:18Z</time>
      </trkpt>
      <trkpt lat="46.42662" lon="5.45637">
        <ele>365.4</ele>
        <time>2022-08-12T07:00:19Z</time>
      </trkpt>
      <trkpt lat="46.42611" lon="5.45621">
        <ele>365</ele>
        <time>2022-08-12T07:00:26Z</time>
      </trkpt>
      <trkpt lat="46.42573" lon="5.45609">
        <ele>364</ele>
        <time>2022-08-12T07:00:31Z</time>
      </trkpt>
      <trkpt lat="46.42551" lon="5.45601">
        <ele>363.4</ele>
        <time>2022-08-12T07:00:34Z</time>
      </trkpt>
      <trkpt lat="46.42515" lon="5.4559">
        <ele>363</ele>
        <time>2022-08-12T07:00:39Z</time>
      </trkpt>
      <trkpt lat="46.42485" lon="5.45581">
        <ele>363</ele>
        <time>2022-08-12T07:00:43Z</time>
      </trkpt>
      <trkpt lat="46.42431" lon="5.45563">
        <ele>363.2</ele>
        <time>2022-08-12T07:00:51Z</time>
      </trkpt>
      <trkpt lat="46.42417" lon="5.45558">
        <ele>363.6</ele>
        <time>2022-08-12T07:00:53Z</time>
      </trkpt>
      <trkpt lat="46.42411" lon="5.45556">
        <ele>363.8</ele>
        <time>2022-08-12T07:00:54Z</time>
      </trkpt>
      <trkpt lat="46.42405" lon="5.45554">
        <ele>364.2</ele>
        <time>2022-08-12T07:00:55Z</time>
      </trkpt>
      <trkpt lat="46.42374" lon="5.45544">
        <ele>365.2</ele>
        <time>2022-08-12T07:01:00Z</time>
      </trkpt>
      <trkpt lat="46.42356" lon="5.45537">
        <ele>366.2</ele>
        <time>2022-08-12T07:01:03Z</time>
      </trkpt>
      <trkpt lat="46.4235" lon="5.45536">
        <ele>366.4</ele>
        <time>2022-08-12T07:01:04Z</time>
      </trkpt>
      <trkpt lat="46.42309" lon="5.45524">
        <ele>367.4</ele>
        <time>2022-08-12T07:01:10Z</time>
      </trkpt>
      <trkpt lat="46.42296" lon="5.4552">
        <ele>367.8</ele>
        <time>2022-08-12T07:01:12Z</time>
      </trkpt>
      <trkpt lat="46.42248" lon="5.45505">
        <ele>368.4</ele>
        <time>2022-08-12T07:01:19Z</time>
      </trkpt>
      <trkpt lat="46.42241" lon="5.45503">
        <ele>368.4</ele>
        <time>2022-08-12T07:01:20Z</time>
      </trkpt>
      <trkpt lat="46.42192" lon="5.45486">
        <ele>368.4</ele>
        <time>2022-08-12T07:01:27Z</time>
      </trkpt>
      <trkpt lat="46.42137" lon="5.45465">
        <ele>368.6</ele>
        <time>2022-08-12T07:01:35Z</time>
      </trkpt>
      <trkpt lat="46.42117" lon="5.45457">
        <ele>368.6</ele>
        <time>2022-08-12T07:01:38Z</time>
      </trkpt>
      <trkpt lat="46.42063" lon="5.45437">
        <ele>368.4</ele>
        <time>2022-08-12T07:01:46Z</time>
      </trkpt>
      <trkpt lat="46.42051" lon="5.45431">
        <ele>368.4</ele>
        <time>2022-08-12T07:01:48Z</time>
      </trkpt>
      <trkpt lat="46.41996" lon="5.45408">
        <ele>369.2</ele>
        <time>2022-08-12T07:01:56Z</time>
      </trkpt>
      <trkpt lat="46.41981" lon="5.45402">
        <ele>369.2</ele>
        <time>2022-08-12T07:01:58Z</time>
      </trkpt>
      <trkpt lat="46.41936" lon="5.45385">
        <ele>368.4</ele>
        <time>2022-08-12T07:02:04Z</time>
      </trkpt>
      <trkpt lat="46.41893" lon="5.45373">
        <ele>367.6</ele>
        <time>2022-08-12T07:02:09Z</time>
      </trkpt>
      <trkpt lat="46.4187" lon="5.45367">
        <ele>367</ele>
        <time>2022-08-12T07:02:12Z</time>
      </trkpt>
      <trkpt lat="46.41816" lon="5.45354">
        <ele>366.6</ele>
        <time>2022-08-12T07:02:19Z</time>
      </trkpt>
      <trkpt lat="46.418" lon="5.45351">
        <ele>366.6</ele>
        <time>2022-08-12T07:02:21Z</time>
      </trkpt>
      <trkpt lat="46.41746" lon="5.45338">
        <ele>366.6</ele>
        <time>2022-08-12T07:02:28Z</time>
      </trkpt>
      <trkpt lat="46.41739" lon="5.45337">
        <ele>366.4</ele>
        <time>2022-08-12T07:02:29Z</time>
      </trkpt>
      <trkpt lat="46.41723" lon="5.45333">
        <ele>366.4</ele>
        <time>2022-08-12T07:02:31Z</time>
      </trkpt>
      <trkpt lat="46.41666" lon="5.4532">
        <ele>365.6</ele>
        <time>2022-08-12T07:02:38Z</time>
      </trkpt>
      <trkpt lat="46.41648" lon="5.45315">
        <ele>365.4</ele>
        <time>2022-08-12T07:02:40Z</time>
      </trkpt>
      <trkpt lat="46.41639" lon="5.45313">
        <ele>365.4</ele>
        <time>2022-08-12T07:02:41Z</time>
      </trkpt>
      <trkpt lat="46.41585" lon="5.453">
        <ele>364.2</ele>
        <time>2022-08-12T07:02:47Z</time>
      </trkpt>
      <trkpt lat="46.41576" lon="5.45298">
        <ele>364.2</ele>
        <time>2022-08-12T07:02:48Z</time>
      </trkpt>
      <trkpt lat="46.41539" lon="5.45289">
        <ele>363.2</ele>
        <time>2022-08-12T07:02:52Z</time>
      </trkpt>
      <trkpt lat="46.41485" lon="5.45276">
        <ele>362.4</ele>
        <time>2022-08-12T07:02:58Z</time>
      </trkpt>
      <trkpt lat="46.41467" lon="5.45271">
        <ele>362</ele>
        <time>2022-08-12T07:03:00Z</time>
      </trkpt>
      <trkpt lat="46.41406" lon="5.45256">
        <ele>361.6</ele>
        <time>2022-08-12T07:03:07Z</time>
      </trkpt>
      <trkpt lat="46.41348" lon="5.45243">
        <ele>361.6</ele>
        <time>2022-08-12T07:03:14Z</time>
      </trkpt>
      <trkpt lat="46.41315" lon="5.45236">
        <ele>362</ele>
        <time>2022-08-12T07:03:18Z</time>
      </trkpt>
      <trkpt lat="46.41259" lon="5.45224">
        <ele>361.8</ele>
        <time>2022-08-12T07:03:25Z</time>
      </trkpt>
      <trkpt lat="46.41201" lon="5.45211">
        <ele>361.6</ele>
        <time>2022-08-12T07:03:32Z</time>
      </trkpt>
      <trkpt lat="46.41193" lon="5.45209">
        <ele>361.6</ele>
        <time>2022-08-12T07:03:33Z</time>
      </trkpt>
      <trkpt lat="46.41147" lon="5.45197">
        <ele>361.4</ele>
        <time>2022-08-12T07:03:39Z</time>
      </trkpt>
      <trkpt lat="46.41115" lon="5.4519">
        <ele>361</ele>
        <time>2022-08-12T07:03:43Z</time>
      </trkpt>
      <trkpt lat="46.41074" lon="5.45181">
        <ele>360.6</ele>
        <time>2022-08-12T07:03:48Z</time>
      </trkpt>
      <trkpt lat="46.4102" lon="5.45166">
        <ele>359.8</ele>
        <time>2022-08-12T07:03:54Z</time>
      </trkpt>
      <trkpt lat="46.40995" lon="5.45155">
        <ele>358.8</ele>
        <time>2022-08-12T07:03:57Z</time>
      </trkpt>
      <trkpt lat="46.40986" lon="5.45151">
        <ele>358.6</ele>
        <time>2022-08-12T07:03:58Z</time>
      </trkpt>
      <trkpt lat="46.4094" lon="5.4512">
        <ele>357.8</ele>
        <time>2022-08-12T07:04:04Z</time>
      </trkpt>
      <trkpt lat="46.40917" lon="5.45103">
        <ele>357.6</ele>
        <time>2022-08-12T07:04:07Z</time>
      </trkpt>
      <trkpt lat="46.40864" lon="5.45061">
        <ele>356.8</ele>
        <time>2022-08-12T07:04:14Z</time>
      </trkpt>
      <trkpt lat="46.40854" lon="5.45053">
        <ele>356.4</ele>
        <time>2022-08-12T07:04:15Z</time>
      </trkpt>
      <trkpt lat="46.40822" lon="5.45032">
        <ele>355.2</ele>
        <time>2022-08-12T07:04:19Z</time>
      </trkpt>
      <trkpt lat="46.40813" lon="5.45027">
        <ele>354.6</ele>
        <time>2022-08-12T07:04:20Z</time>
      </trkpt>
      <trkpt lat="46.40795" lon="5.4502">
        <ele>354.2</ele>
        <time>2022-08-12T07:04:22Z</time>
      </trkpt>
      <trkpt lat="46.40751" lon="5.45003">
        <ele>353</ele>
        <time>2022-08-12T07:04:27Z</time>
      </trkpt>
      <trkpt lat="46.40743" lon="5.45">
        <ele>353</ele>
        <time>2022-08-12T07:04:28Z</time>
      </trkpt>
      <trkpt lat="46.40692" lon="5.44989">
        <ele>352</ele>
        <time>2022-08-12T07:04:34Z</time>
      </trkpt>
      <trkpt lat="46.4065" lon="5.44997">
        <ele>351.8</ele>
        <time>2022-08-12T07:04:39Z</time>
      </trkpt>
      <trkpt lat="46.40592" lon="5.45026">
        <ele>351.4</ele>
        <time>2022-08-12T07:04:46Z</time>
      </trkpt>
      <trkpt lat="46.40547" lon="5.4505">
        <ele>351</ele>
        <time>2022-08-12T07:04:52Z</time>
      </trkpt>
      <trkpt lat="46.40524" lon="5.45063">
        <ele>351.2</ele>
        <time>2022-08-12T07:04:55Z</time>
      </trkpt>
      <trkpt lat="46.40472" lon="5.45091">
        <ele>351.2</ele>
        <time>2022-08-12T07:05:02Z</time>
      </trkpt>
      <trkpt lat="46.40432" lon="5.45111">
        <ele>351</ele>
        <time>2022-08-12T07:05:07Z</time>
      </trkpt>
      <trkpt lat="46.40373" lon="5.45142">
        <ele>350.2</ele>
        <time>2022-08-12T07:05:14Z</time>
      </trkpt>
      <trkpt lat="46.40356" lon="5.45152">
        <ele>349.6</ele>
        <time>2022-08-12T07:05:16Z</time>
      </trkpt>
      <trkpt lat="46.40347" lon="5.45156">
        <ele>349.6</ele>
        <time>2022-08-12T07:05:17Z</time>
      </trkpt>
      <trkpt lat="46.4033" lon="5.45165">
        <ele>348.6</ele>
        <time>2022-08-12T07:05:19Z</time>
      </trkpt>
      <trkpt lat="46.40276" lon="5.45194">
        <ele>348</ele>
        <time>2022-08-12T07:05:26Z</time>
      </trkpt>
      <trkpt lat="46.40222" lon="5.4522">
        <ele>348</ele>
        <time>2022-08-12T07:05:33Z</time>
      </trkpt>
      <trkpt lat="46.40195" lon="5.4523">
        <ele>348</ele>
        <time>2022-08-12T07:05:36Z</time>
      </trkpt>
      <trkpt lat="46.40179" lon="5.45231">
        <ele>347.8</ele>
        <time>2022-08-12T07:05:38Z</time>
      </trkpt>
      <trkpt lat="46.40161" lon="5.45234">
        <ele>347.6</ele>
        <time>2022-08-12T07:05:40Z</time>
      </trkpt>
      <trkpt lat="46.40147" lon="5.45241">
        <ele>347.6</ele>
        <time>2022-08-12T07:05:42Z</time>
      </trkpt>
      <trkpt lat="46.40133" lon="5.45249">
        <ele>347.4</ele>
        <time>2022-08-12T07:05:44Z</time>
      </trkpt>
      <trkpt lat="46.40118" lon="5.45255">
        <ele>347.6</ele>
        <time>2022-08-12T07:05:46Z</time>
      </trkpt>
      <trkpt lat="46.4011" lon="5.45257">
        <ele>347.6</ele>
        <time>2022-08-12T07:05:47Z</time>
      </trkpt>
      <trkpt lat="46.40085" lon="5.45261">
        <ele>347.8</ele>
        <time>2022-08-12T07:05:50Z</time>
      </trkpt>
      <trkpt lat="46.40034" lon="5.45269">
        <ele>347.4</ele>
        <time>2022-08-12T07:05:56Z</time>
      </trkpt>
      <trkpt lat="46.39973" lon="5.45274">
        <ele>347.6</ele>
        <time>2022-08-12T07:06:04Z</time>
      </trkpt>
      <trkpt lat="46.39919" lon="5.45283">
        <ele>347.8</ele>
        <time>2022-08-12T07:06:11Z</time>
      </trkpt>
      <trkpt lat="46.39911" lon="5.45284">
        <ele>347.6</ele>
        <time>2022-08-12T07:06:12Z</time>
      </trkpt>
      <trkpt lat="46.39852" lon="5.45291">
        <ele>347.8</ele>
        <time>2022-08-12T07:06:20Z</time>
      </trkpt>
      <trkpt lat="46.39845" lon="5.45291">
        <ele>348</ele>
        <time>2022-08-12T07:06:21Z</time>
      </trkpt>
      <trkpt lat="46.39798" lon="5.45291">
        <ele>348.8</ele>
        <time>2022-08-12T07:06:28Z</time>
      </trkpt>
      <trkpt lat="46.39792" lon="5.45289">
        <ele>349</ele>
        <time>2022-08-12T07:06:29Z</time>
      </trkpt>
      <trkpt lat="46.39757" lon="5.4528">
        <ele>350</ele>
        <time>2022-08-12T07:06:35Z</time>
      </trkpt>
      <trkpt lat="46.39752" lon="5.45278">
        <ele>350.2</ele>
        <time>2022-08-12T07:06:36Z</time>
      </trkpt>
      <trkpt lat="46.39736" lon="5.45271">
        <ele>351.2</ele>
        <time>2022-08-12T07:06:39Z</time>
      </trkpt>
      <trkpt lat="46.39721" lon="5.45263">
        <ele>352.4</ele>
        <time>2022-08-12T07:06:42Z</time>
      </trkpt>
      <trkpt lat="46.39716" lon="5.45261">
        <ele>352.6</ele>
        <time>2022-08-12T07:06:43Z</time>
      </trkpt>
      <trkpt lat="46.39697" lon="5.4525">
        <ele>353.8</ele>
        <time>2022-08-12T07:06:47Z</time>
      </trkpt>
      <trkpt lat="46.39687" lon="5.45244">
        <ele>354.4</ele>
        <time>2022-08-12T07:06:49Z</time>
      </trkpt>
      <trkpt lat="46.39677" lon="5.45239">
        <ele>355</ele>
        <time>2022-08-12T07:06:51Z</time>
      </trkpt>
      <trkpt lat="46.39662" lon="5.45231">
        <ele>355.8</ele>
        <time>2022-08-12T07:06:54Z</time>
      </trkpt>
      <trkpt lat="46.39657" lon="5.4523">
        <ele>356</ele>
        <time>2022-08-12T07:06:55Z</time>
      </trkpt>
      <trkpt lat="46.39646" lon="5.45228">
        <ele>356.4</ele>
        <time>2022-08-12T07:06:57Z</time>
      </trkpt>
      <trkpt lat="46.39632" lon="5.45212">
        <ele>357.2</ele>
        <time>2022-08-12T07:07:00Z</time>
      </trkpt>
      <trkpt lat="46.39628" lon="5.45209">
        <ele>357.6</ele>
        <time>2022-08-12T07:07:01Z</time>
      </trkpt>
      <trkpt lat="46.39612" lon="5.45201">
        <ele>358.2</ele>
        <time>2022-08-12T07:07:04Z</time>
      </trkpt>
      <trkpt lat="46.39608" lon="5.452">
        <ele>358.4</ele>
        <time>2022-08-12T07:07:05Z</time>
      </trkpt>
      <trkpt lat="46.39604" lon="5.45199">
        <ele>358.6</ele>
        <time>2022-08-12T07:07:06Z</time>
      </trkpt>
      <trkpt lat="46.39585" lon="5.45192">
        <ele>359.6</ele>
        <time>2022-08-12T07:07:10Z</time>
      </trkpt>
      <trkpt lat="46.39565" lon="5.45188">
        <ele>360.2</ele>
        <time>2022-08-12T07:07:14Z</time>
      </trkpt>
      <trkpt lat="46.3956" lon="5.45188">
        <ele>360.6</ele>
        <time>2022-08-12T07:07:15Z</time>
      </trkpt>
      <trkpt lat="46.39555" lon="5.45188">
        <ele>360.8</ele>
        <time>2022-08-12T07:07:16Z</time>
      </trkpt>
      <trkpt lat="46.39535" lon="5.45191">
        <ele>361.4</ele>
        <time>2022-08-12T07:07:20Z</time>
      </trkpt>
      <trkpt lat="46.39526" lon="5.45195">
        <ele>361.6</ele>
        <time>2022-08-12T07:07:22Z</time>
      </trkpt>
      <trkpt lat="46.39521" lon="5.45197">
        <ele>361.6</ele>
        <time>2022-08-12T07:07:23Z</time>
      </trkpt>
      <trkpt lat="46.39516" lon="5.45199">
        <ele>361.8</ele>
        <time>2022-08-12T07:07:24Z</time>
      </trkpt>
      <trkpt lat="46.39504" lon="5.45204">
        <ele>362.8</ele>
        <time>2022-08-12T07:07:27Z</time>
      </trkpt>
      <trkpt lat="46.39495" lon="5.45208">
        <ele>363.8</ele>
        <time>2022-08-12T07:07:29Z</time>
      </trkpt>
      <trkpt lat="46.39483" lon="5.45214">
        <ele>364.6</ele>
        <time>2022-08-12T07:07:32Z</time>
      </trkpt>
      <trkpt lat="46.39475" lon="5.45217">
        <ele>364.8</ele>
        <time>2022-08-12T07:07:34Z</time>
      </trkpt>
      <trkpt lat="46.39459" lon="5.45225">
        <ele>365.8</ele>
        <time>2022-08-12T07:07:38Z</time>
      </trkpt>
      <trkpt lat="46.39451" lon="5.45228">
        <ele>366.4</ele>
        <time>2022-08-12T07:07:40Z</time>
      </trkpt>
      <trkpt lat="46.39436" lon="5.45236">
        <ele>367.2</ele>
        <time>2022-08-12T07:07:44Z</time>
      </trkpt>
      <trkpt lat="46.39425" lon="5.45241">
        <ele>368.4</ele>
        <time>2022-08-12T07:07:47Z</time>
      </trkpt>
      <trkpt lat="46.39413" lon="5.45246">
        <ele>368.8</ele>
        <time>2022-08-12T07:07:50Z</time>
      </trkpt>
      <trkpt lat="46.39405" lon="5.45249">
        <ele>369.4</ele>
        <time>2022-08-12T07:07:52Z</time>
      </trkpt>
      <trkpt lat="46.39384" lon="5.4526">
        <ele>370.2</ele>
        <time>2022-08-12T07:07:57Z</time>
      </trkpt>
      <trkpt lat="46.3938" lon="5.45261">
        <ele>370.4</ele>
        <time>2022-08-12T07:07:58Z</time>
      </trkpt>
      <trkpt lat="46.39365" lon="5.45268">
        <ele>371.6</ele>
        <time>2022-08-12T07:08:02Z</time>
      </trkpt>
      <trkpt lat="46.39349" lon="5.45272">
        <ele>372.8</ele>
        <time>2022-08-12T07:08:06Z</time>
      </trkpt>
      <trkpt lat="46.39322" lon="5.45283">
        <ele>374</ele>
        <time>2022-08-12T07:08:12Z</time>
      </trkpt>
      <trkpt lat="46.39319" lon="5.45284">
        <ele>374.4</ele>
        <time>2022-08-12T07:08:13Z</time>
      </trkpt>
      <trkpt lat="46.39305" lon="5.45287">
        <ele>375</ele>
        <time>2022-08-12T07:08:16Z</time>
      </trkpt>
      <trkpt lat="46.39286" lon="5.4529">
        <ele>376</ele>
        <time>2022-08-12T07:08:20Z</time>
      </trkpt>
      <trkpt lat="46.39279" lon="5.4529">
        <ele>376.2</ele>
        <time>2022-08-12T07:08:21Z</time>
      </trkpt>
      <trkpt lat="46.39262" lon="5.45288">
        <ele>376.4</ele>
        <time>2022-08-12T07:08:24Z</time>
      </trkpt>
      <trkpt lat="46.39251" lon="5.45286">
        <ele>376.4</ele>
        <time>2022-08-12T07:08:26Z</time>
      </trkpt>
      <trkpt lat="46.39215" lon="5.4528">
        <ele>375.4</ele>
        <time>2022-08-12T07:08:31Z</time>
      </trkpt>
      <trkpt lat="46.39198" lon="5.45277">
        <ele>375</ele>
        <time>2022-08-12T07:08:33Z</time>
      </trkpt>
      <trkpt lat="46.39171" lon="5.45272">
        <ele>373.8</ele>
        <time>2022-08-12T07:08:36Z</time>
      </trkpt>
      <trkpt lat="46.39162" lon="5.4527">
        <ele>373.4</ele>
        <time>2022-08-12T07:08:37Z</time>
      </trkpt>
      <trkpt lat="46.39143" lon="5.45266">
        <ele>372.4</ele>
        <time>2022-08-12T07:08:39Z</time>
      </trkpt>
      <trkpt lat="46.39126" lon="5.45263">
        <ele>370.8</ele>
        <time>2022-08-12T07:08:41Z</time>
      </trkpt>
      <trkpt lat="46.39107" lon="5.45257">
        <ele>370.2</ele>
        <time>2022-08-12T07:08:43Z</time>
      </trkpt>
      <trkpt lat="46.39088" lon="5.4525">
        <ele>369.8</ele>
        <time>2022-08-12T07:08:45Z</time>
      </trkpt>
      <trkpt lat="46.39059" lon="5.45239">
        <ele>368.2</ele>
        <time>2022-08-12T07:08:48Z</time>
      </trkpt>
      <trkpt lat="46.39027" lon="5.45227">
        <ele>367.6</ele>
        <time>2022-08-12T07:08:51Z</time>
      </trkpt>
      <trkpt lat="46.39018" lon="5.45222">
        <ele>366.6</ele>
        <time>2022-08-12T07:08:52Z</time>
      </trkpt>
      <trkpt lat="46.38989" lon="5.45211">
        <ele>365.2</ele>
        <time>2022-08-12T07:08:55Z</time>
      </trkpt>
      <trkpt lat="46.38959" lon="5.45198">
        <ele>364</ele>
        <time>2022-08-12T07:08:58Z</time>
      </trkpt>
      <trkpt lat="46.38938" lon="5.4519">
        <ele>362.8</ele>
        <time>2022-08-12T07:09:00Z</time>
      </trkpt>
      <trkpt lat="46.38909" lon="5.45172">
        <ele>361.4</ele>
        <time>2022-08-12T07:09:03Z</time>
      </trkpt>
      <trkpt lat="46.38887" lon="5.45156">
        <ele>360.6</ele>
        <time>2022-08-12T07:09:05Z</time>
      </trkpt>
      <trkpt lat="46.3888" lon="5.4515">
        <ele>360</ele>
        <time>2022-08-12T07:09:06Z</time>
      </trkpt>
      <trkpt lat="46.3886" lon="5.4513">
        <ele>358.8</ele>
        <time>2022-08-12T07:09:08Z</time>
      </trkpt>
      <trkpt lat="46.38843" lon="5.4511">
        <ele>357.8</ele>
        <time>2022-08-12T07:09:10Z</time>
      </trkpt>
      <trkpt lat="46.38836" lon="5.45102">
        <ele>357.4</ele>
        <time>2022-08-12T07:09:11Z</time>
      </trkpt>
      <trkpt lat="46.38818" lon="5.45079">
        <ele>356.2</ele>
        <time>2022-08-12T07:09:13Z</time>
      </trkpt>
      <trkpt lat="46.38802" lon="5.45057">
        <ele>354.8</ele>
        <time>2022-08-12T07:09:15Z</time>
      </trkpt>
      <trkpt lat="46.38779" lon="5.45026">
        <ele>353.4</ele>
        <time>2022-08-12T07:09:18Z</time>
      </trkpt>
      <trkpt lat="46.38772" lon="5.45016">
        <ele>353</ele>
        <time>2022-08-12T07:09:19Z</time>
      </trkpt>
      <trkpt lat="46.38758" lon="5.44999">
        <ele>352.2</ele>
        <time>2022-08-12T07:09:21Z</time>
      </trkpt>
      <trkpt lat="46.38728" lon="5.44959">
        <ele>350.6</ele>
        <time>2022-08-12T07:09:25Z</time>
      </trkpt>
      <trkpt lat="46.38687" lon="5.44905">
        <ele>350</ele>
        <time>2022-08-12T07:09:31Z</time>
      </trkpt>
      <trkpt lat="46.38681" lon="5.44897">
        <ele>350</ele>
        <time>2022-08-12T07:09:32Z</time>
      </trkpt>
      <trkpt lat="46.38637" lon="5.44839">
        <ele>350.2</ele>
        <time>2022-08-12T07:09:39Z</time>
      </trkpt>
      <trkpt lat="46.38592" lon="5.4478">
        <ele>350</ele>
        <time>2022-08-12T07:09:46Z</time>
      </trkpt>
      <trkpt lat="46.3858" lon="5.44763">
        <ele>350</ele>
        <time>2022-08-12T07:09:48Z</time>
      </trkpt>
      <trkpt lat="46.38539" lon="5.4471">
        <ele>349.8</ele>
        <time>2022-08-12T07:09:55Z</time>
      </trkpt>
      <trkpt lat="46.38495" lon="5.44662">
        <ele>349.8</ele>
        <time>2022-08-12T07:10:02Z</time>
      </trkpt>
      <trkpt lat="46.38474" lon="5.44642">
        <ele>349.8</ele>
        <time>2022-08-12T07:10:05Z</time>
      </trkpt>
      <trkpt lat="46.38467" lon="5.44636">
        <ele>349.8</ele>
        <time>2022-08-12T07:10:06Z</time>
      </trkpt>
      <trkpt lat="46.38429" lon="5.44602">
        <ele>349</ele>
        <time>2022-08-12T07:10:11Z</time>
      </trkpt>
      <trkpt lat="46.38414" lon="5.44587">
        <ele>348.2</ele>
        <time>2022-08-12T07:10:13Z</time>
      </trkpt>
      <trkpt lat="46.38376" lon="5.4455">
        <ele>347.2</ele>
        <time>2022-08-12T07:10:18Z</time>
      </trkpt>
      <trkpt lat="46.3836" lon="5.44535">
        <ele>346.8</ele>
        <time>2022-08-12T07:10:20Z</time>
      </trkpt>
      <trkpt lat="46.38322" lon="5.445">
        <ele>346.2</ele>
        <time>2022-08-12T07:10:25Z</time>
      </trkpt>
      <trkpt lat="46.38277" lon="5.44457">
        <ele>346</ele>
        <time>2022-08-12T07:10:31Z</time>
      </trkpt>
      <trkpt lat="46.38224" lon="5.44409">
        <ele>345.2</ele>
        <time>2022-08-12T07:10:38Z</time>
      </trkpt>
      <trkpt lat="46.38217" lon="5.44402">
        <ele>345.2</ele>
        <time>2022-08-12T07:10:39Z</time>
      </trkpt>
      <trkpt lat="46.38209" lon="5.44396">
        <ele>345</ele>
        <time>2022-08-12T07:10:40Z</time>
      </trkpt>
      <trkpt lat="46.38165" lon="5.44356">
        <ele>344</ele>
        <time>2022-08-12T07:10:46Z</time>
      </trkpt>
      <trkpt lat="46.38135" lon="5.44329">
        <ele>343.6</ele>
        <time>2022-08-12T07:10:50Z</time>
      </trkpt>
      <trkpt lat="46.38083" lon="5.44283">
        <ele>343.4</ele>
        <time>2022-08-12T07:10:57Z</time>
      </trkpt>
      <trkpt lat="46.38055" lon="5.44257">
        <ele>343.4</ele>
        <time>2022-08-12T07:11:01Z</time>
      </trkpt>
      <trkpt lat="46.38008" lon="5.44213">
        <ele>343.4</ele>
        <time>2022-08-12T07:11:08Z</time>
      </trkpt>
      <trkpt lat="46.37988" lon="5.44196">
        <ele>343.4</ele>
        <time>2022-08-12T07:11:11Z</time>
      </trkpt>
      <trkpt lat="46.37935" lon="5.44149">
        <ele>343.6</ele>
        <time>2022-08-12T07:11:19Z</time>
      </trkpt>
      <trkpt lat="46.37929" lon="5.44143">
        <ele>343.8</ele>
        <time>2022-08-12T07:11:20Z</time>
      </trkpt>
      <trkpt lat="46.37876" lon="5.44097">
        <ele>344.2</ele>
        <time>2022-08-12T07:11:28Z</time>
      </trkpt>
      <trkpt lat="46.37864" lon="5.44088">
        <ele>344.2</ele>
        <time>2022-08-12T07:11:30Z</time>
      </trkpt>
      <trkpt lat="46.37812" lon="5.44046">
        <ele>344.4</ele>
        <time>2022-08-12T07:11:38Z</time>
      </trkpt>
      <trkpt lat="46.37761" lon="5.44012">
        <ele>344.6</ele>
        <time>2022-08-12T07:11:45Z</time>
      </trkpt>
      <trkpt lat="46.37733" lon="5.43995">
        <ele>344.8</ele>
        <time>2022-08-12T07:11:49Z</time>
      </trkpt>
      <trkpt lat="46.37678" lon="5.43964">
        <ele>344.4</ele>
        <time>2022-08-12T07:11:57Z</time>
      </trkpt>
      <trkpt lat="46.37662" lon="5.43956">
        <ele>344.8</ele>
        <time>2022-08-12T07:11:59Z</time>
      </trkpt>
      <trkpt lat="46.37608" lon="5.43927">
        <ele>345.4</ele>
        <time>2022-08-12T07:12:07Z</time>
      </trkpt>
      <trkpt lat="46.37601" lon="5.43924">
        <ele>345.4</ele>
        <time>2022-08-12T07:12:08Z</time>
      </trkpt>
      <trkpt lat="46.37549" lon="5.439">
        <ele>346.4</ele>
        <time>2022-08-12T07:12:16Z</time>
      </trkpt>
      <trkpt lat="46.37542" lon="5.43898">
        <ele>346.6</ele>
        <time>2022-08-12T07:12:17Z</time>
      </trkpt>
      <trkpt lat="46.37496" lon="5.43877">
        <ele>347.6</ele>
        <time>2022-08-12T07:12:24Z</time>
      </trkpt>
      <trkpt lat="46.37489" lon="5.43874">
        <ele>347.6</ele>
        <time>2022-08-12T07:12:25Z</time>
      </trkpt>
      <trkpt lat="46.37441" lon="5.43842">
        <ele>348.8</ele>
        <time>2022-08-12T07:12:33Z</time>
      </trkpt>
      <trkpt lat="46.37436" lon="5.43837">
        <ele>348.8</ele>
        <time>2022-08-12T07:12:34Z</time>
      </trkpt>
      <trkpt lat="46.37414" lon="5.43817">
        <ele>350</ele>
        <time>2022-08-12T07:12:38Z</time>
      </trkpt>
      <trkpt lat="46.374" lon="5.43803">
        <ele>350.8</ele>
        <time>2022-08-12T07:12:41Z</time>
      </trkpt>
      <trkpt lat="46.37396" lon="5.43799">
        <ele>351.2</ele>
        <time>2022-08-12T07:12:42Z</time>
      </trkpt>
      <trkpt lat="46.37387" lon="5.43792">
        <ele>352</ele>
        <time>2022-08-12T07:12:44Z</time>
      </trkpt>
      <trkpt lat="46.37382" lon="5.43788">
        <ele>352.2</ele>
        <time>2022-08-12T07:12:45Z</time>
      </trkpt>
      <trkpt lat="46.37369" lon="5.43777">
        <ele>353</ele>
        <time>2022-08-12T07:12:48Z</time>
      </trkpt>
      <trkpt lat="46.3736" lon="5.43769">
        <ele>353.4</ele>
        <time>2022-08-12T07:12:50Z</time>
      </trkpt>
      <trkpt lat="46.37331" lon="5.43747">
        <ele>354.6</ele>
        <time>2022-08-12T07:12:56Z</time>
      </trkpt>
      <trkpt lat="46.37317" lon="5.43736">
        <ele>355.4</ele>
        <time>2022-08-12T07:12:59Z</time>
      </trkpt>
      <trkpt lat="46.37302" lon="5.43726">
        <ele>355.6</ele>
        <time>2022-08-12T07:13:02Z</time>
      </trkpt>
      <trkpt lat="46.37276" lon="5.43705">
        <ele>356</ele>
        <time>2022-08-12T07:13:07Z</time>
      </trkpt>
      <trkpt lat="46.37246" lon="5.43684">
        <ele>356.2</ele>
        <time>2022-08-12T07:13:12Z</time>
      </trkpt>
      <trkpt lat="46.37199" lon="5.43661">
        <ele>355.4</ele>
        <time>2022-08-12T07:13:19Z</time>
      </trkpt>
      <trkpt lat="46.37146" lon="5.43638">
        <ele>354.8</ele>
        <time>2022-08-12T07:13:26Z</time>
      </trkpt>
      <trkpt lat="46.37138" lon="5.43635">
        <ele>354.8</ele>
        <time>2022-08-12T07:13:27Z</time>
      </trkpt>
      <trkpt lat="46.37123" lon="5.43627">
        <ele>354.4</ele>
        <time>2022-08-12T07:13:29Z</time>
      </trkpt>
      <trkpt lat="46.37093" lon="5.43613">
        <ele>353.4</ele>
        <time>2022-08-12T07:13:33Z</time>
      </trkpt>
      <trkpt lat="46.37061" lon="5.43599">
        <ele>352.6</ele>
        <time>2022-08-12T07:13:37Z</time>
      </trkpt>
      <trkpt lat="46.37047" lon="5.43592">
        <ele>352.4</ele>
        <time>2022-08-12T07:13:39Z</time>
      </trkpt>
      <trkpt lat="46.36997" lon="5.43575">
        <ele>351</ele>
        <time>2022-08-12T07:13:45Z</time>
      </trkpt>
      <trkpt lat="46.36961" lon="5.4357">
        <ele>350</ele>
        <time>2022-08-12T07:13:49Z</time>
      </trkpt>
      <trkpt lat="46.36941" lon="5.43569">
        <ele>349.4</ele>
        <time>2022-08-12T07:13:51Z</time>
      </trkpt>
      <trkpt lat="46.36931" lon="5.43568">
        <ele>348.8</ele>
        <time>2022-08-12T07:13:52Z</time>
      </trkpt>
      <trkpt lat="46.36902" lon="5.43568">
        <ele>347.6</ele>
        <time>2022-08-12T07:13:55Z</time>
      </trkpt>
      <trkpt lat="46.36884" lon="5.43567">
        <ele>346.4</ele>
        <time>2022-08-12T07:13:57Z</time>
      </trkpt>
      <trkpt lat="46.36863" lon="5.43565">
        <ele>345.6</ele>
        <time>2022-08-12T07:13:59Z</time>
      </trkpt>
      <trkpt lat="46.36826" lon="5.43565">
        <ele>345.2</ele>
        <time>2022-08-12T07:14:03Z</time>
      </trkpt>
      <trkpt lat="46.3677" lon="5.43565">
        <ele>344.4</ele>
        <time>2022-08-12T07:14:09Z</time>
      </trkpt>
      <trkpt lat="46.36752" lon="5.43567">
        <ele>344.2</ele>
        <time>2022-08-12T07:14:11Z</time>
      </trkpt>
      <trkpt lat="46.36697" lon="5.43574">
        <ele>343.8</ele>
        <time>2022-08-12T07:14:17Z</time>
      </trkpt>
      <trkpt lat="46.36688" lon="5.43575">
        <ele>343.6</ele>
        <time>2022-08-12T07:14:18Z</time>
      </trkpt>
      <trkpt lat="46.36649" lon="5.43581">
        <ele>342.8</ele>
        <time>2022-08-12T07:14:22Z</time>
      </trkpt>
      <trkpt lat="46.36593" lon="5.4359">
        <ele>342</ele>
        <time>2022-08-12T07:14:28Z</time>
      </trkpt>
      <trkpt lat="46.36584" lon="5.43591">
        <ele>341.8</ele>
        <time>2022-08-12T07:14:29Z</time>
      </trkpt>
      <trkpt lat="46.36566" lon="5.43593">
        <ele>341.8</ele>
        <time>2022-08-12T07:14:31Z</time>
      </trkpt>
      <trkpt lat="46.36515" lon="5.436">
        <ele>341.4</ele>
        <time>2022-08-12T07:14:37Z</time>
      </trkpt>
      <trkpt lat="46.36455" lon="5.43608">
        <ele>341.8</ele>
        <time>2022-08-12T07:14:44Z</time>
      </trkpt>
      <trkpt lat="46.36438" lon="5.43609">
        <ele>341.8</ele>
        <time>2022-08-12T07:14:46Z</time>
      </trkpt>
      <trkpt lat="46.36383" lon="5.43605">
        <ele>342</ele>
        <time>2022-08-12T07:14:53Z</time>
      </trkpt>
      <trkpt lat="46.36368" lon="5.43603">
        <ele>341.8</ele>
        <time>2022-08-12T07:14:55Z</time>
      </trkpt>
      <trkpt lat="46.36313" lon="5.43593">
        <ele>342.2</ele>
        <time>2022-08-12T07:15:03Z</time>
      </trkpt>
      <trkpt lat="46.36281" lon="5.43585">
        <ele>342.8</ele>
        <time>2022-08-12T07:15:08Z</time>
      </trkpt>
      <trkpt lat="46.36262" lon="5.43581">
        <ele>343.4</ele>
        <time>2022-08-12T07:15:11Z</time>
      </trkpt>
      <trkpt lat="46.36244" lon="5.43577">
        <ele>343.8</ele>
        <time>2022-08-12T07:15:14Z</time>
      </trkpt>
      <trkpt lat="46.36231" lon="5.43575">
        <ele>344.8</ele>
        <time>2022-08-12T07:15:16Z</time>
      </trkpt>
      <trkpt lat="46.36212" lon="5.43573">
        <ele>345.6</ele>
        <time>2022-08-12T07:15:19Z</time>
      </trkpt>
      <trkpt lat="46.36194" lon="5.43571">
        <ele>346</ele>
        <time>2022-08-12T07:15:22Z</time>
      </trkpt>
      <trkpt lat="46.36164" lon="5.4357">
        <ele>347.2</ele>
        <time>2022-08-12T07:15:27Z</time>
      </trkpt>
      <trkpt lat="46.36152" lon="5.43569">
        <ele>347.6</ele>
        <time>2022-08-12T07:15:29Z</time>
      </trkpt>
      <trkpt lat="46.36095" lon="5.43565">
        <ele>348</ele>
        <time>2022-08-12T07:15:38Z</time>
      </trkpt>
      <trkpt lat="46.36065" lon="5.43563">
        <ele>348.4</ele>
        <time>2022-08-12T07:15:43Z</time>
      </trkpt>
      <trkpt lat="46.3603" lon="5.43561">
        <ele>349</ele>
        <time>2022-08-12T07:15:49Z</time>
      </trkpt>
      <trkpt lat="46.36019" lon="5.4356">
        <ele>349.4</ele>
        <time>2022-08-12T07:15:51Z</time>
      </trkpt>
      <trkpt lat="46.35997" lon="5.4356">
        <ele>350.4</ele>
        <time>2022-08-12T07:15:55Z</time>
      </trkpt>
      <trkpt lat="46.3598" lon="5.4356">
        <ele>351</ele>
        <time>2022-08-12T07:15:58Z</time>
      </trkpt>
      <trkpt lat="46.35964" lon="5.43561">
        <ele>351.4</ele>
        <time>2022-08-12T07:16:01Z</time>
      </trkpt>
      <trkpt lat="46.35926" lon="5.43565">
        <ele>352.4</ele>
        <time>2022-08-12T07:16:08Z</time>
      </trkpt>
      <trkpt lat="46.35921" lon="5.43565">
        <ele>352.6</ele>
        <time>2022-08-12T07:16:09Z</time>
      </trkpt>
      <trkpt lat="46.35866" lon="5.43579">
        <ele>353.2</ele>
        <time>2022-08-12T07:16:18Z</time>
      </trkpt>
      <trkpt lat="46.35859" lon="5.4358">
        <ele>353.2</ele>
        <time>2022-08-12T07:16:19Z</time>
      </trkpt>
      <trkpt lat="46.35846" lon="5.43581">
        <ele>353.2</ele>
        <time>2022-08-12T07:16:21Z</time>
      </trkpt>
      <trkpt lat="46.3584" lon="5.43583">
        <ele>353.2</ele>
        <time>2022-08-12T07:16:22Z</time>
      </trkpt>
      <trkpt lat="46.35808" lon="5.4359">
        <ele>353.8</ele>
        <time>2022-08-12T07:16:27Z</time>
      </trkpt>
      <trkpt lat="46.35776" lon="5.43598">
        <ele>354</ele>
        <time>2022-08-12T07:16:32Z</time>
      </trkpt>
      <trkpt lat="46.35732" lon="5.43606">
        <ele>354.8</ele>
        <time>2022-08-12T07:16:39Z</time>
      </trkpt>
      <trkpt lat="46.3572" lon="5.43609">
        <ele>355.2</ele>
        <time>2022-08-12T07:16:41Z</time>
      </trkpt>
      <trkpt lat="46.35689" lon="5.43614">
        <ele>356</ele>
        <time>2022-08-12T07:16:46Z</time>
      </trkpt>
      <trkpt lat="46.3565" lon="5.43619">
        <ele>356.4</ele>
        <time>2022-08-12T07:16:52Z</time>
      </trkpt>
      <trkpt lat="46.35593" lon="5.43626">
        <ele>356.4</ele>
        <time>2022-08-12T07:17:00Z</time>
      </trkpt>
      <trkpt lat="46.35586" lon="5.43628">
        <ele>356.4</ele>
        <time>2022-08-12T07:17:01Z</time>
      </trkpt>
      <trkpt lat="46.35539" lon="5.43633">
        <ele>356</ele>
        <time>2022-08-12T07:17:07Z</time>
      </trkpt>
      <trkpt lat="46.35514" lon="5.43636">
        <ele>355.4</ele>
        <time>2022-08-12T07:17:10Z</time>
      </trkpt>
      <trkpt lat="46.35497" lon="5.43638">
        <ele>354.6</ele>
        <time>2022-08-12T07:17:12Z</time>
      </trkpt>
      <trkpt lat="46.35441" lon="5.43645">
        <ele>353</ele>
        <time>2022-08-12T07:17:18Z</time>
      </trkpt>
      <trkpt lat="46.35412" lon="5.43649">
        <ele>351.8</ele>
        <time>2022-08-12T07:17:21Z</time>
      </trkpt>
      <trkpt lat="46.35381" lon="5.43653">
        <ele>350.6</ele>
        <time>2022-08-12T07:17:24Z</time>
      </trkpt>
      <trkpt lat="46.3536" lon="5.43655">
        <ele>349</ele>
        <time>2022-08-12T07:17:26Z</time>
      </trkpt>
      <trkpt lat="46.35327" lon="5.4366">
        <ele>347.8</ele>
        <time>2022-08-12T07:17:29Z</time>
      </trkpt>
      <trkpt lat="46.35305" lon="5.43663">
        <ele>346.8</ele>
        <time>2022-08-12T07:17:31Z</time>
      </trkpt>
      <trkpt lat="46.35283" lon="5.43667">
        <ele>345.6</ele>
        <time>2022-08-12T07:17:33Z</time>
      </trkpt>
      <trkpt lat="46.35272" lon="5.43669">
        <ele>345.2</ele>
        <time>2022-08-12T07:17:34Z</time>
      </trkpt>
      <trkpt lat="46.35261" lon="5.43673">
        <ele>344.4</ele>
        <time>2022-08-12T07:17:35Z</time>
      </trkpt>
      <trkpt lat="46.35229" lon="5.43688">
        <ele>343.2</ele>
        <time>2022-08-12T07:17:38Z</time>
      </trkpt>
      <trkpt lat="46.35199" lon="5.4371">
        <ele>341.6</ele>
        <time>2022-08-12T07:17:41Z</time>
      </trkpt>
      <trkpt lat="46.3519" lon="5.43719">
        <ele>340.6</ele>
        <time>2022-08-12T07:17:42Z</time>
      </trkpt>
      <trkpt lat="46.35181" lon="5.4373">
        <ele>340.4</ele>
        <time>2022-08-12T07:17:43Z</time>
      </trkpt>
      <trkpt lat="46.35164" lon="5.43751">
        <ele>339.4</ele>
        <time>2022-08-12T07:17:45Z</time>
      </trkpt>
      <trkpt lat="46.35146" lon="5.43774">
        <ele>338.6</ele>
        <time>2022-08-12T07:17:47Z</time>
      </trkpt>
      <trkpt lat="46.35137" lon="5.43786">
        <ele>338</ele>
        <time>2022-08-12T07:17:48Z</time>
      </trkpt>
      <trkpt lat="46.35128" lon="5.43796">
        <ele>337</ele>
        <time>2022-08-12T07:17:49Z</time>
      </trkpt>
      <trkpt lat="46.35109" lon="5.43816">
        <ele>335.6</ele>
        <time>2022-08-12T07:17:51Z</time>
      </trkpt>
      <trkpt lat="46.35099" lon="5.43823">
        <ele>335.2</ele>
        <time>2022-08-12T07:17:52Z</time>
      </trkpt>
      <trkpt lat="46.35088" lon="5.43829">
        <ele>334.6</ele>
        <time>2022-08-12T07:17:53Z</time>
      </trkpt>
      <trkpt lat="46.35078" lon="5.43833">
        <ele>334.2</ele>
        <time>2022-08-12T07:17:54Z</time>
      </trkpt>
      <trkpt lat="46.35067" lon="5.43835">
        <ele>333.6</ele>
        <time>2022-08-12T07:17:55Z</time>
      </trkpt>
      <trkpt lat="46.35038" lon="5.43836">
        <ele>333</ele>
        <time>2022-08-12T07:17:58Z</time>
      </trkpt>
      <trkpt lat="46.35028" lon="5.43836">
        <ele>333</ele>
        <time>2022-08-12T07:17:59Z</time>
      </trkpt>
      <trkpt lat="46.34969" lon="5.43831">
        <ele>332.6</ele>
        <time>2022-08-12T07:18:05Z</time>
      </trkpt>
      <trkpt lat="46.3496" lon="5.43831">
        <ele>332.4</ele>
        <time>2022-08-12T07:18:06Z</time>
      </trkpt>
      <trkpt lat="46.34931" lon="5.43827">
        <ele>332.4</ele>
        <time>2022-08-12T07:18:09Z</time>
      </trkpt>
      <trkpt lat="46.34913" lon="5.43824">
        <ele>332.2</ele>
        <time>2022-08-12T07:18:11Z</time>
      </trkpt>
      <trkpt lat="46.34905" lon="5.43822">
        <ele>332</ele>
        <time>2022-08-12T07:18:12Z</time>
      </trkpt>
      <trkpt lat="46.34874" lon="5.43812">
        <ele>332</ele>
        <time>2022-08-12T07:18:16Z</time>
      </trkpt>
      <trkpt lat="46.34836" lon="5.4379">
        <ele>332.6</ele>
        <time>2022-08-12T07:18:21Z</time>
      </trkpt>
      <trkpt lat="46.3481" lon="5.43772">
        <ele>333</ele>
        <time>2022-08-12T07:18:25Z</time>
      </trkpt>
      <trkpt lat="46.34804" lon="5.43769">
        <ele>333.4</ele>
        <time>2022-08-12T07:18:26Z</time>
      </trkpt>
      <trkpt lat="46.34785" lon="5.43759">
        <ele>334.2</ele>
        <time>2022-08-12T07:18:29Z</time>
      </trkpt>
      <trkpt lat="46.34764" lon="5.43748">
        <ele>334.6</ele>
        <time>2022-08-12T07:18:32Z</time>
      </trkpt>
      <trkpt lat="46.34708" lon="5.43727">
        <ele>334.8</ele>
        <time>2022-08-12T07:18:40Z</time>
      </trkpt>
      <trkpt lat="46.34663" lon="5.43724">
        <ele>334.8</ele>
        <time>2022-08-12T07:18:46Z</time>
      </trkpt>
      <trkpt lat="46.34608" lon="5.43738">
        <ele>334.6</ele>
        <time>2022-08-12T07:18:53Z</time>
      </trkpt>
      <trkpt lat="46.34554" lon="5.43759">
        <ele>334</ele>
        <time>2022-08-12T07:19:00Z</time>
      </trkpt>
      <trkpt lat="46.34546" lon="5.43763">
        <ele>333.8</ele>
        <time>2022-08-12T07:19:01Z</time>
      </trkpt>
      <trkpt lat="46.34493" lon="5.43785">
        <ele>333.6</ele>
        <time>2022-08-12T07:19:08Z</time>
      </trkpt>
      <trkpt lat="46.3447" lon="5.43796">
        <ele>333.6</ele>
        <time>2022-08-12T07:19:11Z</time>
      </trkpt>
      <trkpt lat="46.34419" lon="5.43828">
        <ele>333.4</ele>
        <time>2022-08-12T07:19:18Z</time>
      </trkpt>
      <trkpt lat="46.34412" lon="5.43833">
        <ele>333.2</ele>
        <time>2022-08-12T07:19:19Z</time>
      </trkpt>
      <trkpt lat="46.34396" lon="5.43842">
        <ele>333</ele>
        <time>2022-08-12T07:19:21Z</time>
      </trkpt>
      <trkpt lat="46.34342" lon="5.4387">
        <ele>332.4</ele>
        <time>2022-08-12T07:19:28Z</time>
      </trkpt>
      <trkpt lat="46.34284" lon="5.4389">
        <ele>332</ele>
        <time>2022-08-12T07:19:35Z</time>
      </trkpt>
      <trkpt lat="46.34269" lon="5.43894">
        <ele>331.8</ele>
        <time>2022-08-12T07:19:37Z</time>
      </trkpt>
      <trkpt lat="46.34212" lon="5.43904">
        <ele>331.2</ele>
        <time>2022-08-12T07:19:44Z</time>
      </trkpt>
      <trkpt lat="46.34204" lon="5.43905">
        <ele>331.2</ele>
        <time>2022-08-12T07:19:45Z</time>
      </trkpt>
      <trkpt lat="46.34147" lon="5.43911">
        <ele>331</ele>
        <time>2022-08-12T07:19:52Z</time>
      </trkpt>
      <trkpt lat="46.34115" lon="5.43915">
        <ele>331</ele>
        <time>2022-08-12T07:19:56Z</time>
      </trkpt>
      <trkpt lat="46.34106" lon="5.43915">
        <ele>330.8</ele>
        <time>2022-08-12T07:19:57Z</time>
      </trkpt>
      <trkpt lat="46.3405" lon="5.43921">
        <ele>330.4</ele>
        <time>2022-08-12T07:20:04Z</time>
      </trkpt>
      <trkpt lat="46.34026" lon="5.43924">
        <ele>330.2</ele>
        <time>2022-08-12T07:20:07Z</time>
      </trkpt>
      <trkpt lat="46.33969" lon="5.43927">
        <ele>330.2</ele>
        <time>2022-08-12T07:20:14Z</time>
      </trkpt>
      <trkpt lat="46.33952" lon="5.43925">
        <ele>330.2</ele>
        <time>2022-08-12T07:20:16Z</time>
      </trkpt>
      <trkpt lat="46.33921" lon="5.43913">
        <ele>330</ele>
        <time>2022-08-12T07:20:20Z</time>
      </trkpt>
      <trkpt lat="46.33913" lon="5.43907">
        <ele>329.6</ele>
        <time>2022-08-12T07:20:21Z</time>
      </trkpt>
      <trkpt lat="46.33864" lon="5.43862">
        <ele>328.8</ele>
        <time>2022-08-12T07:20:28Z</time>
      </trkpt>
      <trkpt lat="46.33858" lon="5.43855">
        <ele>329</ele>
        <time>2022-08-12T07:20:29Z</time>
      </trkpt>
      <trkpt lat="46.33814" lon="5.43809">
        <ele>329</ele>
        <time>2022-08-12T07:20:36Z</time>
      </trkpt>
      <trkpt lat="46.33801" lon="5.43796">
        <ele>329</ele>
        <time>2022-08-12T07:20:38Z</time>
      </trkpt>
      <trkpt lat="46.33788" lon="5.43784">
        <ele>329</ele>
        <time>2022-08-12T07:20:40Z</time>
      </trkpt>
      <trkpt lat="46.33743" lon="5.43741">
        <ele>329</ele>
        <time>2022-08-12T07:20:47Z</time>
      </trkpt>
      <trkpt lat="46.33737" lon="5.43735">
        <ele>329</ele>
        <time>2022-08-12T07:20:48Z</time>
      </trkpt>
      <trkpt lat="46.3369" lon="5.43704">
        <ele>329</ele>
        <time>2022-08-12T07:20:55Z</time>
      </trkpt>
      <trkpt lat="46.33634" lon="5.43681">
        <ele>329</ele>
        <time>2022-08-12T07:21:03Z</time>
      </trkpt>
      <trkpt lat="46.33627" lon="5.43679">
        <ele>329.2</ele>
        <time>2022-08-12T07:21:04Z</time>
      </trkpt>
      <trkpt lat="46.33584" lon="5.43676">
        <ele>329.6</ele>
        <time>2022-08-12T07:21:10Z</time>
      </trkpt>
      <trkpt lat="46.33532" lon="5.43678">
        <ele>331</ele>
        <time>2022-08-12T07:21:18Z</time>
      </trkpt>
      <trkpt lat="46.33501" lon="5.4368">
        <ele>331.8</ele>
        <time>2022-08-12T07:21:24Z</time>
      </trkpt>
      <trkpt lat="46.33495" lon="5.4368">
        <ele>332.2</ele>
        <time>2022-08-12T07:21:25Z</time>
      </trkpt>
      <trkpt lat="46.3347" lon="5.43684">
        <ele>333.4</ele>
        <time>2022-08-12T07:21:30Z</time>
      </trkpt>
      <trkpt lat="46.33465" lon="5.43685">
        <ele>333.6</ele>
        <time>2022-08-12T07:21:31Z</time>
      </trkpt>
      <trkpt lat="46.33425" lon="5.43694">
        <ele>334.6</ele>
        <time>2022-08-12T07:21:39Z</time>
      </trkpt>
      <trkpt lat="46.334" lon="5.43697">
        <ele>336</ele>
        <time>2022-08-12T07:21:44Z</time>
      </trkpt>
      <trkpt lat="46.33389" lon="5.437">
        <ele>336.2</ele>
        <time>2022-08-12T07:21:46Z</time>
      </trkpt>
      <trkpt lat="46.33365" lon="5.43705">
        <ele>337</ele>
        <time>2022-08-12T07:21:51Z</time>
      </trkpt>
      <trkpt lat="46.33342" lon="5.43709">
        <ele>337.8</ele>
        <time>2022-08-12T07:21:56Z</time>
      </trkpt>
      <trkpt lat="46.33336" lon="5.4371">
        <ele>338.2</ele>
        <time>2022-08-12T07:21:57Z</time>
      </trkpt>
      <trkpt lat="46.33307" lon="5.43714">
        <ele>339.2</ele>
        <time>2022-08-12T07:22:03Z</time>
      </trkpt>
      <trkpt lat="46.33288" lon="5.43716">
        <ele>339.8</ele>
        <time>2022-08-12T07:22:07Z</time>
      </trkpt>
      <trkpt lat="46.33278" lon="5.43718">
        <ele>340.2</ele>
        <time>2022-08-12T07:22:09Z</time>
      </trkpt>
      <trkpt lat="46.33241" lon="5.43722">
        <ele>341.4</ele>
        <time>2022-08-12T07:22:17Z</time>
      </trkpt>
      <trkpt lat="46.33223" lon="5.43723">
        <ele>342.4</ele>
        <time>2022-08-12T07:22:21Z</time>
      </trkpt>
      <trkpt lat="46.33195" lon="5.43725">
        <ele>343.6</ele>
        <time>2022-08-12T07:22:27Z</time>
      </trkpt>
      <trkpt lat="46.33186" lon="5.43725">
        <ele>343.8</ele>
        <time>2022-08-12T07:22:29Z</time>
      </trkpt>
      <trkpt lat="46.33172" lon="5.43725">
        <ele>345</ele>
        <time>2022-08-12T07:22:32Z</time>
      </trkpt>
      <trkpt lat="46.3315" lon="5.43726">
        <ele>346</ele>
        <time>2022-08-12T07:22:37Z</time>
      </trkpt>
      <trkpt lat="46.33126" lon="5.43727">
        <ele>347</ele>
        <time>2022-08-12T07:22:42Z</time>
      </trkpt>
      <trkpt lat="46.33106" lon="5.43728">
        <ele>347.8</ele>
        <time>2022-08-12T07:22:46Z</time>
      </trkpt>
      <trkpt lat="46.33102" lon="5.43728">
        <ele>347.8</ele>
        <time>2022-08-12T07:22:47Z</time>
      </trkpt>
      <trkpt lat="46.33091" lon="5.43729">
        <ele>348.4</ele>
        <time>2022-08-12T07:22:49Z</time>
      </trkpt>
      <trkpt lat="46.33075" lon="5.43728">
        <ele>348.6</ele>
        <time>2022-08-12T07:22:52Z</time>
      </trkpt>
      <trkpt lat="46.33065" lon="5.4373">
        <ele>348.6</ele>
        <time>2022-08-12T07:22:54Z</time>
      </trkpt>
      <trkpt lat="46.33043" lon="5.43731">
        <ele>349.4</ele>
        <time>2022-08-12T07:22:58Z</time>
      </trkpt>
      <trkpt lat="46.33038" lon="5.43732">
        <ele>349.6</ele>
        <time>2022-08-12T07:22:59Z</time>
      </trkpt>
      <trkpt lat="46.33034" lon="5.43733">
        <ele>349.8</ele>
        <time>2022-08-12T07:23:00Z</time>
      </trkpt>
      <trkpt lat="46.33018" lon="5.43736">
        <ele>350</ele>
        <time>2022-08-12T07:23:03Z</time>
      </trkpt>
      <trkpt lat="46.33004" lon="5.43737">
        <ele>350</ele>
        <time>2022-08-12T07:23:06Z</time>
      </trkpt>
      <trkpt lat="46.32986" lon="5.4374">
        <ele>350.4</ele>
        <time>2022-08-12T07:23:09Z</time>
      </trkpt>
      <trkpt lat="46.32949" lon="5.43748">
        <ele>350.8</ele>
        <time>2022-08-12T07:23:16Z</time>
      </trkpt>
      <trkpt lat="46.32909" lon="5.43759">
        <ele>351.4</ele>
        <time>2022-08-12T07:23:23Z</time>
      </trkpt>
      <trkpt lat="46.32903" lon="5.43761">
        <ele>351.4</ele>
        <time>2022-08-12T07:23:24Z</time>
      </trkpt>
      <trkpt lat="46.32863" lon="5.43774">
        <ele>351</ele>
        <time>2022-08-12T07:23:30Z</time>
      </trkpt>
      <trkpt lat="46.32856" lon="5.43775">
        <ele>350.8</ele>
        <time>2022-08-12T07:23:31Z</time>
      </trkpt>
      <trkpt lat="46.32827" lon="5.43781">
        <ele>350.2</ele>
        <time>2022-08-12T07:23:35Z</time>
      </trkpt>
      <trkpt lat="46.32814" lon="5.43785">
        <ele>349.8</ele>
        <time>2022-08-12T07:23:37Z</time>
      </trkpt>
      <trkpt lat="46.32755" lon="5.43798">
        <ele>349.4</ele>
        <time>2022-08-12T07:23:45Z</time>
      </trkpt>
      <trkpt lat="46.32726" lon="5.43805">
        <ele>349.2</ele>
        <time>2022-08-12T07:23:49Z</time>
      </trkpt>
      <trkpt lat="46.32698" lon="5.43812">
        <ele>349</ele>
        <time>2022-08-12T07:23:53Z</time>
      </trkpt>
      <trkpt lat="46.32642" lon="5.43826">
        <ele>348.6</ele>
        <time>2022-08-12T07:24:01Z</time>
      </trkpt>
      <trkpt lat="46.32604" lon="5.43842">
        <ele>350.2</ele>
        <time>2022-08-12T07:24:07Z</time>
      </trkpt>
      <trkpt lat="46.32598" lon="5.43846">
        <ele>350.4</ele>
        <time>2022-08-12T07:24:08Z</time>
      </trkpt>
      <trkpt lat="46.32586" lon="5.43853">
        <ele>350.8</ele>
        <time>2022-08-12T07:24:10Z</time>
      </trkpt>
      <trkpt lat="46.32549" lon="5.43877">
        <ele>350.8</ele>
        <time>2022-08-12T07:24:16Z</time>
      </trkpt>
      <trkpt lat="46.32502" lon="5.43915">
        <ele>350</ele>
        <time>2022-08-12T07:24:23Z</time>
      </trkpt>
      <trkpt lat="46.32474" lon="5.4394">
        <ele>349</ele>
        <time>2022-08-12T07:24:27Z</time>
      </trkpt>
      <trkpt lat="46.32453" lon="5.4396">
        <ele>348.4</ele>
        <time>2022-08-12T07:24:30Z</time>
      </trkpt>
      <trkpt lat="46.3243" lon="5.43982">
        <ele>347.6</ele>
        <time>2022-08-12T07:24:33Z</time>
      </trkpt>
      <trkpt lat="46.32405" lon="5.44004">
        <ele>347</ele>
        <time>2022-08-12T07:24:36Z</time>
      </trkpt>
      <trkpt lat="46.32396" lon="5.44012">
        <ele>346.4</ele>
        <time>2022-08-12T07:24:37Z</time>
      </trkpt>
      <trkpt lat="46.3237" lon="5.44035">
        <ele>344.8</ele>
        <time>2022-08-12T07:24:40Z</time>
      </trkpt>
      <trkpt lat="46.32353" lon="5.44051">
        <ele>343.8</ele>
        <time>2022-08-12T07:24:42Z</time>
      </trkpt>
      <trkpt lat="46.32345" lon="5.44058">
        <ele>343.4</ele>
        <time>2022-08-12T07:24:43Z</time>
      </trkpt>
      <trkpt lat="46.32328" lon="5.44074">
        <ele>342.6</ele>
        <time>2022-08-12T07:24:45Z</time>
      </trkpt>
      <trkpt lat="46.32302" lon="5.44099">
        <ele>341.4</ele>
        <time>2022-08-12T07:24:48Z</time>
      </trkpt>
      <trkpt lat="46.32276" lon="5.44122">
        <ele>340</ele>
        <time>2022-08-12T07:24:51Z</time>
      </trkpt>
      <trkpt lat="46.32265" lon="5.44131">
        <ele>339.6</ele>
        <time>2022-08-12T07:24:52Z</time>
      </trkpt>
      <trkpt lat="46.3225" lon="5.44145">
        <ele>339</ele>
        <time>2022-08-12T07:24:54Z</time>
      </trkpt>
      <trkpt lat="46.32224" lon="5.44169">
        <ele>337.4</ele>
        <time>2022-08-12T07:24:57Z</time>
      </trkpt>
      <trkpt lat="46.32199" lon="5.44192">
        <ele>336.6</ele>
        <time>2022-08-12T07:25:00Z</time>
      </trkpt>
      <trkpt lat="46.32191" lon="5.442">
        <ele>336.4</ele>
        <time>2022-08-12T07:25:01Z</time>
      </trkpt>
      <trkpt lat="46.32138" lon="5.44243">
        <ele>335.6</ele>
        <time>2022-08-12T07:25:07Z</time>
      </trkpt>
      <trkpt lat="46.32129" lon="5.44249">
        <ele>335.6</ele>
        <time>2022-08-12T07:25:08Z</time>
      </trkpt>
      <trkpt lat="46.32119" lon="5.44254">
        <ele>335</ele>
        <time>2022-08-12T07:25:09Z</time>
      </trkpt>
      <trkpt lat="46.32081" lon="5.44272">
        <ele>334</ele>
        <time>2022-08-12T07:25:13Z</time>
      </trkpt>
      <trkpt lat="46.32055" lon="5.44283">
        <ele>333.8</ele>
        <time>2022-08-12T07:25:16Z</time>
      </trkpt>
      <trkpt lat="46.32001" lon="5.44307">
        <ele>333</ele>
        <time>2022-08-12T07:25:22Z</time>
      </trkpt>
      <trkpt lat="46.31992" lon="5.44311">
        <ele>332.8</ele>
        <time>2022-08-12T07:25:23Z</time>
      </trkpt>
      <trkpt lat="46.31983" lon="5.44315">
        <ele>332.8</ele>
        <time>2022-08-12T07:25:24Z</time>
      </trkpt>
      <trkpt lat="46.31923" lon="5.44341">
        <ele>332.4</ele>
        <time>2022-08-12T07:25:31Z</time>
      </trkpt>
      <trkpt lat="46.31895" lon="5.44353">
        <ele>332.2</ele>
        <time>2022-08-12T07:25:34Z</time>
      </trkpt>
      <trkpt lat="46.31885" lon="5.44357">
        <ele>332</ele>
        <time>2022-08-12T07:25:35Z</time>
      </trkpt>
      <trkpt lat="46.31874" lon="5.44362">
        <ele>331.8</ele>
        <time>2022-08-12T07:25:36Z</time>
      </trkpt>
      <trkpt lat="46.31836" lon="5.44377">
        <ele>330.6</ele>
        <time>2022-08-12T07:25:40Z</time>
      </trkpt>
      <trkpt lat="46.318" lon="5.44392">
        <ele>329.8</ele>
        <time>2022-08-12T07:25:44Z</time>
      </trkpt>
      <trkpt lat="46.31789" lon="5.44397">
        <ele>329.4</ele>
        <time>2022-08-12T07:25:45Z</time>
      </trkpt>
      <trkpt lat="46.31734" lon="5.44419">
        <ele>328.8</ele>
        <time>2022-08-12T07:25:51Z</time>
      </trkpt>
      <trkpt lat="46.31724" lon="5.44422">
        <ele>328.6</ele>
        <time>2022-08-12T07:25:52Z</time>
      </trkpt>
      <trkpt lat="46.31717" lon="5.44423">
        <ele>328.4</ele>
        <time>2022-08-12T07:25:53Z</time>
      </trkpt>
      <trkpt lat="46.31677" lon="5.44424">
        <ele>328.2</ele>
        <time>2022-08-12T07:25:57Z</time>
      </trkpt>
      <trkpt lat="46.31622" lon="5.44419">
        <ele>328</ele>
        <time>2022-08-12T07:26:03Z</time>
      </trkpt>
      <trkpt lat="46.31612" lon="5.44418">
        <ele>328</ele>
        <time>2022-08-12T07:26:04Z</time>
      </trkpt>
      <trkpt lat="46.31552" lon="5.4441">
        <ele>328.2</ele>
        <time>2022-08-12T07:26:11Z</time>
      </trkpt>
      <trkpt lat="46.31543" lon="5.44408">
        <ele>328.2</ele>
        <time>2022-08-12T07:26:12Z</time>
      </trkpt>
      <trkpt lat="46.31485" lon="5.44388">
        <ele>328.2</ele>
        <time>2022-08-12T07:26:19Z</time>
      </trkpt>
      <trkpt lat="46.31429" lon="5.44365">
        <ele>328.2</ele>
        <time>2022-08-12T07:26:26Z</time>
      </trkpt>
      <trkpt lat="46.31413" lon="5.44359">
        <ele>328.2</ele>
        <time>2022-08-12T07:26:28Z</time>
      </trkpt>
      <trkpt lat="46.31358" lon="5.44337">
        <ele>329.2</ele>
        <time>2022-08-12T07:26:35Z</time>
      </trkpt>
      <trkpt lat="46.31334" lon="5.44328">
        <ele>329.6</ele>
        <time>2022-08-12T07:26:38Z</time>
      </trkpt>
      <trkpt lat="46.31318" lon="5.44322">
        <ele>329.8</ele>
        <time>2022-08-12T07:26:40Z</time>
      </trkpt>
      <trkpt lat="46.31263" lon="5.44299">
        <ele>330.2</ele>
        <time>2022-08-12T07:26:47Z</time>
      </trkpt>
      <trkpt lat="46.31255" lon="5.44296">
        <ele>330.2</ele>
        <time>2022-08-12T07:26:48Z</time>
      </trkpt>
      <trkpt lat="46.31197" lon="5.44272">
        <ele>330</ele>
        <time>2022-08-12T07:26:55Z</time>
      </trkpt>
      <trkpt lat="46.31189" lon="5.44267">
        <ele>330</ele>
        <time>2022-08-12T07:26:56Z</time>
      </trkpt>
      <trkpt lat="46.31142" lon="5.44227">
        <ele>329.2</ele>
        <time>2022-08-12T07:27:02Z</time>
      </trkpt>
      <trkpt lat="46.31134" lon="5.4422">
        <ele>329.2</ele>
        <time>2022-08-12T07:27:03Z</time>
      </trkpt>
      <trkpt lat="46.31083" lon="5.44175">
        <ele>328.6</ele>
        <time>2022-08-12T07:27:10Z</time>
      </trkpt>
      <trkpt lat="46.31075" lon="5.44169">
        <ele>328.4</ele>
        <time>2022-08-12T07:27:11Z</time>
      </trkpt>
      <trkpt lat="46.31067" lon="5.44162">
        <ele>328.4</ele>
        <time>2022-08-12T07:27:12Z</time>
      </trkpt>
      <trkpt lat="46.3102" lon="5.44121">
        <ele>327.6</ele>
        <time>2022-08-12T07:27:18Z</time>
      </trkpt>
      <trkpt lat="46.31004" lon="5.44109">
        <ele>327.2</ele>
        <time>2022-08-12T07:27:20Z</time>
      </trkpt>
      <trkpt lat="46.30961" lon="5.4408">
        <ele>326.2</ele>
        <time>2022-08-12T07:27:25Z</time>
      </trkpt>
      <trkpt lat="46.30925" lon="5.44057">
        <ele>325</ele>
        <time>2022-08-12T07:27:29Z</time>
      </trkpt>
      <trkpt lat="46.30916" lon="5.44051">
        <ele>324.6</ele>
        <time>2022-08-12T07:27:30Z</time>
      </trkpt>
      <trkpt lat="46.3089" lon="5.44037">
        <ele>323.8</ele>
        <time>2022-08-12T07:27:33Z</time>
      </trkpt>
      <trkpt lat="46.30863" lon="5.44027">
        <ele>323.6</ele>
        <time>2022-08-12T07:27:36Z</time>
      </trkpt>
      <trkpt lat="46.30822" lon="5.44016">
        <ele>323.6</ele>
        <time>2022-08-12T07:27:41Z</time>
      </trkpt>
      <trkpt lat="46.30805" lon="5.44015">
        <ele>323.8</ele>
        <time>2022-08-12T07:27:43Z</time>
      </trkpt>
      <trkpt lat="46.30788" lon="5.44016">
        <ele>324</ele>
        <time>2022-08-12T07:27:45Z</time>
      </trkpt>
      <trkpt lat="46.30775" lon="5.4402">
        <ele>324.2</ele>
        <time>2022-08-12T07:27:47Z</time>
      </trkpt>
      <trkpt lat="46.30754" lon="5.44026">
        <ele>325</ele>
        <time>2022-08-12T07:27:50Z</time>
      </trkpt>
      <trkpt lat="46.30747" lon="5.44028">
        <ele>325.4</ele>
        <time>2022-08-12T07:27:51Z</time>
      </trkpt>
      <trkpt lat="46.30734" lon="5.44033">
        <ele>325.8</ele>
        <time>2022-08-12T07:27:53Z</time>
      </trkpt>
      <trkpt lat="46.30727" lon="5.44036">
        <ele>326.4</ele>
        <time>2022-08-12T07:27:54Z</time>
      </trkpt>
      <trkpt lat="46.30695" lon="5.44046">
        <ele>327.6</ele>
        <time>2022-08-12T07:27:59Z</time>
      </trkpt>
      <trkpt lat="46.30689" lon="5.44047">
        <ele>327.8</ele>
        <time>2022-08-12T07:28:00Z</time>
      </trkpt>
      <trkpt lat="46.30663" lon="5.44047">
        <ele>328.6</ele>
        <time>2022-08-12T07:28:04Z</time>
      </trkpt>
      <trkpt lat="46.3065" lon="5.44044">
        <ele>329</ele>
        <time>2022-08-12T07:28:06Z</time>
      </trkpt>
      <trkpt lat="46.30597" lon="5.44037">
        <ele>329.2</ele>
        <time>2022-08-12T07:28:13Z</time>
      </trkpt>
      <trkpt lat="46.30537" lon="5.4403">
        <ele>328.2</ele>
        <time>2022-08-12T07:28:20Z</time>
      </trkpt>
      <trkpt lat="46.30492" lon="5.44019">
        <ele>327.6</ele>
        <time>2022-08-12T07:28:25Z</time>
      </trkpt>
      <trkpt lat="46.30466" lon="5.44012">
        <ele>326.6</ele>
        <time>2022-08-12T07:28:28Z</time>
      </trkpt>
      <trkpt lat="46.30428" lon="5.44002">
        <ele>325.4</ele>
        <time>2022-08-12T07:28:32Z</time>
      </trkpt>
      <trkpt lat="46.30393" lon="5.4399">
        <ele>324.8</ele>
        <time>2022-08-12T07:28:36Z</time>
      </trkpt>
      <trkpt lat="46.30359" lon="5.43974">
        <ele>324.4</ele>
        <time>2022-08-12T07:28:40Z</time>
      </trkpt>
      <trkpt lat="46.30334" lon="5.43962">
        <ele>324.2</ele>
        <time>2022-08-12T07:28:43Z</time>
      </trkpt>
      <trkpt lat="46.30277" lon="5.43933">
        <ele>324.2</ele>
        <time>2022-08-12T07:28:50Z</time>
      </trkpt>
      <trkpt lat="46.30269" lon="5.43929">
        <ele>324</ele>
        <time>2022-08-12T07:28:51Z</time>
      </trkpt>
      <trkpt lat="46.30214" lon="5.439">
        <ele>324.6</ele>
        <time>2022-08-12T07:28:58Z</time>
      </trkpt>
      <trkpt lat="46.30198" lon="5.43892">
        <ele>324.8</ele>
        <time>2022-08-12T07:29:00Z</time>
      </trkpt>
      <trkpt lat="46.30145" lon="5.43865">
        <ele>325.4</ele>
        <time>2022-08-12T07:29:06Z</time>
      </trkpt>
      <trkpt lat="46.30128" lon="5.43855">
        <ele>325.2</ele>
        <time>2022-08-12T07:29:08Z</time>
      </trkpt>
      <trkpt lat="46.30069" lon="5.43824">
        <ele>324.6</ele>
        <time>2022-08-12T07:29:15Z</time>
      </trkpt>
      <trkpt lat="46.30042" lon="5.43811">
        <ele>323.8</ele>
        <time>2022-08-12T07:29:18Z</time>
      </trkpt>
      <trkpt lat="46.30016" lon="5.43797">
        <ele>323.6</ele>
        <time>2022-08-12T07:29:21Z</time>
      </trkpt>
      <trkpt lat="46.29964" lon="5.43773">
        <ele>323.4</ele>
        <time>2022-08-12T07:29:27Z</time>
      </trkpt>
      <trkpt lat="46.29904" lon="5.43748">
        <ele>323</ele>
        <time>2022-08-12T07:29:34Z</time>
      </trkpt>
      <trkpt lat="46.29878" lon="5.43737">
        <ele>323</ele>
        <time>2022-08-12T07:29:37Z</time>
      </trkpt>
      <trkpt lat="46.2986" lon="5.43729">
        <ele>323</ele>
        <time>2022-08-12T07:29:39Z</time>
      </trkpt>
      <trkpt lat="46.298" lon="5.43702">
        <ele>322.6</ele>
        <time>2022-08-12T07:29:46Z</time>
      </trkpt>
      <trkpt lat="46.29783" lon="5.43694">
        <ele>322.4</ele>
        <time>2022-08-12T07:29:48Z</time>
      </trkpt>
      <trkpt lat="46.29725" lon="5.43664">
        <ele>322.2</ele>
        <time>2022-08-12T07:29:55Z</time>
      </trkpt>
      <trkpt lat="46.29668" lon="5.43634">
        <ele>322</ele>
        <time>2022-08-12T07:30:02Z</time>
      </trkpt>
      <trkpt lat="46.29645" lon="5.43622">
        <ele>322</ele>
        <time>2022-08-12T07:30:05Z</time>
      </trkpt>
      <trkpt lat="46.29589" lon="5.43592">
        <ele>321.8</ele>
        <time>2022-08-12T07:30:12Z</time>
      </trkpt>
      <trkpt lat="46.29532" lon="5.43561">
        <ele>321.4</ele>
        <time>2022-08-12T07:30:19Z</time>
      </trkpt>
      <trkpt lat="46.29524" lon="5.43557">
        <ele>321.4</ele>
        <time>2022-08-12T07:30:20Z</time>
      </trkpt>
      <trkpt lat="46.29468" lon="5.43528">
        <ele>321</ele>
        <time>2022-08-12T07:30:27Z</time>
      </trkpt>
      <trkpt lat="46.2946" lon="5.43523">
        <ele>321</ele>
        <time>2022-08-12T07:30:28Z</time>
      </trkpt>
      <trkpt lat="46.29404" lon="5.43488">
        <ele>320.8</ele>
        <time>2022-08-12T07:30:35Z</time>
      </trkpt>
      <trkpt lat="46.29388" lon="5.43478">
        <ele>320.6</ele>
        <time>2022-08-12T07:30:37Z</time>
      </trkpt>
      <trkpt lat="46.29331" lon="5.43442">
        <ele>319.8</ele>
        <time>2022-08-12T07:30:44Z</time>
      </trkpt>
      <trkpt lat="46.29315" lon="5.43434">
        <ele>319.6</ele>
        <time>2022-08-12T07:30:46Z</time>
      </trkpt>
      <trkpt lat="46.29255" lon="5.4341">
        <ele>318.4</ele>
        <time>2022-08-12T07:30:53Z</time>
      </trkpt>
      <trkpt lat="46.29246" lon="5.43407">
        <ele>318.4</ele>
        <time>2022-08-12T07:30:54Z</time>
      </trkpt>
      <trkpt lat="46.29189" lon="5.43382">
        <ele>318</ele>
        <time>2022-08-12T07:31:01Z</time>
      </trkpt>
      <trkpt lat="46.29138" lon="5.43346">
        <ele>318</ele>
        <time>2022-08-12T07:31:08Z</time>
      </trkpt>
      <trkpt lat="46.29123" lon="5.43334">
        <ele>318</ele>
        <time>2022-08-12T07:31:10Z</time>
      </trkpt>
      <trkpt lat="46.29072" lon="5.43288">
        <ele>318</ele>
        <time>2022-08-12T07:31:17Z</time>
      </trkpt>
      <trkpt lat="46.29067" lon="5.43282">
        <ele>317.8</ele>
        <time>2022-08-12T07:31:18Z</time>
      </trkpt>
      <trkpt lat="46.29017" lon="5.43236">
        <ele>317.4</ele>
        <time>2022-08-12T07:31:25Z</time>
      </trkpt>
      <trkpt lat="46.29001" lon="5.43223">
        <ele>317.6</ele>
        <time>2022-08-12T07:31:27Z</time>
      </trkpt>
      <trkpt lat="46.28951" lon="5.43193">
        <ele>317.6</ele>
        <time>2022-08-12T07:31:34Z</time>
      </trkpt>
      <trkpt lat="46.28896" lon="5.43171">
        <ele>317.8</ele>
        <time>2022-08-12T07:31:41Z</time>
      </trkpt>
      <trkpt lat="46.28873" lon="5.4316">
        <ele>317.8</ele>
        <time>2022-08-12T07:31:44Z</time>
      </trkpt>
      <trkpt lat="46.28818" lon="5.43138">
        <ele>317.8</ele>
        <time>2022-08-12T07:31:51Z</time>
      </trkpt>
      <trkpt lat="46.28773" lon="5.43122">
        <ele>317.6</ele>
        <time>2022-08-12T07:31:57Z</time>
      </trkpt>
      <trkpt lat="46.28719" lon="5.43113">
        <ele>317.4</ele>
        <time>2022-08-12T07:32:04Z</time>
      </trkpt>
      <trkpt lat="46.28665" lon="5.43107">
        <ele>317.2</ele>
        <time>2022-08-12T07:32:11Z</time>
      </trkpt>
      <trkpt lat="46.28626" lon="5.43104">
        <ele>317.2</ele>
        <time>2022-08-12T07:32:16Z</time>
      </trkpt>
      <trkpt lat="46.28571" lon="5.43101">
        <ele>316.8</ele>
        <time>2022-08-12T07:32:23Z</time>
      </trkpt>
      <trkpt lat="46.28547" lon="5.43102">
        <ele>316.6</ele>
        <time>2022-08-12T07:32:26Z</time>
      </trkpt>
      <trkpt lat="46.28531" lon="5.43102">
        <ele>316.6</ele>
        <time>2022-08-12T07:32:28Z</time>
      </trkpt>
      <trkpt lat="46.28476" lon="5.43107">
        <ele>316.4</ele>
        <time>2022-08-12T07:32:35Z</time>
      </trkpt>
      <trkpt lat="46.2846" lon="5.43109">
        <ele>316.2</ele>
        <time>2022-08-12T07:32:37Z</time>
      </trkpt>
      <trkpt lat="46.28405" lon="5.43116">
        <ele>316.2</ele>
        <time>2022-08-12T07:32:44Z</time>
      </trkpt>
      <trkpt lat="46.28374" lon="5.4312">
        <ele>315.8</ele>
        <time>2022-08-12T07:32:48Z</time>
      </trkpt>
      <trkpt lat="46.28358" lon="5.43122">
        <ele>315.6</ele>
        <time>2022-08-12T07:32:50Z</time>
      </trkpt>
      <trkpt lat="46.28351" lon="5.43123">
        <ele>315.6</ele>
        <time>2022-08-12T07:32:51Z</time>
      </trkpt>
      <trkpt lat="46.28304" lon="5.43125">
        <ele>315.4</ele>
        <time>2022-08-12T07:32:57Z</time>
      </trkpt>
      <trkpt lat="46.28249" lon="5.43118">
        <ele>315.6</ele>
        <time>2022-08-12T07:33:04Z</time>
      </trkpt>
      <trkpt lat="46.28233" lon="5.43115">
        <ele>315.4</ele>
        <time>2022-08-12T07:33:06Z</time>
      </trkpt>
      <trkpt lat="46.28179" lon="5.43105">
        <ele>315.4</ele>
        <time>2022-08-12T07:33:13Z</time>
      </trkpt>
      <trkpt lat="46.28128" lon="5.43095">
        <ele>315.6</ele>
        <time>2022-08-12T07:33:20Z</time>
      </trkpt>
      <trkpt lat="46.28068" lon="5.43083">
        <ele>315.4</ele>
        <time>2022-08-12T07:33:28Z</time>
      </trkpt>
      <trkpt lat="46.28009" lon="5.43069">
        <ele>315.4</ele>
        <time>2022-08-12T07:33:36Z</time>
      </trkpt>
      <trkpt lat="46.28001" lon="5.43067">
        <ele>315.4</ele>
        <time>2022-08-12T07:33:37Z</time>
      </trkpt>
      <trkpt lat="46.27949" lon="5.43056">
        <ele>315.2</ele>
        <time>2022-08-12T07:33:44Z</time>
      </trkpt>
      <trkpt lat="46.2789" lon="5.43044">
        <ele>315.2</ele>
        <time>2022-08-12T07:33:52Z</time>
      </trkpt>
      <trkpt lat="46.27875" lon="5.43042">
        <ele>315.2</ele>
        <time>2022-08-12T07:33:54Z</time>
      </trkpt>
      <trkpt lat="46.27822" lon="5.43043">
        <ele>315</ele>
        <time>2022-08-12T07:34:01Z</time>
      </trkpt>
      <trkpt lat="46.27815" lon="5.43042">
        <ele>314.8</ele>
        <time>2022-08-12T07:34:02Z</time>
      </trkpt>
      <trkpt lat="46.27779" lon="5.43034">
        <ele>314.8</ele>
        <time>2022-08-12T07:34:07Z</time>
      </trkpt>
      <trkpt lat="46.27724" lon="5.43011">
        <ele>315.6</ele>
        <time>2022-08-12T07:34:15Z</time>
      </trkpt>
      <trkpt lat="46.2768" lon="5.42995">
        <ele>315.8</ele>
        <time>2022-08-12T07:34:21Z</time>
      </trkpt>
      <trkpt lat="46.27672" lon="5.42992">
        <ele>316</ele>
        <time>2022-08-12T07:34:22Z</time>
      </trkpt>
      <trkpt lat="46.27612" lon="5.42973">
        <ele>316.2</ele>
        <time>2022-08-12T07:34:30Z</time>
      </trkpt>
      <trkpt lat="46.2756" lon="5.42956">
        <ele>316.2</ele>
        <time>2022-08-12T07:34:37Z</time>
      </trkpt>
      <trkpt lat="46.27531" lon="5.42946">
        <ele>316.2</ele>
        <time>2022-08-12T07:34:41Z</time>
      </trkpt>
      <trkpt lat="46.27472" lon="5.42927">
        <ele>316.4</ele>
        <time>2022-08-12T07:34:49Z</time>
      </trkpt>
      <trkpt lat="46.27465" lon="5.42925">
        <ele>316.4</ele>
        <time>2022-08-12T07:34:50Z</time>
      </trkpt>
      <trkpt lat="46.27457" lon="5.42922">
        <ele>316.2</ele>
        <time>2022-08-12T07:34:51Z</time>
      </trkpt>
      <trkpt lat="46.27404" lon="5.42905">
        <ele>316</ele>
        <time>2022-08-12T07:34:58Z</time>
      </trkpt>
      <trkpt lat="46.27396" lon="5.42903">
        <ele>316</ele>
        <time>2022-08-12T07:34:59Z</time>
      </trkpt>
      <trkpt lat="46.27336" lon="5.42882">
        <ele>316</ele>
        <time>2022-08-12T07:35:07Z</time>
      </trkpt>
      <trkpt lat="46.2729" lon="5.42857">
        <ele>316.4</ele>
        <time>2022-08-12T07:35:14Z</time>
      </trkpt>
      <trkpt lat="46.27278" lon="5.42848">
        <ele>317</ele>
        <time>2022-08-12T07:35:16Z</time>
      </trkpt>
      <trkpt lat="46.2725" lon="5.42827">
        <ele>318.2</ele>
        <time>2022-08-12T07:35:21Z</time>
      </trkpt>
      <trkpt lat="46.27212" lon="5.42805">
        <ele>319.4</ele>
        <time>2022-08-12T07:35:27Z</time>
      </trkpt>
      <trkpt lat="46.27206" lon="5.42802">
        <ele>319.4</ele>
        <time>2022-08-12T07:35:28Z</time>
      </trkpt>
      <trkpt lat="46.27161" lon="5.42777">
        <ele>320</ele>
        <time>2022-08-12T07:35:35Z</time>
      </trkpt>
      <trkpt lat="46.27126" lon="5.42766">
        <ele>320.4</ele>
        <time>2022-08-12T07:35:40Z</time>
      </trkpt>
      <trkpt lat="46.27118" lon="5.42765">
        <ele>320.4</ele>
        <time>2022-08-12T07:35:41Z</time>
      </trkpt>
      <trkpt lat="46.2707" lon="5.42761">
        <ele>320</ele>
        <time>2022-08-12T07:35:47Z</time>
      </trkpt>
      <trkpt lat="46.27044" lon="5.42758">
        <ele>319.4</ele>
        <time>2022-08-12T07:35:50Z</time>
      </trkpt>
      <trkpt lat="46.27017" lon="5.42753">
        <ele>318.2</ele>
        <time>2022-08-12T07:35:53Z</time>
      </trkpt>
      <trkpt lat="46.26982" lon="5.42745">
        <ele>317.2</ele>
        <time>2022-08-12T07:35:57Z</time>
      </trkpt>
      <trkpt lat="46.26948" lon="5.42735">
        <ele>316.2</ele>
        <time>2022-08-12T07:36:01Z</time>
      </trkpt>
      <trkpt lat="46.2694" lon="5.42732">
        <ele>316</ele>
        <time>2022-08-12T07:36:02Z</time>
      </trkpt>
      <trkpt lat="46.26884" lon="5.4271">
        <ele>315.8</ele>
        <time>2022-08-12T07:36:09Z</time>
      </trkpt>
      <trkpt lat="46.26823" lon="5.42688">
        <ele>315.2</ele>
        <time>2022-08-12T07:36:16Z</time>
      </trkpt>
      <trkpt lat="46.26814" lon="5.42686">
        <ele>315</ele>
        <time>2022-08-12T07:36:17Z</time>
      </trkpt>
      <trkpt lat="46.26759" lon="5.42671">
        <ele>314</ele>
        <time>2022-08-12T07:36:23Z</time>
      </trkpt>
      <trkpt lat="46.2675" lon="5.42669">
        <ele>313.8</ele>
        <time>2022-08-12T07:36:24Z</time>
      </trkpt>
      <trkpt lat="46.2669" lon="5.42651">
        <ele>313.4</ele>
        <time>2022-08-12T07:36:31Z</time>
      </trkpt>
      <trkpt lat="46.26673" lon="5.42646">
        <ele>313.4</ele>
        <time>2022-08-12T07:36:33Z</time>
      </trkpt>
      <trkpt lat="46.26614" lon="5.42631">
        <ele>313.6</ele>
        <time>2022-08-12T07:36:40Z</time>
      </trkpt>
      <trkpt lat="46.26597" lon="5.42627">
        <ele>313.6</ele>
        <time>2022-08-12T07:36:42Z</time>
      </trkpt>
      <trkpt lat="46.26564" lon="5.4262">
        <ele>313</ele>
        <time>2022-08-12T07:36:46Z</time>
      </trkpt>
      <trkpt lat="46.26548" lon="5.42618">
        <ele>312.8</ele>
        <time>2022-08-12T07:36:48Z</time>
      </trkpt>
      <trkpt lat="46.2651" lon="5.42613">
        <ele>312.8</ele>
        <time>2022-08-12T07:36:53Z</time>
      </trkpt>
      <trkpt lat="46.26469" lon="5.42601">
        <ele>313</ele>
        <time>2022-08-12T07:36:59Z</time>
      </trkpt>
      <trkpt lat="46.26411" lon="5.4259">
        <ele>312.6</ele>
        <time>2022-08-12T07:37:07Z</time>
      </trkpt>
      <trkpt lat="46.2637" lon="5.42583">
        <ele>312.2</ele>
        <time>2022-08-12T07:37:13Z</time>
      </trkpt>
      <trkpt lat="46.26342" lon="5.42578">
        <ele>312.2</ele>
        <time>2022-08-12T07:37:18Z</time>
      </trkpt>
      <trkpt lat="46.26336" lon="5.42567">
        <ele>312.4</ele>
        <time>2022-08-12T07:37:20Z</time>
      </trkpt>
      <trkpt lat="46.26334" lon="5.42559">
        <ele>312.4</ele>
        <time>2022-08-12T07:37:21Z</time>
      </trkpt>
      <trkpt lat="46.26331" lon="5.42513">
        <ele>312.4</ele>
        <time>2022-08-12T07:37:26Z</time>
      </trkpt>
      <trkpt lat="46.26326" lon="5.42497">
        <ele>312.6</ele>
        <time>2022-08-12T07:37:28Z</time>
      </trkpt>
      <trkpt lat="46.26323" lon="5.42491">
        <ele>312.6</ele>
        <time>2022-08-12T07:37:29Z</time>
      </trkpt>
      <trkpt lat="46.26318" lon="5.42485">
        <ele>312.8</ele>
        <time>2022-08-12T07:37:30Z</time>
      </trkpt>
      <trkpt lat="46.26303" lon="5.42472">
        <ele>313</ele>
        <time>2022-08-12T07:37:33Z</time>
      </trkpt>
      <trkpt lat="46.26279" lon="5.42448">
        <ele>313.6</ele>
        <time>2022-08-12T07:37:38Z</time>
      </trkpt>
      <trkpt lat="46.26274" lon="5.42443">
        <ele>313.8</ele>
        <time>2022-08-12T07:37:39Z</time>
      </trkpt>
      <trkpt lat="46.2627" lon="5.42437">
        <ele>314</ele>
        <time>2022-08-12T07:37:40Z</time>
      </trkpt>
      <trkpt lat="46.26263" lon="5.42424">
        <ele>314.2</ele>
        <time>2022-08-12T07:37:42Z</time>
      </trkpt>
      <trkpt lat="46.26256" lon="5.4241">
        <ele>314.6</ele>
        <time>2022-08-12T07:37:44Z</time>
      </trkpt>
      <trkpt lat="46.26253" lon="5.42403">
        <ele>314.6</ele>
        <time>2022-08-12T07:37:45Z</time>
      </trkpt>
      <trkpt lat="46.26247" lon="5.42389">
        <ele>315</ele>
        <time>2022-08-12T07:37:47Z</time>
      </trkpt>
      <trkpt lat="46.26238" lon="5.42367">
        <ele>315.8</ele>
        <time>2022-08-12T07:37:50Z</time>
      </trkpt>
      <trkpt lat="46.26233" lon="5.42352">
        <ele>316.2</ele>
        <time>2022-08-12T07:37:52Z</time>
      </trkpt>
      <trkpt lat="46.26225" lon="5.42319">
        <ele>316.4</ele>
        <time>2022-08-12T07:37:56Z</time>
      </trkpt>
      <trkpt lat="46.26219" lon="5.42257">
        <ele>317</ele>
        <time>2022-08-12T07:38:03Z</time>
      </trkpt>
      <trkpt lat="46.26218" lon="5.42214">
        <ele>317.6</ele>
        <time>2022-08-12T07:38:08Z</time>
      </trkpt>
      <trkpt lat="46.26218" lon="5.42175">
        <ele>318.2</ele>
        <time>2022-08-12T07:38:13Z</time>
      </trkpt>
      <trkpt lat="46.26218" lon="5.42168">
        <ele>318.6</ele>
        <time>2022-08-12T07:38:14Z</time>
      </trkpt>
      <trkpt lat="46.26217" lon="5.42153">
        <ele>319.4</ele>
        <time>2022-08-12T07:38:16Z</time>
      </trkpt>
      <trkpt lat="46.26214" lon="5.4214">
        <ele>319.8</ele>
        <time>2022-08-12T07:38:18Z</time>
      </trkpt>
      <trkpt lat="46.26208" lon="5.42128">
        <ele>320.2</ele>
        <time>2022-08-12T07:38:20Z</time>
      </trkpt>
      <trkpt lat="46.26201" lon="5.42119">
        <ele>320.8</ele>
        <time>2022-08-12T07:38:22Z</time>
      </trkpt>
      <trkpt lat="46.26188" lon="5.42109">
        <ele>322</ele>
        <time>2022-08-12T07:38:25Z</time>
      </trkpt>
      <trkpt lat="46.26176" lon="5.42101">
        <ele>322.6</ele>
        <time>2022-08-12T07:38:28Z</time>
      </trkpt>
      <trkpt lat="46.26172" lon="5.42099">
        <ele>323</ele>
        <time>2022-08-12T07:38:29Z</time>
      </trkpt>
      <trkpt lat="46.26161" lon="5.42093">
        <ele>323.6</ele>
        <time>2022-08-12T07:38:32Z</time>
      </trkpt>
      <trkpt lat="46.26158" lon="5.42091">
        <ele>324</ele>
        <time>2022-08-12T07:38:33Z</time>
      </trkpt>
      <trkpt lat="46.26144" lon="5.42082">
        <ele>325.2</ele>
        <time>2022-08-12T07:38:37Z</time>
      </trkpt>
      <trkpt lat="46.26135" lon="5.42075">
        <ele>325.8</ele>
        <time>2022-08-12T07:38:40Z</time>
      </trkpt>
      <trkpt lat="46.26129" lon="5.4207">
        <ele>326.2</ele>
        <time>2022-08-12T07:38:42Z</time>
      </trkpt>
      <trkpt lat="46.26114" lon="5.42056">
        <ele>327.6</ele>
        <time>2022-08-12T07:38:47Z</time>
      </trkpt>
      <trkpt lat="46.26107" lon="5.42049">
        <ele>328.2</ele>
        <time>2022-08-12T07:38:49Z</time>
      </trkpt>
      <trkpt lat="46.26101" lon="5.42043">
        <ele>328.6</ele>
        <time>2022-08-12T07:38:51Z</time>
      </trkpt>
      <trkpt lat="46.26089" lon="5.42031">
        <ele>329.6</ele>
        <time>2022-08-12T07:38:55Z</time>
      </trkpt>
      <trkpt lat="46.26084" lon="5.42025">
        <ele>330.2</ele>
        <time>2022-08-12T07:38:57Z</time>
      </trkpt>
      <trkpt lat="46.26078" lon="5.42018">
        <ele>330.6</ele>
        <time>2022-08-12T07:38:59Z</time>
      </trkpt>
      <trkpt lat="46.26063" lon="5.41998">
        <ele>331.6</ele>
        <time>2022-08-12T07:39:05Z</time>
      </trkpt>
      <trkpt lat="46.26049" lon="5.41977">
        <ele>332.6</ele>
        <time>2022-08-12T07:39:11Z</time>
      </trkpt>
      <trkpt lat="46.26044" lon="5.41969">
        <ele>333.2</ele>
        <time>2022-08-12T07:39:13Z</time>
      </trkpt>
      <trkpt lat="46.26037" lon="5.41958">
        <ele>333.8</ele>
        <time>2022-08-12T07:39:16Z</time>
      </trkpt>
      <trkpt lat="46.2602" lon="5.41931">
        <ele>334.6</ele>
        <time>2022-08-12T07:39:23Z</time>
      </trkpt>
      <trkpt lat="46.26018" lon="5.41927">
        <ele>335.2</ele>
        <time>2022-08-12T07:39:24Z</time>
      </trkpt>
      <trkpt lat="46.26007" lon="5.41907">
        <ele>336.4</ele>
        <time>2022-08-12T07:39:29Z</time>
      </trkpt>
      <trkpt lat="46.26004" lon="5.41906">
        <ele>336.4</ele>
        <time>2022-08-12T07:39:30Z</time>
      </trkpt>
      <trkpt lat="46.26002" lon="5.41904">
        <ele>337</ele>
        <time>2022-08-12T07:39:32Z</time>
      </trkpt>
      <trkpt lat="46.26" lon="5.41904">
        <ele>337.6</ele>
        <time>2022-08-12T07:39:34Z</time>
      </trkpt>
      <trkpt lat="46.25999" lon="5.41904">
        <ele>338</ele>
        <time>2022-08-12T07:39:38Z</time>
      </trkpt>
      <trkpt lat="46.26001" lon="5.419">
        <ele>338.4</ele>
        <time>2022-08-12T07:40:32Z</time>
      </trkpt>
      <trkpt lat="46.26001" lon="5.41897">
        <ele>338.4</ele>
        <time>2022-08-12T07:40:33Z</time>
      </trkpt>
      <trkpt lat="46.25999" lon="5.41877">
        <ele>338.4</ele>
        <time>2022-08-12T07:40:37Z</time>
      </trkpt>
      <trkpt lat="46.25993" lon="5.41837">
        <ele>338.4</ele>
        <time>2022-08-12T07:40:42Z</time>
      </trkpt>
      <trkpt lat="46.2599" lon="5.4182">
        <ele>338.6</ele>
        <time>2022-08-12T07:40:44Z</time>
      </trkpt>
      <trkpt lat="46.25988" lon="5.41811">
        <ele>338.6</ele>
        <time>2022-08-12T07:40:45Z</time>
      </trkpt>
      <trkpt lat="46.25987" lon="5.41796">
        <ele>338.8</ele>
        <time>2022-08-12T07:40:47Z</time>
      </trkpt>
      <trkpt lat="46.2598" lon="5.41746">
        <ele>339</ele>
        <time>2022-08-12T07:40:52Z</time>
      </trkpt>
      <trkpt lat="46.25968" lon="5.41678">
        <ele>337.8</ele>
        <time>2022-08-12T07:40:58Z</time>
      </trkpt>
      <trkpt lat="46.25961" lon="5.41658">
        <ele>337.2</ele>
        <time>2022-08-12T07:41:00Z</time>
      </trkpt>
      <trkpt lat="46.25951" lon="5.41639">
        <ele>336.6</ele>
        <time>2022-08-12T07:41:02Z</time>
      </trkpt>
      <trkpt lat="46.25939" lon="5.41624">
        <ele>336.2</ele>
        <time>2022-08-12T07:41:04Z</time>
      </trkpt>
      <trkpt lat="46.25925" lon="5.41611">
        <ele>336</ele>
        <time>2022-08-12T07:41:06Z</time>
      </trkpt>
      <trkpt lat="46.25918" lon="5.41607">
        <ele>335.8</ele>
        <time>2022-08-12T07:41:07Z</time>
      </trkpt>
      <trkpt lat="46.25895" lon="5.41598">
        <ele>335.4</ele>
        <time>2022-08-12T07:41:10Z</time>
      </trkpt>
      <trkpt lat="46.25879" lon="5.41593">
        <ele>335</ele>
        <time>2022-08-12T07:41:12Z</time>
      </trkpt>
      <trkpt lat="46.25824" lon="5.41573">
        <ele>333.8</ele>
        <time>2022-08-12T07:41:19Z</time>
      </trkpt>
      <trkpt lat="46.2577" lon="5.41556">
        <ele>333.4</ele>
        <time>2022-08-12T07:41:26Z</time>
      </trkpt>
      <trkpt lat="46.25762" lon="5.41553">
        <ele>333.4</ele>
        <time>2022-08-12T07:41:27Z</time>
      </trkpt>
      <trkpt lat="46.25714" lon="5.41533">
        <ele>332.4</ele>
        <time>2022-08-12T07:41:33Z</time>
      </trkpt>
      <trkpt lat="46.25706" lon="5.4153">
        <ele>332</ele>
        <time>2022-08-12T07:41:34Z</time>
      </trkpt>
      <trkpt lat="46.25687" lon="5.41521">
        <ele>331</ele>
        <time>2022-08-12T07:41:36Z</time>
      </trkpt>
      <trkpt lat="46.25659" lon="5.41508">
        <ele>329.8</ele>
        <time>2022-08-12T07:41:39Z</time>
      </trkpt>
      <trkpt lat="46.25632" lon="5.41496">
        <ele>328.4</ele>
        <time>2022-08-12T07:41:42Z</time>
      </trkpt>
      <trkpt lat="46.25612" lon="5.41487">
        <ele>327.2</ele>
        <time>2022-08-12T07:41:44Z</time>
      </trkpt>
      <trkpt lat="46.25589" lon="5.41476">
        <ele>326</ele>
        <time>2022-08-12T07:41:46Z</time>
      </trkpt>
      <trkpt lat="46.25571" lon="5.41468">
        <ele>324.6</ele>
        <time>2022-08-12T07:41:48Z</time>
      </trkpt>
      <trkpt lat="46.25549" lon="5.41459">
        <ele>323.2</ele>
        <time>2022-08-12T07:41:50Z</time>
      </trkpt>
      <trkpt lat="46.25526" lon="5.41448">
        <ele>323</ele>
        <time>2022-08-12T07:41:52Z</time>
      </trkpt>
      <trkpt lat="46.25506" lon="5.41438">
        <ele>321.2</ele>
        <time>2022-08-12T07:41:54Z</time>
      </trkpt>
      <trkpt lat="46.25484" lon="5.41428">
        <ele>319.2</ele>
        <time>2022-08-12T07:41:56Z</time>
      </trkpt>
      <trkpt lat="46.25462" lon="5.41418">
        <ele>318.2</ele>
        <time>2022-08-12T07:41:58Z</time>
      </trkpt>
      <trkpt lat="46.25429" lon="5.41404">
        <ele>316.4</ele>
        <time>2022-08-12T07:42:01Z</time>
      </trkpt>
      <trkpt lat="46.25405" lon="5.41393">
        <ele>315.2</ele>
        <time>2022-08-12T07:42:03Z</time>
      </trkpt>
      <trkpt lat="46.25377" lon="5.41381">
        <ele>313.8</ele>
        <time>2022-08-12T07:42:06Z</time>
      </trkpt>
      <trkpt lat="46.25356" lon="5.41372">
        <ele>313.2</ele>
        <time>2022-08-12T07:42:08Z</time>
      </trkpt>
      <trkpt lat="46.2534" lon="5.41366">
        <ele>312.8</ele>
        <time>2022-08-12T07:42:10Z</time>
      </trkpt>
      <trkpt lat="46.25315" lon="5.41352">
        <ele>312.6</ele>
        <time>2022-08-12T07:42:13Z</time>
      </trkpt>
      <trkpt lat="46.25306" lon="5.41336">
        <ele>312.8</ele>
        <time>2022-08-12T07:42:15Z</time>
      </trkpt>
      <trkpt lat="46.25307" lon="5.41317">
        <ele>313</ele>
        <time>2022-08-12T07:42:17Z</time>
      </trkpt>
      <trkpt lat="46.2531" lon="5.41306">
        <ele>312.8</ele>
        <time>2022-08-12T07:42:18Z</time>
      </trkpt>
      <trkpt lat="46.25324" lon="5.41261">
        <ele>312.6</ele>
        <time>2022-08-12T07:42:22Z</time>
      </trkpt>
      <trkpt lat="46.25342" lon="5.41199">
        <ele>311.6</ele>
        <time>2022-08-12T07:42:27Z</time>
      </trkpt>
      <trkpt lat="46.25351" lon="5.41164">
        <ele>311.6</ele>
        <time>2022-08-12T07:42:30Z</time>
      </trkpt>
      <trkpt lat="46.25371" lon="5.4109">
        <ele>311.8</ele>
        <time>2022-08-12T07:42:37Z</time>
      </trkpt>
      <trkpt lat="46.25384" lon="5.41041">
        <ele>312.8</ele>
        <time>2022-08-12T07:42:42Z</time>
      </trkpt>
      <trkpt lat="46.25389" lon="5.41021">
        <ele>313.2</ele>
        <time>2022-08-12T07:42:44Z</time>
      </trkpt>
      <trkpt lat="46.25408" lon="5.40955">
        <ele>314</ele>
        <time>2022-08-12T07:42:51Z</time>
      </trkpt>
      <trkpt lat="46.25423" lon="5.40901">
        <ele>314.4</ele>
        <time>2022-08-12T07:42:57Z</time>
      </trkpt>
      <trkpt lat="46.25435" lon="5.40856">
        <ele>315.4</ele>
        <time>2022-08-12T07:43:02Z</time>
      </trkpt>
      <trkpt lat="46.25439" lon="5.40839">
        <ele>315.6</ele>
        <time>2022-08-12T07:43:04Z</time>
      </trkpt>
      <trkpt lat="46.25441" lon="5.4083">
        <ele>315.6</ele>
        <time>2022-08-12T07:43:05Z</time>
      </trkpt>
      <trkpt lat="46.25462" lon="5.40755">
        <ele>315.2</ele>
        <time>2022-08-12T07:43:13Z</time>
      </trkpt>
      <trkpt lat="46.25483" lon="5.40674">
        <ele>315.6</ele>
        <time>2022-08-12T07:43:21Z</time>
      </trkpt>
      <trkpt lat="46.25486" lon="5.40664">
        <ele>315.6</ele>
        <time>2022-08-12T07:43:22Z</time>
      </trkpt>
      <trkpt lat="46.25505" lon="5.40591">
        <ele>314.8</ele>
        <time>2022-08-12T07:43:29Z</time>
      </trkpt>
      <trkpt lat="46.25508" lon="5.40581">
        <ele>314.8</ele>
        <time>2022-08-12T07:43:30Z</time>
      </trkpt>
      <trkpt lat="46.25524" lon="5.4052">
        <ele>314.6</ele>
        <time>2022-08-12T07:43:36Z</time>
      </trkpt>
      <trkpt lat="46.25542" lon="5.40451">
        <ele>315.4</ele>
        <time>2022-08-12T07:43:43Z</time>
      </trkpt>
      <trkpt lat="46.25557" lon="5.40397">
        <ele>316.2</ele>
        <time>2022-08-12T07:43:49Z</time>
      </trkpt>
      <trkpt lat="46.2556" lon="5.40381">
        <ele>316.6</ele>
        <time>2022-08-12T07:43:51Z</time>
      </trkpt>
      <trkpt lat="46.25561" lon="5.40364">
        <ele>317</ele>
        <time>2022-08-12T07:43:53Z</time>
      </trkpt>
      <trkpt lat="46.2556" lon="5.40347">
        <ele>317.6</ele>
        <time>2022-08-12T07:43:55Z</time>
      </trkpt>
      <trkpt lat="46.25557" lon="5.40323">
        <ele>318.8</ele>
        <time>2022-08-12T07:43:58Z</time>
      </trkpt>
      <trkpt lat="46.25555" lon="5.40315">
        <ele>318.8</ele>
        <time>2022-08-12T07:43:59Z</time>
      </trkpt>
      <trkpt lat="46.25553" lon="5.40307">
        <ele>319</ele>
        <time>2022-08-12T07:44:00Z</time>
      </trkpt>
      <trkpt lat="46.25544" lon="5.40279">
        <ele>319.4</ele>
        <time>2022-08-12T07:44:04Z</time>
      </trkpt>
      <trkpt lat="46.25538" lon="5.40267">
        <ele>319.8</ele>
        <time>2022-08-12T07:44:06Z</time>
      </trkpt>
      <trkpt lat="46.25527" lon="5.40252">
        <ele>320.8</ele>
        <time>2022-08-12T07:44:09Z</time>
      </trkpt>
      <trkpt lat="46.25523" lon="5.40247">
        <ele>321</ele>
        <time>2022-08-12T07:44:10Z</time>
      </trkpt>
      <trkpt lat="46.25494" lon="5.40218">
        <ele>322.2</ele>
        <time>2022-08-12T07:44:17Z</time>
      </trkpt>
      <trkpt lat="46.2549" lon="5.40214">
        <ele>322.4</ele>
        <time>2022-08-12T07:44:18Z</time>
      </trkpt>
      <trkpt lat="46.25458" lon="5.40185">
        <ele>323.6</ele>
        <time>2022-08-12T07:44:26Z</time>
      </trkpt>
      <trkpt lat="46.2545" lon="5.40177">
        <ele>323.8</ele>
        <time>2022-08-12T07:44:28Z</time>
      </trkpt>
      <trkpt lat="46.2543" lon="5.40159">
        <ele>324.6</ele>
        <time>2022-08-12T07:44:33Z</time>
      </trkpt>
      <trkpt lat="46.25411" lon="5.40141">
        <ele>325.6</ele>
        <time>2022-08-12T07:44:38Z</time>
      </trkpt>
      <trkpt lat="46.25408" lon="5.40137">
        <ele>326</ele>
        <time>2022-08-12T07:44:39Z</time>
      </trkpt>
      <trkpt lat="46.25393" lon="5.40124">
        <ele>327.2</ele>
        <time>2022-08-12T07:44:43Z</time>
      </trkpt>
      <trkpt lat="46.25382" lon="5.40113">
        <ele>327.6</ele>
        <time>2022-08-12T07:44:46Z</time>
      </trkpt>
      <trkpt lat="46.25371" lon="5.40102">
        <ele>328.4</ele>
        <time>2022-08-12T07:44:49Z</time>
      </trkpt>
      <trkpt lat="46.25351" lon="5.40086">
        <ele>329.4</ele>
        <time>2022-08-12T07:44:54Z</time>
      </trkpt>
      <trkpt lat="46.25347" lon="5.40083">
        <ele>329.6</ele>
        <time>2022-08-12T07:44:55Z</time>
      </trkpt>
      <trkpt lat="46.25343" lon="5.40081">
        <ele>329.8</ele>
        <time>2022-08-12T07:44:56Z</time>
      </trkpt>
      <trkpt lat="46.25321" lon="5.4007">
        <ele>330.6</ele>
        <time>2022-08-12T07:45:01Z</time>
      </trkpt>
      <trkpt lat="46.25307" lon="5.40067">
        <ele>331.4</ele>
        <time>2022-08-12T07:45:04Z</time>
      </trkpt>
      <trkpt lat="46.25303" lon="5.40067">
        <ele>331.6</ele>
        <time>2022-08-12T07:45:05Z</time>
      </trkpt>
      <trkpt lat="46.25279" lon="5.40066">
        <ele>332.6</ele>
        <time>2022-08-12T07:45:10Z</time>
      </trkpt>
      <trkpt lat="46.25276" lon="5.40066">
        <ele>332.6</ele>
        <time>2022-08-12T07:45:11Z</time>
      </trkpt>
      <trkpt lat="46.2527" lon="5.40067">
        <ele>332.8</ele>
        <time>2022-08-12T07:45:12Z</time>
      </trkpt>
      <trkpt lat="46.25248" lon="5.40068">
        <ele>334</ele>
        <time>2022-08-12T07:45:17Z</time>
      </trkpt>
      <trkpt lat="46.25244" lon="5.40068">
        <ele>334.2</ele>
        <time>2022-08-12T07:45:18Z</time>
      </trkpt>
      <trkpt lat="46.25239" lon="5.40069">
        <ele>334</ele>
        <time>2022-08-12T07:45:19Z</time>
      </trkpt>
      <trkpt lat="46.25225" lon="5.40069">
        <ele>335</ele>
        <time>2022-08-12T07:45:22Z</time>
      </trkpt>
      <trkpt lat="46.25211" lon="5.40067">
        <ele>335.6</ele>
        <time>2022-08-12T07:45:25Z</time>
      </trkpt>
      <trkpt lat="46.25207" lon="5.40066">
        <ele>335.8</ele>
        <time>2022-08-12T07:45:26Z</time>
      </trkpt>
      <trkpt lat="46.25202" lon="5.40065">
        <ele>336.2</ele>
        <time>2022-08-12T07:45:27Z</time>
      </trkpt>
      <trkpt lat="46.25181" lon="5.40056">
        <ele>337.4</ele>
        <time>2022-08-12T07:45:32Z</time>
      </trkpt>
      <trkpt lat="46.25171" lon="5.40052">
        <ele>337.8</ele>
        <time>2022-08-12T07:45:34Z</time>
      </trkpt>
      <trkpt lat="46.25163" lon="5.40049">
        <ele>338.4</ele>
        <time>2022-08-12T07:45:36Z</time>
      </trkpt>
      <trkpt lat="46.25142" lon="5.40036">
        <ele>339.2</ele>
        <time>2022-08-12T07:45:41Z</time>
      </trkpt>
      <trkpt lat="46.25133" lon="5.4003">
        <ele>339.6</ele>
        <time>2022-08-12T07:45:43Z</time>
      </trkpt>
      <trkpt lat="46.25113" lon="5.40015">
        <ele>340.8</ele>
        <time>2022-08-12T07:45:48Z</time>
      </trkpt>
      <trkpt lat="46.25096" lon="5.40001">
        <ele>341.4</ele>
        <time>2022-08-12T07:45:52Z</time>
      </trkpt>
      <trkpt lat="46.25085" lon="5.39991">
        <ele>341.8</ele>
        <time>2022-08-12T07:45:55Z</time>
      </trkpt>
      <trkpt lat="46.25065" lon="5.39973">
        <ele>343</ele>
        <time>2022-08-12T07:46:00Z</time>
      </trkpt>
      <trkpt lat="46.25058" lon="5.39965">
        <ele>343.4</ele>
        <time>2022-08-12T07:46:02Z</time>
      </trkpt>
      <trkpt lat="46.2504" lon="5.39942">
        <ele>344.2</ele>
        <time>2022-08-12T07:46:07Z</time>
      </trkpt>
      <trkpt lat="46.25031" lon="5.39926">
        <ele>344.6</ele>
        <time>2022-08-12T07:46:10Z</time>
      </trkpt>
      <trkpt lat="46.25024" lon="5.39911">
        <ele>345.4</ele>
        <time>2022-08-12T07:46:13Z</time>
      </trkpt>
      <trkpt lat="46.25009" lon="5.39884">
        <ele>346.4</ele>
        <time>2022-08-12T07:46:18Z</time>
      </trkpt>
      <trkpt lat="46.25005" lon="5.39877">
        <ele>346.6</ele>
        <time>2022-08-12T07:46:19Z</time>
      </trkpt>
      <trkpt lat="46.24997" lon="5.3986">
        <ele>347.6</ele>
        <time>2022-08-12T07:46:22Z</time>
      </trkpt>
      <trkpt lat="46.24986" lon="5.39839">
        <ele>348.2</ele>
        <time>2022-08-12T07:46:26Z</time>
      </trkpt>
      <trkpt lat="46.24984" lon="5.39833">
        <ele>348.4</ele>
        <time>2022-08-12T07:46:27Z</time>
      </trkpt>
      <trkpt lat="46.24982" lon="5.39827">
        <ele>348.8</ele>
        <time>2022-08-12T07:46:28Z</time>
      </trkpt>
      <trkpt lat="46.24974" lon="5.39794">
        <ele>349.8</ele>
        <time>2022-08-12T07:46:33Z</time>
      </trkpt>
      <trkpt lat="46.24973" lon="5.39788">
        <ele>350</ele>
        <time>2022-08-12T07:46:34Z</time>
      </trkpt>
      <trkpt lat="46.2497" lon="5.39746">
        <ele>350.4</ele>
        <time>2022-08-12T07:46:40Z</time>
      </trkpt>
      <trkpt lat="46.2497" lon="5.39741">
        <ele>350.8</ele>
        <time>2022-08-12T07:46:41Z</time>
      </trkpt>
      <trkpt lat="46.2497" lon="5.39734">
        <ele>351.2</ele>
        <time>2022-08-12T07:46:42Z</time>
      </trkpt>
      <trkpt lat="46.24968" lon="5.39705">
        <ele>352.2</ele>
        <time>2022-08-12T07:46:46Z</time>
      </trkpt>
      <trkpt lat="46.24967" lon="5.39697">
        <ele>352.2</ele>
        <time>2022-08-12T07:46:47Z</time>
      </trkpt>
      <trkpt lat="46.24962" lon="5.39648">
        <ele>353.4</ele>
        <time>2022-08-12T07:46:54Z</time>
      </trkpt>
      <trkpt lat="46.24961" lon="5.39643">
        <ele>353.6</ele>
        <time>2022-08-12T07:46:55Z</time>
      </trkpt>
      <trkpt lat="46.24959" lon="5.39621">
        <ele>354.6</ele>
        <time>2022-08-12T07:46:58Z</time>
      </trkpt>
      <trkpt lat="46.24956" lon="5.39589">
        <ele>355.6</ele>
        <time>2022-08-12T07:47:03Z</time>
      </trkpt>
      <trkpt lat="46.24956" lon="5.39584">
        <ele>355.6</ele>
        <time>2022-08-12T07:47:04Z</time>
      </trkpt>
      <trkpt lat="46.24951" lon="5.39544">
        <ele>356.8</ele>
        <time>2022-08-12T07:47:10Z</time>
      </trkpt>
      <trkpt lat="46.24951" lon="5.39538">
        <ele>356.8</ele>
        <time>2022-08-12T07:47:11Z</time>
      </trkpt>
      <trkpt lat="46.24949" lon="5.39512">
        <ele>357.8</ele>
        <time>2022-08-12T07:47:15Z</time>
      </trkpt>
      <trkpt lat="46.24945" lon="5.39482">
        <ele>358.8</ele>
        <time>2022-08-12T07:47:20Z</time>
      </trkpt>
      <trkpt lat="46.24943" lon="5.39469">
        <ele>359.2</ele>
        <time>2022-08-12T07:47:22Z</time>
      </trkpt>
      <trkpt lat="46.24941" lon="5.3945">
        <ele>359.8</ele>
        <time>2022-08-12T07:47:25Z</time>
      </trkpt>
      <trkpt lat="46.24941" lon="5.39444">
        <ele>360.2</ele>
        <time>2022-08-12T07:47:26Z</time>
      </trkpt>
      <trkpt lat="46.24939" lon="5.39419">
        <ele>360.8</ele>
        <time>2022-08-12T07:47:30Z</time>
      </trkpt>
      <trkpt lat="46.24935" lon="5.39387">
        <ele>362</ele>
        <time>2022-08-12T07:47:35Z</time>
      </trkpt>
      <trkpt lat="46.24933" lon="5.39368">
        <ele>362.6</ele>
        <time>2022-08-12T07:47:38Z</time>
      </trkpt>
      <trkpt lat="46.2493" lon="5.3935">
        <ele>363</ele>
        <time>2022-08-12T07:47:41Z</time>
      </trkpt>
      <trkpt lat="46.24924" lon="5.39326">
        <ele>364.2</ele>
        <time>2022-08-12T07:47:45Z</time>
      </trkpt>
      <trkpt lat="46.24921" lon="5.39315">
        <ele>364.6</ele>
        <time>2022-08-12T07:47:47Z</time>
      </trkpt>
      <trkpt lat="46.24919" lon="5.39309">
        <ele>364.6</ele>
        <time>2022-08-12T07:47:48Z</time>
      </trkpt>
      <trkpt lat="46.24912" lon="5.39292">
        <ele>365.2</ele>
        <time>2022-08-12T07:47:51Z</time>
      </trkpt>
      <trkpt lat="46.2491" lon="5.39286">
        <ele>365.4</ele>
        <time>2022-08-12T07:47:52Z</time>
      </trkpt>
      <trkpt lat="46.24906" lon="5.39275">
        <ele>365.6</ele>
        <time>2022-08-12T07:47:54Z</time>
      </trkpt>
      <trkpt lat="46.24899" lon="5.39258">
        <ele>366.2</ele>
        <time>2022-08-12T07:47:57Z</time>
      </trkpt>
      <trkpt lat="46.24896" lon="5.39252">
        <ele>366.6</ele>
        <time>2022-08-12T07:47:58Z</time>
      </trkpt>
      <trkpt lat="46.24889" lon="5.39235">
        <ele>367.6</ele>
        <time>2022-08-12T07:48:01Z</time>
      </trkpt>
      <trkpt lat="46.24876" lon="5.39204">
        <ele>368.2</ele>
        <time>2022-08-12T07:48:06Z</time>
      </trkpt>
      <trkpt lat="46.24864" lon="5.39177">
        <ele>368.4</ele>
        <time>2022-08-12T07:48:10Z</time>
      </trkpt>
      <trkpt lat="46.24844" lon="5.39131">
        <ele>368.4</ele>
        <time>2022-08-12T07:48:17Z</time>
      </trkpt>
      <trkpt lat="46.24842" lon="5.39124">
        <ele>368.4</ele>
        <time>2022-08-12T07:48:18Z</time>
      </trkpt>
      <trkpt lat="46.24843" lon="5.39111">
        <ele>368.4</ele>
        <time>2022-08-12T07:48:20Z</time>
      </trkpt>
      <trkpt lat="46.24849" lon="5.39105">
        <ele>368.6</ele>
        <time>2022-08-12T07:48:22Z</time>
      </trkpt>
      <trkpt lat="46.24853" lon="5.39105">
        <ele>368.6</ele>
        <time>2022-08-12T07:48:23Z</time>
      </trkpt>
      <trkpt lat="46.24857" lon="5.39106">
        <ele>368.8</ele>
        <time>2022-08-12T07:48:24Z</time>
      </trkpt>
      <trkpt lat="46.24875" lon="5.39115">
        <ele>369.6</ele>
        <time>2022-08-12T07:48:28Z</time>
      </trkpt>
      <trkpt lat="46.24881" lon="5.39117">
        <ele>370</ele>
        <time>2022-08-12T07:48:29Z</time>
      </trkpt>
      <trkpt lat="46.24906" lon="5.39124">
        <ele>371.2</ele>
        <time>2022-08-12T07:48:34Z</time>
      </trkpt>
      <trkpt lat="46.2491" lon="5.39126">
        <ele>371.2</ele>
        <time>2022-08-12T07:48:35Z</time>
      </trkpt>
      <trkpt lat="46.24938" lon="5.39135">
        <ele>372.4</ele>
        <time>2022-08-12T07:48:41Z</time>
      </trkpt>
      <trkpt lat="46.24953" lon="5.39141">
        <ele>373.6</ele>
        <time>2022-08-12T07:48:45Z</time>
      </trkpt>
      <trkpt lat="46.24976" lon="5.39149">
        <ele>374.6</ele>
        <time>2022-08-12T07:48:50Z</time>
      </trkpt>
      <trkpt lat="46.24993" lon="5.39155">
        <ele>375.2</ele>
        <time>2022-08-12T07:48:54Z</time>
      </trkpt>
      <trkpt lat="46.25013" lon="5.39161">
        <ele>375.8</ele>
        <time>2022-08-12T07:48:59Z</time>
      </trkpt>
      <trkpt lat="46.25021" lon="5.39164">
        <ele>376.2</ele>
        <time>2022-08-12T07:49:01Z</time>
      </trkpt>
      <trkpt lat="46.25033" lon="5.39167">
        <ele>376.8</ele>
        <time>2022-08-12T07:49:04Z</time>
      </trkpt>
      <trkpt lat="46.25052" lon="5.39171">
        <ele>378</ele>
        <time>2022-08-12T07:49:09Z</time>
      </trkpt>
      <trkpt lat="46.25059" lon="5.39173">
        <ele>378.4</ele>
        <time>2022-08-12T07:49:11Z</time>
      </trkpt>
      <trkpt lat="46.25078" lon="5.39177">
        <ele>379.2</ele>
        <time>2022-08-12T07:49:16Z</time>
      </trkpt>
      <trkpt lat="46.25095" lon="5.3918">
        <ele>380.4</ele>
        <time>2022-08-12T07:49:21Z</time>
      </trkpt>
      <trkpt lat="46.25099" lon="5.39181">
        <ele>380.6</ele>
        <time>2022-08-12T07:49:22Z</time>
      </trkpt>
      <trkpt lat="46.25109" lon="5.39184">
        <ele>381.6</ele>
        <time>2022-08-12T07:49:25Z</time>
      </trkpt>
      <trkpt lat="46.25125" lon="5.3919">
        <ele>382.6</ele>
        <time>2022-08-12T07:49:30Z</time>
      </trkpt>
      <trkpt lat="46.25132" lon="5.39194">
        <ele>383.2</ele>
        <time>2022-08-12T07:49:32Z</time>
      </trkpt>
      <trkpt lat="46.25138" lon="5.39196">
        <ele>383.8</ele>
        <time>2022-08-12T07:49:34Z</time>
      </trkpt>
      <trkpt lat="46.25155" lon="5.39203">
        <ele>385</ele>
        <time>2022-08-12T07:49:39Z</time>
      </trkpt>
      <trkpt lat="46.25158" lon="5.39204">
        <ele>385.2</ele>
        <time>2022-08-12T07:49:40Z</time>
      </trkpt>
      <trkpt lat="46.2517" lon="5.3921">
        <ele>386.4</ele>
        <time>2022-08-12T07:49:44Z</time>
      </trkpt>
      <trkpt lat="46.25177" lon="5.39212">
        <ele>386.8</ele>
        <time>2022-08-12T07:49:46Z</time>
      </trkpt>
      <trkpt lat="46.25188" lon="5.39215">
        <ele>387.4</ele>
        <time>2022-08-12T07:49:49Z</time>
      </trkpt>
      <trkpt lat="46.25206" lon="5.39219">
        <ele>388</ele>
        <time>2022-08-12T07:49:54Z</time>
      </trkpt>
      <trkpt lat="46.25213" lon="5.39219">
        <ele>388.6</ele>
        <time>2022-08-12T07:49:56Z</time>
      </trkpt>
      <trkpt lat="46.25224" lon="5.3922">
        <ele>389.8</ele>
        <time>2022-08-12T07:49:59Z</time>
      </trkpt>
      <trkpt lat="46.25239" lon="5.3922">
        <ele>391</ele>
        <time>2022-08-12T07:50:03Z</time>
      </trkpt>
      <trkpt lat="46.2526" lon="5.39221">
        <ele>392</ele>
        <time>2022-08-12T07:50:09Z</time>
      </trkpt>
      <trkpt lat="46.25263" lon="5.39221">
        <ele>392.2</ele>
        <time>2022-08-12T07:50:10Z</time>
      </trkpt>
      <trkpt lat="46.25287" lon="5.39224">
        <ele>393.4</ele>
        <time>2022-08-12T07:50:17Z</time>
      </trkpt>
      <trkpt lat="46.25304" lon="5.39226">
        <ele>394.6</ele>
        <time>2022-08-12T07:50:22Z</time>
      </trkpt>
      <trkpt lat="46.25308" lon="5.39226">
        <ele>395</ele>
        <time>2022-08-12T07:50:23Z</time>
      </trkpt>
      <trkpt lat="46.25319" lon="5.39227">
        <ele>395.6</ele>
        <time>2022-08-12T07:50:26Z</time>
      </trkpt>
      <trkpt lat="46.25328" lon="5.39227">
        <ele>395.8</ele>
        <time>2022-08-12T07:50:28Z</time>
      </trkpt>
      <trkpt lat="46.25355" lon="5.39226">
        <ele>396.8</ele>
        <time>2022-08-12T07:50:34Z</time>
      </trkpt>
      <trkpt lat="46.25359" lon="5.39225">
        <ele>397.2</ele>
        <time>2022-08-12T07:50:35Z</time>
      </trkpt>
      <trkpt lat="46.25389" lon="5.39217">
        <ele>398.2</ele>
        <time>2022-08-12T07:50:42Z</time>
      </trkpt>
      <trkpt lat="46.25401" lon="5.39213">
        <ele>399.2</ele>
        <time>2022-08-12T07:50:45Z</time>
      </trkpt>
      <trkpt lat="46.25405" lon="5.3921">
        <ele>399.4</ele>
        <time>2022-08-12T07:50:46Z</time>
      </trkpt>
      <trkpt lat="46.25433" lon="5.39198">
        <ele>400</ele>
        <time>2022-08-12T07:50:52Z</time>
      </trkpt>
      <trkpt lat="46.25462" lon="5.39188">
        <ele>400.4</ele>
        <time>2022-08-12T07:50:58Z</time>
      </trkpt>
      <trkpt lat="46.25471" lon="5.39185">
        <ele>400.4</ele>
        <time>2022-08-12T07:51:00Z</time>
      </trkpt>
      <trkpt lat="46.25489" lon="5.39179">
        <ele>401.4</ele>
        <time>2022-08-12T07:51:04Z</time>
      </trkpt>
      <trkpt lat="46.25497" lon="5.39175">
        <ele>402</ele>
        <time>2022-08-12T07:51:06Z</time>
      </trkpt>
      <trkpt lat="46.25505" lon="5.39169">
        <ele>402.2</ele>
        <time>2022-08-12T07:51:08Z</time>
      </trkpt>
      <trkpt lat="46.25511" lon="5.3916">
        <ele>402.6</ele>
        <time>2022-08-12T07:51:10Z</time>
      </trkpt>
      <trkpt lat="46.25518" lon="5.39144">
        <ele>403.4</ele>
        <time>2022-08-12T07:51:13Z</time>
      </trkpt>
      <trkpt lat="46.25522" lon="5.39132">
        <ele>403.8</ele>
        <time>2022-08-12T07:51:15Z</time>
      </trkpt>
      <trkpt lat="46.25523" lon="5.39114">
        <ele>404.4</ele>
        <time>2022-08-12T07:51:18Z</time>
      </trkpt>
      <trkpt lat="46.25523" lon="5.39101">
        <ele>405</ele>
        <time>2022-08-12T07:51:20Z</time>
      </trkpt>
      <trkpt lat="46.25523" lon="5.39074">
        <ele>406</ele>
        <time>2022-08-12T07:51:24Z</time>
      </trkpt>
      <trkpt lat="46.25522" lon="5.39068">
        <ele>406.2</ele>
        <time>2022-08-12T07:51:25Z</time>
      </trkpt>
      <trkpt lat="46.25523" lon="5.39049">
        <ele>406.8</ele>
        <time>2022-08-12T07:51:28Z</time>
      </trkpt>
      <trkpt lat="46.25524" lon="5.39043">
        <ele>407.2</ele>
        <time>2022-08-12T07:51:29Z</time>
      </trkpt>
      <trkpt lat="46.25525" lon="5.39038">
        <ele>407.4</ele>
        <time>2022-08-12T07:51:30Z</time>
      </trkpt>
      <trkpt lat="46.25527" lon="5.39032">
        <ele>407.6</ele>
        <time>2022-08-12T07:51:31Z</time>
      </trkpt>
      <trkpt lat="46.25533" lon="5.39022">
        <ele>407.8</ele>
        <time>2022-08-12T07:51:33Z</time>
      </trkpt>
      <trkpt lat="46.25536" lon="5.39017">
        <ele>408.2</ele>
        <time>2022-08-12T07:51:34Z</time>
      </trkpt>
      <trkpt lat="46.25539" lon="5.39012">
        <ele>408.2</ele>
        <time>2022-08-12T07:51:35Z</time>
      </trkpt>
      <trkpt lat="46.25543" lon="5.39008">
        <ele>408.6</ele>
        <time>2022-08-12T07:51:36Z</time>
      </trkpt>
      <trkpt lat="46.25564" lon="5.38984">
        <ele>409.2</ele>
        <time>2022-08-12T07:51:41Z</time>
      </trkpt>
      <trkpt lat="46.25572" lon="5.38975">
        <ele>409.4</ele>
        <time>2022-08-12T07:51:43Z</time>
      </trkpt>
      <trkpt lat="46.25598" lon="5.38948">
        <ele>410.2</ele>
        <time>2022-08-12T07:51:49Z</time>
      </trkpt>
      <trkpt lat="46.25606" lon="5.38938">
        <ele>410.2</ele>
        <time>2022-08-12T07:51:51Z</time>
      </trkpt>
      <trkpt lat="46.25631" lon="5.38904">
        <ele>411.4</ele>
        <time>2022-08-12T07:51:58Z</time>
      </trkpt>
      <trkpt lat="46.25634" lon="5.38899">
        <ele>411.6</ele>
        <time>2022-08-12T07:51:59Z</time>
      </trkpt>
      <trkpt lat="46.2565" lon="5.38875">
        <ele>412.6</ele>
        <time>2022-08-12T07:52:04Z</time>
      </trkpt>
      <trkpt lat="46.25666" lon="5.38852">
        <ele>413.6</ele>
        <time>2022-08-12T07:52:09Z</time>
      </trkpt>
      <trkpt lat="46.25669" lon="5.38847">
        <ele>413.8</ele>
        <time>2022-08-12T07:52:10Z</time>
      </trkpt>
      <trkpt lat="46.25678" lon="5.38833">
        <ele>414.2</ele>
        <time>2022-08-12T07:52:13Z</time>
      </trkpt>
      <trkpt lat="46.25685" lon="5.38823">
        <ele>414.6</ele>
        <time>2022-08-12T07:52:15Z</time>
      </trkpt>
      <trkpt lat="46.25704" lon="5.38795">
        <ele>415.4</ele>
        <time>2022-08-12T07:52:21Z</time>
      </trkpt>
      <trkpt lat="46.25708" lon="5.3879">
        <ele>415.8</ele>
        <time>2022-08-12T07:52:22Z</time>
      </trkpt>
      <trkpt lat="46.25714" lon="5.38781">
        <ele>416.4</ele>
        <time>2022-08-12T07:52:24Z</time>
      </trkpt>
      <trkpt lat="46.25722" lon="5.38773">
        <ele>416.8</ele>
        <time>2022-08-12T07:52:26Z</time>
      </trkpt>
      <trkpt lat="46.25725" lon="5.38769">
        <ele>417.2</ele>
        <time>2022-08-12T07:52:27Z</time>
      </trkpt>
      <trkpt lat="46.25729" lon="5.38766">
        <ele>417.8</ele>
        <time>2022-08-12T07:52:28Z</time>
      </trkpt>
      <trkpt lat="46.25733" lon="5.38764">
        <ele>418</ele>
        <time>2022-08-12T07:52:29Z</time>
      </trkpt>
      <trkpt lat="46.25747" lon="5.38757">
        <ele>418.4</ele>
        <time>2022-08-12T07:52:32Z</time>
      </trkpt>
      <trkpt lat="46.25761" lon="5.38753">
        <ele>419</ele>
        <time>2022-08-12T07:52:35Z</time>
      </trkpt>
      <trkpt lat="46.25775" lon="5.3875">
        <ele>419.4</ele>
        <time>2022-08-12T07:52:38Z</time>
      </trkpt>
      <trkpt lat="46.25778" lon="5.38749">
        <ele>419.4</ele>
        <time>2022-08-12T07:52:39Z</time>
      </trkpt>
      <trkpt lat="46.25787" lon="5.38743">
        <ele>419.6</ele>
        <time>2022-08-12T07:52:41Z</time>
      </trkpt>
      <trkpt lat="46.25794" lon="5.38735">
        <ele>420</ele>
        <time>2022-08-12T07:52:43Z</time>
      </trkpt>
      <trkpt lat="46.25797" lon="5.3873">
        <ele>420.2</ele>
        <time>2022-08-12T07:52:44Z</time>
      </trkpt>
      <trkpt lat="46.258" lon="5.38724">
        <ele>420.4</ele>
        <time>2022-08-12T07:52:45Z</time>
      </trkpt>
      <trkpt lat="46.25803" lon="5.38712">
        <ele>421.2</ele>
        <time>2022-08-12T07:52:47Z</time>
      </trkpt>
      <trkpt lat="46.25805" lon="5.38669">
        <ele>422.4</ele>
        <time>2022-08-12T07:52:53Z</time>
      </trkpt>
      <trkpt lat="46.25807" lon="5.38628">
        <ele>423.4</ele>
        <time>2022-08-12T07:52:59Z</time>
      </trkpt>
      <trkpt lat="46.25808" lon="5.3862">
        <ele>423.4</ele>
        <time>2022-08-12T07:53:00Z</time>
      </trkpt>
      <trkpt lat="46.25808" lon="5.38615">
        <ele>423.8</ele>
        <time>2022-08-12T07:53:01Z</time>
      </trkpt>
      <trkpt lat="46.2581" lon="5.38602">
        <ele>424.4</ele>
        <time>2022-08-12T07:53:03Z</time>
      </trkpt>
      <trkpt lat="46.25811" lon="5.38595">
        <ele>424.6</ele>
        <time>2022-08-12T07:53:04Z</time>
      </trkpt>
      <trkpt lat="46.25817" lon="5.38571">
        <ele>425.6</ele>
        <time>2022-08-12T07:53:08Z</time>
      </trkpt>
      <trkpt lat="46.25829" lon="5.38543">
        <ele>426.6</ele>
        <time>2022-08-12T07:53:13Z</time>
      </trkpt>
      <trkpt lat="46.25838" lon="5.38521">
        <ele>427</ele>
        <time>2022-08-12T07:53:17Z</time>
      </trkpt>
      <trkpt lat="46.25847" lon="5.38501">
        <ele>427.4</ele>
        <time>2022-08-12T07:53:21Z</time>
      </trkpt>
      <trkpt lat="46.2585" lon="5.38496">
        <ele>427.6</ele>
        <time>2022-08-12T07:53:22Z</time>
      </trkpt>
      <trkpt lat="46.25855" lon="5.38485">
        <ele>427.8</ele>
        <time>2022-08-12T07:53:24Z</time>
      </trkpt>
      <trkpt lat="46.25872" lon="5.38461">
        <ele>428.8</ele>
        <time>2022-08-12T07:53:29Z</time>
      </trkpt>
      <trkpt lat="46.2588" lon="5.38452">
        <ele>429.2</ele>
        <time>2022-08-12T07:53:31Z</time>
      </trkpt>
      <trkpt lat="46.25887" lon="5.38444">
        <ele>429.6</ele>
        <time>2022-08-12T07:53:33Z</time>
      </trkpt>
      <trkpt lat="46.259" lon="5.38432">
        <ele>430</ele>
        <time>2022-08-12T07:53:36Z</time>
      </trkpt>
      <trkpt lat="46.25912" lon="5.3842">
        <ele>430.4</ele>
        <time>2022-08-12T07:53:39Z</time>
      </trkpt>
      <trkpt lat="46.25929" lon="5.38401">
        <ele>431</ele>
        <time>2022-08-12T07:53:43Z</time>
      </trkpt>
      <trkpt lat="46.25938" lon="5.38391">
        <ele>431.4</ele>
        <time>2022-08-12T07:53:45Z</time>
      </trkpt>
      <trkpt lat="46.25947" lon="5.38382">
        <ele>431.6</ele>
        <time>2022-08-12T07:53:47Z</time>
      </trkpt>
      <trkpt lat="46.25956" lon="5.38373">
        <ele>432</ele>
        <time>2022-08-12T07:53:49Z</time>
      </trkpt>
      <trkpt lat="46.25965" lon="5.38363">
        <ele>432.2</ele>
        <time>2022-08-12T07:53:51Z</time>
      </trkpt>
      <trkpt lat="46.25974" lon="5.38352">
        <ele>432.2</ele>
        <time>2022-08-12T07:53:53Z</time>
      </trkpt>
      <trkpt lat="46.25982" lon="5.38341">
        <ele>432.8</ele>
        <time>2022-08-12T07:53:55Z</time>
      </trkpt>
      <trkpt lat="46.25991" lon="5.38332">
        <ele>433.4</ele>
        <time>2022-08-12T07:53:57Z</time>
      </trkpt>
      <trkpt lat="46.25999" lon="5.38321">
        <ele>433.6</ele>
        <time>2022-08-12T07:53:59Z</time>
      </trkpt>
      <trkpt lat="46.26014" lon="5.38304">
        <ele>434.6</ele>
        <time>2022-08-12T07:54:03Z</time>
      </trkpt>
      <trkpt lat="46.26033" lon="5.38281">
        <ele>435.4</ele>
        <time>2022-08-12T07:54:08Z</time>
      </trkpt>
      <trkpt lat="46.2604" lon="5.38272">
        <ele>436</ele>
        <time>2022-08-12T07:54:10Z</time>
      </trkpt>
      <trkpt lat="46.26062" lon="5.38246">
        <ele>437.2</ele>
        <time>2022-08-12T07:54:16Z</time>
      </trkpt>
      <trkpt lat="46.26072" lon="5.38234">
        <ele>438.2</ele>
        <time>2022-08-12T07:54:19Z</time>
      </trkpt>
      <trkpt lat="46.26094" lon="5.38206">
        <ele>439.6</ele>
        <time>2022-08-12T07:54:25Z</time>
      </trkpt>
      <trkpt lat="46.26109" lon="5.38188">
        <ele>440.2</ele>
        <time>2022-08-12T07:54:29Z</time>
      </trkpt>
      <trkpt lat="46.26112" lon="5.38184">
        <ele>440.4</ele>
        <time>2022-08-12T07:54:30Z</time>
      </trkpt>
      <trkpt lat="46.26115" lon="5.38179">
        <ele>440.6</ele>
        <time>2022-08-12T07:54:31Z</time>
      </trkpt>
      <trkpt lat="46.26125" lon="5.38168">
        <ele>441</ele>
        <time>2022-08-12T07:54:33Z</time>
      </trkpt>
      <trkpt lat="46.26132" lon="5.38156">
        <ele>441</ele>
        <time>2022-08-12T07:54:35Z</time>
      </trkpt>
      <trkpt lat="46.26151" lon="5.38137">
        <ele>440.8</ele>
        <time>2022-08-12T07:54:39Z</time>
      </trkpt>
      <trkpt lat="46.26156" lon="5.38131">
        <ele>440.8</ele>
        <time>2022-08-12T07:54:40Z</time>
      </trkpt>
      <trkpt lat="46.26174" lon="5.38111">
        <ele>440.6</ele>
        <time>2022-08-12T07:54:43Z</time>
      </trkpt>
      <trkpt lat="46.26187" lon="5.38097">
        <ele>440.4</ele>
        <time>2022-08-12T07:54:45Z</time>
      </trkpt>
      <trkpt lat="46.26216" lon="5.3807">
        <ele>439.2</ele>
        <time>2022-08-12T07:54:49Z</time>
      </trkpt>
      <trkpt lat="46.2623" lon="5.38055">
        <ele>438</ele>
        <time>2022-08-12T07:54:51Z</time>
      </trkpt>
      <trkpt lat="46.26243" lon="5.38037">
        <ele>436.6</ele>
        <time>2022-08-12T07:54:53Z</time>
      </trkpt>
      <trkpt lat="46.26267" lon="5.3799">
        <ele>435</ele>
        <time>2022-08-12T07:54:57Z</time>
      </trkpt>
      <trkpt lat="46.26285" lon="5.37952">
        <ele>433.4</ele>
        <time>2022-08-12T07:55:00Z</time>
      </trkpt>
      <trkpt lat="46.26298" lon="5.3793">
        <ele>432.2</ele>
        <time>2022-08-12T07:55:02Z</time>
      </trkpt>
      <trkpt lat="46.26316" lon="5.37905">
        <ele>430.4</ele>
        <time>2022-08-12T07:55:04Z</time>
      </trkpt>
      <trkpt lat="46.26325" lon="5.37894">
        <ele>429</ele>
        <time>2022-08-12T07:55:05Z</time>
      </trkpt>
      <trkpt lat="46.26345" lon="5.37875">
        <ele>427.2</ele>
        <time>2022-08-12T07:55:07Z</time>
      </trkpt>
      <trkpt lat="46.26368" lon="5.37858">
        <ele>425.6</ele>
        <time>2022-08-12T07:55:09Z</time>
      </trkpt>
      <trkpt lat="46.26391" lon="5.37842">
        <ele>424.2</ele>
        <time>2022-08-12T07:55:11Z</time>
      </trkpt>
      <trkpt lat="46.26402" lon="5.37834">
        <ele>422.8</ele>
        <time>2022-08-12T07:55:12Z</time>
      </trkpt>
      <trkpt lat="46.26425" lon="5.37816">
        <ele>421.4</ele>
        <time>2022-08-12T07:55:14Z</time>
      </trkpt>
      <trkpt lat="46.26446" lon="5.37798">
        <ele>419.6</ele>
        <time>2022-08-12T07:55:16Z</time>
      </trkpt>
      <trkpt lat="46.26457" lon="5.37789">
        <ele>418.8</ele>
        <time>2022-08-12T07:55:17Z</time>
      </trkpt>
      <trkpt lat="46.26466" lon="5.37779">
        <ele>418</ele>
        <time>2022-08-12T07:55:18Z</time>
      </trkpt>
      <trkpt lat="46.26476" lon="5.37769">
        <ele>416.8</ele>
        <time>2022-08-12T07:55:19Z</time>
      </trkpt>
      <trkpt lat="46.26496" lon="5.37747">
        <ele>415.2</ele>
        <time>2022-08-12T07:55:21Z</time>
      </trkpt>
      <trkpt lat="46.26505" lon="5.37734">
        <ele>415</ele>
        <time>2022-08-12T07:55:22Z</time>
      </trkpt>
      <trkpt lat="46.26512" lon="5.3772">
        <ele>413.8</ele>
        <time>2022-08-12T07:55:23Z</time>
      </trkpt>
      <trkpt lat="46.26519" lon="5.37703">
        <ele>413.4</ele>
        <time>2022-08-12T07:55:24Z</time>
      </trkpt>
      <trkpt lat="46.26524" lon="5.37687">
        <ele>412.6</ele>
        <time>2022-08-12T07:55:25Z</time>
      </trkpt>
      <trkpt lat="46.26528" lon="5.37669">
        <ele>411.4</ele>
        <time>2022-08-12T07:55:26Z</time>
      </trkpt>
      <trkpt lat="46.2653" lon="5.37652">
        <ele>410.6</ele>
        <time>2022-08-12T07:55:27Z</time>
      </trkpt>
      <trkpt lat="46.2653" lon="5.37634">
        <ele>409.2</ele>
        <time>2022-08-12T07:55:28Z</time>
      </trkpt>
      <trkpt lat="46.26531" lon="5.376">
        <ele>407.6</ele>
        <time>2022-08-12T07:55:30Z</time>
      </trkpt>
      <trkpt lat="46.26534" lon="5.37579">
        <ele>407</ele>
        <time>2022-08-12T07:55:31Z</time>
      </trkpt>
      <trkpt lat="46.26538" lon="5.37565">
        <ele>406.2</ele>
        <time>2022-08-12T07:55:32Z</time>
      </trkpt>
      <trkpt lat="46.26548" lon="5.37511">
        <ele>404</ele>
        <time>2022-08-12T07:55:35Z</time>
      </trkpt>
      <trkpt lat="46.26549" lon="5.37476">
        <ele>402</ele>
        <time>2022-08-12T07:55:37Z</time>
      </trkpt>
      <trkpt lat="46.26554" lon="5.37439">
        <ele>401.2</ele>
        <time>2022-08-12T07:55:39Z</time>
      </trkpt>
      <trkpt lat="46.26559" lon="5.37422">
        <ele>400</ele>
        <time>2022-08-12T07:55:40Z</time>
      </trkpt>
      <trkpt lat="46.26566" lon="5.37407">
        <ele>399.2</ele>
        <time>2022-08-12T07:55:41Z</time>
      </trkpt>
      <trkpt lat="46.26574" lon="5.37394">
        <ele>398</ele>
        <time>2022-08-12T07:55:42Z</time>
      </trkpt>
      <trkpt lat="46.26584" lon="5.37382">
        <ele>397.8</ele>
        <time>2022-08-12T07:55:43Z</time>
      </trkpt>
      <trkpt lat="46.26594" lon="5.37371">
        <ele>396.4</ele>
        <time>2022-08-12T07:55:44Z</time>
      </trkpt>
      <trkpt lat="46.26604" lon="5.3736">
        <ele>395.8</ele>
        <time>2022-08-12T07:55:45Z</time>
      </trkpt>
      <trkpt lat="46.26615" lon="5.3735">
        <ele>394.8</ele>
        <time>2022-08-12T07:55:46Z</time>
      </trkpt>
      <trkpt lat="46.26633" lon="5.37331">
        <ele>393.6</ele>
        <time>2022-08-12T07:55:48Z</time>
      </trkpt>
      <trkpt lat="46.26638" lon="5.3732">
        <ele>392.8</ele>
        <time>2022-08-12T07:55:49Z</time>
      </trkpt>
      <trkpt lat="46.2664" lon="5.37308">
        <ele>392.2</ele>
        <time>2022-08-12T07:55:50Z</time>
      </trkpt>
      <trkpt lat="46.26638" lon="5.37296">
        <ele>390.8</ele>
        <time>2022-08-12T07:55:51Z</time>
      </trkpt>
      <trkpt lat="46.26633" lon="5.37285">
        <ele>390.4</ele>
        <time>2022-08-12T07:55:52Z</time>
      </trkpt>
      <trkpt lat="46.26625" lon="5.37276">
        <ele>389.6</ele>
        <time>2022-08-12T07:55:53Z</time>
      </trkpt>
      <trkpt lat="46.26615" lon="5.37268">
        <ele>388.6</ele>
        <time>2022-08-12T07:55:54Z</time>
      </trkpt>
      <trkpt lat="46.26605" lon="5.3726">
        <ele>388.2</ele>
        <time>2022-08-12T07:55:55Z</time>
      </trkpt>
      <trkpt lat="46.26584" lon="5.37244">
        <ele>387.2</ele>
        <time>2022-08-12T07:55:57Z</time>
      </trkpt>
      <trkpt lat="46.26565" lon="5.37228">
        <ele>386</ele>
        <time>2022-08-12T07:55:59Z</time>
      </trkpt>
      <trkpt lat="46.26553" lon="5.37218">
        <ele>385.4</ele>
        <time>2022-08-12T07:56:00Z</time>
      </trkpt>
      <trkpt lat="46.26545" lon="5.37211">
        <ele>384.4</ele>
        <time>2022-08-12T07:56:01Z</time>
      </trkpt>
      <trkpt lat="46.26525" lon="5.37195">
        <ele>383.2</ele>
        <time>2022-08-12T07:56:03Z</time>
      </trkpt>
      <trkpt lat="46.26504" lon="5.37179">
        <ele>382.2</ele>
        <time>2022-08-12T07:56:05Z</time>
      </trkpt>
      <trkpt lat="46.26491" lon="5.37169">
        <ele>381.8</ele>
        <time>2022-08-12T07:56:06Z</time>
      </trkpt>
      <trkpt lat="46.26472" lon="5.37154">
        <ele>380</ele>
        <time>2022-08-12T07:56:08Z</time>
      </trkpt>
      <trkpt lat="46.26448" lon="5.37134">
        <ele>378.4</ele>
        <time>2022-08-12T07:56:10Z</time>
      </trkpt>
      <trkpt lat="46.26428" lon="5.37118">
        <ele>377</ele>
        <time>2022-08-12T07:56:12Z</time>
      </trkpt>
      <trkpt lat="46.26407" lon="5.37101">
        <ele>375.6</ele>
        <time>2022-08-12T07:56:14Z</time>
      </trkpt>
      <trkpt lat="46.26397" lon="5.37092">
        <ele>374.2</ele>
        <time>2022-08-12T07:56:15Z</time>
      </trkpt>
      <trkpt lat="46.2639" lon="5.37085">
        <ele>373.6</ele>
        <time>2022-08-12T07:56:16Z</time>
      </trkpt>
      <trkpt lat="46.26386" lon="5.37078">
        <ele>372.6</ele>
        <time>2022-08-12T07:56:17Z</time>
      </trkpt>
      <trkpt lat="46.26382" lon="5.37071">
        <ele>372.2</ele>
        <time>2022-08-12T07:56:18Z</time>
      </trkpt>
      <trkpt lat="46.26381" lon="5.37063">
        <ele>371.8</ele>
        <time>2022-08-12T07:56:19Z</time>
      </trkpt>
      <trkpt lat="46.26381" lon="5.37056">
        <ele>371.4</ele>
        <time>2022-08-12T07:56:20Z</time>
      </trkpt>
      <trkpt lat="46.26386" lon="5.37057">
        <ele>371</ele>
        <time>2022-08-12T07:56:21Z</time>
      </trkpt>
      <trkpt lat="46.26393" lon="5.3706">
        <ele>370.4</ele>
        <time>2022-08-12T07:56:22Z</time>
      </trkpt>
      <trkpt lat="46.2641" lon="5.37072">
        <ele>369.4</ele>
        <time>2022-08-12T07:56:24Z</time>
      </trkpt>
      <trkpt lat="46.2642" lon="5.37079">
        <ele>369</ele>
        <time>2022-08-12T07:56:25Z</time>
      </trkpt>
      <trkpt lat="46.2644" lon="5.37091">
        <ele>367.2</ele>
        <time>2022-08-12T07:56:27Z</time>
      </trkpt>
      <trkpt lat="46.2645" lon="5.37095">
        <ele>366.6</ele>
        <time>2022-08-12T07:56:28Z</time>
      </trkpt>
      <trkpt lat="46.26461" lon="5.37099">
        <ele>365.6</ele>
        <time>2022-08-12T07:56:29Z</time>
      </trkpt>
      <trkpt lat="46.26474" lon="5.37102">
        <ele>365.2</ele>
        <time>2022-08-12T07:56:30Z</time>
      </trkpt>
      <trkpt lat="46.26484" lon="5.37102">
        <ele>364.4</ele>
        <time>2022-08-12T07:56:31Z</time>
      </trkpt>
      <trkpt lat="46.26499" lon="5.37102">
        <ele>363.8</ele>
        <time>2022-08-12T07:56:32Z</time>
      </trkpt>
      <trkpt lat="46.26512" lon="5.37102">
        <ele>363.2</ele>
        <time>2022-08-12T07:56:33Z</time>
      </trkpt>
      <trkpt lat="46.26523" lon="5.37102">
        <ele>361.8</ele>
        <time>2022-08-12T07:56:34Z</time>
      </trkpt>
      <trkpt lat="46.26553" lon="5.37103">
        <ele>360.2</ele>
        <time>2022-08-12T07:56:36Z</time>
      </trkpt>
      <trkpt lat="46.26578" lon="5.37103">
        <ele>358.4</ele>
        <time>2022-08-12T07:56:38Z</time>
      </trkpt>
      <trkpt lat="46.26609" lon="5.37104">
        <ele>356.8</ele>
        <time>2022-08-12T07:56:40Z</time>
      </trkpt>
      <trkpt lat="46.26624" lon="5.37105">
        <ele>355</ele>
        <time>2022-08-12T07:56:41Z</time>
      </trkpt>
      <trkpt lat="46.2665" lon="5.37106">
        <ele>353</ele>
        <time>2022-08-12T07:56:43Z</time>
      </trkpt>
      <trkpt lat="46.26683" lon="5.37104">
        <ele>351.6</ele>
        <time>2022-08-12T07:56:45Z</time>
      </trkpt>
      <trkpt lat="46.26712" lon="5.371">
        <ele>349.4</ele>
        <time>2022-08-12T07:56:47Z</time>
      </trkpt>
      <trkpt lat="46.26727" lon="5.37099">
        <ele>348.4</ele>
        <time>2022-08-12T07:56:48Z</time>
      </trkpt>
      <trkpt lat="46.26753" lon="5.37098">
        <ele>347</ele>
        <time>2022-08-12T07:56:50Z</time>
      </trkpt>
      <trkpt lat="46.2677" lon="5.37099">
        <ele>346.6</ele>
        <time>2022-08-12T07:56:51Z</time>
      </trkpt>
      <trkpt lat="46.26783" lon="5.371">
        <ele>345.4</ele>
        <time>2022-08-12T07:56:52Z</time>
      </trkpt>
      <trkpt lat="46.26805" lon="5.37104">
        <ele>343.4</ele>
        <time>2022-08-12T07:56:54Z</time>
      </trkpt>
      <trkpt lat="46.26822" lon="5.3711">
        <ele>342</ele>
        <time>2022-08-12T07:56:56Z</time>
      </trkpt>
      <trkpt lat="46.2683" lon="5.37111">
        <ele>340.6</ele>
        <time>2022-08-12T07:56:57Z</time>
      </trkpt>
      <trkpt lat="46.26843" lon="5.37102">
        <ele>339.4</ele>
        <time>2022-08-12T07:56:59Z</time>
      </trkpt>
      <trkpt lat="46.26837" lon="5.37084">
        <ele>338.4</ele>
        <time>2022-08-12T07:57:01Z</time>
      </trkpt>
      <trkpt lat="46.26829" lon="5.37078">
        <ele>337.8</ele>
        <time>2022-08-12T07:57:02Z</time>
      </trkpt>
      <trkpt lat="46.26811" lon="5.37066">
        <ele>337</ele>
        <time>2022-08-12T07:57:04Z</time>
      </trkpt>
      <trkpt lat="46.26801" lon="5.3706">
        <ele>336.6</ele>
        <time>2022-08-12T07:57:05Z</time>
      </trkpt>
      <trkpt lat="46.26781" lon="5.37047">
        <ele>335.2</ele>
        <time>2022-08-12T07:57:07Z</time>
      </trkpt>
      <trkpt lat="46.2677" lon="5.37041">
        <ele>334</ele>
        <time>2022-08-12T07:57:08Z</time>
      </trkpt>
      <trkpt lat="46.26762" lon="5.37036">
        <ele>333</ele>
        <time>2022-08-12T07:57:09Z</time>
      </trkpt>
      <trkpt lat="46.26741" lon="5.37027">
        <ele>331.8</ele>
        <time>2022-08-12T07:57:11Z</time>
      </trkpt>
      <trkpt lat="46.26729" lon="5.37024">
        <ele>331.6</ele>
        <time>2022-08-12T07:57:12Z</time>
      </trkpt>
      <trkpt lat="46.26718" lon="5.37022">
        <ele>331.2</ele>
        <time>2022-08-12T07:57:13Z</time>
      </trkpt>
      <trkpt lat="46.26707" lon="5.37021">
        <ele>330.8</ele>
        <time>2022-08-12T07:57:14Z</time>
      </trkpt>
      <trkpt lat="46.26696" lon="5.37022">
        <ele>330.2</ele>
        <time>2022-08-12T07:57:15Z</time>
      </trkpt>
      <trkpt lat="46.26672" lon="5.37026">
        <ele>329.6</ele>
        <time>2022-08-12T07:57:17Z</time>
      </trkpt>
      <trkpt lat="46.26648" lon="5.37024">
        <ele>328.6</ele>
        <time>2022-08-12T07:57:19Z</time>
      </trkpt>
      <trkpt lat="46.26636" lon="5.37019">
        <ele>327.4</ele>
        <time>2022-08-12T07:57:20Z</time>
      </trkpt>
      <trkpt lat="46.26625" lon="5.37012">
        <ele>326.8</ele>
        <time>2022-08-12T07:57:21Z</time>
      </trkpt>
      <trkpt lat="46.26615" lon="5.37004">
        <ele>325.8</ele>
        <time>2022-08-12T07:57:22Z</time>
      </trkpt>
      <trkpt lat="46.26606" lon="5.36995">
        <ele>324.8</ele>
        <time>2022-08-12T07:57:23Z</time>
      </trkpt>
      <trkpt lat="46.26596" lon="5.36986">
        <ele>324.2</ele>
        <time>2022-08-12T07:57:24Z</time>
      </trkpt>
      <trkpt lat="46.2657" lon="5.36965">
        <ele>323</ele>
        <time>2022-08-12T07:57:27Z</time>
      </trkpt>
      <trkpt lat="46.26562" lon="5.36952">
        <ele>321.6</ele>
        <time>2022-08-12T07:57:29Z</time>
      </trkpt>
      <trkpt lat="46.26569" lon="5.3694">
        <ele>320.8</ele>
        <time>2022-08-12T07:57:31Z</time>
      </trkpt>
      <trkpt lat="46.26577" lon="5.36938">
        <ele>320.6</ele>
        <time>2022-08-12T07:57:32Z</time>
      </trkpt>
      <trkpt lat="46.26585" lon="5.36942">
        <ele>320.2</ele>
        <time>2022-08-12T07:57:33Z</time>
      </trkpt>
      <trkpt lat="46.26594" lon="5.36947">
        <ele>319.8</ele>
        <time>2022-08-12T07:57:34Z</time>
      </trkpt>
      <trkpt lat="46.2661" lon="5.36961">
        <ele>319</ele>
        <time>2022-08-12T07:57:36Z</time>
      </trkpt>
      <trkpt lat="46.2662" lon="5.36969">
        <ele>318</ele>
        <time>2022-08-12T07:57:37Z</time>
      </trkpt>
      <trkpt lat="46.2663" lon="5.36976">
        <ele>317.6</ele>
        <time>2022-08-12T07:57:38Z</time>
      </trkpt>
      <trkpt lat="46.26656" lon="5.36982">
        <ele>316.4</ele>
        <time>2022-08-12T07:57:40Z</time>
      </trkpt>
      <trkpt lat="46.26667" lon="5.36981">
        <ele>315.4</ele>
        <time>2022-08-12T07:57:41Z</time>
      </trkpt>
      <trkpt lat="46.26679" lon="5.36978">
        <ele>315</ele>
        <time>2022-08-12T07:57:42Z</time>
      </trkpt>
      <trkpt lat="46.2669" lon="5.36972">
        <ele>314.2</ele>
        <time>2022-08-12T07:57:43Z</time>
      </trkpt>
      <trkpt lat="46.26702" lon="5.36966">
        <ele>312.8</ele>
        <time>2022-08-12T07:57:44Z</time>
      </trkpt>
      <trkpt lat="46.26725" lon="5.36955">
        <ele>311</ele>
        <time>2022-08-12T07:57:46Z</time>
      </trkpt>
      <trkpt lat="46.26744" lon="5.3694">
        <ele>309.4</ele>
        <time>2022-08-12T07:57:48Z</time>
      </trkpt>
      <trkpt lat="46.26765" lon="5.36924">
        <ele>308</ele>
        <time>2022-08-12T07:57:50Z</time>
      </trkpt>
      <trkpt lat="46.26778" lon="5.36915">
        <ele>306.8</ele>
        <time>2022-08-12T07:57:51Z</time>
      </trkpt>
      <trkpt lat="46.26789" lon="5.3691">
        <ele>306.6</ele>
        <time>2022-08-12T07:57:52Z</time>
      </trkpt>
      <trkpt lat="46.26813" lon="5.36903">
        <ele>305.8</ele>
        <time>2022-08-12T07:57:54Z</time>
      </trkpt>
      <trkpt lat="46.26837" lon="5.36896">
        <ele>304.4</ele>
        <time>2022-08-12T07:57:56Z</time>
      </trkpt>
      <trkpt lat="46.26849" lon="5.36894">
        <ele>303.8</ele>
        <time>2022-08-12T07:57:57Z</time>
      </trkpt>
      <trkpt lat="46.26861" lon="5.36891">
        <ele>302.8</ele>
        <time>2022-08-12T07:57:58Z</time>
      </trkpt>
      <trkpt lat="46.26884" lon="5.36885">
        <ele>301</ele>
        <time>2022-08-12T07:58:00Z</time>
      </trkpt>
      <trkpt lat="46.26905" lon="5.36878">
        <ele>299.2</ele>
        <time>2022-08-12T07:58:02Z</time>
      </trkpt>
      <trkpt lat="46.26924" lon="5.36866">
        <ele>298.4</ele>
        <time>2022-08-12T07:58:04Z</time>
      </trkpt>
      <trkpt lat="46.26935" lon="5.36856">
        <ele>297.6</ele>
        <time>2022-08-12T07:58:05Z</time>
      </trkpt>
      <trkpt lat="46.26948" lon="5.3684">
        <ele>295.4</ele>
        <time>2022-08-12T07:58:07Z</time>
      </trkpt>
      <trkpt lat="46.26961" lon="5.36825">
        <ele>293.8</ele>
        <time>2022-08-12T07:58:09Z</time>
      </trkpt>
      <trkpt lat="46.26973" lon="5.36809">
        <ele>292.6</ele>
        <time>2022-08-12T07:58:12Z</time>
      </trkpt>
      <trkpt lat="46.26972" lon="5.36798">
        <ele>292.4</ele>
        <time>2022-08-12T07:58:14Z</time>
      </trkpt>
      <trkpt lat="46.26966" lon="5.36789">
        <ele>292</ele>
        <time>2022-08-12T07:58:16Z</time>
      </trkpt>
      <trkpt lat="46.26956" lon="5.3678">
        <ele>291.6</ele>
        <time>2022-08-12T07:58:18Z</time>
      </trkpt>
      <trkpt lat="46.26951" lon="5.36775">
        <ele>291.6</ele>
        <time>2022-08-12T07:58:19Z</time>
      </trkpt>
      <trkpt lat="46.26926" lon="5.36754">
        <ele>290.8</ele>
        <time>2022-08-12T07:58:23Z</time>
      </trkpt>
      <trkpt lat="46.2692" lon="5.36748">
        <ele>290.6</ele>
        <time>2022-08-12T07:58:24Z</time>
      </trkpt>
      <trkpt lat="46.26915" lon="5.3674">
        <ele>290.4</ele>
        <time>2022-08-12T07:58:25Z</time>
      </trkpt>
      <trkpt lat="46.26912" lon="5.3673">
        <ele>290</ele>
        <time>2022-08-12T07:58:26Z</time>
      </trkpt>
      <trkpt lat="46.26908" lon="5.36696">
        <ele>289.6</ele>
        <time>2022-08-12T07:58:29Z</time>
      </trkpt>
      <trkpt lat="46.26906" lon="5.36673">
        <ele>289.4</ele>
        <time>2022-08-12T07:58:31Z</time>
      </trkpt>
      <trkpt lat="46.26904" lon="5.36661">
        <ele>289</ele>
        <time>2022-08-12T07:58:32Z</time>
      </trkpt>
      <trkpt lat="46.26901" lon="5.3665">
        <ele>288.6</ele>
        <time>2022-08-12T07:58:33Z</time>
      </trkpt>
      <trkpt lat="46.26893" lon="5.36627">
        <ele>288</ele>
        <time>2022-08-12T07:58:35Z</time>
      </trkpt>
      <trkpt lat="46.26879" lon="5.36598">
        <ele>287.6</ele>
        <time>2022-08-12T07:58:38Z</time>
      </trkpt>
      <trkpt lat="46.2685" lon="5.36557">
        <ele>287.4</ele>
        <time>2022-08-12T07:58:43Z</time>
      </trkpt>
      <trkpt lat="46.26841" lon="5.36538">
        <ele>286.8</ele>
        <time>2022-08-12T07:58:45Z</time>
      </trkpt>
      <trkpt lat="46.26838" lon="5.36527">
        <ele>285.8</ele>
        <time>2022-08-12T07:58:46Z</time>
      </trkpt>
      <trkpt lat="46.26835" lon="5.36517">
        <ele>285.4</ele>
        <time>2022-08-12T07:58:47Z</time>
      </trkpt>
      <trkpt lat="46.26832" lon="5.36503">
        <ele>285.2</ele>
        <time>2022-08-12T07:58:49Z</time>
      </trkpt>
      <trkpt lat="46.26831" lon="5.36497">
        <ele>285.2</ele>
        <time>2022-08-12T07:58:50Z</time>
      </trkpt>
      <trkpt lat="46.26832" lon="5.36483">
        <ele>285.2</ele>
        <time>2022-08-12T07:58:53Z</time>
      </trkpt>
      <trkpt lat="46.26833" lon="5.36481">
        <ele>285</ele>
        <time>2022-08-12T07:58:54Z</time>
      </trkpt>
      <trkpt lat="46.26836" lon="5.36479">
        <ele>285</ele>
        <time>2022-08-12T07:58:55Z</time>
      </trkpt>
      <trkpt lat="46.26848" lon="5.3648">
        <ele>285</ele>
        <time>2022-08-12T07:58:58Z</time>
      </trkpt>
      <trkpt lat="46.26872" lon="5.36488">
        <ele>285</ele>
        <time>2022-08-12T07:59:02Z</time>
      </trkpt>
      <trkpt lat="46.26912" lon="5.36502">
        <ele>285</ele>
        <time>2022-08-12T07:59:08Z</time>
      </trkpt>
      <trkpt lat="46.26966" lon="5.36518">
        <ele>285.2</ele>
        <time>2022-08-12T07:59:16Z</time>
      </trkpt>
      <trkpt lat="46.26973" lon="5.36521">
        <ele>285.2</ele>
        <time>2022-08-12T07:59:17Z</time>
      </trkpt>
      <trkpt lat="46.27027" lon="5.36539">
        <ele>284.8</ele>
        <time>2022-08-12T07:59:25Z</time>
      </trkpt>
      <trkpt lat="46.2708" lon="5.3656">
        <ele>284.6</ele>
        <time>2022-08-12T07:59:33Z</time>
      </trkpt>
      <trkpt lat="46.27121" lon="5.36579">
        <ele>284.2</ele>
        <time>2022-08-12T07:59:39Z</time>
      </trkpt>
      <trkpt lat="46.27135" lon="5.36587">
        <ele>283.6</ele>
        <time>2022-08-12T07:59:41Z</time>
      </trkpt>
      <trkpt lat="46.27155" lon="5.366">
        <ele>283</ele>
        <time>2022-08-12T07:59:44Z</time>
      </trkpt>
      <trkpt lat="46.27175" lon="5.36615">
        <ele>282.4</ele>
        <time>2022-08-12T07:59:47Z</time>
      </trkpt>
      <trkpt lat="46.27194" lon="5.36631">
        <ele>282</ele>
        <time>2022-08-12T07:59:50Z</time>
      </trkpt>
      <trkpt lat="46.27211" lon="5.36646">
        <ele>281.2</ele>
        <time>2022-08-12T07:59:53Z</time>
      </trkpt>
      <trkpt lat="46.27217" lon="5.36649">
        <ele>280.8</ele>
        <time>2022-08-12T07:59:54Z</time>
      </trkpt>
      <trkpt lat="46.27223" lon="5.36649">
        <ele>280.8</ele>
        <time>2022-08-12T07:59:55Z</time>
      </trkpt>
      <trkpt lat="46.2723" lon="5.36639">
        <ele>280.4</ele>
        <time>2022-08-12T07:59:57Z</time>
      </trkpt>
      <trkpt lat="46.27233" lon="5.36631">
        <ele>280.4</ele>
        <time>2022-08-12T07:59:58Z</time>
      </trkpt>
      <trkpt lat="46.27249" lon="5.36574">
        <ele>279.4</ele>
        <time>2022-08-12T08:00:03Z</time>
      </trkpt>
      <trkpt lat="46.27268" lon="5.36504">
        <ele>278.2</ele>
        <time>2022-08-12T08:00:09Z</time>
      </trkpt>
      <trkpt lat="46.27278" lon="5.36468">
        <ele>277.6</ele>
        <time>2022-08-12T08:00:12Z</time>
      </trkpt>
      <trkpt lat="46.27292" lon="5.36406">
        <ele>277</ele>
        <time>2022-08-12T08:00:17Z</time>
      </trkpt>
      <trkpt lat="46.27295" lon="5.36381">
        <ele>276.8</ele>
        <time>2022-08-12T08:00:19Z</time>
      </trkpt>
      <trkpt lat="46.273" lon="5.36315">
        <ele>276.2</ele>
        <time>2022-08-12T08:00:24Z</time>
      </trkpt>
      <trkpt lat="46.27301" lon="5.36278">
        <ele>276</ele>
        <time>2022-08-12T08:00:27Z</time>
      </trkpt>
      <trkpt lat="46.27302" lon="5.36197">
        <ele>276</ele>
        <time>2022-08-12T08:00:34Z</time>
      </trkpt>
      <trkpt lat="46.27303" lon="5.36185">
        <ele>276</ele>
        <time>2022-08-12T08:00:35Z</time>
      </trkpt>
      <trkpt lat="46.27308" lon="5.36107">
        <ele>276.2</ele>
        <time>2022-08-12T08:00:42Z</time>
      </trkpt>
      <trkpt lat="46.2731" lon="5.36096">
        <ele>276.2</ele>
        <time>2022-08-12T08:00:43Z</time>
      </trkpt>
      <trkpt lat="46.27324" lon="5.36051">
        <ele>276.8</ele>
        <time>2022-08-12T08:00:48Z</time>
      </trkpt>
      <trkpt lat="46.27337" lon="5.36024">
        <ele>277.2</ele>
        <time>2022-08-12T08:00:51Z</time>
      </trkpt>
      <trkpt lat="46.27347" lon="5.36009">
        <ele>277.6</ele>
        <time>2022-08-12T08:00:53Z</time>
      </trkpt>
      <trkpt lat="46.27379" lon="5.35963">
        <ele>277.4</ele>
        <time>2022-08-12T08:00:59Z</time>
      </trkpt>
      <trkpt lat="46.27419" lon="5.35909">
        <ele>276.2</ele>
        <time>2022-08-12T08:01:05Z</time>
      </trkpt>
      <trkpt lat="46.27428" lon="5.35897">
        <ele>276</ele>
        <time>2022-08-12T08:01:06Z</time>
      </trkpt>
      <trkpt lat="46.27447" lon="5.35868">
        <ele>274.4</ele>
        <time>2022-08-12T08:01:09Z</time>
      </trkpt>
      <trkpt lat="46.27458" lon="5.35845">
        <ele>274</ele>
        <time>2022-08-12T08:01:11Z</time>
      </trkpt>
      <trkpt lat="46.27466" lon="5.35822">
        <ele>272.6</ele>
        <time>2022-08-12T08:01:13Z</time>
      </trkpt>
      <trkpt lat="46.27473" lon="5.35796">
        <ele>271.6</ele>
        <time>2022-08-12T08:01:15Z</time>
      </trkpt>
      <trkpt lat="46.27475" lon="5.35786">
        <ele>271.2</ele>
        <time>2022-08-12T08:01:16Z</time>
      </trkpt>
      <trkpt lat="46.27489" lon="5.35704">
        <ele>270.2</ele>
        <time>2022-08-12T08:01:22Z</time>
      </trkpt>
      <trkpt lat="46.27492" lon="5.35691">
        <ele>270</ele>
        <time>2022-08-12T08:01:23Z</time>
      </trkpt>
      <trkpt lat="46.27508" lon="5.35615">
        <ele>269.4</ele>
        <time>2022-08-12T08:01:29Z</time>
      </trkpt>
      <trkpt lat="46.27511" lon="5.35602">
        <ele>269</ele>
        <time>2022-08-12T08:01:30Z</time>
      </trkpt>
      <trkpt lat="46.27516" lon="5.35589">
        <ele>268.8</ele>
        <time>2022-08-12T08:01:31Z</time>
      </trkpt>
      <trkpt lat="46.27528" lon="5.35566">
        <ele>268.8</ele>
        <time>2022-08-12T08:01:33Z</time>
      </trkpt>
      <trkpt lat="46.27535" lon="5.35556">
        <ele>268.2</ele>
        <time>2022-08-12T08:01:34Z</time>
      </trkpt>
      <trkpt lat="46.27543" lon="5.35546">
        <ele>265.8</ele>
        <time>2022-08-12T08:01:35Z</time>
      </trkpt>
      <trkpt lat="46.27556" lon="5.35524">
        <ele>264.4</ele>
        <time>2022-08-12T08:01:37Z</time>
      </trkpt>
      <trkpt lat="46.27562" lon="5.35512">
        <ele>264</ele>
        <time>2022-08-12T08:01:38Z</time>
      </trkpt>
      <trkpt lat="46.27568" lon="5.35499">
        <ele>262.6</ele>
        <time>2022-08-12T08:01:39Z</time>
      </trkpt>
      <trkpt lat="46.27578" lon="5.35474">
        <ele>261.2</ele>
        <time>2022-08-12T08:01:41Z</time>
      </trkpt>
      <trkpt lat="46.27591" lon="5.35433">
        <ele>259.8</ele>
        <time>2022-08-12T08:01:44Z</time>
      </trkpt>
      <trkpt lat="46.27602" lon="5.35378">
        <ele>258.8</ele>
        <time>2022-08-12T08:01:48Z</time>
      </trkpt>
      <trkpt lat="46.27607" lon="5.35347">
        <ele>258.2</ele>
        <time>2022-08-12T08:01:50Z</time>
      </trkpt>
      <trkpt lat="46.27615" lon="5.35306">
        <ele>257.6</ele>
        <time>2022-08-12T08:01:53Z</time>
      </trkpt>
      <trkpt lat="46.27627" lon="5.35256">
        <ele>257</ele>
        <time>2022-08-12T08:01:57Z</time>
      </trkpt>
      <trkpt lat="46.27647" lon="5.35204">
        <ele>256.4</ele>
        <time>2022-08-12T08:02:01Z</time>
      </trkpt>
      <trkpt lat="46.27653" lon="5.35192">
        <ele>256.2</ele>
        <time>2022-08-12T08:02:02Z</time>
      </trkpt>
      <trkpt lat="46.27679" lon="5.35136">
        <ele>255.4</ele>
        <time>2022-08-12T08:02:07Z</time>
      </trkpt>
      <trkpt lat="46.27701" lon="5.35091">
        <ele>254.6</ele>
        <time>2022-08-12T08:02:11Z</time>
      </trkpt>
      <trkpt lat="46.27707" lon="5.35079">
        <ele>254.2</ele>
        <time>2022-08-12T08:02:12Z</time>
      </trkpt>
      <trkpt lat="46.27741" lon="5.3501">
        <ele>253.4</ele>
        <time>2022-08-12T08:02:18Z</time>
      </trkpt>
      <trkpt lat="46.27747" lon="5.35">
        <ele>253.2</ele>
        <time>2022-08-12T08:02:19Z</time>
      </trkpt>
      <trkpt lat="46.27754" lon="5.34989">
        <ele>253.2</ele>
        <time>2022-08-12T08:02:20Z</time>
      </trkpt>
      <trkpt lat="46.27785" lon="5.34956">
        <ele>252.6</ele>
        <time>2022-08-12T08:02:24Z</time>
      </trkpt>
      <trkpt lat="46.27839" lon="5.34914">
        <ele>252.2</ele>
        <time>2022-08-12T08:02:30Z</time>
      </trkpt>
      <trkpt lat="46.27848" lon="5.34907">
        <ele>252</ele>
        <time>2022-08-12T08:02:31Z</time>
      </trkpt>
      <trkpt lat="46.27856" lon="5.349">
        <ele>252</ele>
        <time>2022-08-12T08:02:32Z</time>
      </trkpt>
      <trkpt lat="46.27882" lon="5.34877">
        <ele>251</ele>
        <time>2022-08-12T08:02:35Z</time>
      </trkpt>
      <trkpt lat="46.27914" lon="5.34842">
        <ele>249.8</ele>
        <time>2022-08-12T08:02:39Z</time>
      </trkpt>
      <trkpt lat="46.2795" lon="5.34795">
        <ele>248.8</ele>
        <time>2022-08-12T08:02:44Z</time>
      </trkpt>
      <trkpt lat="46.27978" lon="5.34758">
        <ele>248.2</ele>
        <time>2022-08-12T08:02:48Z</time>
      </trkpt>
      <trkpt lat="46.28009" lon="5.34715">
        <ele>247.8</ele>
        <time>2022-08-12T08:02:53Z</time>
      </trkpt>
      <trkpt lat="46.2803" lon="5.34687">
        <ele>247.8</ele>
        <time>2022-08-12T08:02:56Z</time>
      </trkpt>
      <trkpt lat="46.28077" lon="5.34626">
        <ele>248</ele>
        <time>2022-08-12T08:03:03Z</time>
      </trkpt>
      <trkpt lat="46.28088" lon="5.34611">
        <ele>247.8</ele>
        <time>2022-08-12T08:03:05Z</time>
      </trkpt>
      <trkpt lat="46.28125" lon="5.34561">
        <ele>247.8</ele>
        <time>2022-08-12T08:03:11Z</time>
      </trkpt>
      <trkpt lat="46.28135" lon="5.34542">
        <ele>247.8</ele>
        <time>2022-08-12T08:03:13Z</time>
      </trkpt>
      <trkpt lat="46.28141" lon="5.34521">
        <ele>248</ele>
        <time>2022-08-12T08:03:15Z</time>
      </trkpt>
      <trkpt lat="46.28149" lon="5.34462">
        <ele>249.2</ele>
        <time>2022-08-12T08:03:21Z</time>
      </trkpt>
      <trkpt lat="46.28154" lon="5.34421">
        <ele>250.2</ele>
        <time>2022-08-12T08:03:26Z</time>
      </trkpt>
      <trkpt lat="46.28155" lon="5.34413">
        <ele>250.6</ele>
        <time>2022-08-12T08:03:27Z</time>
      </trkpt>
      <trkpt lat="46.28159" lon="5.34381">
        <ele>251.4</ele>
        <time>2022-08-12T08:03:31Z</time>
      </trkpt>
      <trkpt lat="46.28162" lon="5.34353">
        <ele>252.6</ele>
        <time>2022-08-12T08:03:35Z</time>
      </trkpt>
      <trkpt lat="46.28163" lon="5.34346">
        <ele>253.2</ele>
        <time>2022-08-12T08:03:36Z</time>
      </trkpt>
      <trkpt lat="46.28166" lon="5.34324">
        <ele>253.6</ele>
        <time>2022-08-12T08:03:39Z</time>
      </trkpt>
      <trkpt lat="46.28169" lon="5.34294">
        <ele>255</ele>
        <time>2022-08-12T08:03:43Z</time>
      </trkpt>
      <trkpt lat="46.28171" lon="5.34279">
        <ele>255.4</ele>
        <time>2022-08-12T08:03:45Z</time>
      </trkpt>
      <trkpt lat="46.28173" lon="5.34257">
        <ele>256</ele>
        <time>2022-08-12T08:03:48Z</time>
      </trkpt>
      <trkpt lat="46.28179" lon="5.34214">
        <ele>256.6</ele>
        <time>2022-08-12T08:03:54Z</time>
      </trkpt>
      <trkpt lat="46.28182" lon="5.34193">
        <ele>257.2</ele>
        <time>2022-08-12T08:03:57Z</time>
      </trkpt>
      <trkpt lat="46.28186" lon="5.34156">
        <ele>258.4</ele>
        <time>2022-08-12T08:04:02Z</time>
      </trkpt>
      <trkpt lat="46.28187" lon="5.34141">
        <ele>258.8</ele>
        <time>2022-08-12T08:04:04Z</time>
      </trkpt>
      <trkpt lat="46.28191" lon="5.34089">
        <ele>259.6</ele>
        <time>2022-08-12T08:04:11Z</time>
      </trkpt>
      <trkpt lat="46.28192" lon="5.34052">
        <ele>260.2</ele>
        <time>2022-08-12T08:04:16Z</time>
      </trkpt>
      <trkpt lat="46.28194" lon="5.34012">
        <ele>260.8</ele>
        <time>2022-08-12T08:04:21Z</time>
      </trkpt>
      <trkpt lat="46.28194" lon="5.33971">
        <ele>261.4</ele>
        <time>2022-08-12T08:04:26Z</time>
      </trkpt>
      <trkpt lat="46.28194" lon="5.33919">
        <ele>261.8</ele>
        <time>2022-08-12T08:04:32Z</time>
      </trkpt>
      <trkpt lat="46.28193" lon="5.33881">
        <ele>261.8</ele>
        <time>2022-08-12T08:04:35Z</time>
      </trkpt>
      <trkpt lat="46.28188" lon="5.33809">
        <ele>260.6</ele>
        <time>2022-08-12T08:04:43Z</time>
      </trkpt>
      <trkpt lat="46.28181" lon="5.33728">
        <ele>259.8</ele>
        <time>2022-08-12T08:04:50Z</time>
      </trkpt>
      <trkpt lat="46.2818" lon="5.33717">
        <ele>259.6</ele>
        <time>2022-08-12T08:04:51Z</time>
      </trkpt>
      <trkpt lat="46.2818" lon="5.33706">
        <ele>259.6</ele>
        <time>2022-08-12T08:04:52Z</time>
      </trkpt>
      <trkpt lat="46.28175" lon="5.33628">
        <ele>258.8</ele>
        <time>2022-08-12T08:04:59Z</time>
      </trkpt>
      <trkpt lat="46.28173" lon="5.33608">
        <ele>258.8</ele>
        <time>2022-08-12T08:05:01Z</time>
      </trkpt>
      <trkpt lat="46.28169" lon="5.33553">
        <ele>258.6</ele>
        <time>2022-08-12T08:05:06Z</time>
      </trkpt>
      <trkpt lat="46.28166" lon="5.33487">
        <ele>258.2</ele>
        <time>2022-08-12T08:05:12Z</time>
      </trkpt>
      <trkpt lat="46.28162" lon="5.33408">
        <ele>258.2</ele>
        <time>2022-08-12T08:05:19Z</time>
      </trkpt>
      <trkpt lat="46.28162" lon="5.33396">
        <ele>258.2</ele>
        <time>2022-08-12T08:05:20Z</time>
      </trkpt>
      <trkpt lat="46.28159" lon="5.33338">
        <ele>257.6</ele>
        <time>2022-08-12T08:05:25Z</time>
      </trkpt>
      <trkpt lat="46.28159" lon="5.33265">
        <ele>256.8</ele>
        <time>2022-08-12T08:05:31Z</time>
      </trkpt>
      <trkpt lat="46.2816" lon="5.33241">
        <ele>256.4</ele>
        <time>2022-08-12T08:05:33Z</time>
      </trkpt>
      <trkpt lat="46.28165" lon="5.33157">
        <ele>256</ele>
        <time>2022-08-12T08:05:40Z</time>
      </trkpt>
      <trkpt lat="46.28174" lon="5.33078">
        <ele>256</ele>
        <time>2022-08-12T08:05:47Z</time>
      </trkpt>
      <trkpt lat="46.28176" lon="5.33057">
        <ele>256</ele>
        <time>2022-08-12T08:05:49Z</time>
      </trkpt>
      <trkpt lat="46.28187" lon="5.3296">
        <ele>255.6</ele>
        <time>2022-08-12T08:05:56Z</time>
      </trkpt>
      <trkpt lat="46.28189" lon="5.32938">
        <ele>255.2</ele>
        <time>2022-08-12T08:05:59Z</time>
      </trkpt>
      <trkpt lat="46.28203" lon="5.32847">
        <ele>254.6</ele>
        <time>2022-08-12T08:06:05Z</time>
      </trkpt>
      <trkpt lat="46.28205" lon="5.32833">
        <ele>254.4</ele>
        <time>2022-08-12T08:06:06Z</time>
      </trkpt>
      <trkpt lat="46.28205" lon="5.32833">
        <ele>254.2</ele>
        <time>2022-08-12T08:06:07Z</time>
      </trkpt>
      <trkpt lat="46.28216" lon="5.32781">
        <ele>253.2</ele>
        <time>2022-08-12T08:06:10Z</time>
      </trkpt>
      <trkpt lat="46.28226" lon="5.32734">
        <ele>251.4</ele>
        <time>2022-08-12T08:06:13Z</time>
      </trkpt>
      <trkpt lat="46.28232" lon="5.32708">
        <ele>249.8</ele>
        <time>2022-08-12T08:06:15Z</time>
      </trkpt>
      <trkpt lat="46.28242" lon="5.3266">
        <ele>248.6</ele>
        <time>2022-08-12T08:06:18Z</time>
      </trkpt>
      <trkpt lat="46.28245" lon="5.32645">
        <ele>248</ele>
        <time>2022-08-12T08:06:19Z</time>
      </trkpt>
      <trkpt lat="46.28247" lon="5.3263">
        <ele>247</ele>
        <time>2022-08-12T08:06:20Z</time>
      </trkpt>
      <trkpt lat="46.28254" lon="5.32589">
        <ele>245.8</ele>
        <time>2022-08-12T08:06:24Z</time>
      </trkpt>
      <trkpt lat="46.28257" lon="5.32565">
        <ele>245.8</ele>
        <time>2022-08-12T08:06:26Z</time>
      </trkpt>
      <trkpt lat="46.28263" lon="5.32484">
        <ele>246.2</ele>
        <time>2022-08-12T08:06:32Z</time>
      </trkpt>
      <trkpt lat="46.28268" lon="5.32397">
        <ele>246.4</ele>
        <time>2022-08-12T08:06:38Z</time>
      </trkpt>
      <trkpt lat="46.28269" lon="5.32348">
        <ele>246.4</ele>
        <time>2022-08-12T08:06:42Z</time>
      </trkpt>
      <trkpt lat="46.28276" lon="5.32265">
        <ele>247</ele>
        <time>2022-08-12T08:06:50Z</time>
      </trkpt>
      <trkpt lat="46.28291" lon="5.32183">
        <ele>247</ele>
        <time>2022-08-12T08:06:56Z</time>
      </trkpt>
      <trkpt lat="46.28295" lon="5.32172">
        <ele>246.8</ele>
        <time>2022-08-12T08:06:57Z</time>
      </trkpt>
      <trkpt lat="46.28318" lon="5.32101">
        <ele>247.4</ele>
        <time>2022-08-12T08:07:04Z</time>
      </trkpt>
      <trkpt lat="46.28321" lon="5.32092">
        <ele>247.6</ele>
        <time>2022-08-12T08:07:05Z</time>
      </trkpt>
      <trkpt lat="46.28333" lon="5.32057">
        <ele>248</ele>
        <time>2022-08-12T08:07:09Z</time>
      </trkpt>
      <trkpt lat="46.2834" lon="5.3204">
        <ele>248.8</ele>
        <time>2022-08-12T08:07:11Z</time>
      </trkpt>
      <trkpt lat="46.28348" lon="5.32022">
        <ele>249.4</ele>
        <time>2022-08-12T08:07:13Z</time>
      </trkpt>
      <trkpt lat="46.28361" lon="5.31989">
        <ele>250.4</ele>
        <time>2022-08-12T08:07:17Z</time>
      </trkpt>
      <trkpt lat="46.28363" lon="5.3198">
        <ele>250.8</ele>
        <time>2022-08-12T08:07:18Z</time>
      </trkpt>
      <trkpt lat="46.28372" lon="5.31954">
        <ele>251.6</ele>
        <time>2022-08-12T08:07:21Z</time>
      </trkpt>
      <trkpt lat="46.28385" lon="5.31921">
        <ele>252.8</ele>
        <time>2022-08-12T08:07:26Z</time>
      </trkpt>
      <trkpt lat="46.28391" lon="5.31904">
        <ele>252.8</ele>
        <time>2022-08-12T08:07:28Z</time>
      </trkpt>
      <trkpt lat="46.28418" lon="5.31834">
        <ele>253</ele>
        <time>2022-08-12T08:07:35Z</time>
      </trkpt>
      <trkpt lat="46.28418" lon="5.31834">
        <ele>253</ele>
        <time>2022-08-12T08:07:36Z</time>
      </trkpt>
      <trkpt lat="46.28447" lon="5.31759">
        <ele>252.8</ele>
        <time>2022-08-12T08:07:43Z</time>
      </trkpt>
      <trkpt lat="46.28451" lon="5.3175">
        <ele>252.6</ele>
        <time>2022-08-12T08:07:44Z</time>
      </trkpt>
      <trkpt lat="46.28482" lon="5.31686">
        <ele>252.2</ele>
        <time>2022-08-12T08:07:51Z</time>
      </trkpt>
      <trkpt lat="46.285" lon="5.3165">
        <ele>252.2</ele>
        <time>2022-08-12T08:07:55Z</time>
      </trkpt>
      <trkpt lat="46.28531" lon="5.31585">
        <ele>252.2</ele>
        <time>2022-08-12T08:08:02Z</time>
      </trkpt>
      <trkpt lat="46.28539" lon="5.31567">
        <ele>252.2</ele>
        <time>2022-08-12T08:08:04Z</time>
      </trkpt>
      <trkpt lat="46.28572" lon="5.31505">
        <ele>252</ele>
        <time>2022-08-12T08:08:11Z</time>
      </trkpt>
      <trkpt lat="46.28583" lon="5.31489">
        <ele>251.8</ele>
        <time>2022-08-12T08:08:13Z</time>
      </trkpt>
      <trkpt lat="46.28622" lon="5.31434">
        <ele>251.8</ele>
        <time>2022-08-12T08:08:20Z</time>
      </trkpt>
      <trkpt lat="46.28626" lon="5.31425">
        <ele>251.8</ele>
        <time>2022-08-12T08:08:21Z</time>
      </trkpt>
      <trkpt lat="46.2863" lon="5.31415">
        <ele>251.8</ele>
        <time>2022-08-12T08:08:22Z</time>
      </trkpt>
      <trkpt lat="46.28643" lon="5.31375">
        <ele>251.8</ele>
        <time>2022-08-12T08:08:26Z</time>
      </trkpt>
      <trkpt lat="46.28643" lon="5.31375">
        <ele>251.8</ele>
        <time>2022-08-12T08:08:27Z</time>
      </trkpt>
      <trkpt lat="46.2865" lon="5.3133">
        <ele>251.4</ele>
        <time>2022-08-12T08:08:30Z</time>
      </trkpt>
      <trkpt lat="46.28651" lon="5.31318">
        <ele>251.4</ele>
        <time>2022-08-12T08:08:31Z</time>
      </trkpt>
      <trkpt lat="46.28652" lon="5.31279">
        <ele>250.8</ele>
        <time>2022-08-12T08:08:34Z</time>
      </trkpt>
      <trkpt lat="46.28653" lon="5.31241">
        <ele>250</ele>
        <time>2022-08-12T08:08:37Z</time>
      </trkpt>
      <trkpt lat="46.28653" lon="5.31228">
        <ele>249.8</ele>
        <time>2022-08-12T08:08:38Z</time>
      </trkpt>
      <trkpt lat="46.28654" lon="5.31178">
        <ele>248.8</ele>
        <time>2022-08-12T08:08:42Z</time>
      </trkpt>
      <trkpt lat="46.28654" lon="5.31145">
        <ele>248.6</ele>
        <time>2022-08-12T08:08:46Z</time>
      </trkpt>
      <trkpt lat="46.28656" lon="5.31044">
        <ele>249.4</ele>
        <time>2022-08-12T08:08:54Z</time>
      </trkpt>
      <trkpt lat="46.28657" lon="5.31021">
        <ele>249.6</ele>
        <time>2022-08-12T08:08:56Z</time>
      </trkpt>
      <trkpt lat="46.28661" lon="5.30943">
        <ele>249.6</ele>
        <time>2022-08-12T08:09:03Z</time>
      </trkpt>
      <trkpt lat="46.28662" lon="5.30932">
        <ele>249.6</ele>
        <time>2022-08-12T08:09:04Z</time>
      </trkpt>
      <trkpt lat="46.28668" lon="5.30846">
        <ele>249.4</ele>
        <time>2022-08-12T08:09:11Z</time>
      </trkpt>
      <trkpt lat="46.28669" lon="5.30834">
        <ele>249.2</ele>
        <time>2022-08-12T08:09:12Z</time>
      </trkpt>
      <trkpt lat="46.28674" lon="5.30752">
        <ele>248</ele>
        <time>2022-08-12T08:09:19Z</time>
      </trkpt>
      <trkpt lat="46.28675" lon="5.30728">
        <ele>247.4</ele>
        <time>2022-08-12T08:09:21Z</time>
      </trkpt>
      <trkpt lat="46.2868" lon="5.30645">
        <ele>246.8</ele>
        <time>2022-08-12T08:09:28Z</time>
      </trkpt>
      <trkpt lat="46.28686" lon="5.30563">
        <ele>246.6</ele>
        <time>2022-08-12T08:09:35Z</time>
      </trkpt>
      <trkpt lat="46.28688" lon="5.30528">
        <ele>246.4</ele>
        <time>2022-08-12T08:09:38Z</time>
      </trkpt>
      <trkpt lat="46.28691" lon="5.30463">
        <ele>245.6</ele>
        <time>2022-08-12T08:09:44Z</time>
      </trkpt>
      <trkpt lat="46.28698" lon="5.30447">
        <ele>245.6</ele>
        <time>2022-08-12T08:09:46Z</time>
      </trkpt>
      <trkpt lat="46.28703" lon="5.30443">
        <ele>245.6</ele>
        <time>2022-08-12T08:09:47Z</time>
      </trkpt>
      <trkpt lat="46.28717" lon="5.30443">
        <ele>245.4</ele>
        <time>2022-08-12T08:09:49Z</time>
      </trkpt>
      <trkpt lat="46.28725" lon="5.30444">
        <ele>245.2</ele>
        <time>2022-08-12T08:09:50Z</time>
      </trkpt>
      <trkpt lat="46.28732" lon="5.30444">
        <ele>245.2</ele>
        <time>2022-08-12T08:09:51Z</time>
      </trkpt>
      <trkpt lat="46.28772" lon="5.30439">
        <ele>245</ele>
        <time>2022-08-12T08:09:56Z</time>
      </trkpt>
      <trkpt lat="46.28827" lon="5.30429">
        <ele>245.4</ele>
        <time>2022-08-12T08:10:03Z</time>
      </trkpt>
      <trkpt lat="46.28834" lon="5.30427">
        <ele>245.4</ele>
        <time>2022-08-12T08:10:04Z</time>
      </trkpt>
      <trkpt lat="46.28887" lon="5.30417">
        <ele>246</ele>
        <time>2022-08-12T08:10:11Z</time>
      </trkpt>
      <trkpt lat="46.28944" lon="5.30401">
        <ele>246</ele>
        <time>2022-08-12T08:10:18Z</time>
      </trkpt>
      <trkpt lat="46.28953" lon="5.30399">
        <ele>246</ele>
        <time>2022-08-12T08:10:19Z</time>
      </trkpt>
      <trkpt lat="46.29006" lon="5.30387">
        <ele>244.8</ele>
        <time>2022-08-12T08:10:25Z</time>
      </trkpt>
      <trkpt lat="46.29024" lon="5.30382">
        <ele>244.2</ele>
        <time>2022-08-12T08:10:27Z</time>
      </trkpt>
      <trkpt lat="46.29033" lon="5.3038">
        <ele>244</ele>
        <time>2022-08-12T08:10:28Z</time>
      </trkpt>
      <trkpt lat="46.2905" lon="5.30372">
        <ele>243.8</ele>
        <time>2022-08-12T08:10:30Z</time>
      </trkpt>
      <trkpt lat="46.29065" lon="5.30359">
        <ele>243.4</ele>
        <time>2022-08-12T08:10:32Z</time>
      </trkpt>
      <trkpt lat="46.29079" lon="5.30345">
        <ele>243</ele>
        <time>2022-08-12T08:10:34Z</time>
      </trkpt>
      <trkpt lat="46.29112" lon="5.3031">
        <ele>242.6</ele>
        <time>2022-08-12T08:10:39Z</time>
      </trkpt>
      <trkpt lat="46.29164" lon="5.30255">
        <ele>242.2</ele>
        <time>2022-08-12T08:10:47Z</time>
      </trkpt>
      <trkpt lat="46.29176" lon="5.30241">
        <ele>242.2</ele>
        <time>2022-08-12T08:10:49Z</time>
      </trkpt>
      <trkpt lat="46.29221" lon="5.30194">
        <ele>242.2</ele>
        <time>2022-08-12T08:10:56Z</time>
      </trkpt>
      <trkpt lat="46.29234" lon="5.3018">
        <ele>242.2</ele>
        <time>2022-08-12T08:10:58Z</time>
      </trkpt>
      <trkpt lat="46.29271" lon="5.30138">
        <ele>242</ele>
        <time>2022-08-12T08:11:04Z</time>
      </trkpt>
      <trkpt lat="46.29289" lon="5.30119">
        <ele>241.8</ele>
        <time>2022-08-12T08:11:07Z</time>
      </trkpt>
      <trkpt lat="46.29328" lon="5.30079">
        <ele>241.8</ele>
        <time>2022-08-12T08:11:13Z</time>
      </trkpt>
      <trkpt lat="46.29372" lon="5.30031">
        <ele>241.6</ele>
        <time>2022-08-12T08:11:20Z</time>
      </trkpt>
      <trkpt lat="46.29379" lon="5.30024">
        <ele>241.2</ele>
        <time>2022-08-12T08:11:21Z</time>
      </trkpt>
      <trkpt lat="46.29392" lon="5.30008">
        <ele>240.8</ele>
        <time>2022-08-12T08:11:23Z</time>
      </trkpt>
      <trkpt lat="46.29423" lon="5.29977">
        <ele>240.2</ele>
        <time>2022-08-12T08:11:28Z</time>
      </trkpt>
      <trkpt lat="46.29433" lon="5.29968">
        <ele>240.2</ele>
        <time>2022-08-12T08:11:30Z</time>
      </trkpt>
      <trkpt lat="46.29442" lon="5.29964">
        <ele>240.2</ele>
        <time>2022-08-12T08:11:32Z</time>
      </trkpt>
      <trkpt lat="46.29455" lon="5.29959">
        <ele>240.4</ele>
        <time>2022-08-12T08:11:35Z</time>
      </trkpt>
      <trkpt lat="46.29459" lon="5.2996">
        <ele>240.4</ele>
        <time>2022-08-12T08:11:36Z</time>
      </trkpt>
      <trkpt lat="46.29464" lon="5.29962">
        <ele>240.4</ele>
        <time>2022-08-12T08:11:37Z</time>
      </trkpt>
      <trkpt lat="46.29477" lon="5.29967">
        <ele>240.6</ele>
        <time>2022-08-12T08:11:39Z</time>
      </trkpt>
      <trkpt lat="46.29503" lon="5.29978">
        <ele>240.8</ele>
        <time>2022-08-12T08:11:43Z</time>
      </trkpt>
      <trkpt lat="46.29509" lon="5.29977">
        <ele>240.8</ele>
        <time>2022-08-12T08:11:44Z</time>
      </trkpt>
      <trkpt lat="46.29516" lon="5.29973">
        <ele>240.8</ele>
        <time>2022-08-12T08:11:45Z</time>
      </trkpt>
      <trkpt lat="46.29522" lon="5.29963">
        <ele>240.6</ele>
        <time>2022-08-12T08:11:46Z</time>
      </trkpt>
      <trkpt lat="46.29525" lon="5.29955">
        <ele>240.6</ele>
        <time>2022-08-12T08:11:47Z</time>
      </trkpt>
      <trkpt lat="46.29535" lon="5.29919">
        <ele>240.4</ele>
        <time>2022-08-12T08:11:50Z</time>
      </trkpt>
      <trkpt lat="46.29548" lon="5.29863">
        <ele>239.8</ele>
        <time>2022-08-12T08:11:55Z</time>
      </trkpt>
      <trkpt lat="46.2955" lon="5.29852">
        <ele>239.6</ele>
        <time>2022-08-12T08:11:56Z</time>
      </trkpt>
      <trkpt lat="46.29569" lon="5.29775">
        <ele>238.8</ele>
        <time>2022-08-12T08:12:03Z</time>
      </trkpt>
      <trkpt lat="46.29587" lon="5.29695">
        <ele>238.6</ele>
        <time>2022-08-12T08:12:10Z</time>
      </trkpt>
      <trkpt lat="46.29604" lon="5.2962">
        <ele>238.2</ele>
        <time>2022-08-12T08:12:18Z</time>
      </trkpt>
      <trkpt lat="46.29617" lon="5.29578">
        <ele>238</ele>
        <time>2022-08-12T08:12:21Z</time>
      </trkpt>
      <trkpt lat="46.29642" lon="5.29519">
        <ele>238</ele>
        <time>2022-08-12T08:12:27Z</time>
      </trkpt>
      <trkpt lat="46.29648" lon="5.2951">
        <ele>237.6</ele>
        <time>2022-08-12T08:12:28Z</time>
      </trkpt>
      <trkpt lat="46.29677" lon="5.29466">
        <ele>237</ele>
        <time>2022-08-12T08:12:33Z</time>
      </trkpt>
      <trkpt lat="46.29701" lon="5.29431">
        <ele>236.4</ele>
        <time>2022-08-12T08:12:37Z</time>
      </trkpt>
      <trkpt lat="46.29712" lon="5.29412">
        <ele>236.2</ele>
        <time>2022-08-12T08:12:39Z</time>
      </trkpt>
      <trkpt lat="46.29727" lon="5.29378">
        <ele>236</ele>
        <time>2022-08-12T08:12:42Z</time>
      </trkpt>
      <trkpt lat="46.29734" lon="5.29355">
        <ele>236.2</ele>
        <time>2022-08-12T08:12:44Z</time>
      </trkpt>
      <trkpt lat="46.29754" lon="5.29279">
        <ele>235.4</ele>
        <time>2022-08-12T08:12:50Z</time>
      </trkpt>
      <trkpt lat="46.29772" lon="5.29213">
        <ele>233.8</ele>
        <time>2022-08-12T08:12:55Z</time>
      </trkpt>
      <trkpt lat="46.29776" lon="5.292">
        <ele>232.8</ele>
        <time>2022-08-12T08:12:56Z</time>
      </trkpt>
      <trkpt lat="46.29782" lon="5.29189">
        <ele>232.6</ele>
        <time>2022-08-12T08:12:57Z</time>
      </trkpt>
      <trkpt lat="46.29789" lon="5.29178">
        <ele>232</ele>
        <time>2022-08-12T08:12:58Z</time>
      </trkpt>
      <trkpt lat="46.29795" lon="5.29171">
        <ele>231.4</ele>
        <time>2022-08-12T08:12:59Z</time>
      </trkpt>
      <trkpt lat="46.29812" lon="5.29153">
        <ele>230.4</ele>
        <time>2022-08-12T08:13:01Z</time>
      </trkpt>
      <trkpt lat="46.2984" lon="5.29123">
        <ele>229.2</ele>
        <time>2022-08-12T08:13:05Z</time>
      </trkpt>
      <trkpt lat="46.29866" lon="5.29091">
        <ele>229</ele>
        <time>2022-08-12T08:13:09Z</time>
      </trkpt>
      <trkpt lat="46.29882" lon="5.29077">
        <ele>228.6</ele>
        <time>2022-08-12T08:13:11Z</time>
      </trkpt>
      <trkpt lat="46.29897" lon="5.29066">
        <ele>228.4</ele>
        <time>2022-08-12T08:13:13Z</time>
      </trkpt>
      <trkpt lat="46.29905" lon="5.29061">
        <ele>228.2</ele>
        <time>2022-08-12T08:13:14Z</time>
      </trkpt>
      <trkpt lat="46.2995" lon="5.29031">
        <ele>227.2</ele>
        <time>2022-08-12T08:13:20Z</time>
      </trkpt>
      <trkpt lat="46.29965" lon="5.29023">
        <ele>227</ele>
        <time>2022-08-12T08:13:22Z</time>
      </trkpt>
      <trkpt lat="46.29995" lon="5.29007">
        <ele>226</ele>
        <time>2022-08-12T08:13:26Z</time>
      </trkpt>
      <trkpt lat="46.29998" lon="5.29">
        <ele>225.4</ele>
        <time>2022-08-12T08:13:27Z</time>
      </trkpt>
      <trkpt lat="46.3" lon="5.28992">
        <ele>225.4</ele>
        <time>2022-08-12T08:13:28Z</time>
      </trkpt>
      <trkpt lat="46.29999" lon="5.28984">
        <ele>225</ele>
        <time>2022-08-12T08:13:29Z</time>
      </trkpt>
      <trkpt lat="46.3" lon="5.28972">
        <ele>224.8</ele>
        <time>2022-08-12T08:13:31Z</time>
      </trkpt>
      <trkpt lat="46.30001" lon="5.28966">
        <ele>224.8</ele>
        <time>2022-08-12T08:13:32Z</time>
      </trkpt>
      <trkpt lat="46.30005" lon="5.28962">
        <ele>224.6</ele>
        <time>2022-08-12T08:13:33Z</time>
      </trkpt>
      <trkpt lat="46.30018" lon="5.28955">
        <ele>224.4</ele>
        <time>2022-08-12T08:13:35Z</time>
      </trkpt>
      <trkpt lat="46.30043" lon="5.2895">
        <ele>223.6</ele>
        <time>2022-08-12T08:13:38Z</time>
      </trkpt>
      <trkpt lat="46.30069" lon="5.28941">
        <ele>222.8</ele>
        <time>2022-08-12T08:13:41Z</time>
      </trkpt>
      <trkpt lat="46.30079" lon="5.28937">
        <ele>222.6</ele>
        <time>2022-08-12T08:13:42Z</time>
      </trkpt>
      <trkpt lat="46.30089" lon="5.28932">
        <ele>222.2</ele>
        <time>2022-08-12T08:13:43Z</time>
      </trkpt>
      <trkpt lat="46.30106" lon="5.28918">
        <ele>221.6</ele>
        <time>2022-08-12T08:13:45Z</time>
      </trkpt>
      <trkpt lat="46.30128" lon="5.28887">
        <ele>220</ele>
        <time>2022-08-12T08:13:48Z</time>
      </trkpt>
      <trkpt lat="46.30133" lon="5.28873">
        <ele>219.4</ele>
        <time>2022-08-12T08:13:49Z</time>
      </trkpt>
      <trkpt lat="46.30136" lon="5.28858">
        <ele>218.4</ele>
        <time>2022-08-12T08:13:50Z</time>
      </trkpt>
      <trkpt lat="46.3014" lon="5.28827">
        <ele>217.6</ele>
        <time>2022-08-12T08:13:52Z</time>
      </trkpt>
      <trkpt lat="46.30143" lon="5.28812">
        <ele>216.8</ele>
        <time>2022-08-12T08:13:53Z</time>
      </trkpt>
      <trkpt lat="46.30147" lon="5.28798">
        <ele>215.6</ele>
        <time>2022-08-12T08:13:55Z</time>
      </trkpt>
      <trkpt lat="46.30159" lon="5.28773">
        <ele>215</ele>
        <time>2022-08-12T08:13:56Z</time>
      </trkpt>
      <trkpt lat="46.30176" lon="5.28738">
        <ele>214.4</ele>
        <time>2022-08-12T08:13:59Z</time>
      </trkpt>
      <trkpt lat="46.30201" lon="5.28684">
        <ele>214.2</ele>
        <time>2022-08-12T08:14:04Z</time>
      </trkpt>
      <trkpt lat="46.30206" lon="5.28675">
        <ele>214.2</ele>
        <time>2022-08-12T08:14:05Z</time>
      </trkpt>
      <trkpt lat="46.30216" lon="5.2864">
        <ele>214.4</ele>
        <time>2022-08-12T08:14:08Z</time>
      </trkpt>
      <trkpt lat="46.30235" lon="5.28565">
        <ele>214.2</ele>
        <time>2022-08-12T08:14:15Z</time>
      </trkpt>
      <trkpt lat="46.30249" lon="5.28511">
        <ele>215.6</ele>
        <time>2022-08-12T08:14:21Z</time>
      </trkpt>
      <trkpt lat="46.30251" lon="5.28502">
        <ele>215.6</ele>
        <time>2022-08-12T08:14:22Z</time>
      </trkpt>
      <trkpt lat="46.3026" lon="5.2847">
        <ele>217</ele>
        <time>2022-08-12T08:14:26Z</time>
      </trkpt>
      <trkpt lat="46.30262" lon="5.28463">
        <ele>217.2</ele>
        <time>2022-08-12T08:14:27Z</time>
      </trkpt>
      <trkpt lat="46.30265" lon="5.28449">
        <ele>217.8</ele>
        <time>2022-08-12T08:14:29Z</time>
      </trkpt>
      <trkpt lat="46.30272" lon="5.28425">
        <ele>219</ele>
        <time>2022-08-12T08:14:33Z</time>
      </trkpt>
      <trkpt lat="46.30274" lon="5.28419">
        <ele>219.2</ele>
        <time>2022-08-12T08:14:34Z</time>
      </trkpt>
      <trkpt lat="46.30278" lon="5.28402">
        <ele>220.4</ele>
        <time>2022-08-12T08:14:37Z</time>
      </trkpt>
      <trkpt lat="46.3028" lon="5.28396">
        <ele>220.6</ele>
        <time>2022-08-12T08:14:38Z</time>
      </trkpt>
      <trkpt lat="46.30281" lon="5.2839">
        <ele>221</ele>
        <time>2022-08-12T08:14:39Z</time>
      </trkpt>
      <trkpt lat="46.30284" lon="5.28381">
        <ele>221.6</ele>
        <time>2022-08-12T08:14:41Z</time>
      </trkpt>
      <trkpt lat="46.3029" lon="5.28364">
        <ele>222.4</ele>
        <time>2022-08-12T08:14:44Z</time>
      </trkpt>
      <trkpt lat="46.30292" lon="5.28354">
        <ele>223</ele>
        <time>2022-08-12T08:14:46Z</time>
      </trkpt>
      <trkpt lat="46.30298" lon="5.28333">
        <ele>224.2</ele>
        <time>2022-08-12T08:14:50Z</time>
      </trkpt>
      <trkpt lat="46.30299" lon="5.28329">
        <ele>224.4</ele>
        <time>2022-08-12T08:14:51Z</time>
      </trkpt>
      <trkpt lat="46.30301" lon="5.28318">
        <ele>225.2</ele>
        <time>2022-08-12T08:14:53Z</time>
      </trkpt>
      <trkpt lat="46.30305" lon="5.28299">
        <ele>226.4</ele>
        <time>2022-08-12T08:14:57Z</time>
      </trkpt>
      <trkpt lat="46.30306" lon="5.28295">
        <ele>227</ele>
        <time>2022-08-12T08:14:58Z</time>
      </trkpt>
      <trkpt lat="46.30308" lon="5.28284">
        <ele>228</ele>
        <time>2022-08-12T08:15:00Z</time>
      </trkpt>
      <trkpt lat="46.3031" lon="5.28263">
        <ele>228.8</ele>
        <time>2022-08-12T08:15:04Z</time>
      </trkpt>
      <trkpt lat="46.3031" lon="5.28259">
        <ele>229.4</ele>
        <time>2022-08-12T08:15:05Z</time>
      </trkpt>
      <trkpt lat="46.30313" lon="5.28241">
        <ele>230.6</ele>
        <time>2022-08-12T08:15:09Z</time>
      </trkpt>
      <trkpt lat="46.30316" lon="5.28239">
        <ele>230.8</ele>
        <time>2022-08-12T08:15:10Z</time>
      </trkpt>
      <trkpt lat="46.30331" lon="5.28244">
        <ele>231.6</ele>
        <time>2022-08-12T08:15:14Z</time>
      </trkpt>
      <trkpt lat="46.30346" lon="5.28255">
        <ele>232.8</ele>
        <time>2022-08-12T08:15:18Z</time>
      </trkpt>
      <trkpt lat="46.3035" lon="5.28257">
        <ele>233</ele>
        <time>2022-08-12T08:15:19Z</time>
      </trkpt>
      <trkpt lat="46.30354" lon="5.28259">
        <ele>233</ele>
        <time>2022-08-12T08:15:20Z</time>
      </trkpt>
      <trkpt lat="46.3038" lon="5.28268">
        <ele>233.8</ele>
        <time>2022-08-12T08:15:26Z</time>
      </trkpt>
      <trkpt lat="46.30389" lon="5.2827">
        <ele>234</ele>
        <time>2022-08-12T08:15:28Z</time>
      </trkpt>
      <trkpt lat="46.30404" lon="5.28273">
        <ele>234.6</ele>
        <time>2022-08-12T08:15:31Z</time>
      </trkpt>
      <trkpt lat="46.30416" lon="5.28273">
        <ele>234.8</ele>
        <time>2022-08-12T08:15:33Z</time>
      </trkpt>
      <trkpt lat="46.30435" lon="5.28273">
        <ele>234.8</ele>
        <time>2022-08-12T08:15:36Z</time>
      </trkpt>
      <trkpt lat="46.30461" lon="5.2827">
        <ele>234.8</ele>
        <time>2022-08-12T08:15:40Z</time>
      </trkpt>
      <trkpt lat="46.30489" lon="5.28264">
        <ele>234.6</ele>
        <time>2022-08-12T08:15:44Z</time>
      </trkpt>
      <trkpt lat="46.30504" lon="5.28259">
        <ele>234.4</ele>
        <time>2022-08-12T08:15:46Z</time>
      </trkpt>
      <trkpt lat="46.30548" lon="5.28241">
        <ele>234.2</ele>
        <time>2022-08-12T08:15:52Z</time>
      </trkpt>
      <trkpt lat="46.30565" lon="5.28236">
        <ele>233.8</ele>
        <time>2022-08-12T08:15:54Z</time>
      </trkpt>
      <trkpt lat="46.30597" lon="5.28229">
        <ele>233.6</ele>
        <time>2022-08-12T08:15:58Z</time>
      </trkpt>
      <trkpt lat="46.30642" lon="5.28227">
        <ele>233.6</ele>
        <time>2022-08-12T08:16:04Z</time>
      </trkpt>
      <trkpt lat="46.30698" lon="5.28235">
        <ele>233.6</ele>
        <time>2022-08-12T08:16:11Z</time>
      </trkpt>
      <trkpt lat="46.30715" lon="5.28238">
        <ele>233.4</ele>
        <time>2022-08-12T08:16:13Z</time>
      </trkpt>
      <trkpt lat="46.30767" lon="5.28247">
        <ele>232.6</ele>
        <time>2022-08-12T08:16:19Z</time>
      </trkpt>
      <trkpt lat="46.30802" lon="5.28253">
        <ele>232</ele>
        <time>2022-08-12T08:16:23Z</time>
      </trkpt>
      <trkpt lat="46.3083" lon="5.28258">
        <ele>231.6</ele>
        <time>2022-08-12T08:16:26Z</time>
      </trkpt>
      <trkpt lat="46.30867" lon="5.28264">
        <ele>230.6</ele>
        <time>2022-08-12T08:16:30Z</time>
      </trkpt>
      <trkpt lat="46.30877" lon="5.28266">
        <ele>230</ele>
        <time>2022-08-12T08:16:31Z</time>
      </trkpt>
      <trkpt lat="46.30917" lon="5.2827">
        <ele>228.8</ele>
        <time>2022-08-12T08:16:35Z</time>
      </trkpt>
      <trkpt lat="46.3093" lon="5.28271">
        <ele>228.2</ele>
        <time>2022-08-12T08:16:36Z</time>
      </trkpt>
      <trkpt lat="46.30948" lon="5.28273">
        <ele>227.6</ele>
        <time>2022-08-12T08:16:38Z</time>
      </trkpt>
      <trkpt lat="46.30968" lon="5.28275">
        <ele>226.2</ele>
        <time>2022-08-12T08:16:40Z</time>
      </trkpt>
      <trkpt lat="46.30989" lon="5.28279">
        <ele>225</ele>
        <time>2022-08-12T08:16:42Z</time>
      </trkpt>
      <trkpt lat="46.30997" lon="5.28281">
        <ele>224.4</ele>
        <time>2022-08-12T08:16:43Z</time>
      </trkpt>
      <trkpt lat="46.31009" lon="5.28282">
        <ele>224.2</ele>
        <time>2022-08-12T08:16:44Z</time>
      </trkpt>
      <trkpt lat="46.31021" lon="5.28282">
        <ele>223.4</ele>
        <time>2022-08-12T08:16:45Z</time>
      </trkpt>
      <trkpt lat="46.31033" lon="5.28281">
        <ele>222.6</ele>
        <time>2022-08-12T08:16:46Z</time>
      </trkpt>
      <trkpt lat="46.31046" lon="5.2828">
        <ele>221.2</ele>
        <time>2022-08-12T08:16:47Z</time>
      </trkpt>
      <trkpt lat="46.31059" lon="5.28278">
        <ele>219.8</ele>
        <time>2022-08-12T08:16:48Z</time>
      </trkpt>
      <trkpt lat="46.31084" lon="5.28276">
        <ele>217.8</ele>
        <time>2022-08-12T08:16:50Z</time>
      </trkpt>
      <trkpt lat="46.31109" lon="5.28273">
        <ele>216.8</ele>
        <time>2022-08-12T08:16:52Z</time>
      </trkpt>
      <trkpt lat="46.31122" lon="5.28271">
        <ele>216.2</ele>
        <time>2022-08-12T08:16:53Z</time>
      </trkpt>
      <trkpt lat="46.31134" lon="5.2827">
        <ele>215.4</ele>
        <time>2022-08-12T08:16:54Z</time>
      </trkpt>
      <trkpt lat="46.31146" lon="5.28269">
        <ele>214</ele>
        <time>2022-08-12T08:16:55Z</time>
      </trkpt>
      <trkpt lat="46.31171" lon="5.28266">
        <ele>212.8</ele>
        <time>2022-08-12T08:16:57Z</time>
      </trkpt>
      <trkpt lat="46.31195" lon="5.28263">
        <ele>211</ele>
        <time>2022-08-12T08:16:59Z</time>
      </trkpt>
      <trkpt lat="46.31217" lon="5.2826">
        <ele>209.8</ele>
        <time>2022-08-12T08:17:02Z</time>
      </trkpt>
      <trkpt lat="46.31259" lon="5.28255">
        <ele>209</ele>
        <time>2022-08-12T08:17:05Z</time>
      </trkpt>
      <trkpt lat="46.31268" lon="5.28254">
        <ele>208.8</ele>
        <time>2022-08-12T08:17:06Z</time>
      </trkpt>
      <trkpt lat="46.31304" lon="5.28249">
        <ele>208.6</ele>
        <time>2022-08-12T08:17:10Z</time>
      </trkpt>
      <trkpt lat="46.31312" lon="5.28248">
        <ele>208.6</ele>
        <time>2022-08-12T08:17:11Z</time>
      </trkpt>
      <trkpt lat="46.31327" lon="5.28254">
        <ele>208.6</ele>
        <time>2022-08-12T08:17:13Z</time>
      </trkpt>
      <trkpt lat="46.3134" lon="5.28267">
        <ele>208.8</ele>
        <time>2022-08-12T08:17:15Z</time>
      </trkpt>
      <trkpt lat="46.31348" lon="5.28273">
        <ele>208.8</ele>
        <time>2022-08-12T08:17:16Z</time>
      </trkpt>
      <trkpt lat="46.31357" lon="5.28275">
        <ele>208.8</ele>
        <time>2022-08-12T08:17:17Z</time>
      </trkpt>
      <trkpt lat="46.31372" lon="5.2827">
        <ele>209.2</ele>
        <time>2022-08-12T08:17:19Z</time>
      </trkpt>
      <trkpt lat="46.31412" lon="5.2826">
        <ele>209.4</ele>
        <time>2022-08-12T08:17:24Z</time>
      </trkpt>
      <trkpt lat="46.31445" lon="5.28263">
        <ele>210</ele>
        <time>2022-08-12T08:17:28Z</time>
      </trkpt>
      <trkpt lat="46.31453" lon="5.28265">
        <ele>210</ele>
        <time>2022-08-12T08:17:29Z</time>
      </trkpt>
      <trkpt lat="46.31507" lon="5.28288">
        <ele>209.6</ele>
        <time>2022-08-12T08:17:36Z</time>
      </trkpt>
      <trkpt lat="46.31529" lon="5.28298">
        <ele>209.4</ele>
        <time>2022-08-12T08:17:39Z</time>
      </trkpt>
      <trkpt lat="46.3155" lon="5.28308">
        <ele>209.8</ele>
        <time>2022-08-12T08:17:42Z</time>
      </trkpt>
      <trkpt lat="46.31588" lon="5.28322">
        <ele>210.8</ele>
        <time>2022-08-12T08:17:48Z</time>
      </trkpt>
      <trkpt lat="46.31594" lon="5.28324">
        <ele>211.2</ele>
        <time>2022-08-12T08:17:49Z</time>
      </trkpt>
      <trkpt lat="46.31617" lon="5.28331">
        <ele>212.4</ele>
        <time>2022-08-12T08:17:53Z</time>
      </trkpt>
      <trkpt lat="46.31623" lon="5.28333">
        <ele>212.6</ele>
        <time>2022-08-12T08:17:54Z</time>
      </trkpt>
      <trkpt lat="46.31639" lon="5.28338">
        <ele>213.4</ele>
        <time>2022-08-12T08:17:57Z</time>
      </trkpt>
      <trkpt lat="46.3165" lon="5.28344">
        <ele>214.6</ele>
        <time>2022-08-12T08:17:59Z</time>
      </trkpt>
      <trkpt lat="46.31655" lon="5.28347">
        <ele>215</ele>
        <time>2022-08-12T08:18:00Z</time>
      </trkpt>
      <trkpt lat="46.31672" lon="5.28354">
        <ele>216</ele>
        <time>2022-08-12T08:18:03Z</time>
      </trkpt>
      <trkpt lat="46.31694" lon="5.28363">
        <ele>216.6</ele>
        <time>2022-08-12T08:18:07Z</time>
      </trkpt>
      <trkpt lat="46.31708" lon="5.28369">
        <ele>217.2</ele>
        <time>2022-08-12T08:18:10Z</time>
      </trkpt>
      <trkpt lat="46.31731" lon="5.28379">
        <ele>218.2</ele>
        <time>2022-08-12T08:18:15Z</time>
      </trkpt>
      <trkpt lat="46.31736" lon="5.2838">
        <ele>218.2</ele>
        <time>2022-08-12T08:18:16Z</time>
      </trkpt>
      <trkpt lat="46.3175" lon="5.28385">
        <ele>219.6</ele>
        <time>2022-08-12T08:18:19Z</time>
      </trkpt>
      <trkpt lat="46.31755" lon="5.28387">
        <ele>219.8</ele>
        <time>2022-08-12T08:18:20Z</time>
      </trkpt>
      <trkpt lat="46.31763" lon="5.28393">
        <ele>220.2</ele>
        <time>2022-08-12T08:18:22Z</time>
      </trkpt>
      <trkpt lat="46.31768" lon="5.28395">
        <ele>220.6</ele>
        <time>2022-08-12T08:18:23Z</time>
      </trkpt>
      <trkpt lat="46.31773" lon="5.28395">
        <ele>220.8</ele>
        <time>2022-08-12T08:18:24Z</time>
      </trkpt>
      <trkpt lat="46.31778" lon="5.28392">
        <ele>220.8</ele>
        <time>2022-08-12T08:18:25Z</time>
      </trkpt>
      <trkpt lat="46.31786" lon="5.28386">
        <ele>221.4</ele>
        <time>2022-08-12T08:18:27Z</time>
      </trkpt>
      <trkpt lat="46.3179" lon="5.28385">
        <ele>222</ele>
        <time>2022-08-12T08:18:28Z</time>
      </trkpt>
      <trkpt lat="46.31799" lon="5.28382">
        <ele>222.4</ele>
        <time>2022-08-12T08:18:30Z</time>
      </trkpt>
      <trkpt lat="46.31804" lon="5.28381">
        <ele>223</ele>
        <time>2022-08-12T08:18:31Z</time>
      </trkpt>
      <trkpt lat="46.31809" lon="5.2838">
        <ele>223.2</ele>
        <time>2022-08-12T08:18:32Z</time>
      </trkpt>
      <trkpt lat="46.31823" lon="5.28381">
        <ele>224.6</ele>
        <time>2022-08-12T08:18:35Z</time>
      </trkpt>
      <trkpt lat="46.31832" lon="5.28382">
        <ele>225.2</ele>
        <time>2022-08-12T08:18:37Z</time>
      </trkpt>
      <trkpt lat="46.31836" lon="5.28382">
        <ele>225.6</ele>
        <time>2022-08-12T08:18:38Z</time>
      </trkpt>
      <trkpt lat="46.31841" lon="5.28382">
        <ele>225.8</ele>
        <time>2022-08-12T08:18:39Z</time>
      </trkpt>
      <trkpt lat="46.31865" lon="5.28385">
        <ele>226.8</ele>
        <time>2022-08-12T08:18:44Z</time>
      </trkpt>
      <trkpt lat="46.31875" lon="5.28388">
        <ele>227.4</ele>
        <time>2022-08-12T08:18:46Z</time>
      </trkpt>
      <trkpt lat="46.31891" lon="5.28393">
        <ele>227.8</ele>
        <time>2022-08-12T08:18:49Z</time>
      </trkpt>
      <trkpt lat="46.31926" lon="5.28406">
        <ele>228.2</ele>
        <time>2022-08-12T08:18:55Z</time>
      </trkpt>
      <trkpt lat="46.31972" lon="5.28419">
        <ele>228.6</ele>
        <time>2022-08-12T08:19:03Z</time>
      </trkpt>
      <trkpt lat="46.31989" lon="5.28423">
        <ele>229</ele>
        <time>2022-08-12T08:19:06Z</time>
      </trkpt>
      <trkpt lat="46.31994" lon="5.28425">
        <ele>229.2</ele>
        <time>2022-08-12T08:19:07Z</time>
      </trkpt>
      <trkpt lat="46.32011" lon="5.28434">
        <ele>230</ele>
        <time>2022-08-12T08:19:10Z</time>
      </trkpt>
      <trkpt lat="46.32015" lon="5.28438">
        <ele>230.2</ele>
        <time>2022-08-12T08:19:11Z</time>
      </trkpt>
      <trkpt lat="46.32042" lon="5.28459">
        <ele>231</ele>
        <time>2022-08-12T08:19:16Z</time>
      </trkpt>
      <trkpt lat="46.32048" lon="5.28462">
        <ele>231</ele>
        <time>2022-08-12T08:19:17Z</time>
      </trkpt>
      <trkpt lat="46.32087" lon="5.28472">
        <ele>231.2</ele>
        <time>2022-08-12T08:19:23Z</time>
      </trkpt>
      <trkpt lat="46.32124" lon="5.28487">
        <ele>231.2</ele>
        <time>2022-08-12T08:19:29Z</time>
      </trkpt>
      <trkpt lat="46.32136" lon="5.28493">
        <ele>231.4</ele>
        <time>2022-08-12T08:19:31Z</time>
      </trkpt>
      <trkpt lat="46.32187" lon="5.28513">
        <ele>232</ele>
        <time>2022-08-12T08:19:39Z</time>
      </trkpt>
      <trkpt lat="46.32194" lon="5.28514">
        <ele>232.2</ele>
        <time>2022-08-12T08:19:40Z</time>
      </trkpt>
      <trkpt lat="46.32208" lon="5.28516">
        <ele>232.4</ele>
        <time>2022-08-12T08:19:42Z</time>
      </trkpt>
      <trkpt lat="46.32244" lon="5.28519">
        <ele>232.6</ele>
        <time>2022-08-12T08:19:47Z</time>
      </trkpt>
      <trkpt lat="46.32252" lon="5.28521">
        <ele>232.6</ele>
        <time>2022-08-12T08:19:48Z</time>
      </trkpt>
      <trkpt lat="46.32272" lon="5.28532">
        <ele>232.6</ele>
        <time>2022-08-12T08:19:51Z</time>
      </trkpt>
      <trkpt lat="46.32321" lon="5.28572">
        <ele>233.2</ele>
        <time>2022-08-12T08:19:59Z</time>
      </trkpt>
      <trkpt lat="46.32327" lon="5.28577">
        <ele>233.4</ele>
        <time>2022-08-12T08:20:00Z</time>
      </trkpt>
      <trkpt lat="46.32375" lon="5.28609">
        <ele>233.6</ele>
        <time>2022-08-12T08:20:07Z</time>
      </trkpt>
      <trkpt lat="46.32381" lon="5.28614">
        <ele>233.8</ele>
        <time>2022-08-12T08:20:08Z</time>
      </trkpt>
      <trkpt lat="46.32394" lon="5.28628">
        <ele>233.8</ele>
        <time>2022-08-12T08:20:10Z</time>
      </trkpt>
      <trkpt lat="46.324" lon="5.28635">
        <ele>233.8</ele>
        <time>2022-08-12T08:20:11Z</time>
      </trkpt>
      <trkpt lat="46.32433" lon="5.28686">
        <ele>233.4</ele>
        <time>2022-08-12T08:20:17Z</time>
      </trkpt>
      <trkpt lat="46.32478" lon="5.28735">
        <ele>233</ele>
        <time>2022-08-12T08:20:24Z</time>
      </trkpt>
      <trkpt lat="46.32524" lon="5.28789">
        <ele>232.6</ele>
        <time>2022-08-12T08:20:31Z</time>
      </trkpt>
      <trkpt lat="46.3253" lon="5.28797">
        <ele>232.6</ele>
        <time>2022-08-12T08:20:32Z</time>
      </trkpt>
      <trkpt lat="46.32544" lon="5.28811">
        <ele>232.4</ele>
        <time>2022-08-12T08:20:34Z</time>
      </trkpt>
      <trkpt lat="46.3256" lon="5.28822">
        <ele>232.4</ele>
        <time>2022-08-12T08:20:36Z</time>
      </trkpt>
      <trkpt lat="46.32616" lon="5.28847">
        <ele>232.2</ele>
        <time>2022-08-12T08:20:43Z</time>
      </trkpt>
      <trkpt lat="46.32669" lon="5.2887">
        <ele>232.6</ele>
        <time>2022-08-12T08:20:50Z</time>
      </trkpt>
      <trkpt lat="46.32676" lon="5.28873">
        <ele>232.8</ele>
        <time>2022-08-12T08:20:51Z</time>
      </trkpt>
      <trkpt lat="46.32729" lon="5.28891">
        <ele>233.2</ele>
        <time>2022-08-12T08:20:58Z</time>
      </trkpt>
      <trkpt lat="46.32744" lon="5.28897">
        <ele>233.4</ele>
        <time>2022-08-12T08:21:00Z</time>
      </trkpt>
      <trkpt lat="46.32796" lon="5.28922">
        <ele>233.4</ele>
        <time>2022-08-12T08:21:07Z</time>
      </trkpt>
      <trkpt lat="46.32847" lon="5.28946">
        <ele>233.8</ele>
        <time>2022-08-12T08:21:14Z</time>
      </trkpt>
      <trkpt lat="46.32855" lon="5.2895">
        <ele>233.8</ele>
        <time>2022-08-12T08:21:15Z</time>
      </trkpt>
      <trkpt lat="46.32912" lon="5.28978">
        <ele>233.8</ele>
        <time>2022-08-12T08:21:23Z</time>
      </trkpt>
      <trkpt lat="46.32969" lon="5.29008">
        <ele>233.6</ele>
        <time>2022-08-12T08:21:31Z</time>
      </trkpt>
      <trkpt lat="46.32969" lon="5.29008">
        <ele>233.6</ele>
        <time>2022-08-12T08:21:32Z</time>
      </trkpt>
      <trkpt lat="46.33023" lon="5.29043">
        <ele>234.2</ele>
        <time>2022-08-12T08:21:39Z</time>
      </trkpt>
      <trkpt lat="46.33036" lon="5.29053">
        <ele>234.2</ele>
        <time>2022-08-12T08:21:41Z</time>
      </trkpt>
      <trkpt lat="46.33084" lon="5.29085">
        <ele>234.8</ele>
        <time>2022-08-12T08:21:48Z</time>
      </trkpt>
      <trkpt lat="46.33104" lon="5.29099">
        <ele>235.2</ele>
        <time>2022-08-12T08:21:51Z</time>
      </trkpt>
      <trkpt lat="46.33148" lon="5.29122">
        <ele>235.6</ele>
        <time>2022-08-12T08:21:57Z</time>
      </trkpt>
      <trkpt lat="46.33191" lon="5.29133">
        <ele>235.6</ele>
        <time>2022-08-12T08:22:02Z</time>
      </trkpt>
      <trkpt lat="46.33241" lon="5.29139">
        <ele>234</ele>
        <time>2022-08-12T08:22:08Z</time>
      </trkpt>
      <trkpt lat="46.33248" lon="5.2914">
        <ele>233.8</ele>
        <time>2022-08-12T08:22:09Z</time>
      </trkpt>
      <trkpt lat="46.33262" lon="5.29147">
        <ele>233.4</ele>
        <time>2022-08-12T08:22:11Z</time>
      </trkpt>
      <trkpt lat="46.33269" lon="5.29152">
        <ele>233.4</ele>
        <time>2022-08-12T08:22:12Z</time>
      </trkpt>
      <trkpt lat="46.33297" lon="5.29182">
        <ele>233.2</ele>
        <time>2022-08-12T08:22:17Z</time>
      </trkpt>
      <trkpt lat="46.33313" lon="5.292">
        <ele>233.4</ele>
        <time>2022-08-12T08:22:20Z</time>
      </trkpt>
      <trkpt lat="46.33331" lon="5.29215">
        <ele>233.8</ele>
        <time>2022-08-12T08:22:23Z</time>
      </trkpt>
      <trkpt lat="46.33365" lon="5.2923">
        <ele>234.2</ele>
        <time>2022-08-12T08:22:28Z</time>
      </trkpt>
      <trkpt lat="46.33408" lon="5.29246">
        <ele>234.2</ele>
        <time>2022-08-12T08:22:35Z</time>
      </trkpt>
      <trkpt lat="46.33419" lon="5.29252">
        <ele>234.2</ele>
        <time>2022-08-12T08:22:37Z</time>
      </trkpt>
      <trkpt lat="46.33424" lon="5.29259">
        <ele>234.4</ele>
        <time>2022-08-12T08:22:39Z</time>
      </trkpt>
      <trkpt lat="46.33424" lon="5.29263">
        <ele>234.6</ele>
        <time>2022-08-12T08:22:40Z</time>
      </trkpt>
      <trkpt lat="46.33424" lon="5.29273">
        <ele>234.8</ele>
        <time>2022-08-12T08:22:42Z</time>
      </trkpt>
      <trkpt lat="46.33425" lon="5.29279">
        <ele>234.8</ele>
        <time>2022-08-12T08:22:43Z</time>
      </trkpt>
      <trkpt lat="46.33432" lon="5.29292">
        <ele>234.8</ele>
        <time>2022-08-12T08:22:45Z</time>
      </trkpt>
      <trkpt lat="46.33442" lon="5.29303">
        <ele>235</ele>
        <time>2022-08-12T08:22:47Z</time>
      </trkpt>
      <trkpt lat="46.33455" lon="5.29313">
        <ele>235</ele>
        <time>2022-08-12T08:22:49Z</time>
      </trkpt>
      <trkpt lat="46.33493" lon="5.29338">
        <ele>235</ele>
        <time>2022-08-12T08:22:55Z</time>
      </trkpt>
      <trkpt lat="46.33534" lon="5.29354">
        <ele>236</ele>
        <time>2022-08-12T08:23:01Z</time>
      </trkpt>
      <trkpt lat="46.33547" lon="5.29359">
        <ele>236</ele>
        <time>2022-08-12T08:23:03Z</time>
      </trkpt>
      <trkpt lat="46.33605" lon="5.29372">
        <ele>236.2</ele>
        <time>2022-08-12T08:23:11Z</time>
      </trkpt>
      <trkpt lat="46.33613" lon="5.29373">
        <ele>236.2</ele>
        <time>2022-08-12T08:23:12Z</time>
      </trkpt>
      <trkpt lat="46.33629" lon="5.29371">
        <ele>236.2</ele>
        <time>2022-08-12T08:23:14Z</time>
      </trkpt>
      <trkpt lat="46.33637" lon="5.29368">
        <ele>236</ele>
        <time>2022-08-12T08:23:15Z</time>
      </trkpt>
      <trkpt lat="46.33654" lon="5.29365">
        <ele>236</ele>
        <time>2022-08-12T08:23:17Z</time>
      </trkpt>
      <trkpt lat="46.33669" lon="5.29369">
        <ele>235.8</ele>
        <time>2022-08-12T08:23:19Z</time>
      </trkpt>
      <trkpt lat="46.33684" lon="5.2938">
        <ele>235.6</ele>
        <time>2022-08-12T08:23:21Z</time>
      </trkpt>
      <trkpt lat="46.33691" lon="5.29387">
        <ele>235.4</ele>
        <time>2022-08-12T08:23:22Z</time>
      </trkpt>
      <trkpt lat="46.33697" lon="5.29395">
        <ele>235.4</ele>
        <time>2022-08-12T08:23:23Z</time>
      </trkpt>
      <trkpt lat="46.3372" lon="5.2943">
        <ele>235</ele>
        <time>2022-08-12T08:23:27Z</time>
      </trkpt>
      <trkpt lat="46.3374" lon="5.29455">
        <ele>234.8</ele>
        <time>2022-08-12T08:23:30Z</time>
      </trkpt>
      <trkpt lat="46.33776" lon="5.29494">
        <ele>234.4</ele>
        <time>2022-08-12T08:23:35Z</time>
      </trkpt>
      <trkpt lat="46.33808" lon="5.29515">
        <ele>234.4</ele>
        <time>2022-08-12T08:23:39Z</time>
      </trkpt>
      <trkpt lat="46.33817" lon="5.29518">
        <ele>234.4</ele>
        <time>2022-08-12T08:23:40Z</time>
      </trkpt>
      <trkpt lat="46.33835" lon="5.29519">
        <ele>234.4</ele>
        <time>2022-08-12T08:23:42Z</time>
      </trkpt>
      <trkpt lat="46.33862" lon="5.29518">
        <ele>234.4</ele>
        <time>2022-08-12T08:23:45Z</time>
      </trkpt>
      <trkpt lat="46.33905" lon="5.29518">
        <ele>233.8</ele>
        <time>2022-08-12T08:23:50Z</time>
      </trkpt>
      <trkpt lat="46.3393" lon="5.29515">
        <ele>233.8</ele>
        <time>2022-08-12T08:23:53Z</time>
      </trkpt>
      <trkpt lat="46.33938" lon="5.29513">
        <ele>233.8</ele>
        <time>2022-08-12T08:23:54Z</time>
      </trkpt>
      <trkpt lat="46.33953" lon="5.29502">
        <ele>233.8</ele>
        <time>2022-08-12T08:23:56Z</time>
      </trkpt>
      <trkpt lat="46.33961" lon="5.29483">
        <ele>233.8</ele>
        <time>2022-08-12T08:23:58Z</time>
      </trkpt>
      <trkpt lat="46.33964" lon="5.29473">
        <ele>233.8</ele>
        <time>2022-08-12T08:23:59Z</time>
      </trkpt>
      <trkpt lat="46.33973" lon="5.29441">
        <ele>233.6</ele>
        <time>2022-08-12T08:24:02Z</time>
      </trkpt>
      <trkpt lat="46.33983" lon="5.29422">
        <ele>233.6</ele>
        <time>2022-08-12T08:24:04Z</time>
      </trkpt>
      <trkpt lat="46.34008" lon="5.29389">
        <ele>233.4</ele>
        <time>2022-08-12T08:24:08Z</time>
      </trkpt>
      <trkpt lat="46.34033" lon="5.29375">
        <ele>233.2</ele>
        <time>2022-08-12T08:24:11Z</time>
      </trkpt>
      <trkpt lat="46.34042" lon="5.29372">
        <ele>233.2</ele>
        <time>2022-08-12T08:24:12Z</time>
      </trkpt>
      <trkpt lat="46.34051" lon="5.29369">
        <ele>232.8</ele>
        <time>2022-08-12T08:24:13Z</time>
      </trkpt>
      <trkpt lat="46.34067" lon="5.29357">
        <ele>232.4</ele>
        <time>2022-08-12T08:24:15Z</time>
      </trkpt>
      <trkpt lat="46.34073" lon="5.29349">
        <ele>232.2</ele>
        <time>2022-08-12T08:24:16Z</time>
      </trkpt>
      <trkpt lat="46.34079" lon="5.29339">
        <ele>231.8</ele>
        <time>2022-08-12T08:24:17Z</time>
      </trkpt>
      <trkpt lat="46.34085" lon="5.29328">
        <ele>231.4</ele>
        <time>2022-08-12T08:24:18Z</time>
      </trkpt>
      <trkpt lat="46.34094" lon="5.29306">
        <ele>231.2</ele>
        <time>2022-08-12T08:24:20Z</time>
      </trkpt>
      <trkpt lat="46.34099" lon="5.29296">
        <ele>231.2</ele>
        <time>2022-08-12T08:24:21Z</time>
      </trkpt>
      <trkpt lat="46.34112" lon="5.2928">
        <ele>230.8</ele>
        <time>2022-08-12T08:24:23Z</time>
      </trkpt>
      <trkpt lat="46.34128" lon="5.29272">
        <ele>230.6</ele>
        <time>2022-08-12T08:24:25Z</time>
      </trkpt>
      <trkpt lat="46.34136" lon="5.2927">
        <ele>230.6</ele>
        <time>2022-08-12T08:24:26Z</time>
      </trkpt>
      <trkpt lat="46.34193" lon="5.29263">
        <ele>230.8</ele>
        <time>2022-08-12T08:24:33Z</time>
      </trkpt>
      <trkpt lat="46.34208" lon="5.29268">
        <ele>231</ele>
        <time>2022-08-12T08:24:35Z</time>
      </trkpt>
      <trkpt lat="46.34223" lon="5.29274">
        <ele>231.2</ele>
        <time>2022-08-12T08:24:37Z</time>
      </trkpt>
      <trkpt lat="46.34283" lon="5.29292">
        <ele>232.2</ele>
        <time>2022-08-12T08:24:45Z</time>
      </trkpt>
      <trkpt lat="46.3432" lon="5.29305">
        <ele>232.2</ele>
        <time>2022-08-12T08:24:50Z</time>
      </trkpt>
      <trkpt lat="46.34346" lon="5.29325">
        <ele>232.4</ele>
        <time>2022-08-12T08:24:54Z</time>
      </trkpt>
      <trkpt lat="46.34352" lon="5.2933">
        <ele>232.6</ele>
        <time>2022-08-12T08:24:55Z</time>
      </trkpt>
      <trkpt lat="46.34359" lon="5.29333">
        <ele>232.6</ele>
        <time>2022-08-12T08:24:56Z</time>
      </trkpt>
      <trkpt lat="46.34373" lon="5.29338">
        <ele>232.8</ele>
        <time>2022-08-12T08:24:58Z</time>
      </trkpt>
      <trkpt lat="46.34379" lon="5.29339">
        <ele>232.8</ele>
        <time>2022-08-12T08:24:59Z</time>
      </trkpt>
      <trkpt lat="46.34393" lon="5.29344">
        <ele>233.2</ele>
        <time>2022-08-12T08:25:01Z</time>
      </trkpt>
      <trkpt lat="46.34406" lon="5.29352">
        <ele>233.2</ele>
        <time>2022-08-12T08:25:03Z</time>
      </trkpt>
      <trkpt lat="46.34417" lon="5.29365">
        <ele>233.4</ele>
        <time>2022-08-12T08:25:05Z</time>
      </trkpt>
      <trkpt lat="46.34426" lon="5.29381">
        <ele>233.6</ele>
        <time>2022-08-12T08:25:07Z</time>
      </trkpt>
      <trkpt lat="46.34446" lon="5.29422">
        <ele>233.8</ele>
        <time>2022-08-12T08:25:12Z</time>
      </trkpt>
      <trkpt lat="46.34451" lon="5.2943">
        <ele>233.8</ele>
        <time>2022-08-12T08:25:13Z</time>
      </trkpt>
      <trkpt lat="46.34457" lon="5.29437">
        <ele>234</ele>
        <time>2022-08-12T08:25:14Z</time>
      </trkpt>
      <trkpt lat="46.34467" lon="5.29454">
        <ele>234</ele>
        <time>2022-08-12T08:25:16Z</time>
      </trkpt>
      <trkpt lat="46.3447" lon="5.29465">
        <ele>234</ele>
        <time>2022-08-12T08:25:17Z</time>
      </trkpt>
      <trkpt lat="46.34471" lon="5.29476">
        <ele>234</ele>
        <time>2022-08-12T08:25:18Z</time>
      </trkpt>
      <trkpt lat="46.34468" lon="5.295">
        <ele>234</ele>
        <time>2022-08-12T08:25:20Z</time>
      </trkpt>
      <trkpt lat="46.34458" lon="5.2956">
        <ele>233.6</ele>
        <time>2022-08-12T08:25:25Z</time>
      </trkpt>
      <trkpt lat="46.34458" lon="5.29572">
        <ele>233.2</ele>
        <time>2022-08-12T08:25:26Z</time>
      </trkpt>
      <trkpt lat="46.34459" lon="5.29584">
        <ele>233.2</ele>
        <time>2022-08-12T08:25:27Z</time>
      </trkpt>
      <trkpt lat="46.34463" lon="5.29594">
        <ele>233</ele>
        <time>2022-08-12T08:25:28Z</time>
      </trkpt>
      <trkpt lat="46.34471" lon="5.296">
        <ele>232.8</ele>
        <time>2022-08-12T08:25:29Z</time>
      </trkpt>
      <trkpt lat="46.3448" lon="5.29603">
        <ele>232.6</ele>
        <time>2022-08-12T08:25:30Z</time>
      </trkpt>
      <trkpt lat="46.34489" lon="5.29605">
        <ele>232</ele>
        <time>2022-08-12T08:25:31Z</time>
      </trkpt>
      <trkpt lat="46.34526" lon="5.29612">
        <ele>230.6</ele>
        <time>2022-08-12T08:25:35Z</time>
      </trkpt>
      <trkpt lat="46.34536" lon="5.29615">
        <ele>230.4</ele>
        <time>2022-08-12T08:25:36Z</time>
      </trkpt>
      <trkpt lat="46.34554" lon="5.29618">
        <ele>229.6</ele>
        <time>2022-08-12T08:25:38Z</time>
      </trkpt>
      <trkpt lat="46.34581" lon="5.2962">
        <ele>229.4</ele>
        <time>2022-08-12T08:25:41Z</time>
      </trkpt>
      <trkpt lat="46.34642" lon="5.29634">
        <ele>229.4</ele>
        <time>2022-08-12T08:25:48Z</time>
      </trkpt>
      <trkpt lat="46.34659" lon="5.29636">
        <ele>229.4</ele>
        <time>2022-08-12T08:25:50Z</time>
      </trkpt>
      <trkpt lat="46.34708" lon="5.29647">
        <ele>230</ele>
        <time>2022-08-12T08:25:56Z</time>
      </trkpt>
      <trkpt lat="46.34723" lon="5.29644">
        <ele>230.2</ele>
        <time>2022-08-12T08:25:58Z</time>
      </trkpt>
      <trkpt lat="46.3473" lon="5.2964">
        <ele>230.4</ele>
        <time>2022-08-12T08:25:59Z</time>
      </trkpt>
      <trkpt lat="46.34767" lon="5.2962">
        <ele>230.8</ele>
        <time>2022-08-12T08:26:04Z</time>
      </trkpt>
      <trkpt lat="46.34775" lon="5.29619">
        <ele>231</ele>
        <time>2022-08-12T08:26:05Z</time>
      </trkpt>
      <trkpt lat="46.3481" lon="5.29615">
        <ele>231.6</ele>
        <time>2022-08-12T08:26:10Z</time>
      </trkpt>
      <trkpt lat="46.34817" lon="5.29614">
        <ele>232</ele>
        <time>2022-08-12T08:26:11Z</time>
      </trkpt>
      <trkpt lat="46.3484" lon="5.29618">
        <ele>232.6</ele>
        <time>2022-08-12T08:26:14Z</time>
      </trkpt>
      <trkpt lat="46.34847" lon="5.29621">
        <ele>232.8</ele>
        <time>2022-08-12T08:26:15Z</time>
      </trkpt>
      <trkpt lat="46.34862" lon="5.29627">
        <ele>233</ele>
        <time>2022-08-12T08:26:17Z</time>
      </trkpt>
      <trkpt lat="46.34889" lon="5.29643">
        <ele>233.2</ele>
        <time>2022-08-12T08:26:21Z</time>
      </trkpt>
      <trkpt lat="46.34917" lon="5.29663">
        <ele>233.2</ele>
        <time>2022-08-12T08:26:25Z</time>
      </trkpt>
      <trkpt lat="46.34933" lon="5.29666">
        <ele>233.2</ele>
        <time>2022-08-12T08:26:27Z</time>
      </trkpt>
      <trkpt lat="46.34949" lon="5.2966">
        <ele>233.2</ele>
        <time>2022-08-12T08:26:29Z</time>
      </trkpt>
      <trkpt lat="46.34956" lon="5.29653">
        <ele>233</ele>
        <time>2022-08-12T08:26:30Z</time>
      </trkpt>
      <trkpt lat="46.34969" lon="5.29641">
        <ele>233</ele>
        <time>2022-08-12T08:26:32Z</time>
      </trkpt>
      <trkpt lat="46.34983" lon="5.29635">
        <ele>233</ele>
        <time>2022-08-12T08:26:34Z</time>
      </trkpt>
      <trkpt lat="46.35014" lon="5.29636">
        <ele>233</ele>
        <time>2022-08-12T08:26:38Z</time>
      </trkpt>
      <trkpt lat="46.35039" lon="5.29642">
        <ele>232.8</ele>
        <time>2022-08-12T08:26:41Z</time>
      </trkpt>
      <trkpt lat="46.35055" lon="5.29651">
        <ele>232.6</ele>
        <time>2022-08-12T08:26:43Z</time>
      </trkpt>
      <trkpt lat="46.35082" lon="5.29661">
        <ele>232</ele>
        <time>2022-08-12T08:26:46Z</time>
      </trkpt>
      <trkpt lat="46.35091" lon="5.29663">
        <ele>231.6</ele>
        <time>2022-08-12T08:26:47Z</time>
      </trkpt>
      <trkpt lat="46.351" lon="5.29663">
        <ele>231.2</ele>
        <time>2022-08-12T08:26:48Z</time>
      </trkpt>
      <trkpt lat="46.3512" lon="5.29662">
        <ele>230.4</ele>
        <time>2022-08-12T08:26:50Z</time>
      </trkpt>
      <trkpt lat="46.35135" lon="5.2966">
        <ele>230</ele>
        <time>2022-08-12T08:26:52Z</time>
      </trkpt>
      <trkpt lat="46.35175" lon="5.29655">
        <ele>229.8</ele>
        <time>2022-08-12T08:26:57Z</time>
      </trkpt>
      <trkpt lat="46.35219" lon="5.29647">
        <ele>231.2</ele>
        <time>2022-08-12T08:27:03Z</time>
      </trkpt>
      <trkpt lat="46.35226" lon="5.29646">
        <ele>231.6</ele>
        <time>2022-08-12T08:27:04Z</time>
      </trkpt>
      <trkpt lat="46.35263" lon="5.29645">
        <ele>232.8</ele>
        <time>2022-08-12T08:27:09Z</time>
      </trkpt>
      <trkpt lat="46.35314" lon="5.29651">
        <ele>233.6</ele>
        <time>2022-08-12T08:27:16Z</time>
      </trkpt>
      <trkpt lat="46.35321" lon="5.29652">
        <ele>233.8</ele>
        <time>2022-08-12T08:27:17Z</time>
      </trkpt>
      <trkpt lat="46.35372" lon="5.29667">
        <ele>234.2</ele>
        <time>2022-08-12T08:27:24Z</time>
      </trkpt>
      <trkpt lat="46.35423" lon="5.29684">
        <ele>234</ele>
        <time>2022-08-12T08:27:31Z</time>
      </trkpt>
      <trkpt lat="46.3547" lon="5.29697">
        <ele>233.6</ele>
        <time>2022-08-12T08:27:38Z</time>
      </trkpt>
      <trkpt lat="46.35483" lon="5.2969">
        <ele>233.4</ele>
        <time>2022-08-12T08:27:40Z</time>
      </trkpt>
      <trkpt lat="46.35488" lon="5.29684">
        <ele>233.4</ele>
        <time>2022-08-12T08:27:41Z</time>
      </trkpt>
      <trkpt lat="46.35494" lon="5.29676">
        <ele>233</ele>
        <time>2022-08-12T08:27:42Z</time>
      </trkpt>
      <trkpt lat="46.35504" lon="5.29662">
        <ele>232.8</ele>
        <time>2022-08-12T08:27:44Z</time>
      </trkpt>
      <trkpt lat="46.35512" lon="5.29655">
        <ele>232.6</ele>
        <time>2022-08-12T08:27:45Z</time>
      </trkpt>
      <trkpt lat="46.35518" lon="5.29653">
        <ele>232.6</ele>
        <time>2022-08-12T08:27:46Z</time>
      </trkpt>
      <trkpt lat="46.35542" lon="5.29649">
        <ele>232.4</ele>
        <time>2022-08-12T08:27:49Z</time>
      </trkpt>
      <trkpt lat="46.35583" lon="5.29638">
        <ele>232.6</ele>
        <time>2022-08-12T08:27:54Z</time>
      </trkpt>
      <trkpt lat="46.35637" lon="5.2961">
        <ele>233.4</ele>
        <time>2022-08-12T08:28:01Z</time>
      </trkpt>
      <trkpt lat="46.35645" lon="5.29606">
        <ele>233.6</ele>
        <time>2022-08-12T08:28:02Z</time>
      </trkpt>
      <trkpt lat="46.3566" lon="5.29597">
        <ele>233.6</ele>
        <time>2022-08-12T08:28:04Z</time>
      </trkpt>
      <trkpt lat="46.35687" lon="5.29573">
        <ele>233.4</ele>
        <time>2022-08-12T08:28:08Z</time>
      </trkpt>
      <trkpt lat="46.35717" lon="5.29552">
        <ele>233.6</ele>
        <time>2022-08-12T08:28:12Z</time>
      </trkpt>
      <trkpt lat="46.35724" lon="5.29549">
        <ele>233.4</ele>
        <time>2022-08-12T08:28:13Z</time>
      </trkpt>
      <trkpt lat="46.35746" lon="5.29543">
        <ele>233.2</ele>
        <time>2022-08-12T08:28:16Z</time>
      </trkpt>
      <trkpt lat="46.35763" lon="5.29543">
        <ele>233.2</ele>
        <time>2022-08-12T08:28:18Z</time>
      </trkpt>
      <trkpt lat="46.35787" lon="5.29543">
        <ele>232.6</ele>
        <time>2022-08-12T08:28:21Z</time>
      </trkpt>
      <trkpt lat="46.35811" lon="5.29545">
        <ele>232</ele>
        <time>2022-08-12T08:28:24Z</time>
      </trkpt>
      <trkpt lat="46.35849" lon="5.29547">
        <ele>231.6</ele>
        <time>2022-08-12T08:28:28Z</time>
      </trkpt>
      <trkpt lat="46.35869" lon="5.29549">
        <ele>231.2</ele>
        <time>2022-08-12T08:28:30Z</time>
      </trkpt>
      <trkpt lat="46.35897" lon="5.29554">
        <ele>230</ele>
        <time>2022-08-12T08:28:33Z</time>
      </trkpt>
      <trkpt lat="46.35932" lon="5.29556">
        <ele>229</ele>
        <time>2022-08-12T08:28:36Z</time>
      </trkpt>
      <trkpt lat="46.35963" lon="5.29553">
        <ele>227.8</ele>
        <time>2022-08-12T08:28:39Z</time>
      </trkpt>
      <trkpt lat="46.35992" lon="5.29551">
        <ele>226.8</ele>
        <time>2022-08-12T08:28:42Z</time>
      </trkpt>
      <trkpt lat="46.36011" lon="5.29548">
        <ele>226.4</ele>
        <time>2022-08-12T08:28:44Z</time>
      </trkpt>
      <trkpt lat="46.36066" lon="5.29541">
        <ele>226.2</ele>
        <time>2022-08-12T08:28:50Z</time>
      </trkpt>
      <trkpt lat="46.36091" lon="5.29538">
        <ele>226.4</ele>
        <time>2022-08-12T08:28:53Z</time>
      </trkpt>
      <trkpt lat="46.3615" lon="5.29528">
        <ele>226.4</ele>
        <time>2022-08-12T08:29:00Z</time>
      </trkpt>
      <trkpt lat="46.36157" lon="5.29527">
        <ele>226.4</ele>
        <time>2022-08-12T08:29:01Z</time>
      </trkpt>
      <trkpt lat="46.36177" lon="5.29519">
        <ele>227.2</ele>
        <time>2022-08-12T08:29:04Z</time>
      </trkpt>
      <trkpt lat="46.36189" lon="5.29509">
        <ele>227.8</ele>
        <time>2022-08-12T08:29:06Z</time>
      </trkpt>
      <trkpt lat="46.3623" lon="5.29473">
        <ele>228.8</ele>
        <time>2022-08-12T08:29:12Z</time>
      </trkpt>
      <trkpt lat="46.36247" lon="5.29467">
        <ele>228.8</ele>
        <time>2022-08-12T08:29:14Z</time>
      </trkpt>
      <trkpt lat="46.36255" lon="5.29467">
        <ele>228.8</ele>
        <time>2022-08-12T08:29:15Z</time>
      </trkpt>
      <trkpt lat="46.36265" lon="5.29469">
        <ele>228.4</ele>
        <time>2022-08-12T08:29:16Z</time>
      </trkpt>
      <trkpt lat="46.36291" lon="5.29478">
        <ele>227.2</ele>
        <time>2022-08-12T08:29:19Z</time>
      </trkpt>
      <trkpt lat="46.36305" lon="5.29487">
        <ele>226.8</ele>
        <time>2022-08-12T08:29:21Z</time>
      </trkpt>
      <trkpt lat="46.36312" lon="5.29492">
        <ele>226.8</ele>
        <time>2022-08-12T08:29:22Z</time>
      </trkpt>
      <trkpt lat="46.36319" lon="5.29498">
        <ele>226.8</ele>
        <time>2022-08-12T08:29:23Z</time>
      </trkpt>
      <trkpt lat="46.36359" lon="5.29544">
        <ele>228.4</ele>
        <time>2022-08-12T08:29:30Z</time>
      </trkpt>
      <trkpt lat="46.36382" lon="5.29588">
        <ele>229.2</ele>
        <time>2022-08-12T08:29:35Z</time>
      </trkpt>
      <trkpt lat="46.36395" lon="5.29603">
        <ele>229.4</ele>
        <time>2022-08-12T08:29:37Z</time>
      </trkpt>
      <trkpt lat="46.36409" lon="5.29616">
        <ele>229.2</ele>
        <time>2022-08-12T08:29:39Z</time>
      </trkpt>
      <trkpt lat="46.36461" lon="5.29656">
        <ele>228.4</ele>
        <time>2022-08-12T08:29:46Z</time>
      </trkpt>
      <trkpt lat="46.36469" lon="5.29661">
        <ele>228.4</ele>
        <time>2022-08-12T08:29:47Z</time>
      </trkpt>
      <trkpt lat="46.36521" lon="5.29685">
        <ele>227.6</ele>
        <time>2022-08-12T08:29:53Z</time>
      </trkpt>
      <trkpt lat="46.36579" lon="5.29708">
        <ele>227.8</ele>
        <time>2022-08-12T08:30:00Z</time>
      </trkpt>
      <trkpt lat="46.36587" lon="5.29712">
        <ele>227.8</ele>
        <time>2022-08-12T08:30:01Z</time>
      </trkpt>
      <trkpt lat="46.36646" lon="5.29741">
        <ele>228</ele>
        <time>2022-08-12T08:30:08Z</time>
      </trkpt>
      <trkpt lat="46.36672" lon="5.29755">
        <ele>227.4</ele>
        <time>2022-08-12T08:30:11Z</time>
      </trkpt>
      <trkpt lat="46.36727" lon="5.29795">
        <ele>226.4</ele>
        <time>2022-08-12T08:30:18Z</time>
      </trkpt>
      <trkpt lat="46.36771" lon="5.29827">
        <ele>226.6</ele>
        <time>2022-08-12T08:30:24Z</time>
      </trkpt>
      <trkpt lat="46.36808" lon="5.29844">
        <ele>227.2</ele>
        <time>2022-08-12T08:30:29Z</time>
      </trkpt>
      <trkpt lat="46.36815" lon="5.29846">
        <ele>227.2</ele>
        <time>2022-08-12T08:30:30Z</time>
      </trkpt>
      <trkpt lat="46.36827" lon="5.29845">
        <ele>227.6</ele>
        <time>2022-08-12T08:30:32Z</time>
      </trkpt>
      <trkpt lat="46.36841" lon="5.29841">
        <ele>228.4</ele>
        <time>2022-08-12T08:30:34Z</time>
      </trkpt>
      <trkpt lat="46.36871" lon="5.2983">
        <ele>229.2</ele>
        <time>2022-08-12T08:30:38Z</time>
      </trkpt>
      <trkpt lat="46.36885" lon="5.29826">
        <ele>229.4</ele>
        <time>2022-08-12T08:30:40Z</time>
      </trkpt>
      <trkpt lat="46.36912" lon="5.29818">
        <ele>229.4</ele>
        <time>2022-08-12T08:30:43Z</time>
      </trkpt>
      <trkpt lat="46.36948" lon="5.29814">
        <ele>228</ele>
        <time>2022-08-12T08:30:47Z</time>
      </trkpt>
      <trkpt lat="46.36956" lon="5.29815">
        <ele>227.8</ele>
        <time>2022-08-12T08:30:48Z</time>
      </trkpt>
      <trkpt lat="46.36978" lon="5.2982">
        <ele>227.2</ele>
        <time>2022-08-12T08:30:50Z</time>
      </trkpt>
      <trkpt lat="46.36989" lon="5.29821">
        <ele>226.4</ele>
        <time>2022-08-12T08:30:51Z</time>
      </trkpt>
      <trkpt lat="46.36999" lon="5.29821">
        <ele>225.8</ele>
        <time>2022-08-12T08:30:52Z</time>
      </trkpt>
      <trkpt lat="46.37019" lon="5.29824">
        <ele>225.2</ele>
        <time>2022-08-12T08:30:54Z</time>
      </trkpt>
      <trkpt lat="46.37038" lon="5.29833">
        <ele>223</ele>
        <time>2022-08-12T08:30:56Z</time>
      </trkpt>
      <trkpt lat="46.37061" lon="5.29851">
        <ele>222</ele>
        <time>2022-08-12T08:30:59Z</time>
      </trkpt>
      <trkpt lat="46.37068" lon="5.29857">
        <ele>222</ele>
        <time>2022-08-12T08:31:00Z</time>
      </trkpt>
      <trkpt lat="46.37105" lon="5.29883">
        <ele>222.4</ele>
        <time>2022-08-12T08:31:05Z</time>
      </trkpt>
      <trkpt lat="46.37131" lon="5.29903">
        <ele>223.2</ele>
        <time>2022-08-12T08:31:09Z</time>
      </trkpt>
      <trkpt lat="46.37143" lon="5.29912">
        <ele>223.6</ele>
        <time>2022-08-12T08:31:11Z</time>
      </trkpt>
      <trkpt lat="46.37157" lon="5.29922">
        <ele>224.8</ele>
        <time>2022-08-12T08:31:13Z</time>
      </trkpt>
      <trkpt lat="46.37168" lon="5.29931">
        <ele>225.8</ele>
        <time>2022-08-12T08:31:15Z</time>
      </trkpt>
      <trkpt lat="46.37176" lon="5.29934">
        <ele>226</ele>
        <time>2022-08-12T08:31:16Z</time>
      </trkpt>
      <trkpt lat="46.37184" lon="5.29935">
        <ele>226.4</ele>
        <time>2022-08-12T08:31:17Z</time>
      </trkpt>
      <trkpt lat="46.37192" lon="5.29934">
        <ele>226.6</ele>
        <time>2022-08-12T08:31:18Z</time>
      </trkpt>
      <trkpt lat="46.372" lon="5.29933">
        <ele>226.8</ele>
        <time>2022-08-12T08:31:19Z</time>
      </trkpt>
      <trkpt lat="46.37207" lon="5.2993">
        <ele>226.8</ele>
        <time>2022-08-12T08:31:20Z</time>
      </trkpt>
      <trkpt lat="46.37239" lon="5.29916">
        <ele>226.8</ele>
        <time>2022-08-12T08:31:24Z</time>
      </trkpt>
      <trkpt lat="46.3728" lon="5.29908">
        <ele>225.8</ele>
        <time>2022-08-12T08:31:29Z</time>
      </trkpt>
      <trkpt lat="46.37289" lon="5.29909">
        <ele>225.8</ele>
        <time>2022-08-12T08:31:30Z</time>
      </trkpt>
      <trkpt lat="46.37297" lon="5.29913">
        <ele>225.2</ele>
        <time>2022-08-12T08:31:31Z</time>
      </trkpt>
      <trkpt lat="46.37305" lon="5.29921">
        <ele>225.2</ele>
        <time>2022-08-12T08:31:32Z</time>
      </trkpt>
      <trkpt lat="46.37311" lon="5.2993">
        <ele>224.6</ele>
        <time>2022-08-12T08:31:33Z</time>
      </trkpt>
      <trkpt lat="46.37312" lon="5.29941">
        <ele>224.4</ele>
        <time>2022-08-12T08:31:34Z</time>
      </trkpt>
      <trkpt lat="46.3731" lon="5.29953">
        <ele>224</ele>
        <time>2022-08-12T08:31:35Z</time>
      </trkpt>
      <trkpt lat="46.37305" lon="5.29963">
        <ele>223.4</ele>
        <time>2022-08-12T08:31:36Z</time>
      </trkpt>
      <trkpt lat="46.37285" lon="5.29977">
        <ele>222.4</ele>
        <time>2022-08-12T08:31:38Z</time>
      </trkpt>
      <trkpt lat="46.37278" lon="5.29982">
        <ele>222.4</ele>
        <time>2022-08-12T08:31:39Z</time>
      </trkpt>
      <trkpt lat="46.37269" lon="5.29989">
        <ele>221.4</ele>
        <time>2022-08-12T08:31:40Z</time>
      </trkpt>
      <trkpt lat="46.37261" lon="5.29999">
        <ele>220.6</ele>
        <time>2022-08-12T08:31:41Z</time>
      </trkpt>
      <trkpt lat="46.37257" lon="5.30011">
        <ele>220.2</ele>
        <time>2022-08-12T08:31:42Z</time>
      </trkpt>
      <trkpt lat="46.37255" lon="5.30025">
        <ele>219.2</ele>
        <time>2022-08-12T08:31:43Z</time>
      </trkpt>
      <trkpt lat="46.37255" lon="5.30039">
        <ele>218.6</ele>
        <time>2022-08-12T08:31:44Z</time>
      </trkpt>
      <trkpt lat="46.37255" lon="5.30054">
        <ele>217.8</ele>
        <time>2022-08-12T08:31:45Z</time>
      </trkpt>
      <trkpt lat="46.37257" lon="5.30084">
        <ele>217.2</ele>
        <time>2022-08-12T08:31:47Z</time>
      </trkpt>
      <trkpt lat="46.37257" lon="5.30102">
        <ele>216.6</ele>
        <time>2022-08-12T08:31:48Z</time>
      </trkpt>
      <trkpt lat="46.37257" lon="5.3013">
        <ele>215.4</ele>
        <time>2022-08-12T08:31:50Z</time>
      </trkpt>
      <trkpt lat="46.37256" lon="5.30145">
        <ele>215</ele>
        <time>2022-08-12T08:31:51Z</time>
      </trkpt>
      <trkpt lat="46.37252" lon="5.3016">
        <ele>214.2</ele>
        <time>2022-08-12T08:31:52Z</time>
      </trkpt>
      <trkpt lat="46.37246" lon="5.30172">
        <ele>213.8</ele>
        <time>2022-08-12T08:31:53Z</time>
      </trkpt>
      <trkpt lat="46.37237" lon="5.30183">
        <ele>212.8</ele>
        <time>2022-08-12T08:31:54Z</time>
      </trkpt>
      <trkpt lat="46.37227" lon="5.30191">
        <ele>212</ele>
        <time>2022-08-12T08:31:55Z</time>
      </trkpt>
      <trkpt lat="46.37217" lon="5.30197">
        <ele>211.6</ele>
        <time>2022-08-12T08:31:56Z</time>
      </trkpt>
      <trkpt lat="46.37206" lon="5.30202">
        <ele>211</ele>
        <time>2022-08-12T08:31:57Z</time>
      </trkpt>
      <trkpt lat="46.37184" lon="5.30214">
        <ele>210</ele>
        <time>2022-08-12T08:31:59Z</time>
      </trkpt>
      <trkpt lat="46.37163" lon="5.30227">
        <ele>209</ele>
        <time>2022-08-12T08:32:01Z</time>
      </trkpt>
      <trkpt lat="46.37153" lon="5.30236">
        <ele>208</ele>
        <time>2022-08-12T08:32:02Z</time>
      </trkpt>
      <trkpt lat="46.37145" lon="5.30248">
        <ele>207.6</ele>
        <time>2022-08-12T08:32:03Z</time>
      </trkpt>
      <trkpt lat="46.37138" lon="5.30261">
        <ele>206.6</ele>
        <time>2022-08-12T08:32:04Z</time>
      </trkpt>
      <trkpt lat="46.37133" lon="5.30276">
        <ele>206.2</ele>
        <time>2022-08-12T08:32:05Z</time>
      </trkpt>
      <trkpt lat="46.37128" lon="5.3031">
        <ele>205.2</ele>
        <time>2022-08-12T08:32:07Z</time>
      </trkpt>
      <trkpt lat="46.37127" lon="5.30326">
        <ele>204.6</ele>
        <time>2022-08-12T08:32:08Z</time>
      </trkpt>
      <trkpt lat="46.37127" lon="5.30338">
        <ele>204.2</ele>
        <time>2022-08-12T08:32:09Z</time>
      </trkpt>
      <trkpt lat="46.37122" lon="5.30416">
        <ele>203</ele>
        <time>2022-08-12T08:32:14Z</time>
      </trkpt>
      <trkpt lat="46.37121" lon="5.30427">
        <ele>203</ele>
        <time>2022-08-12T08:32:15Z</time>
      </trkpt>
      <trkpt lat="46.37115" lon="5.30512">
        <ele>202</ele>
        <time>2022-08-12T08:32:21Z</time>
      </trkpt>
      <trkpt lat="46.37114" lon="5.30526">
        <ele>202</ele>
        <time>2022-08-12T08:32:22Z</time>
      </trkpt>
      <trkpt lat="46.37112" lon="5.30605">
        <ele>201.8</ele>
        <time>2022-08-12T08:32:28Z</time>
      </trkpt>
      <trkpt lat="46.37124" lon="5.30666">
        <ele>201.8</ele>
        <time>2022-08-12T08:32:33Z</time>
      </trkpt>
      <trkpt lat="46.37149" lon="5.30744">
        <ele>201.8</ele>
        <time>2022-08-12T08:32:40Z</time>
      </trkpt>
      <trkpt lat="46.37179" lon="5.30813">
        <ele>201.8</ele>
        <time>2022-08-12T08:32:47Z</time>
      </trkpt>
      <trkpt lat="46.37219" lon="5.30872">
        <ele>202.2</ele>
        <time>2022-08-12T08:32:54Z</time>
      </trkpt>
      <trkpt lat="46.37224" lon="5.3088">
        <ele>202.2</ele>
        <time>2022-08-12T08:32:55Z</time>
      </trkpt>
      <trkpt lat="46.37264" lon="5.30937">
        <ele>202.4</ele>
        <time>2022-08-12T08:33:02Z</time>
      </trkpt>
      <trkpt lat="46.37269" lon="5.30945">
        <ele>202.4</ele>
        <time>2022-08-12T08:33:03Z</time>
      </trkpt>
      <trkpt lat="46.37309" lon="5.31002">
        <ele>202.6</ele>
        <time>2022-08-12T08:33:10Z</time>
      </trkpt>
      <trkpt lat="46.37338" lon="5.31043">
        <ele>202.6</ele>
        <time>2022-08-12T08:33:15Z</time>
      </trkpt>
      <trkpt lat="46.37377" lon="5.31101">
        <ele>202.4</ele>
        <time>2022-08-12T08:33:22Z</time>
      </trkpt>
      <trkpt lat="46.37387" lon="5.31117">
        <ele>202.6</ele>
        <time>2022-08-12T08:33:24Z</time>
      </trkpt>
      <trkpt lat="46.37418" lon="5.31163">
        <ele>203.4</ele>
        <time>2022-08-12T08:33:30Z</time>
      </trkpt>
      <trkpt lat="46.37433" lon="5.31185">
        <ele>203.6</ele>
        <time>2022-08-12T08:33:33Z</time>
      </trkpt>
      <trkpt lat="46.37475" lon="5.31244">
        <ele>203.8</ele>
        <time>2022-08-12T08:33:41Z</time>
      </trkpt>
      <trkpt lat="46.3748" lon="5.31252">
        <ele>204</ele>
        <time>2022-08-12T08:33:42Z</time>
      </trkpt>
      <trkpt lat="46.37524" lon="5.31314">
        <ele>204</ele>
        <time>2022-08-12T08:33:50Z</time>
      </trkpt>
      <trkpt lat="46.37529" lon="5.31321">
        <ele>204</ele>
        <time>2022-08-12T08:33:51Z</time>
      </trkpt>
      <trkpt lat="46.3757" lon="5.31383">
        <ele>203.8</ele>
        <time>2022-08-12T08:33:59Z</time>
      </trkpt>
      <trkpt lat="46.37614" lon="5.31445">
        <ele>203.8</ele>
        <time>2022-08-12T08:34:07Z</time>
      </trkpt>
      <trkpt lat="46.3762" lon="5.31453">
        <ele>203.8</ele>
        <time>2022-08-12T08:34:08Z</time>
      </trkpt>
      <trkpt lat="46.37663" lon="5.31516">
        <ele>203.6</ele>
        <time>2022-08-12T08:34:16Z</time>
      </trkpt>
      <trkpt lat="46.37673" lon="5.31532">
        <ele>203.4</ele>
        <time>2022-08-12T08:34:18Z</time>
      </trkpt>
      <trkpt lat="46.37713" lon="5.3159">
        <ele>203.6</ele>
        <time>2022-08-12T08:34:26Z</time>
      </trkpt>
      <trkpt lat="46.37723" lon="5.31605">
        <ele>203.8</ele>
        <time>2022-08-12T08:34:28Z</time>
      </trkpt>
      <trkpt lat="46.37733" lon="5.3162">
        <ele>204</ele>
        <time>2022-08-12T08:34:30Z</time>
      </trkpt>
      <trkpt lat="46.37738" lon="5.31627">
        <ele>204.2</ele>
        <time>2022-08-12T08:34:31Z</time>
      </trkpt>
      <trkpt lat="46.37747" lon="5.31642">
        <ele>204.4</ele>
        <time>2022-08-12T08:34:33Z</time>
      </trkpt>
      <trkpt lat="46.37757" lon="5.31657">
        <ele>204.6</ele>
        <time>2022-08-12T08:34:35Z</time>
      </trkpt>
      <trkpt lat="46.37766" lon="5.31672">
        <ele>204.8</ele>
        <time>2022-08-12T08:34:37Z</time>
      </trkpt>
      <trkpt lat="46.37786" lon="5.31709">
        <ele>205</ele>
        <time>2022-08-12T08:34:42Z</time>
      </trkpt>
      <trkpt lat="46.37815" lon="5.31748">
        <ele>205.2</ele>
        <time>2022-08-12T08:34:47Z</time>
      </trkpt>
      <trkpt lat="46.3782" lon="5.31756">
        <ele>205.4</ele>
        <time>2022-08-12T08:34:48Z</time>
      </trkpt>
      <trkpt lat="46.37845" lon="5.31789">
        <ele>205.8</ele>
        <time>2022-08-12T08:34:52Z</time>
      </trkpt>
      <trkpt lat="46.37883" lon="5.31844">
        <ele>206.2</ele>
        <time>2022-08-12T08:34:59Z</time>
      </trkpt>
      <trkpt lat="46.37894" lon="5.31858">
        <ele>206.6</ele>
        <time>2022-08-12T08:35:01Z</time>
      </trkpt>
      <trkpt lat="46.37916" lon="5.31897">
        <ele>206.6</ele>
        <time>2022-08-12T08:35:06Z</time>
      </trkpt>
      <trkpt lat="46.37933" lon="5.31942">
        <ele>206.8</ele>
        <time>2022-08-12T08:35:11Z</time>
      </trkpt>
      <trkpt lat="46.37948" lon="5.32004">
        <ele>206.8</ele>
        <time>2022-08-12T08:35:17Z</time>
      </trkpt>
      <trkpt lat="46.37966" lon="5.32052">
        <ele>206.6</ele>
        <time>2022-08-12T08:35:22Z</time>
      </trkpt>
      <trkpt lat="46.37996" lon="5.32102">
        <ele>206.4</ele>
        <time>2022-08-12T08:35:28Z</time>
      </trkpt>
      <trkpt lat="46.3802" lon="5.32149">
        <ele>206.4</ele>
        <time>2022-08-12T08:35:34Z</time>
      </trkpt>
      <trkpt lat="46.38024" lon="5.32165">
        <ele>206.6</ele>
        <time>2022-08-12T08:35:36Z</time>
      </trkpt>
      <trkpt lat="46.38027" lon="5.32173">
        <ele>207</ele>
        <time>2022-08-12T08:35:37Z</time>
      </trkpt>
      <trkpt lat="46.38031" lon="5.3219">
        <ele>207.2</ele>
        <time>2022-08-12T08:35:39Z</time>
      </trkpt>
      <trkpt lat="46.38037" lon="5.32216">
        <ele>207.8</ele>
        <time>2022-08-12T08:35:42Z</time>
      </trkpt>
      <trkpt lat="46.38048" lon="5.32251">
        <ele>208.6</ele>
        <time>2022-08-12T08:35:46Z</time>
      </trkpt>
      <trkpt lat="46.38054" lon="5.32258">
        <ele>208.8</ele>
        <time>2022-08-12T08:35:47Z</time>
      </trkpt>
      <trkpt lat="46.3806" lon="5.32262">
        <ele>208.8</ele>
        <time>2022-08-12T08:35:48Z</time>
      </trkpt>
      <trkpt lat="46.38073" lon="5.32273">
        <ele>208.8</ele>
        <time>2022-08-12T08:35:50Z</time>
      </trkpt>
      <trkpt lat="46.38078" lon="5.32279">
        <ele>208.8</ele>
        <time>2022-08-12T08:35:51Z</time>
      </trkpt>
      <trkpt lat="46.38086" lon="5.32289">
        <ele>208.8</ele>
        <time>2022-08-12T08:35:52Z</time>
      </trkpt>
      <trkpt lat="46.38096" lon="5.3231">
        <ele>208.4</ele>
        <time>2022-08-12T08:35:54Z</time>
      </trkpt>
      <trkpt lat="46.3811" lon="5.3234">
        <ele>207.6</ele>
        <time>2022-08-12T08:35:57Z</time>
      </trkpt>
      <trkpt lat="46.38115" lon="5.32349">
        <ele>207</ele>
        <time>2022-08-12T08:35:58Z</time>
      </trkpt>
      <trkpt lat="46.38121" lon="5.32357">
        <ele>206.8</ele>
        <time>2022-08-12T08:35:59Z</time>
      </trkpt>
      <trkpt lat="46.38126" lon="5.32365">
        <ele>206.6</ele>
        <time>2022-08-12T08:36:00Z</time>
      </trkpt>
      <trkpt lat="46.38132" lon="5.32372">
        <ele>206.6</ele>
        <time>2022-08-12T08:36:01Z</time>
      </trkpt>
      <trkpt lat="46.38151" lon="5.32391">
        <ele>206.6</ele>
        <time>2022-08-12T08:36:04Z</time>
      </trkpt>
      <trkpt lat="46.38197" lon="5.32433">
        <ele>206.8</ele>
        <time>2022-08-12T08:36:11Z</time>
      </trkpt>
      <trkpt lat="46.38203" lon="5.3244">
        <ele>206.8</ele>
        <time>2022-08-12T08:36:12Z</time>
      </trkpt>
      <trkpt lat="46.3823" lon="5.32463">
        <ele>206.8</ele>
        <time>2022-08-12T08:36:16Z</time>
      </trkpt>
      <trkpt lat="46.38244" lon="5.3247">
        <ele>207</ele>
        <time>2022-08-12T08:36:18Z</time>
      </trkpt>
      <trkpt lat="46.3828" lon="5.32475">
        <ele>207</ele>
        <time>2022-08-12T08:36:23Z</time>
      </trkpt>
      <trkpt lat="46.38334" lon="5.32492">
        <ele>207.4</ele>
        <time>2022-08-12T08:36:30Z</time>
      </trkpt>
      <trkpt lat="46.38377" lon="5.32504">
        <ele>207.4</ele>
        <time>2022-08-12T08:36:36Z</time>
      </trkpt>
      <trkpt lat="46.38386" lon="5.32502">
        <ele>207.6</ele>
        <time>2022-08-12T08:36:37Z</time>
      </trkpt>
      <trkpt lat="46.38393" lon="5.32499">
        <ele>207.6</ele>
        <time>2022-08-12T08:36:38Z</time>
      </trkpt>
      <trkpt lat="46.38405" lon="5.32487">
        <ele>207.8</ele>
        <time>2022-08-12T08:36:40Z</time>
      </trkpt>
      <trkpt lat="46.38413" lon="5.32472">
        <ele>207.8</ele>
        <time>2022-08-12T08:36:42Z</time>
      </trkpt>
      <trkpt lat="46.38416" lon="5.32462">
        <ele>207.8</ele>
        <time>2022-08-12T08:36:43Z</time>
      </trkpt>
      <trkpt lat="46.38422" lon="5.32433">
        <ele>208</ele>
        <time>2022-08-12T08:36:46Z</time>
      </trkpt>
      <trkpt lat="46.38426" lon="5.32414">
        <ele>208</ele>
        <time>2022-08-12T08:36:48Z</time>
      </trkpt>
      <trkpt lat="46.38445" lon="5.32381">
        <ele>208</ele>
        <time>2022-08-12T08:36:52Z</time>
      </trkpt>
      <trkpt lat="46.38457" lon="5.32372">
        <ele>208.2</ele>
        <time>2022-08-12T08:36:54Z</time>
      </trkpt>
      <trkpt lat="46.38463" lon="5.3237">
        <ele>208.2</ele>
        <time>2022-08-12T08:36:55Z</time>
      </trkpt>
      <trkpt lat="46.3847" lon="5.3237">
        <ele>208.4</ele>
        <time>2022-08-12T08:36:56Z</time>
      </trkpt>
      <trkpt lat="46.38483" lon="5.32376">
        <ele>208.4</ele>
        <time>2022-08-12T08:36:58Z</time>
      </trkpt>
      <trkpt lat="46.38497" lon="5.32384">
        <ele>208.4</ele>
        <time>2022-08-12T08:37:00Z</time>
      </trkpt>
      <trkpt lat="46.38509" lon="5.32396">
        <ele>208.4</ele>
        <time>2022-08-12T08:37:02Z</time>
      </trkpt>
      <trkpt lat="46.38545" lon="5.32432">
        <ele>208.4</ele>
        <time>2022-08-12T08:37:08Z</time>
      </trkpt>
      <trkpt lat="46.38582" lon="5.32466">
        <ele>208.4</ele>
        <time>2022-08-12T08:37:14Z</time>
      </trkpt>
      <trkpt lat="46.38587" lon="5.32472">
        <ele>208.6</ele>
        <time>2022-08-12T08:37:15Z</time>
      </trkpt>
      <trkpt lat="46.38593" lon="5.32478">
        <ele>208.6</ele>
        <time>2022-08-12T08:37:16Z</time>
      </trkpt>
      <trkpt lat="46.38617" lon="5.32498">
        <ele>209</ele>
        <time>2022-08-12T08:37:20Z</time>
      </trkpt>
      <trkpt lat="46.38629" lon="5.32507">
        <ele>209.4</ele>
        <time>2022-08-12T08:37:22Z</time>
      </trkpt>
      <trkpt lat="46.3864" lon="5.32516">
        <ele>209.6</ele>
        <time>2022-08-12T08:37:24Z</time>
      </trkpt>
      <trkpt lat="46.38652" lon="5.32526">
        <ele>210</ele>
        <time>2022-08-12T08:37:26Z</time>
      </trkpt>
      <trkpt lat="46.38664" lon="5.32537">
        <ele>210</ele>
        <time>2022-08-12T08:37:28Z</time>
      </trkpt>
      <trkpt lat="46.38681" lon="5.32554">
        <ele>210.4</ele>
        <time>2022-08-12T08:37:31Z</time>
      </trkpt>
      <trkpt lat="46.38687" lon="5.3256">
        <ele>210.8</ele>
        <time>2022-08-12T08:37:32Z</time>
      </trkpt>
      <trkpt lat="46.38718" lon="5.32589">
        <ele>211.6</ele>
        <time>2022-08-12T08:37:37Z</time>
      </trkpt>
      <trkpt lat="46.3873" lon="5.32599">
        <ele>211.8</ele>
        <time>2022-08-12T08:37:39Z</time>
      </trkpt>
      <trkpt lat="46.38767" lon="5.32628">
        <ele>211.4</ele>
        <time>2022-08-12T08:37:45Z</time>
      </trkpt>
      <trkpt lat="46.38783" lon="5.32639">
        <ele>210.6</ele>
        <time>2022-08-12T08:37:48Z</time>
      </trkpt>
      <trkpt lat="46.38788" lon="5.32643">
        <ele>210.6</ele>
        <time>2022-08-12T08:37:49Z</time>
      </trkpt>
      <trkpt lat="46.38791" lon="5.3265">
        <ele>210.4</ele>
        <time>2022-08-12T08:37:50Z</time>
      </trkpt>
      <trkpt lat="46.38793" lon="5.32658">
        <ele>210.4</ele>
        <time>2022-08-12T08:37:51Z</time>
      </trkpt>
      <trkpt lat="46.38795" lon="5.32678">
        <ele>210.4</ele>
        <time>2022-08-12T08:37:53Z</time>
      </trkpt>
      <trkpt lat="46.38794" lon="5.3271">
        <ele>210</ele>
        <time>2022-08-12T08:37:56Z</time>
      </trkpt>
      <trkpt lat="46.38791" lon="5.32731">
        <ele>209.8</ele>
        <time>2022-08-12T08:37:58Z</time>
      </trkpt>
      <trkpt lat="46.38776" lon="5.32781">
        <ele>209.6</ele>
        <time>2022-08-12T08:38:03Z</time>
      </trkpt>
      <trkpt lat="46.38764" lon="5.32832">
        <ele>209.6</ele>
        <time>2022-08-12T08:38:08Z</time>
      </trkpt>
      <trkpt lat="46.38761" lon="5.32863">
        <ele>209.6</ele>
        <time>2022-08-12T08:38:11Z</time>
      </trkpt>
      <trkpt lat="46.38763" lon="5.32883">
        <ele>209.8</ele>
        <time>2022-08-12T08:38:13Z</time>
      </trkpt>
      <trkpt lat="46.38769" lon="5.329">
        <ele>210.2</ele>
        <time>2022-08-12T08:38:15Z</time>
      </trkpt>
      <trkpt lat="46.38773" lon="5.32905">
        <ele>210.4</ele>
        <time>2022-08-12T08:38:16Z</time>
      </trkpt>
      <trkpt lat="46.3878" lon="5.32911">
        <ele>210.4</ele>
        <time>2022-08-12T08:38:17Z</time>
      </trkpt>
      <trkpt lat="46.38794" lon="5.32916">
        <ele>210.6</ele>
        <time>2022-08-12T08:38:19Z</time>
      </trkpt>
      <trkpt lat="46.38831" lon="5.32929">
        <ele>210.8</ele>
        <time>2022-08-12T08:38:24Z</time>
      </trkpt>
      <trkpt lat="46.38889" lon="5.32952">
        <ele>211</ele>
        <time>2022-08-12T08:38:32Z</time>
      </trkpt>
      <trkpt lat="46.38896" lon="5.32954">
        <ele>211.4</ele>
        <time>2022-08-12T08:38:33Z</time>
      </trkpt>
      <trkpt lat="46.38939" lon="5.3297">
        <ele>211.4</ele>
        <time>2022-08-12T08:38:39Z</time>
      </trkpt>
      <trkpt lat="46.38974" lon="5.32982">
        <ele>211.6</ele>
        <time>2022-08-12T08:38:44Z</time>
      </trkpt>
      <trkpt lat="46.38988" lon="5.32987">
        <ele>211.8</ele>
        <time>2022-08-12T08:38:46Z</time>
      </trkpt>
      <trkpt lat="46.38994" lon="5.32988">
        <ele>211.8</ele>
        <time>2022-08-12T08:38:47Z</time>
      </trkpt>
      <trkpt lat="46.39002" lon="5.32991">
        <ele>211.8</ele>
        <time>2022-08-12T08:38:48Z</time>
      </trkpt>
      <trkpt lat="46.39028" lon="5.33001">
        <ele>211.8</ele>
        <time>2022-08-12T08:38:52Z</time>
      </trkpt>
      <trkpt lat="46.3909" lon="5.3302">
        <ele>212.6</ele>
        <time>2022-08-12T08:39:01Z</time>
      </trkpt>
      <trkpt lat="46.39126" lon="5.33016">
        <ele>212.6</ele>
        <time>2022-08-12T08:39:06Z</time>
      </trkpt>
      <trkpt lat="46.39147" lon="5.3301">
        <ele>212.8</ele>
        <time>2022-08-12T08:39:09Z</time>
      </trkpt>
      <trkpt lat="46.39198" lon="5.32993">
        <ele>212.8</ele>
        <time>2022-08-12T08:39:16Z</time>
      </trkpt>
      <trkpt lat="46.39258" lon="5.32968">
        <ele>212.6</ele>
        <time>2022-08-12T08:39:24Z</time>
      </trkpt>
      <trkpt lat="46.39311" lon="5.32943">
        <ele>213.2</ele>
        <time>2022-08-12T08:39:32Z</time>
      </trkpt>
      <trkpt lat="46.39323" lon="5.32938">
        <ele>213.4</ele>
        <time>2022-08-12T08:39:34Z</time>
      </trkpt>
      <trkpt lat="46.3934" lon="5.3293">
        <ele>213.8</ele>
        <time>2022-08-12T08:39:37Z</time>
      </trkpt>
      <trkpt lat="46.39352" lon="5.32925">
        <ele>214.4</ele>
        <time>2022-08-12T08:39:40Z</time>
      </trkpt>
      <trkpt lat="46.39356" lon="5.32918">
        <ele>214.8</ele>
        <time>2022-08-12T08:39:42Z</time>
      </trkpt>
      <trkpt lat="46.39357" lon="5.3291">
        <ele>215</ele>
        <time>2022-08-12T08:39:43Z</time>
      </trkpt>
      <trkpt lat="46.39357" lon="5.32905">
        <ele>215</ele>
        <time>2022-08-12T08:39:44Z</time>
      </trkpt>
      <trkpt lat="46.39358" lon="5.32893">
        <ele>215.4</ele>
        <time>2022-08-12T08:39:46Z</time>
      </trkpt>
      <trkpt lat="46.3936" lon="5.32888">
        <ele>215.6</ele>
        <time>2022-08-12T08:39:47Z</time>
      </trkpt>
      <trkpt lat="46.39363" lon="5.32884">
        <ele>215.6</ele>
        <time>2022-08-12T08:39:48Z</time>
      </trkpt>
      <trkpt lat="46.39371" lon="5.32884">
        <ele>216</ele>
        <time>2022-08-12T08:39:50Z</time>
      </trkpt>
      <trkpt lat="46.39381" lon="5.32893">
        <ele>216.4</ele>
        <time>2022-08-12T08:39:52Z</time>
      </trkpt>
      <trkpt lat="46.3939" lon="5.329">
        <ele>216.8</ele>
        <time>2022-08-12T08:39:54Z</time>
      </trkpt>
      <trkpt lat="46.39402" lon="5.32906">
        <ele>217</ele>
        <time>2022-08-12T08:39:56Z</time>
      </trkpt>
      <trkpt lat="46.39407" lon="5.32907">
        <ele>217.2</ele>
        <time>2022-08-12T08:39:57Z</time>
      </trkpt>
      <trkpt lat="46.39412" lon="5.32907">
        <ele>217.2</ele>
        <time>2022-08-12T08:39:58Z</time>
      </trkpt>
      <trkpt lat="46.3945" lon="5.32901">
        <ele>218</ele>
        <time>2022-08-12T08:40:05Z</time>
      </trkpt>
      <trkpt lat="46.39455" lon="5.32899">
        <ele>218.4</ele>
        <time>2022-08-12T08:40:06Z</time>
      </trkpt>
      <trkpt lat="46.39469" lon="5.32895">
        <ele>219.6</ele>
        <time>2022-08-12T08:40:09Z</time>
      </trkpt>
      <trkpt lat="46.39482" lon="5.3289">
        <ele>220.2</ele>
        <time>2022-08-12T08:40:12Z</time>
      </trkpt>
      <trkpt lat="46.39486" lon="5.32888">
        <ele>220.6</ele>
        <time>2022-08-12T08:40:13Z</time>
      </trkpt>
      <trkpt lat="46.39508" lon="5.32879">
        <ele>221.8</ele>
        <time>2022-08-12T08:40:18Z</time>
      </trkpt>
      <trkpt lat="46.39526" lon="5.32872">
        <ele>223</ele>
        <time>2022-08-12T08:40:22Z</time>
      </trkpt>
      <trkpt lat="46.3956" lon="5.32857">
        <ele>224</ele>
        <time>2022-08-12T08:40:29Z</time>
      </trkpt>
      <trkpt lat="46.39601" lon="5.32835">
        <ele>224</ele>
        <time>2022-08-12T08:40:36Z</time>
      </trkpt>
      <trkpt lat="46.39644" lon="5.32823">
        <ele>224.4</ele>
        <time>2022-08-12T08:40:43Z</time>
      </trkpt>
      <trkpt lat="46.3965" lon="5.32822">
        <ele>224.4</ele>
        <time>2022-08-12T08:40:44Z</time>
      </trkpt>
      <trkpt lat="46.39681" lon="5.32809">
        <ele>224.8</ele>
        <time>2022-08-12T08:40:50Z</time>
      </trkpt>
      <trkpt lat="46.3969" lon="5.32804">
        <ele>225</ele>
        <time>2022-08-12T08:40:52Z</time>
      </trkpt>
      <trkpt lat="46.39703" lon="5.32796">
        <ele>226.6</ele>
        <time>2022-08-12T08:40:55Z</time>
      </trkpt>
      <trkpt lat="46.39717" lon="5.32788">
        <ele>228</ele>
        <time>2022-08-12T08:40:58Z</time>
      </trkpt>
      <trkpt lat="46.39721" lon="5.32785">
        <ele>228.4</ele>
        <time>2022-08-12T08:40:59Z</time>
      </trkpt>
      <trkpt lat="46.3974" lon="5.32775">
        <ele>229</ele>
        <time>2022-08-12T08:41:03Z</time>
      </trkpt>
      <trkpt lat="46.39766" lon="5.32761">
        <ele>230.4</ele>
        <time>2022-08-12T08:41:09Z</time>
      </trkpt>
      <trkpt lat="46.39797" lon="5.32745">
        <ele>231.8</ele>
        <time>2022-08-12T08:41:16Z</time>
      </trkpt>
      <trkpt lat="46.39802" lon="5.32743">
        <ele>232</ele>
        <time>2022-08-12T08:41:17Z</time>
      </trkpt>
      <trkpt lat="46.39811" lon="5.32738">
        <ele>232.8</ele>
        <time>2022-08-12T08:41:19Z</time>
      </trkpt>
      <trkpt lat="46.39833" lon="5.32729">
        <ele>233.8</ele>
        <time>2022-08-12T08:41:24Z</time>
      </trkpt>
      <trkpt lat="46.39838" lon="5.32727">
        <ele>234</ele>
        <time>2022-08-12T08:41:25Z</time>
      </trkpt>
      <trkpt lat="46.39886" lon="5.32705">
        <ele>235</ele>
        <time>2022-08-12T08:41:35Z</time>
      </trkpt>
      <trkpt lat="46.3993" lon="5.32685">
        <ele>236.4</ele>
        <time>2022-08-12T08:41:44Z</time>
      </trkpt>
      <trkpt lat="46.39935" lon="5.32683">
        <ele>236.6</ele>
        <time>2022-08-12T08:41:45Z</time>
      </trkpt>
      <trkpt lat="46.39949" lon="5.32676">
        <ele>237.4</ele>
        <time>2022-08-12T08:41:48Z</time>
      </trkpt>
      <trkpt lat="46.39955" lon="5.32673">
        <ele>237.6</ele>
        <time>2022-08-12T08:41:49Z</time>
      </trkpt>
      <trkpt lat="46.39965" lon="5.32669">
        <ele>237.8</ele>
        <time>2022-08-12T08:41:51Z</time>
      </trkpt>
      <trkpt lat="46.40006" lon="5.3265">
        <ele>238.4</ele>
        <time>2022-08-12T08:41:59Z</time>
      </trkpt>
      <trkpt lat="46.40022" lon="5.32641">
        <ele>238.6</ele>
        <time>2022-08-12T08:42:02Z</time>
      </trkpt>
      <trkpt lat="46.4005" lon="5.32627">
        <ele>239.4</ele>
        <time>2022-08-12T08:42:07Z</time>
      </trkpt>
      <trkpt lat="46.40063" lon="5.32629">
        <ele>239.4</ele>
        <time>2022-08-12T08:42:09Z</time>
      </trkpt>
      <trkpt lat="46.40068" lon="5.32634">
        <ele>239.6</ele>
        <time>2022-08-12T08:42:10Z</time>
      </trkpt>
      <trkpt lat="46.40072" lon="5.32642">
        <ele>239.6</ele>
        <time>2022-08-12T08:42:11Z</time>
      </trkpt>
      <trkpt lat="46.40076" lon="5.32662">
        <ele>239.6</ele>
        <time>2022-08-12T08:42:13Z</time>
      </trkpt>
      <trkpt lat="46.4008" lon="5.32682">
        <ele>239.4</ele>
        <time>2022-08-12T08:42:15Z</time>
      </trkpt>
      <trkpt lat="46.40088" lon="5.32709">
        <ele>238.8</ele>
        <time>2022-08-12T08:42:18Z</time>
      </trkpt>
      <trkpt lat="46.40115" lon="5.32778">
        <ele>239.2</ele>
        <time>2022-08-12T08:42:26Z</time>
      </trkpt>
      <trkpt lat="46.40118" lon="5.32784">
        <ele>239.4</ele>
        <time>2022-08-12T08:42:27Z</time>
      </trkpt>
      <trkpt lat="46.40146" lon="5.32849">
        <ele>240.4</ele>
        <time>2022-08-12T08:42:35Z</time>
      </trkpt>
      <trkpt lat="46.40163" lon="5.32889">
        <ele>240.8</ele>
        <time>2022-08-12T08:42:40Z</time>
      </trkpt>
      <trkpt lat="46.4018" lon="5.32923">
        <ele>241</ele>
        <time>2022-08-12T08:42:44Z</time>
      </trkpt>
      <trkpt lat="46.40219" lon="5.32989">
        <ele>240.4</ele>
        <time>2022-08-12T08:42:52Z</time>
      </trkpt>
      <trkpt lat="46.40223" lon="5.32996">
        <ele>240.4</ele>
        <time>2022-08-12T08:42:53Z</time>
      </trkpt>
      <trkpt lat="46.40261" lon="5.33049">
        <ele>241</ele>
        <time>2022-08-12T08:43:00Z</time>
      </trkpt>
      <trkpt lat="46.40303" lon="5.33111">
        <ele>241.4</ele>
        <time>2022-08-12T08:43:08Z</time>
      </trkpt>
      <trkpt lat="46.40342" lon="5.33168">
        <ele>241.4</ele>
        <time>2022-08-12T08:43:15Z</time>
      </trkpt>
      <trkpt lat="46.4036" lon="5.33192">
        <ele>241.2</ele>
        <time>2022-08-12T08:43:18Z</time>
      </trkpt>
      <trkpt lat="46.40392" lon="5.33233">
        <ele>240.2</ele>
        <time>2022-08-12T08:43:23Z</time>
      </trkpt>
      <trkpt lat="46.40406" lon="5.33248">
        <ele>240</ele>
        <time>2022-08-12T08:43:25Z</time>
      </trkpt>
      <trkpt lat="46.40421" lon="5.33264">
        <ele>239.6</ele>
        <time>2022-08-12T08:43:27Z</time>
      </trkpt>
      <trkpt lat="46.40449" lon="5.33287">
        <ele>238.6</ele>
        <time>2022-08-12T08:43:31Z</time>
      </trkpt>
      <trkpt lat="46.40458" lon="5.33292">
        <ele>238.4</ele>
        <time>2022-08-12T08:43:32Z</time>
      </trkpt>
      <trkpt lat="46.40496" lon="5.33311">
        <ele>238.2</ele>
        <time>2022-08-12T08:43:37Z</time>
      </trkpt>
      <trkpt lat="46.4052" lon="5.33338">
        <ele>238.4</ele>
        <time>2022-08-12T08:43:41Z</time>
      </trkpt>
      <trkpt lat="46.40546" lon="5.33356">
        <ele>239.2</ele>
        <time>2022-08-12T08:43:45Z</time>
      </trkpt>
      <trkpt lat="46.40564" lon="5.33366">
        <ele>239.6</ele>
        <time>2022-08-12T08:43:48Z</time>
      </trkpt>
      <trkpt lat="46.40575" lon="5.33373">
        <ele>240</ele>
        <time>2022-08-12T08:43:50Z</time>
      </trkpt>
      <trkpt lat="46.40594" lon="5.33383">
        <ele>240.8</ele>
        <time>2022-08-12T08:43:53Z</time>
      </trkpt>
      <trkpt lat="46.40614" lon="5.33396">
        <ele>241.6</ele>
        <time>2022-08-12T08:43:57Z</time>
      </trkpt>
      <trkpt lat="46.4062" lon="5.334">
        <ele>242.2</ele>
        <time>2022-08-12T08:43:58Z</time>
      </trkpt>
      <trkpt lat="46.40641" lon="5.33414">
        <ele>243.2</ele>
        <time>2022-08-12T08:44:02Z</time>
      </trkpt>
      <trkpt lat="46.40646" lon="5.33417">
        <ele>243.6</ele>
        <time>2022-08-12T08:44:03Z</time>
      </trkpt>
      <trkpt lat="46.4066" lon="5.33425">
        <ele>244.4</ele>
        <time>2022-08-12T08:44:06Z</time>
      </trkpt>
      <trkpt lat="46.40679" lon="5.3344">
        <ele>245.8</ele>
        <time>2022-08-12T08:44:10Z</time>
      </trkpt>
      <trkpt lat="46.40705" lon="5.33457">
        <ele>246.4</ele>
        <time>2022-08-12T08:44:15Z</time>
      </trkpt>
      <trkpt lat="46.40716" lon="5.33463">
        <ele>247.2</ele>
        <time>2022-08-12T08:44:17Z</time>
      </trkpt>
      <trkpt lat="46.40721" lon="5.33465">
        <ele>247.2</ele>
        <time>2022-08-12T08:44:18Z</time>
      </trkpt>
      <trkpt lat="46.40745" lon="5.33478">
        <ele>248.2</ele>
        <time>2022-08-12T08:44:22Z</time>
      </trkpt>
      <trkpt lat="46.40755" lon="5.33483">
        <ele>248.4</ele>
        <time>2022-08-12T08:44:24Z</time>
      </trkpt>
      <trkpt lat="46.40788" lon="5.33497">
        <ele>249.2</ele>
        <time>2022-08-12T08:44:30Z</time>
      </trkpt>
      <trkpt lat="46.40804" lon="5.33502">
        <ele>249.8</ele>
        <time>2022-08-12T08:44:33Z</time>
      </trkpt>
      <trkpt lat="46.40815" lon="5.33505">
        <ele>250.2</ele>
        <time>2022-08-12T08:44:35Z</time>
      </trkpt>
      <trkpt lat="46.40842" lon="5.33512">
        <ele>251.4</ele>
        <time>2022-08-12T08:44:40Z</time>
      </trkpt>
      <trkpt lat="46.40853" lon="5.33514">
        <ele>251.8</ele>
        <time>2022-08-12T08:44:42Z</time>
      </trkpt>
      <trkpt lat="46.40868" lon="5.33519">
        <ele>252.4</ele>
        <time>2022-08-12T08:44:45Z</time>
      </trkpt>
      <trkpt lat="46.40895" lon="5.33526">
        <ele>253.6</ele>
        <time>2022-08-12T08:44:50Z</time>
      </trkpt>
      <trkpt lat="46.40905" lon="5.33529">
        <ele>254</ele>
        <time>2022-08-12T08:44:52Z</time>
      </trkpt>
      <trkpt lat="46.40928" lon="5.33536">
        <ele>254.8</ele>
        <time>2022-08-12T08:44:56Z</time>
      </trkpt>
      <trkpt lat="46.40939" lon="5.33538">
        <ele>255.2</ele>
        <time>2022-08-12T08:44:58Z</time>
      </trkpt>
      <trkpt lat="46.40981" lon="5.3355">
        <ele>255.4</ele>
        <time>2022-08-12T08:45:04Z</time>
      </trkpt>
      <trkpt lat="46.41038" lon="5.33566">
        <ele>254.2</ele>
        <time>2022-08-12T08:45:11Z</time>
      </trkpt>
      <trkpt lat="46.41047" lon="5.33569">
        <ele>254</ele>
        <time>2022-08-12T08:45:12Z</time>
      </trkpt>
      <trkpt lat="46.41056" lon="5.33572">
        <ele>253.8</ele>
        <time>2022-08-12T08:45:13Z</time>
      </trkpt>
      <trkpt lat="46.41092" lon="5.33589">
        <ele>252.6</ele>
        <time>2022-08-12T08:45:17Z</time>
      </trkpt>
      <trkpt lat="46.41101" lon="5.33594">
        <ele>251.8</ele>
        <time>2022-08-12T08:45:18Z</time>
      </trkpt>
      <trkpt lat="46.4111" lon="5.336">
        <ele>251.6</ele>
        <time>2022-08-12T08:45:19Z</time>
      </trkpt>
      <trkpt lat="46.41153" lon="5.33633">
        <ele>250</ele>
        <time>2022-08-12T08:45:24Z</time>
      </trkpt>
      <trkpt lat="46.412" lon="5.33676">
        <ele>249</ele>
        <time>2022-08-12T08:45:30Z</time>
      </trkpt>
      <trkpt lat="46.41231" lon="5.33704">
        <ele>249</ele>
        <time>2022-08-12T08:45:34Z</time>
      </trkpt>
      <trkpt lat="46.41265" lon="5.33736">
        <ele>250.2</ele>
        <time>2022-08-12T08:45:39Z</time>
      </trkpt>
      <trkpt lat="46.4127" lon="5.33741">
        <ele>250.4</ele>
        <time>2022-08-12T08:45:40Z</time>
      </trkpt>
      <trkpt lat="46.41296" lon="5.3377">
        <ele>251.4</ele>
        <time>2022-08-12T08:45:44Z</time>
      </trkpt>
      <trkpt lat="46.41313" lon="5.33789">
        <ele>252.4</ele>
        <time>2022-08-12T08:45:47Z</time>
      </trkpt>
      <trkpt lat="46.41319" lon="5.33793">
        <ele>252.6</ele>
        <time>2022-08-12T08:45:48Z</time>
      </trkpt>
      <trkpt lat="46.4133" lon="5.338">
        <ele>253</ele>
        <time>2022-08-12T08:45:50Z</time>
      </trkpt>
      <trkpt lat="46.41338" lon="5.33803">
        <ele>253.2</ele>
        <time>2022-08-12T08:45:51Z</time>
      </trkpt>
      <trkpt lat="46.4135" lon="5.33807">
        <ele>253.8</ele>
        <time>2022-08-12T08:45:53Z</time>
      </trkpt>
      <trkpt lat="46.41371" lon="5.33813">
        <ele>254.6</ele>
        <time>2022-08-12T08:45:56Z</time>
      </trkpt>
      <trkpt lat="46.41378" lon="5.33815">
        <ele>255</ele>
        <time>2022-08-12T08:45:57Z</time>
      </trkpt>
      <trkpt lat="46.41412" lon="5.33824">
        <ele>256.2</ele>
        <time>2022-08-12T08:46:02Z</time>
      </trkpt>
      <trkpt lat="46.41425" lon="5.33828">
        <ele>256.6</ele>
        <time>2022-08-12T08:46:04Z</time>
      </trkpt>
      <trkpt lat="46.41437" lon="5.33832">
        <ele>257.4</ele>
        <time>2022-08-12T08:46:06Z</time>
      </trkpt>
      <trkpt lat="46.41464" lon="5.33844">
        <ele>258.4</ele>
        <time>2022-08-12T08:46:11Z</time>
      </trkpt>
      <trkpt lat="46.41469" lon="5.33847">
        <ele>258.6</ele>
        <time>2022-08-12T08:46:12Z</time>
      </trkpt>
      <trkpt lat="46.41484" lon="5.33858">
        <ele>259.4</ele>
        <time>2022-08-12T08:46:15Z</time>
      </trkpt>
      <trkpt lat="46.415" lon="5.33868">
        <ele>260.4</ele>
        <time>2022-08-12T08:46:18Z</time>
      </trkpt>
      <trkpt lat="46.41505" lon="5.3387">
        <ele>260.6</ele>
        <time>2022-08-12T08:46:19Z</time>
      </trkpt>
      <trkpt lat="46.41526" lon="5.33878">
        <ele>261.2</ele>
        <time>2022-08-12T08:46:23Z</time>
      </trkpt>
      <trkpt lat="46.41536" lon="5.33879">
        <ele>261.6</ele>
        <time>2022-08-12T08:46:25Z</time>
      </trkpt>
      <trkpt lat="46.41543" lon="5.3388">
        <ele>261.8</ele>
        <time>2022-08-12T08:46:26Z</time>
      </trkpt>
      <trkpt lat="46.41553" lon="5.33881">
        <ele>262.8</ele>
        <time>2022-08-12T08:46:28Z</time>
      </trkpt>
      <trkpt lat="46.41586" lon="5.33887">
        <ele>263.6</ele>
        <time>2022-08-12T08:46:34Z</time>
      </trkpt>
      <trkpt lat="46.416" lon="5.33887">
        <ele>263.8</ele>
        <time>2022-08-12T08:46:36Z</time>
      </trkpt>
      <trkpt lat="46.41612" lon="5.33885">
        <ele>263.8</ele>
        <time>2022-08-12T08:46:38Z</time>
      </trkpt>
      <trkpt lat="46.4164" lon="5.33879">
        <ele>263.8</ele>
        <time>2022-08-12T08:46:42Z</time>
      </trkpt>
      <trkpt lat="46.41677" lon="5.33879">
        <ele>263.2</ele>
        <time>2022-08-12T08:46:47Z</time>
      </trkpt>
      <trkpt lat="46.41696" lon="5.33876">
        <ele>262.4</ele>
        <time>2022-08-12T08:46:49Z</time>
      </trkpt>
      <trkpt lat="46.41712" lon="5.33873">
        <ele>261.8</ele>
        <time>2022-08-12T08:46:51Z</time>
      </trkpt>
      <trkpt lat="46.41732" lon="5.33866">
        <ele>261.4</ele>
        <time>2022-08-12T08:46:53Z</time>
      </trkpt>
      <trkpt lat="46.41751" lon="5.33862">
        <ele>261</ele>
        <time>2022-08-12T08:46:55Z</time>
      </trkpt>
      <trkpt lat="46.41775" lon="5.33865">
        <ele>260.2</ele>
        <time>2022-08-12T08:46:57Z</time>
      </trkpt>
      <trkpt lat="46.41787" lon="5.33869">
        <ele>259.2</ele>
        <time>2022-08-12T08:46:58Z</time>
      </trkpt>
      <trkpt lat="46.41796" lon="5.33872">
        <ele>258.8</ele>
        <time>2022-08-12T08:46:59Z</time>
      </trkpt>
      <trkpt lat="46.41821" lon="5.3388">
        <ele>257.6</ele>
        <time>2022-08-12T08:47:01Z</time>
      </trkpt>
      <trkpt lat="46.41833" lon="5.33882">
        <ele>256.4</ele>
        <time>2022-08-12T08:47:02Z</time>
      </trkpt>
      <trkpt lat="46.41845" lon="5.33883">
        <ele>255.4</ele>
        <time>2022-08-12T08:47:03Z</time>
      </trkpt>
      <trkpt lat="46.41869" lon="5.33882">
        <ele>253.2</ele>
        <time>2022-08-12T08:47:05Z</time>
      </trkpt>
      <trkpt lat="46.41892" lon="5.3388">
        <ele>251.6</ele>
        <time>2022-08-12T08:47:07Z</time>
      </trkpt>
      <trkpt lat="46.41901" lon="5.33878">
        <ele>251.2</ele>
        <time>2022-08-12T08:47:08Z</time>
      </trkpt>
      <trkpt lat="46.41923" lon="5.33873">
        <ele>250.6</ele>
        <time>2022-08-12T08:47:10Z</time>
      </trkpt>
      <trkpt lat="46.41937" lon="5.33871">
        <ele>250.4</ele>
        <time>2022-08-12T08:47:11Z</time>
      </trkpt>
      <trkpt lat="46.41956" lon="5.33873">
        <ele>250.2</ele>
        <time>2022-08-12T08:47:13Z</time>
      </trkpt>
      <trkpt lat="46.41987" lon="5.33891">
        <ele>250.2</ele>
        <time>2022-08-12T08:47:16Z</time>
      </trkpt>
      <trkpt lat="46.42011" lon="5.33905">
        <ele>250.6</ele>
        <time>2022-08-12T08:47:19Z</time>
      </trkpt>
      <trkpt lat="46.42021" lon="5.33907">
        <ele>250.8</ele>
        <time>2022-08-12T08:47:20Z</time>
      </trkpt>
      <trkpt lat="46.42037" lon="5.33907">
        <ele>252.2</ele>
        <time>2022-08-12T08:47:22Z</time>
      </trkpt>
      <trkpt lat="46.42055" lon="5.33906">
        <ele>253.2</ele>
        <time>2022-08-12T08:47:24Z</time>
      </trkpt>
      <trkpt lat="46.42073" lon="5.33905">
        <ele>254.6</ele>
        <time>2022-08-12T08:47:26Z</time>
      </trkpt>
      <trkpt lat="46.42098" lon="5.33908">
        <ele>256</ele>
        <time>2022-08-12T08:47:29Z</time>
      </trkpt>
      <trkpt lat="46.42104" lon="5.33911">
        <ele>256.2</ele>
        <time>2022-08-12T08:47:30Z</time>
      </trkpt>
      <trkpt lat="46.42142" lon="5.3393">
        <ele>257</ele>
        <time>2022-08-12T08:47:35Z</time>
      </trkpt>
      <trkpt lat="46.4215" lon="5.33934">
        <ele>257.2</ele>
        <time>2022-08-12T08:47:36Z</time>
      </trkpt>
      <trkpt lat="46.42174" lon="5.33941">
        <ele>257.4</ele>
        <time>2022-08-12T08:47:39Z</time>
      </trkpt>
      <trkpt lat="46.42183" lon="5.33941">
        <ele>257.4</ele>
        <time>2022-08-12T08:47:40Z</time>
      </trkpt>
      <trkpt lat="46.42192" lon="5.33938">
        <ele>257.4</ele>
        <time>2022-08-12T08:47:41Z</time>
      </trkpt>
      <trkpt lat="46.42209" lon="5.33924">
        <ele>257.2</ele>
        <time>2022-08-12T08:47:43Z</time>
      </trkpt>
      <trkpt lat="46.42222" lon="5.33901">
        <ele>256</ele>
        <time>2022-08-12T08:47:45Z</time>
      </trkpt>
      <trkpt lat="46.42229" lon="5.33887">
        <ele>255.8</ele>
        <time>2022-08-12T08:47:46Z</time>
      </trkpt>
      <trkpt lat="46.4224" lon="5.33864">
        <ele>254.8</ele>
        <time>2022-08-12T08:47:48Z</time>
      </trkpt>
      <trkpt lat="46.42252" lon="5.33839">
        <ele>253.2</ele>
        <time>2022-08-12T08:47:50Z</time>
      </trkpt>
      <trkpt lat="46.42271" lon="5.338">
        <ele>252.4</ele>
        <time>2022-08-12T08:47:53Z</time>
      </trkpt>
      <trkpt lat="46.42279" lon="5.33784">
        <ele>252</ele>
        <time>2022-08-12T08:47:54Z</time>
      </trkpt>
      <trkpt lat="46.42292" lon="5.3376">
        <ele>250.6</ele>
        <time>2022-08-12T08:47:56Z</time>
      </trkpt>
      <trkpt lat="46.42306" lon="5.33737">
        <ele>249.4</ele>
        <time>2022-08-12T08:47:58Z</time>
      </trkpt>
      <trkpt lat="46.42314" lon="5.33726">
        <ele>249</ele>
        <time>2022-08-12T08:47:59Z</time>
      </trkpt>
      <trkpt lat="46.42329" lon="5.33709">
        <ele>247.6</ele>
        <time>2022-08-12T08:48:01Z</time>
      </trkpt>
      <trkpt lat="46.42349" lon="5.33694">
        <ele>246.8</ele>
        <time>2022-08-12T08:48:03Z</time>
      </trkpt>
      <trkpt lat="46.42361" lon="5.33686">
        <ele>246.4</ele>
        <time>2022-08-12T08:48:04Z</time>
      </trkpt>
      <trkpt lat="46.42394" lon="5.33672">
        <ele>245</ele>
        <time>2022-08-12T08:48:07Z</time>
      </trkpt>
      <trkpt lat="46.42417" lon="5.33678">
        <ele>243.8</ele>
        <time>2022-08-12T08:48:09Z</time>
      </trkpt>
      <trkpt lat="46.42426" lon="5.33683">
        <ele>242.6</ele>
        <time>2022-08-12T08:48:10Z</time>
      </trkpt>
      <trkpt lat="46.42449" lon="5.33698">
        <ele>241.6</ele>
        <time>2022-08-12T08:48:12Z</time>
      </trkpt>
      <trkpt lat="46.42458" lon="5.33707">
        <ele>241.2</ele>
        <time>2022-08-12T08:48:13Z</time>
      </trkpt>
      <trkpt lat="46.42478" lon="5.33724">
        <ele>240</ele>
        <time>2022-08-12T08:48:15Z</time>
      </trkpt>
      <trkpt lat="46.42496" lon="5.3374">
        <ele>239.6</ele>
        <time>2022-08-12T08:48:17Z</time>
      </trkpt>
      <trkpt lat="46.42527" lon="5.33762">
        <ele>239</ele>
        <time>2022-08-12T08:48:20Z</time>
      </trkpt>
      <trkpt lat="46.4257" lon="5.33789">
        <ele>238.2</ele>
        <time>2022-08-12T08:48:24Z</time>
      </trkpt>
      <trkpt lat="46.42579" lon="5.33793">
        <ele>237.8</ele>
        <time>2022-08-12T08:48:25Z</time>
      </trkpt>
      <trkpt lat="46.42592" lon="5.33798">
        <ele>237.6</ele>
        <time>2022-08-12T08:48:26Z</time>
      </trkpt>
      <trkpt lat="46.42603" lon="5.33801">
        <ele>236.2</ele>
        <time>2022-08-12T08:48:27Z</time>
      </trkpt>
      <trkpt lat="46.42612" lon="5.33802">
        <ele>235.8</ele>
        <time>2022-08-12T08:48:28Z</time>
      </trkpt>
      <trkpt lat="46.42626" lon="5.33801">
        <ele>234.6</ele>
        <time>2022-08-12T08:48:29Z</time>
      </trkpt>
      <trkpt lat="46.42659" lon="5.33797">
        <ele>233.4</ele>
        <time>2022-08-12T08:48:32Z</time>
      </trkpt>
      <trkpt lat="46.42709" lon="5.33796">
        <ele>232.4</ele>
        <time>2022-08-12T08:48:37Z</time>
      </trkpt>
      <trkpt lat="46.42721" lon="5.33798">
        <ele>232.4</ele>
        <time>2022-08-12T08:48:38Z</time>
      </trkpt>
      <trkpt lat="46.42731" lon="5.33802">
        <ele>232.4</ele>
        <time>2022-08-12T08:48:39Z</time>
      </trkpt>
      <trkpt lat="46.4274" lon="5.33807">
        <ele>232.2</ele>
        <time>2022-08-12T08:48:40Z</time>
      </trkpt>
      <trkpt lat="46.4277" lon="5.33823">
        <ele>231.2</ele>
        <time>2022-08-12T08:48:43Z</time>
      </trkpt>
      <trkpt lat="46.4278" lon="5.33828">
        <ele>231</ele>
        <time>2022-08-12T08:48:44Z</time>
      </trkpt>
      <trkpt lat="46.42802" lon="5.33832">
        <ele>230.2</ele>
        <time>2022-08-12T08:48:46Z</time>
      </trkpt>
      <trkpt lat="46.42814" lon="5.33833">
        <ele>230</ele>
        <time>2022-08-12T08:48:47Z</time>
      </trkpt>
      <trkpt lat="46.42836" lon="5.33834">
        <ele>229</ele>
        <time>2022-08-12T08:48:49Z</time>
      </trkpt>
      <trkpt lat="46.42847" lon="5.33835">
        <ele>227.4</ele>
        <time>2022-08-12T08:48:50Z</time>
      </trkpt>
      <trkpt lat="46.42857" lon="5.33836">
        <ele>226.8</ele>
        <time>2022-08-12T08:48:51Z</time>
      </trkpt>
      <trkpt lat="46.42867" lon="5.33837">
        <ele>225.8</ele>
        <time>2022-08-12T08:48:52Z</time>
      </trkpt>
      <trkpt lat="46.42904" lon="5.33841">
        <ele>225.4</ele>
        <time>2022-08-12T08:48:56Z</time>
      </trkpt>
      <trkpt lat="46.42923" lon="5.33844">
        <ele>225.4</ele>
        <time>2022-08-12T08:48:58Z</time>
      </trkpt>
      <trkpt lat="46.42948" lon="5.33857">
        <ele>225.6</ele>
        <time>2022-08-12T08:49:01Z</time>
      </trkpt>
      <trkpt lat="46.43002" lon="5.33895">
        <ele>226.6</ele>
        <time>2022-08-12T08:49:08Z</time>
      </trkpt>
      <trkpt lat="46.43023" lon="5.33913">
        <ele>227</ele>
        <time>2022-08-12T08:49:11Z</time>
      </trkpt>
      <trkpt lat="46.43055" lon="5.33945">
        <ele>227.2</ele>
        <time>2022-08-12T08:49:16Z</time>
      </trkpt>
      <trkpt lat="46.43103" lon="5.33993">
        <ele>227.6</ele>
        <time>2022-08-12T08:49:23Z</time>
      </trkpt>
      <trkpt lat="46.43115" lon="5.34009">
        <ele>227.6</ele>
        <time>2022-08-12T08:49:25Z</time>
      </trkpt>
      <trkpt lat="46.43147" lon="5.34055">
        <ele>228</ele>
        <time>2022-08-12T08:49:31Z</time>
      </trkpt>
      <trkpt lat="46.4315" lon="5.34062">
        <ele>228</ele>
        <time>2022-08-12T08:49:32Z</time>
      </trkpt>
      <trkpt lat="46.4317" lon="5.34091">
        <ele>228</ele>
        <time>2022-08-12T08:49:36Z</time>
      </trkpt>
      <trkpt lat="46.43195" lon="5.34122">
        <ele>227</ele>
        <time>2022-08-12T08:49:40Z</time>
      </trkpt>
      <trkpt lat="46.43208" lon="5.34136">
        <ele>226.4</ele>
        <time>2022-08-12T08:49:42Z</time>
      </trkpt>
      <trkpt lat="46.4324" lon="5.34168">
        <ele>225.8</ele>
        <time>2022-08-12T08:49:47Z</time>
      </trkpt>
      <trkpt lat="46.43284" lon="5.34208">
        <ele>226</ele>
        <time>2022-08-12T08:49:54Z</time>
      </trkpt>
      <trkpt lat="46.43306" lon="5.34224">
        <ele>226.8</ele>
        <time>2022-08-12T08:49:58Z</time>
      </trkpt>
      <trkpt lat="46.43312" lon="5.34228">
        <ele>226.8</ele>
        <time>2022-08-12T08:49:59Z</time>
      </trkpt>
      <trkpt lat="46.43318" lon="5.34231">
        <ele>227.2</ele>
        <time>2022-08-12T08:50:00Z</time>
      </trkpt>
      <trkpt lat="46.43334" lon="5.34241">
        <ele>228.4</ele>
        <time>2022-08-12T08:50:03Z</time>
      </trkpt>
      <trkpt lat="46.43346" lon="5.34246">
        <ele>229</ele>
        <time>2022-08-12T08:50:05Z</time>
      </trkpt>
      <trkpt lat="46.43358" lon="5.3425">
        <ele>230.2</ele>
        <time>2022-08-12T08:50:07Z</time>
      </trkpt>
      <trkpt lat="46.43386" lon="5.34257">
        <ele>231.2</ele>
        <time>2022-08-12T08:50:12Z</time>
      </trkpt>
      <trkpt lat="46.43395" lon="5.34261">
        <ele>231.8</ele>
        <time>2022-08-12T08:50:14Z</time>
      </trkpt>
      <trkpt lat="46.43404" lon="5.34264">
        <ele>232.4</ele>
        <time>2022-08-12T08:50:16Z</time>
      </trkpt>
      <trkpt lat="46.43418" lon="5.34268">
        <ele>233.6</ele>
        <time>2022-08-12T08:50:19Z</time>
      </trkpt>
      <trkpt lat="46.43432" lon="5.3427">
        <ele>234.6</ele>
        <time>2022-08-12T08:50:22Z</time>
      </trkpt>
      <trkpt lat="46.43437" lon="5.3427">
        <ele>234.8</ele>
        <time>2022-08-12T08:50:23Z</time>
      </trkpt>
      <trkpt lat="46.43446" lon="5.34272">
        <ele>235.6</ele>
        <time>2022-08-12T08:50:25Z</time>
      </trkpt>
      <trkpt lat="46.43451" lon="5.34268">
        <ele>237</ele>
        <time>2022-08-12T08:50:28Z</time>
      </trkpt>
      <trkpt lat="46.4345" lon="5.34265">
        <ele>238.2</ele>
        <time>2022-08-12T08:50:30Z</time>
      </trkpt>
      <trkpt lat="46.4345" lon="5.34263">
        <ele>239</ele>
        <time>2022-08-12T08:50:31Z</time>
      </trkpt>
      <trkpt lat="46.4345" lon="5.34261">
        <ele>239.2</ele>
        <time>2022-08-12T08:50:32Z</time>
      </trkpt>
      <trkpt lat="46.43454" lon="5.34245">
        <ele>240</ele>
        <time>2022-08-12T08:50:37Z</time>
      </trkpt>
      <trkpt lat="46.43456" lon="5.34225">
        <ele>240</ele>
        <time>2022-08-12T08:50:40Z</time>
      </trkpt>
      <trkpt lat="46.43458" lon="5.34218">
        <ele>240.2</ele>
        <time>2022-08-12T08:50:41Z</time>
      </trkpt>
      <trkpt lat="46.43462" lon="5.34203">
        <ele>240.2</ele>
        <time>2022-08-12T08:50:43Z</time>
      </trkpt>
      <trkpt lat="46.43468" lon="5.34177">
        <ele>240.4</ele>
        <time>2022-08-12T08:50:46Z</time>
      </trkpt>
      <trkpt lat="46.43475" lon="5.34115">
        <ele>240</ele>
        <time>2022-08-12T08:50:52Z</time>
      </trkpt>
      <trkpt lat="46.43478" lon="5.34071">
        <ele>239.4</ele>
        <time>2022-08-12T08:50:56Z</time>
      </trkpt>
      <trkpt lat="46.43479" lon="5.34061">
        <ele>239.2</ele>
        <time>2022-08-12T08:50:57Z</time>
      </trkpt>
      <trkpt lat="46.43483" lon="5.34018">
        <ele>238.2</ele>
        <time>2022-08-12T08:51:01Z</time>
      </trkpt>
      <trkpt lat="46.43487" lon="5.33961">
        <ele>237.4</ele>
        <time>2022-08-12T08:51:06Z</time>
      </trkpt>
      <trkpt lat="46.4349" lon="5.33924">
        <ele>237.2</ele>
        <time>2022-08-12T08:51:09Z</time>
      </trkpt>
      <trkpt lat="46.43492" lon="5.33911">
        <ele>236.8</ele>
        <time>2022-08-12T08:51:10Z</time>
      </trkpt>
      <trkpt lat="46.43495" lon="5.33885">
        <ele>236.2</ele>
        <time>2022-08-12T08:51:12Z</time>
      </trkpt>
      <trkpt lat="46.43498" lon="5.33861">
        <ele>235</ele>
        <time>2022-08-12T08:51:14Z</time>
      </trkpt>
      <trkpt lat="46.43499" lon="5.33848">
        <ele>234.4</ele>
        <time>2022-08-12T08:51:15Z</time>
      </trkpt>
      <trkpt lat="46.435" lon="5.33836">
        <ele>233.8</ele>
        <time>2022-08-12T08:51:16Z</time>
      </trkpt>
      <trkpt lat="46.43503" lon="5.33811">
        <ele>232.2</ele>
        <time>2022-08-12T08:51:18Z</time>
      </trkpt>
      <trkpt lat="46.43508" lon="5.33778">
        <ele>231</ele>
        <time>2022-08-12T08:51:21Z</time>
      </trkpt>
      <trkpt lat="46.43511" lon="5.33763">
        <ele>229.8</ele>
        <time>2022-08-12T08:51:23Z</time>
      </trkpt>
      <trkpt lat="46.43511" lon="5.33755">
        <ele>229.4</ele>
        <time>2022-08-12T08:51:24Z</time>
      </trkpt>
      <trkpt lat="46.4351" lon="5.33749">
        <ele>228.8</ele>
        <time>2022-08-12T08:51:25Z</time>
      </trkpt>
      <trkpt lat="46.43506" lon="5.33735">
        <ele>228.6</ele>
        <time>2022-08-12T08:51:27Z</time>
      </trkpt>
      <trkpt lat="46.43502" lon="5.33725">
        <ele>228.4</ele>
        <time>2022-08-12T08:51:28Z</time>
      </trkpt>
      <trkpt lat="46.43496" lon="5.33716">
        <ele>228.2</ele>
        <time>2022-08-12T08:51:29Z</time>
      </trkpt>
      <trkpt lat="46.43485" lon="5.33695">
        <ele>227.8</ele>
        <time>2022-08-12T08:51:31Z</time>
      </trkpt>
      <trkpt lat="46.43481" lon="5.33683">
        <ele>227.4</ele>
        <time>2022-08-12T08:51:32Z</time>
      </trkpt>
      <trkpt lat="46.43478" lon="5.33672">
        <ele>227.2</ele>
        <time>2022-08-12T08:51:33Z</time>
      </trkpt>
      <trkpt lat="46.43469" lon="5.33634">
        <ele>226.2</ele>
        <time>2022-08-12T08:51:36Z</time>
      </trkpt>
      <trkpt lat="46.43466" lon="5.33606">
        <ele>225.2</ele>
        <time>2022-08-12T08:51:38Z</time>
      </trkpt>
      <trkpt lat="46.43466" lon="5.33591">
        <ele>224.4</ele>
        <time>2022-08-12T08:51:39Z</time>
      </trkpt>
      <trkpt lat="46.43469" lon="5.33564">
        <ele>223.4</ele>
        <time>2022-08-12T08:51:41Z</time>
      </trkpt>
      <trkpt lat="46.43477" lon="5.33539">
        <ele>222</ele>
        <time>2022-08-12T08:51:43Z</time>
      </trkpt>
      <trkpt lat="46.43489" lon="5.33519">
        <ele>221</ele>
        <time>2022-08-12T08:51:45Z</time>
      </trkpt>
      <trkpt lat="46.43496" lon="5.3351">
        <ele>220.6</ele>
        <time>2022-08-12T08:51:46Z</time>
      </trkpt>
      <trkpt lat="46.43536" lon="5.33458">
        <ele>220.2</ele>
        <time>2022-08-12T08:51:52Z</time>
      </trkpt>
      <trkpt lat="46.43551" lon="5.33451">
        <ele>220</ele>
        <time>2022-08-12T08:51:54Z</time>
      </trkpt>
      <trkpt lat="46.4356" lon="5.3345">
        <ele>219.8</ele>
        <time>2022-08-12T08:51:55Z</time>
      </trkpt>
      <trkpt lat="46.43568" lon="5.3345">
        <ele>219.8</ele>
        <time>2022-08-12T08:51:56Z</time>
      </trkpt>
      <trkpt lat="46.436" lon="5.33453">
        <ele>219.6</ele>
        <time>2022-08-12T08:52:00Z</time>
      </trkpt>
      <trkpt lat="46.43659" lon="5.33454">
        <ele>219.4</ele>
        <time>2022-08-12T08:52:07Z</time>
      </trkpt>
      <trkpt lat="46.43711" lon="5.3345">
        <ele>218.8</ele>
        <time>2022-08-12T08:52:13Z</time>
      </trkpt>
      <trkpt lat="46.43744" lon="5.33447">
        <ele>218.6</ele>
        <time>2022-08-12T08:52:17Z</time>
      </trkpt>
      <trkpt lat="46.438" lon="5.33438">
        <ele>219.2</ele>
        <time>2022-08-12T08:52:24Z</time>
      </trkpt>
      <trkpt lat="46.43856" lon="5.33438">
        <ele>219.6</ele>
        <time>2022-08-12T08:52:31Z</time>
      </trkpt>
      <trkpt lat="46.43866" lon="5.3344">
        <ele>219.6</ele>
        <time>2022-08-12T08:52:32Z</time>
      </trkpt>
      <trkpt lat="46.43905" lon="5.33453">
        <ele>219.6</ele>
        <time>2022-08-12T08:52:37Z</time>
      </trkpt>
      <trkpt lat="46.43955" lon="5.33483">
        <ele>219.6</ele>
        <time>2022-08-12T08:52:44Z</time>
      </trkpt>
      <trkpt lat="46.44006" lon="5.33511">
        <ele>219.8</ele>
        <time>2022-08-12T08:52:51Z</time>
      </trkpt>
      <trkpt lat="46.44013" lon="5.33513">
        <ele>219.8</ele>
        <time>2022-08-12T08:52:52Z</time>
      </trkpt>
      <trkpt lat="46.44056" lon="5.33531">
        <ele>220.2</ele>
        <time>2022-08-12T08:52:58Z</time>
      </trkpt>
      <trkpt lat="46.44062" lon="5.33537">
        <ele>220.2</ele>
        <time>2022-08-12T08:52:59Z</time>
      </trkpt>
      <trkpt lat="46.44066" lon="5.33546">
        <ele>220.2</ele>
        <time>2022-08-12T08:53:00Z</time>
      </trkpt>
      <trkpt lat="46.44068" lon="5.33556">
        <ele>220.4</ele>
        <time>2022-08-12T08:53:01Z</time>
      </trkpt>
      <trkpt lat="46.44071" lon="5.33576">
        <ele>220.6</ele>
        <time>2022-08-12T08:53:03Z</time>
      </trkpt>
      <trkpt lat="46.44078" lon="5.33594">
        <ele>220.8</ele>
        <time>2022-08-12T08:53:05Z</time>
      </trkpt>
      <trkpt lat="46.44085" lon="5.33611">
        <ele>221</ele>
        <time>2022-08-12T08:53:07Z</time>
      </trkpt>
      <trkpt lat="46.44096" lon="5.33626">
        <ele>221.2</ele>
        <time>2022-08-12T08:53:09Z</time>
      </trkpt>
      <trkpt lat="46.44139" lon="5.33676">
        <ele>221.4</ele>
        <time>2022-08-12T08:53:17Z</time>
      </trkpt>
      <trkpt lat="46.44144" lon="5.33682">
        <ele>221.6</ele>
        <time>2022-08-12T08:53:18Z</time>
      </trkpt>
      <trkpt lat="46.44164" lon="5.33703">
        <ele>222</ele>
        <time>2022-08-12T08:53:22Z</time>
      </trkpt>
      <trkpt lat="46.44174" lon="5.33713">
        <ele>222.2</ele>
        <time>2022-08-12T08:53:24Z</time>
      </trkpt>
      <trkpt lat="46.44193" lon="5.33733">
        <ele>222.8</ele>
        <time>2022-08-12T08:53:29Z</time>
      </trkpt>
      <trkpt lat="46.44196" lon="5.33737">
        <ele>223</ele>
        <time>2022-08-12T08:53:32Z</time>
      </trkpt>
      <trkpt lat="46.44196" lon="5.33737">
        <ele>223.2</ele>
        <time>2022-08-12T08:53:34Z</time>
      </trkpt>
      <trkpt lat="46.44201" lon="5.33739">
        <ele>223.8</ele>
        <time>2022-08-12T08:54:49Z</time>
      </trkpt>
      <trkpt lat="46.44204" lon="5.33741">
        <ele>223.8</ele>
        <time>2022-08-12T08:54:50Z</time>
      </trkpt>
      <trkpt lat="46.44211" lon="5.33747">
        <ele>223.8</ele>
        <time>2022-08-12T08:54:52Z</time>
      </trkpt>
      <trkpt lat="46.44221" lon="5.33754">
        <ele>223.6</ele>
        <time>2022-08-12T08:54:54Z</time>
      </trkpt>
      <trkpt lat="46.44252" lon="5.33771">
        <ele>223</ele>
        <time>2022-08-12T08:55:00Z</time>
      </trkpt>
      <trkpt lat="46.44264" lon="5.33769">
        <ele>223</ele>
        <time>2022-08-12T08:55:02Z</time>
      </trkpt>
      <trkpt lat="46.44269" lon="5.33765">
        <ele>223</ele>
        <time>2022-08-12T08:55:03Z</time>
      </trkpt>
      <trkpt lat="46.44274" lon="5.33759">
        <ele>223</ele>
        <time>2022-08-12T08:55:04Z</time>
      </trkpt>
      <trkpt lat="46.44283" lon="5.33744">
        <ele>222.8</ele>
        <time>2022-08-12T08:55:06Z</time>
      </trkpt>
      <trkpt lat="46.44314" lon="5.33689">
        <ele>223.2</ele>
        <time>2022-08-12T08:55:14Z</time>
      </trkpt>
      <trkpt lat="46.44332" lon="5.33654">
        <ele>223.8</ele>
        <time>2022-08-12T08:55:19Z</time>
      </trkpt>
      <trkpt lat="46.44339" lon="5.33632">
        <ele>223.8</ele>
        <time>2022-08-12T08:55:22Z</time>
      </trkpt>
      <trkpt lat="46.44344" lon="5.33616">
        <ele>224</ele>
        <time>2022-08-12T08:55:24Z</time>
      </trkpt>
      <trkpt lat="46.44346" lon="5.33593">
        <ele>224.4</ele>
        <time>2022-08-12T08:55:27Z</time>
      </trkpt>
      <trkpt lat="46.44347" lon="5.33583">
        <ele>224.6</ele>
        <time>2022-08-12T08:55:28Z</time>
      </trkpt>
      <trkpt lat="46.44343" lon="5.33541">
        <ele>225.6</ele>
        <time>2022-08-12T08:55:33Z</time>
      </trkpt>
      <trkpt lat="46.4434" lon="5.33525">
        <ele>226</ele>
        <time>2022-08-12T08:55:35Z</time>
      </trkpt>
      <trkpt lat="46.44331" lon="5.33495">
        <ele>226.4</ele>
        <time>2022-08-12T08:55:39Z</time>
      </trkpt>
      <trkpt lat="46.44315" lon="5.33461">
        <ele>227</ele>
        <time>2022-08-12T08:55:44Z</time>
      </trkpt>
      <trkpt lat="46.44312" lon="5.33456">
        <ele>227.2</ele>
        <time>2022-08-12T08:55:45Z</time>
      </trkpt>
      <trkpt lat="46.44279" lon="5.33414">
        <ele>227.8</ele>
        <time>2022-08-12T08:55:53Z</time>
      </trkpt>
      <trkpt lat="46.44265" lon="5.33397">
        <ele>228.2</ele>
        <time>2022-08-12T08:55:56Z</time>
      </trkpt>
      <trkpt lat="46.44245" lon="5.33372">
        <ele>229.2</ele>
        <time>2022-08-12T08:56:01Z</time>
      </trkpt>
      <trkpt lat="46.44233" lon="5.33357">
        <ele>229.6</ele>
        <time>2022-08-12T08:56:04Z</time>
      </trkpt>
      <trkpt lat="46.44213" lon="5.3334">
        <ele>230.4</ele>
        <time>2022-08-12T08:56:08Z</time>
      </trkpt>
      <trkpt lat="46.44196" lon="5.33325">
        <ele>230.6</ele>
        <time>2022-08-12T08:56:12Z</time>
      </trkpt>
      <trkpt lat="46.44175" lon="5.33304">
        <ele>231.6</ele>
        <time>2022-08-12T08:56:17Z</time>
      </trkpt>
      <trkpt lat="46.44166" lon="5.33293">
        <ele>232</ele>
        <time>2022-08-12T08:56:19Z</time>
      </trkpt>
      <trkpt lat="46.44147" lon="5.33253">
        <ele>232.8</ele>
        <time>2022-08-12T08:56:26Z</time>
      </trkpt>
      <trkpt lat="46.44148" lon="5.3324">
        <ele>232.8</ele>
        <time>2022-08-12T08:56:28Z</time>
      </trkpt>
      <trkpt lat="46.44162" lon="5.33228">
        <ele>233.4</ele>
        <time>2022-08-12T08:56:31Z</time>
      </trkpt>
      <trkpt lat="46.44201" lon="5.33199">
        <ele>233.8</ele>
        <time>2022-08-12T08:56:37Z</time>
      </trkpt>
      <trkpt lat="46.44216" lon="5.3319">
        <ele>233.6</ele>
        <time>2022-08-12T08:56:39Z</time>
      </trkpt>
      <trkpt lat="46.44233" lon="5.33186">
        <ele>233.2</ele>
        <time>2022-08-12T08:56:41Z</time>
      </trkpt>
      <trkpt lat="46.44282" lon="5.33183">
        <ele>232.2</ele>
        <time>2022-08-12T08:56:47Z</time>
      </trkpt>
      <trkpt lat="46.4429" lon="5.33184">
        <ele>232</ele>
        <time>2022-08-12T08:56:48Z</time>
      </trkpt>
      <trkpt lat="46.44313" lon="5.3319">
        <ele>232</ele>
        <time>2022-08-12T08:56:51Z</time>
      </trkpt>
      <trkpt lat="46.44326" lon="5.33197">
        <ele>232</ele>
        <time>2022-08-12T08:56:53Z</time>
      </trkpt>
      <trkpt lat="46.44361" lon="5.33231">
        <ele>232.8</ele>
        <time>2022-08-12T08:56:59Z</time>
      </trkpt>
      <trkpt lat="46.44388" lon="5.33262">
        <ele>234.2</ele>
        <time>2022-08-12T08:57:04Z</time>
      </trkpt>
      <trkpt lat="46.44399" lon="5.33274">
        <ele>234.6</ele>
        <time>2022-08-12T08:57:06Z</time>
      </trkpt>
      <trkpt lat="46.44421" lon="5.33298">
        <ele>235.4</ele>
        <time>2022-08-12T08:57:10Z</time>
      </trkpt>
      <trkpt lat="46.44454" lon="5.33333">
        <ele>236</ele>
        <time>2022-08-12T08:57:16Z</time>
      </trkpt>
      <trkpt lat="46.44486" lon="5.33378">
        <ele>236</ele>
        <time>2022-08-12T08:57:22Z</time>
      </trkpt>
      <trkpt lat="46.44514" lon="5.33447">
        <ele>236</ele>
        <time>2022-08-12T08:57:29Z</time>
      </trkpt>
      <trkpt lat="46.4454" lon="5.33518">
        <ele>236</ele>
        <time>2022-08-12T08:57:36Z</time>
      </trkpt>
      <trkpt lat="46.44555" lon="5.33558">
        <ele>236.4</ele>
        <time>2022-08-12T08:57:40Z</time>
      </trkpt>
      <trkpt lat="46.44581" lon="5.33628">
        <ele>236.6</ele>
        <time>2022-08-12T08:57:47Z</time>
      </trkpt>
      <trkpt lat="46.44595" lon="5.33666">
        <ele>237</ele>
        <time>2022-08-12T08:57:51Z</time>
      </trkpt>
      <trkpt lat="46.44603" lon="5.33692">
        <ele>237.2</ele>
        <time>2022-08-12T08:57:54Z</time>
      </trkpt>
      <trkpt lat="46.44606" lon="5.337">
        <ele>237.8</ele>
        <time>2022-08-12T08:57:55Z</time>
      </trkpt>
      <trkpt lat="46.4461" lon="5.33708">
        <ele>238.6</ele>
        <time>2022-08-12T08:57:56Z</time>
      </trkpt>
      <trkpt lat="46.44613" lon="5.33715">
        <ele>239</ele>
        <time>2022-08-12T08:57:57Z</time>
      </trkpt>
      <trkpt lat="46.44625" lon="5.33744">
        <ele>240</ele>
        <time>2022-08-12T08:58:01Z</time>
      </trkpt>
      <trkpt lat="46.4463" lon="5.33758">
        <ele>241</ele>
        <time>2022-08-12T08:58:03Z</time>
      </trkpt>
      <trkpt lat="46.44632" lon="5.33765">
        <ele>241.2</ele>
        <time>2022-08-12T08:58:04Z</time>
      </trkpt>
      <trkpt lat="46.4464" lon="5.33787">
        <ele>243.2</ele>
        <time>2022-08-12T08:58:07Z</time>
      </trkpt>
      <trkpt lat="46.44649" lon="5.33806">
        <ele>244.4</ele>
        <time>2022-08-12T08:58:10Z</time>
      </trkpt>
      <trkpt lat="46.44658" lon="5.33827">
        <ele>244.8</ele>
        <time>2022-08-12T08:58:13Z</time>
      </trkpt>
      <trkpt lat="46.44666" lon="5.33839">
        <ele>245.4</ele>
        <time>2022-08-12T08:58:15Z</time>
      </trkpt>
      <trkpt lat="46.44671" lon="5.33845">
        <ele>245.6</ele>
        <time>2022-08-12T08:58:16Z</time>
      </trkpt>
      <trkpt lat="46.44694" lon="5.33859">
        <ele>246</ele>
        <time>2022-08-12T08:58:20Z</time>
      </trkpt>
      <trkpt lat="46.44712" lon="5.33867">
        <ele>246.4</ele>
        <time>2022-08-12T08:58:23Z</time>
      </trkpt>
      <trkpt lat="46.44749" lon="5.33883">
        <ele>247.4</ele>
        <time>2022-08-12T08:58:29Z</time>
      </trkpt>
      <trkpt lat="46.44755" lon="5.33885">
        <ele>247.2</ele>
        <time>2022-08-12T08:58:30Z</time>
      </trkpt>
      <trkpt lat="46.44765" lon="5.33895">
        <ele>247.6</ele>
        <time>2022-08-12T08:58:32Z</time>
      </trkpt>
      <trkpt lat="46.44769" lon="5.33912">
        <ele>248</ele>
        <time>2022-08-12T08:58:34Z</time>
      </trkpt>
      <trkpt lat="46.44769" lon="5.33921">
        <ele>248</ele>
        <time>2022-08-12T08:58:35Z</time>
      </trkpt>
      <trkpt lat="46.4477" lon="5.33939">
        <ele>248.4</ele>
        <time>2022-08-12T08:58:37Z</time>
      </trkpt>
      <trkpt lat="46.44773" lon="5.33967">
        <ele>248.8</ele>
        <time>2022-08-12T08:58:40Z</time>
      </trkpt>
      <trkpt lat="46.44775" lon="5.33976">
        <ele>248.8</ele>
        <time>2022-08-12T08:58:41Z</time>
      </trkpt>
      <trkpt lat="46.44783" lon="5.34031">
        <ele>248.8</ele>
        <time>2022-08-12T08:58:46Z</time>
      </trkpt>
      <trkpt lat="46.44794" lon="5.34095">
        <ele>247.8</ele>
        <time>2022-08-12T08:58:51Z</time>
      </trkpt>
      <trkpt lat="46.44795" lon="5.34108">
        <ele>246.8</ele>
        <time>2022-08-12T08:58:52Z</time>
      </trkpt>
      <trkpt lat="46.44796" lon="5.34119">
        <ele>246.6</ele>
        <time>2022-08-12T08:58:53Z</time>
      </trkpt>
      <trkpt lat="46.44799" lon="5.34128">
        <ele>246</ele>
        <time>2022-08-12T08:58:54Z</time>
      </trkpt>
      <trkpt lat="46.44804" lon="5.34134">
        <ele>245.6</ele>
        <time>2022-08-12T08:58:55Z</time>
      </trkpt>
      <trkpt lat="46.4481" lon="5.34134">
        <ele>245</ele>
        <time>2022-08-12T08:58:56Z</time>
      </trkpt>
      <trkpt lat="46.44816" lon="5.34131">
        <ele>244.2</ele>
        <time>2022-08-12T08:58:57Z</time>
      </trkpt>
      <trkpt lat="46.44827" lon="5.34119">
        <ele>243.6</ele>
        <time>2022-08-12T08:58:59Z</time>
      </trkpt>
      <trkpt lat="46.44838" lon="5.34108">
        <ele>243.4</ele>
        <time>2022-08-12T08:59:01Z</time>
      </trkpt>
      <trkpt lat="46.44856" lon="5.34097">
        <ele>243.2</ele>
        <time>2022-08-12T08:59:04Z</time>
      </trkpt>
      <trkpt lat="46.44863" lon="5.34094">
        <ele>243.2</ele>
        <time>2022-08-12T08:59:05Z</time>
      </trkpt>
      <trkpt lat="46.44883" lon="5.34092">
        <ele>243.6</ele>
        <time>2022-08-12T08:59:08Z</time>
      </trkpt>
      <trkpt lat="46.44913" lon="5.34098">
        <ele>245.4</ele>
        <time>2022-08-12T08:59:13Z</time>
      </trkpt>
      <trkpt lat="46.44924" lon="5.34102">
        <ele>246</ele>
        <time>2022-08-12T08:59:15Z</time>
      </trkpt>
      <trkpt lat="46.44936" lon="5.34104">
        <ele>246.4</ele>
        <time>2022-08-12T08:59:17Z</time>
      </trkpt>
      <trkpt lat="46.44964" lon="5.34112">
        <ele>247.8</ele>
        <time>2022-08-12T08:59:22Z</time>
      </trkpt>
      <trkpt lat="46.44991" lon="5.3412">
        <ele>249</ele>
        <time>2022-08-12T08:59:27Z</time>
      </trkpt>
      <trkpt lat="46.45008" lon="5.34122">
        <ele>249.6</ele>
        <time>2022-08-12T08:59:30Z</time>
      </trkpt>
      <trkpt lat="46.45025" lon="5.34123">
        <ele>250</ele>
        <time>2022-08-12T08:59:33Z</time>
      </trkpt>
      <trkpt lat="46.45047" lon="5.34123">
        <ele>251</ele>
        <time>2022-08-12T08:59:37Z</time>
      </trkpt>
      <trkpt lat="46.45057" lon="5.34122">
        <ele>252</ele>
        <time>2022-08-12T08:59:39Z</time>
      </trkpt>
      <trkpt lat="46.45063" lon="5.34121">
        <ele>252.2</ele>
        <time>2022-08-12T08:59:40Z</time>
      </trkpt>
      <trkpt lat="46.45097" lon="5.34115">
        <ele>253.4</ele>
        <time>2022-08-12T08:59:46Z</time>
      </trkpt>
      <trkpt lat="46.45108" lon="5.34113">
        <ele>253.8</ele>
        <time>2022-08-12T08:59:48Z</time>
      </trkpt>
      <trkpt lat="46.45139" lon="5.34107">
        <ele>254.2</ele>
        <time>2022-08-12T08:59:53Z</time>
      </trkpt>
      <trkpt lat="46.45164" lon="5.34101">
        <ele>254.2</ele>
        <time>2022-08-12T08:59:57Z</time>
      </trkpt>
      <trkpt lat="46.4522" lon="5.34088">
        <ele>254.2</ele>
        <time>2022-08-12T09:00:05Z</time>
      </trkpt>
      <trkpt lat="46.45278" lon="5.34076">
        <ele>253.4</ele>
        <time>2022-08-12T09:00:13Z</time>
      </trkpt>
      <trkpt lat="46.45328" lon="5.34065">
        <ele>252.2</ele>
        <time>2022-08-12T09:00:20Z</time>
      </trkpt>
      <trkpt lat="46.45335" lon="5.34064">
        <ele>252.2</ele>
        <time>2022-08-12T09:00:21Z</time>
      </trkpt>
      <trkpt lat="46.45341" lon="5.34062">
        <ele>252</ele>
        <time>2022-08-12T09:00:22Z</time>
      </trkpt>
      <trkpt lat="46.45347" lon="5.3406">
        <ele>251.2</ele>
        <time>2022-08-12T09:00:23Z</time>
      </trkpt>
      <trkpt lat="46.45361" lon="5.34056">
        <ele>250.4</ele>
        <time>2022-08-12T09:00:25Z</time>
      </trkpt>
      <trkpt lat="46.45383" lon="5.34054">
        <ele>250.2</ele>
        <time>2022-08-12T09:00:28Z</time>
      </trkpt>
      <trkpt lat="46.45404" lon="5.3405">
        <ele>250.2</ele>
        <time>2022-08-12T09:00:31Z</time>
      </trkpt>
      <trkpt lat="46.45409" lon="5.3405">
        <ele>250</ele>
        <time>2022-08-12T09:00:32Z</time>
      </trkpt>
      <trkpt lat="46.45415" lon="5.34049">
        <ele>249.8</ele>
        <time>2022-08-12T09:00:33Z</time>
      </trkpt>
      <trkpt lat="46.45431" lon="5.34046">
        <ele>249.6</ele>
        <time>2022-08-12T09:00:35Z</time>
      </trkpt>
      <trkpt lat="46.45447" lon="5.34042">
        <ele>249.4</ele>
        <time>2022-08-12T09:00:37Z</time>
      </trkpt>
      <trkpt lat="46.45468" lon="5.34034">
        <ele>249</ele>
        <time>2022-08-12T09:00:39Z</time>
      </trkpt>
      <trkpt lat="46.4548" lon="5.34028">
        <ele>248.4</ele>
        <time>2022-08-12T09:00:40Z</time>
      </trkpt>
      <trkpt lat="46.45512" lon="5.34004">
        <ele>247.8</ele>
        <time>2022-08-12T09:00:43Z</time>
      </trkpt>
      <trkpt lat="46.45529" lon="5.33987">
        <ele>247.4</ele>
        <time>2022-08-12T09:00:45Z</time>
      </trkpt>
      <trkpt lat="46.45545" lon="5.33968">
        <ele>246.2</ele>
        <time>2022-08-12T09:00:47Z</time>
      </trkpt>
      <trkpt lat="46.45551" lon="5.33958">
        <ele>246</ele>
        <time>2022-08-12T09:00:48Z</time>
      </trkpt>
      <trkpt lat="46.45555" lon="5.33947">
        <ele>245.6</ele>
        <time>2022-08-12T09:00:49Z</time>
      </trkpt>
      <trkpt lat="46.45567" lon="5.33925">
        <ele>245</ele>
        <time>2022-08-12T09:00:51Z</time>
      </trkpt>
      <trkpt lat="46.45578" lon="5.33902">
        <ele>243.8</ele>
        <time>2022-08-12T09:00:53Z</time>
      </trkpt>
      <trkpt lat="46.45593" lon="5.33867">
        <ele>242.2</ele>
        <time>2022-08-12T09:00:56Z</time>
      </trkpt>
      <trkpt lat="46.45598" lon="5.33855">
        <ele>242</ele>
        <time>2022-08-12T09:00:57Z</time>
      </trkpt>
      <trkpt lat="46.45607" lon="5.33832">
        <ele>241.2</ele>
        <time>2022-08-12T09:00:59Z</time>
      </trkpt>
      <trkpt lat="46.45626" lon="5.33788">
        <ele>240</ele>
        <time>2022-08-12T09:01:03Z</time>
      </trkpt>
      <trkpt lat="46.4564" lon="5.33755">
        <ele>239.6</ele>
        <time>2022-08-12T09:01:06Z</time>
      </trkpt>
      <trkpt lat="46.45649" lon="5.33732">
        <ele>238.8</ele>
        <time>2022-08-12T09:01:08Z</time>
      </trkpt>
      <trkpt lat="46.45666" lon="5.33685">
        <ele>237.2</ele>
        <time>2022-08-12T09:01:12Z</time>
      </trkpt>
      <trkpt lat="46.45675" lon="5.33661">
        <ele>236.6</ele>
        <time>2022-08-12T09:01:14Z</time>
      </trkpt>
      <trkpt lat="46.4568" lon="5.33649">
        <ele>236.2</ele>
        <time>2022-08-12T09:01:15Z</time>
      </trkpt>
      <trkpt lat="46.45685" lon="5.33637">
        <ele>236.2</ele>
        <time>2022-08-12T09:01:16Z</time>
      </trkpt>
      <trkpt lat="46.4569" lon="5.33625">
        <ele>235.8</ele>
        <time>2022-08-12T09:01:17Z</time>
      </trkpt>
      <trkpt lat="46.45715" lon="5.33554">
        <ele>235.4</ele>
        <time>2022-08-12T09:01:23Z</time>
      </trkpt>
      <trkpt lat="46.45721" lon="5.33541">
        <ele>235.2</ele>
        <time>2022-08-12T09:01:24Z</time>
      </trkpt>
      <trkpt lat="46.45743" lon="5.33505">
        <ele>235</ele>
        <time>2022-08-12T09:01:27Z</time>
      </trkpt>
      <trkpt lat="46.4576" lon="5.33468">
        <ele>234</ele>
        <time>2022-08-12T09:01:30Z</time>
      </trkpt>
      <trkpt lat="46.4577" lon="5.33444">
        <ele>232.8</ele>
        <time>2022-08-12T09:01:32Z</time>
      </trkpt>
      <trkpt lat="46.45775" lon="5.33433">
        <ele>232.4</ele>
        <time>2022-08-12T09:01:33Z</time>
      </trkpt>
      <trkpt lat="46.45791" lon="5.334">
        <ele>231.6</ele>
        <time>2022-08-12T09:01:36Z</time>
      </trkpt>
      <trkpt lat="46.45796" lon="5.3339">
        <ele>231.6</ele>
        <time>2022-08-12T09:01:37Z</time>
      </trkpt>
      <trkpt lat="46.45827" lon="5.33327">
        <ele>231.2</ele>
        <time>2022-08-12T09:01:43Z</time>
      </trkpt>
      <trkpt lat="46.45832" lon="5.33317">
        <ele>231.2</ele>
        <time>2022-08-12T09:01:44Z</time>
      </trkpt>
      <trkpt lat="46.45864" lon="5.33258">
        <ele>231.2</ele>
        <time>2022-08-12T09:01:50Z</time>
      </trkpt>
      <trkpt lat="46.45905" lon="5.33208">
        <ele>231</ele>
        <time>2022-08-12T09:01:56Z</time>
      </trkpt>
      <trkpt lat="46.45955" lon="5.33154">
        <ele>230.2</ele>
        <time>2022-08-12T09:02:03Z</time>
      </trkpt>
      <trkpt lat="46.45969" lon="5.33138">
        <ele>229.8</ele>
        <time>2022-08-12T09:02:05Z</time>
      </trkpt>
      <trkpt lat="46.46013" lon="5.33093">
        <ele>229.2</ele>
        <time>2022-08-12T09:02:11Z</time>
      </trkpt>
      <trkpt lat="46.46043" lon="5.33064">
        <ele>229.2</ele>
        <time>2022-08-12T09:02:15Z</time>
      </trkpt>
      <trkpt lat="46.46071" lon="5.33037">
        <ele>229.2</ele>
        <time>2022-08-12T09:02:19Z</time>
      </trkpt>
      <trkpt lat="46.46121" lon="5.33005">
        <ele>229.2</ele>
        <time>2022-08-12T09:02:25Z</time>
      </trkpt>
      <trkpt lat="46.46178" lon="5.32969">
        <ele>228.6</ele>
        <time>2022-08-12T09:02:32Z</time>
      </trkpt>
      <trkpt lat="46.46194" lon="5.32956">
        <ele>228</ele>
        <time>2022-08-12T09:02:34Z</time>
      </trkpt>
      <trkpt lat="46.46216" lon="5.32933">
        <ele>227.4</ele>
        <time>2022-08-12T09:02:37Z</time>
      </trkpt>
      <trkpt lat="46.46244" lon="5.32887">
        <ele>227</ele>
        <time>2022-08-12T09:02:42Z</time>
      </trkpt>
      <trkpt lat="46.4625" lon="5.32878">
        <ele>227</ele>
        <time>2022-08-12T09:02:43Z</time>
      </trkpt>
      <trkpt lat="46.46291" lon="5.32821">
        <ele>227.6</ele>
        <time>2022-08-12T09:02:50Z</time>
      </trkpt>
      <trkpt lat="46.46307" lon="5.32795">
        <ele>227.8</ele>
        <time>2022-08-12T09:02:53Z</time>
      </trkpt>
      <trkpt lat="46.46315" lon="5.32775">
        <ele>227.8</ele>
        <time>2022-08-12T09:02:55Z</time>
      </trkpt>
      <trkpt lat="46.46321" lon="5.32741">
        <ele>227.4</ele>
        <time>2022-08-12T09:02:58Z</time>
      </trkpt>
      <trkpt lat="46.46321" lon="5.32729">
        <ele>227.4</ele>
        <time>2022-08-12T09:02:59Z</time>
      </trkpt>
      <trkpt lat="46.4632" lon="5.32648">
        <ele>227.2</ele>
        <time>2022-08-12T09:03:06Z</time>
      </trkpt>
      <trkpt lat="46.46324" lon="5.32589">
        <ele>227</ele>
        <time>2022-08-12T09:03:11Z</time>
      </trkpt>
      <trkpt lat="46.4634" lon="5.32528">
        <ele>227.2</ele>
        <time>2022-08-12T09:03:17Z</time>
      </trkpt>
      <trkpt lat="46.46369" lon="5.32454">
        <ele>227.4</ele>
        <time>2022-08-12T09:03:25Z</time>
      </trkpt>
      <trkpt lat="46.46399" lon="5.32383">
        <ele>227.8</ele>
        <time>2022-08-12T09:03:33Z</time>
      </trkpt>
      <trkpt lat="46.46404" lon="5.32372">
        <ele>228</ele>
        <time>2022-08-12T09:03:34Z</time>
      </trkpt>
      <trkpt lat="46.46407" lon="5.32365">
        <ele>228</ele>
        <time>2022-08-12T09:03:35Z</time>
      </trkpt>
      <trkpt lat="46.46428" lon="5.32327">
        <ele>228.4</ele>
        <time>2022-08-12T09:03:39Z</time>
      </trkpt>
      <trkpt lat="46.46444" lon="5.323">
        <ele>228.4</ele>
        <time>2022-08-12T09:03:42Z</time>
      </trkpt>
      <trkpt lat="46.46479" lon="5.32238">
        <ele>227.4</ele>
        <time>2022-08-12T09:03:49Z</time>
      </trkpt>
      <trkpt lat="46.46488" lon="5.3222">
        <ele>227.2</ele>
        <time>2022-08-12T09:03:51Z</time>
      </trkpt>
      <trkpt lat="46.46522" lon="5.32158">
        <ele>227.2</ele>
        <time>2022-08-12T09:03:58Z</time>
      </trkpt>
      <trkpt lat="46.46532" lon="5.3214">
        <ele>227</ele>
        <time>2022-08-12T09:04:00Z</time>
      </trkpt>
      <trkpt lat="46.46566" lon="5.32077">
        <ele>226.6</ele>
        <time>2022-08-12T09:04:07Z</time>
      </trkpt>
      <trkpt lat="46.46571" lon="5.32069">
        <ele>226.6</ele>
        <time>2022-08-12T09:04:08Z</time>
      </trkpt>
      <trkpt lat="46.46606" lon="5.32007">
        <ele>226.6</ele>
        <time>2022-08-12T09:04:15Z</time>
      </trkpt>
      <trkpt lat="46.4663" lon="5.31964">
        <ele>227.2</ele>
        <time>2022-08-12T09:04:20Z</time>
      </trkpt>
      <trkpt lat="46.46661" lon="5.31927">
        <ele>227</ele>
        <time>2022-08-12T09:04:25Z</time>
      </trkpt>
      <trkpt lat="46.46714" lon="5.31883">
        <ele>226.2</ele>
        <time>2022-08-12T09:04:32Z</time>
      </trkpt>
      <trkpt lat="46.46722" lon="5.31877">
        <ele>226</ele>
        <time>2022-08-12T09:04:33Z</time>
      </trkpt>
      <trkpt lat="46.46737" lon="5.31865">
        <ele>225.6</ele>
        <time>2022-08-12T09:04:35Z</time>
      </trkpt>
      <trkpt lat="46.46755" lon="5.31844">
        <ele>225</ele>
        <time>2022-08-12T09:04:38Z</time>
      </trkpt>
      <trkpt lat="46.46768" lon="5.3183">
        <ele>225</ele>
        <time>2022-08-12T09:04:40Z</time>
      </trkpt>
      <trkpt lat="46.46797" lon="5.31795">
        <ele>224.8</ele>
        <time>2022-08-12T09:04:45Z</time>
      </trkpt>
      <trkpt lat="46.46839" lon="5.31743">
        <ele>225.6</ele>
        <time>2022-08-12T09:04:52Z</time>
      </trkpt>
      <trkpt lat="46.46883" lon="5.31695">
        <ele>226</ele>
        <time>2022-08-12T09:04:59Z</time>
      </trkpt>
      <trkpt lat="46.46889" lon="5.31688">
        <ele>226</ele>
        <time>2022-08-12T09:05:00Z</time>
      </trkpt>
      <trkpt lat="46.46896" lon="5.31681">
        <ele>226.2</ele>
        <time>2022-08-12T09:05:01Z</time>
      </trkpt>
      <trkpt lat="46.46913" lon="5.3166">
        <ele>226.4</ele>
        <time>2022-08-12T09:05:04Z</time>
      </trkpt>
      <trkpt lat="46.46919" lon="5.31654">
        <ele>226.6</ele>
        <time>2022-08-12T09:05:05Z</time>
      </trkpt>
      <trkpt lat="46.46924" lon="5.31647">
        <ele>226.8</ele>
        <time>2022-08-12T09:05:06Z</time>
      </trkpt>
      <trkpt lat="46.46932" lon="5.31633">
        <ele>226.6</ele>
        <time>2022-08-12T09:05:08Z</time>
      </trkpt>
      <trkpt lat="46.46961" lon="5.31603">
        <ele>226.8</ele>
        <time>2022-08-12T09:05:12Z</time>
      </trkpt>
      <trkpt lat="46.46983" lon="5.31579">
        <ele>226.6</ele>
        <time>2022-08-12T09:05:15Z</time>
      </trkpt>
      <trkpt lat="46.46996" lon="5.31564">
        <ele>226.6</ele>
        <time>2022-08-12T09:05:17Z</time>
      </trkpt>
      <trkpt lat="46.4701" lon="5.31548">
        <ele>226.6</ele>
        <time>2022-08-12T09:05:19Z</time>
      </trkpt>
      <trkpt lat="46.4702" lon="5.31531">
        <ele>226.6</ele>
        <time>2022-08-12T09:05:21Z</time>
      </trkpt>
      <trkpt lat="46.47064" lon="5.31468">
        <ele>226</ele>
        <time>2022-08-12T09:05:29Z</time>
      </trkpt>
      <trkpt lat="46.47099" lon="5.31421">
        <ele>225.4</ele>
        <time>2022-08-12T09:05:35Z</time>
      </trkpt>
      <trkpt lat="46.47111" lon="5.31406">
        <ele>225</ele>
        <time>2022-08-12T09:05:37Z</time>
      </trkpt>
      <trkpt lat="46.47143" lon="5.31359">
        <ele>225</ele>
        <time>2022-08-12T09:05:43Z</time>
      </trkpt>
      <trkpt lat="46.47166" lon="5.3133">
        <ele>225.6</ele>
        <time>2022-08-12T09:05:47Z</time>
      </trkpt>
      <trkpt lat="46.47181" lon="5.31306">
        <ele>225.4</ele>
        <time>2022-08-12T09:05:50Z</time>
      </trkpt>
      <trkpt lat="46.47213" lon="5.31258">
        <ele>224.6</ele>
        <time>2022-08-12T09:05:56Z</time>
      </trkpt>
      <trkpt lat="46.47243" lon="5.31214">
        <ele>224.6</ele>
        <time>2022-08-12T09:06:01Z</time>
      </trkpt>
      <trkpt lat="46.47275" lon="5.31172">
        <ele>224.6</ele>
        <time>2022-08-12T09:06:06Z</time>
      </trkpt>
      <trkpt lat="46.47311" lon="5.31119">
        <ele>224.2</ele>
        <time>2022-08-12T09:06:12Z</time>
      </trkpt>
      <trkpt lat="46.47316" lon="5.3111">
        <ele>224</ele>
        <time>2022-08-12T09:06:13Z</time>
      </trkpt>
      <trkpt lat="46.47321" lon="5.31101">
        <ele>223.8</ele>
        <time>2022-08-12T09:06:14Z</time>
      </trkpt>
      <trkpt lat="46.47328" lon="5.31093">
        <ele>223.8</ele>
        <time>2022-08-12T09:06:15Z</time>
      </trkpt>
      <trkpt lat="46.47348" lon="5.3107">
        <ele>223.4</ele>
        <time>2022-08-12T09:06:18Z</time>
      </trkpt>
      <trkpt lat="46.47363" lon="5.31059">
        <ele>223.2</ele>
        <time>2022-08-12T09:06:20Z</time>
      </trkpt>
      <trkpt lat="46.47389" lon="5.31042">
        <ele>222.8</ele>
        <time>2022-08-12T09:06:23Z</time>
      </trkpt>
      <trkpt lat="46.47398" lon="5.31036">
        <ele>222.8</ele>
        <time>2022-08-12T09:06:24Z</time>
      </trkpt>
      <trkpt lat="46.47425" lon="5.31019">
        <ele>221.6</ele>
        <time>2022-08-12T09:06:27Z</time>
      </trkpt>
      <trkpt lat="46.47453" lon="5.31">
        <ele>220</ele>
        <time>2022-08-12T09:06:30Z</time>
      </trkpt>
      <trkpt lat="46.47471" lon="5.30988">
        <ele>218.8</ele>
        <time>2022-08-12T09:06:32Z</time>
      </trkpt>
      <trkpt lat="46.47517" lon="5.30958">
        <ele>217.8</ele>
        <time>2022-08-12T09:06:37Z</time>
      </trkpt>
      <trkpt lat="46.47534" lon="5.30946">
        <ele>217.4</ele>
        <time>2022-08-12T09:06:39Z</time>
      </trkpt>
      <trkpt lat="46.47582" lon="5.30922">
        <ele>217.4</ele>
        <time>2022-08-12T09:06:45Z</time>
      </trkpt>
      <trkpt lat="46.47619" lon="5.30906">
        <ele>218</ele>
        <time>2022-08-12T09:06:50Z</time>
      </trkpt>
      <trkpt lat="46.47639" lon="5.30897">
        <ele>219</ele>
        <time>2022-08-12T09:06:53Z</time>
      </trkpt>
      <trkpt lat="46.47653" lon="5.30893">
        <ele>219.2</ele>
        <time>2022-08-12T09:06:55Z</time>
      </trkpt>
      <trkpt lat="46.4766" lon="5.30893">
        <ele>219.4</ele>
        <time>2022-08-12T09:06:56Z</time>
      </trkpt>
      <trkpt lat="46.47674" lon="5.30894">
        <ele>220</ele>
        <time>2022-08-12T09:06:58Z</time>
      </trkpt>
      <trkpt lat="46.47681" lon="5.30896">
        <ele>220</ele>
        <time>2022-08-12T09:06:59Z</time>
      </trkpt>
      <trkpt lat="46.47696" lon="5.30901">
        <ele>220.4</ele>
        <time>2022-08-12T09:07:01Z</time>
      </trkpt>
      <trkpt lat="46.47716" lon="5.30908">
        <ele>221.2</ele>
        <time>2022-08-12T09:07:04Z</time>
      </trkpt>
      <trkpt lat="46.47736" lon="5.30911">
        <ele>222.2</ele>
        <time>2022-08-12T09:07:07Z</time>
      </trkpt>
      <trkpt lat="46.47743" lon="5.3091">
        <ele>222.2</ele>
        <time>2022-08-12T09:07:08Z</time>
      </trkpt>
      <trkpt lat="46.4776" lon="5.30905">
        <ele>222.8</ele>
        <time>2022-08-12T09:07:11Z</time>
      </trkpt>
      <trkpt lat="46.47766" lon="5.30901">
        <ele>223.2</ele>
        <time>2022-08-12T09:07:12Z</time>
      </trkpt>
      <trkpt lat="46.47776" lon="5.30893">
        <ele>224.4</ele>
        <time>2022-08-12T09:07:14Z</time>
      </trkpt>
      <trkpt lat="46.47782" lon="5.30886">
        <ele>224.8</ele>
        <time>2022-08-12T09:07:15Z</time>
      </trkpt>
      <trkpt lat="46.47795" lon="5.30866">
        <ele>225.6</ele>
        <time>2022-08-12T09:07:18Z</time>
      </trkpt>
      <trkpt lat="46.47807" lon="5.30845">
        <ele>226.4</ele>
        <time>2022-08-12T09:07:21Z</time>
      </trkpt>
      <trkpt lat="46.47815" lon="5.30832">
        <ele>227.2</ele>
        <time>2022-08-12T09:07:23Z</time>
      </trkpt>
      <trkpt lat="46.47826" lon="5.3082">
        <ele>227.4</ele>
        <time>2022-08-12T09:07:25Z</time>
      </trkpt>
      <trkpt lat="46.47838" lon="5.30811">
        <ele>227.6</ele>
        <time>2022-08-12T09:07:27Z</time>
      </trkpt>
      <trkpt lat="46.47853" lon="5.30805">
        <ele>227.4</ele>
        <time>2022-08-12T09:07:29Z</time>
      </trkpt>
      <trkpt lat="46.4787" lon="5.30804">
        <ele>227</ele>
        <time>2022-08-12T09:07:31Z</time>
      </trkpt>
      <trkpt lat="46.47888" lon="5.30808">
        <ele>225.8</ele>
        <time>2022-08-12T09:07:33Z</time>
      </trkpt>
      <trkpt lat="46.47908" lon="5.30815">
        <ele>225</ele>
        <time>2022-08-12T09:07:35Z</time>
      </trkpt>
      <trkpt lat="46.47928" lon="5.3082">
        <ele>224.4</ele>
        <time>2022-08-12T09:07:37Z</time>
      </trkpt>
      <trkpt lat="46.4795" lon="5.30821">
        <ele>222.8</ele>
        <time>2022-08-12T09:07:39Z</time>
      </trkpt>
      <trkpt lat="46.4796" lon="5.30819">
        <ele>222</ele>
        <time>2022-08-12T09:07:40Z</time>
      </trkpt>
      <trkpt lat="46.47971" lon="5.30815">
        <ele>221.4</ele>
        <time>2022-08-12T09:07:41Z</time>
      </trkpt>
      <trkpt lat="46.4798" lon="5.30811">
        <ele>220.4</ele>
        <time>2022-08-12T09:07:42Z</time>
      </trkpt>
      <trkpt lat="46.4799" lon="5.30806">
        <ele>220</ele>
        <time>2022-08-12T09:07:43Z</time>
      </trkpt>
      <trkpt lat="46.4801" lon="5.30795">
        <ele>218.8</ele>
        <time>2022-08-12T09:07:45Z</time>
      </trkpt>
      <trkpt lat="46.48035" lon="5.30781">
        <ele>218.4</ele>
        <time>2022-08-12T09:07:48Z</time>
      </trkpt>
      <trkpt lat="46.48082" lon="5.30755">
        <ele>219</ele>
        <time>2022-08-12T09:07:54Z</time>
      </trkpt>
      <trkpt lat="46.48114" lon="5.30737">
        <ele>219.8</ele>
        <time>2022-08-12T09:07:58Z</time>
      </trkpt>
      <trkpt lat="46.48146" lon="5.3072">
        <ele>220</ele>
        <time>2022-08-12T09:08:02Z</time>
      </trkpt>
      <trkpt lat="46.48197" lon="5.30692">
        <ele>219.6</ele>
        <time>2022-08-12T09:08:08Z</time>
      </trkpt>
      <trkpt lat="46.48206" lon="5.30689">
        <ele>219.4</ele>
        <time>2022-08-12T09:08:09Z</time>
      </trkpt>
      <trkpt lat="46.48216" lon="5.30686">
        <ele>219.4</ele>
        <time>2022-08-12T09:08:10Z</time>
      </trkpt>
      <trkpt lat="46.48235" lon="5.30686">
        <ele>219</ele>
        <time>2022-08-12T09:08:12Z</time>
      </trkpt>
      <trkpt lat="46.48263" lon="5.30693">
        <ele>218.6</ele>
        <time>2022-08-12T09:08:15Z</time>
      </trkpt>
      <trkpt lat="46.48282" lon="5.30698">
        <ele>217.8</ele>
        <time>2022-08-12T09:08:17Z</time>
      </trkpt>
      <trkpt lat="46.48292" lon="5.30699">
        <ele>217.6</ele>
        <time>2022-08-12T09:08:18Z</time>
      </trkpt>
      <trkpt lat="46.48302" lon="5.307">
        <ele>216.8</ele>
        <time>2022-08-12T09:08:19Z</time>
      </trkpt>
      <trkpt lat="46.48321" lon="5.30695">
        <ele>216.4</ele>
        <time>2022-08-12T09:08:21Z</time>
      </trkpt>
      <trkpt lat="46.48338" lon="5.30685">
        <ele>216.2</ele>
        <time>2022-08-12T09:08:23Z</time>
      </trkpt>
      <trkpt lat="46.48354" lon="5.30672">
        <ele>216.2</ele>
        <time>2022-08-12T09:08:25Z</time>
      </trkpt>
      <trkpt lat="46.48397" lon="5.3063">
        <ele>216.6</ele>
        <time>2022-08-12T09:08:31Z</time>
      </trkpt>
      <trkpt lat="46.48431" lon="5.30597">
        <ele>217.4</ele>
        <time>2022-08-12T09:08:36Z</time>
      </trkpt>
      <trkpt lat="46.48451" lon="5.30578">
        <ele>217.4</ele>
        <time>2022-08-12T09:08:39Z</time>
      </trkpt>
      <trkpt lat="46.48477" lon="5.30553">
        <ele>217.8</ele>
        <time>2022-08-12T09:08:43Z</time>
      </trkpt>
      <trkpt lat="46.48483" lon="5.30547">
        <ele>217.8</ele>
        <time>2022-08-12T09:08:44Z</time>
      </trkpt>
      <trkpt lat="46.4853" lon="5.30507">
        <ele>218.4</ele>
        <time>2022-08-12T09:08:51Z</time>
      </trkpt>
      <trkpt lat="46.48568" lon="5.3049">
        <ele>218.8</ele>
        <time>2022-08-12T09:08:56Z</time>
      </trkpt>
      <trkpt lat="46.48576" lon="5.3049">
        <ele>218.8</ele>
        <time>2022-08-12T09:08:57Z</time>
      </trkpt>
      <trkpt lat="46.48624" lon="5.30498">
        <ele>218.4</ele>
        <time>2022-08-12T09:09:03Z</time>
      </trkpt>
      <trkpt lat="46.48667" lon="5.30501">
        <ele>217.8</ele>
        <time>2022-08-12T09:09:08Z</time>
      </trkpt>
      <trkpt lat="46.48677" lon="5.305">
        <ele>217.8</ele>
        <time>2022-08-12T09:09:09Z</time>
      </trkpt>
      <trkpt lat="46.48717" lon="5.30501">
        <ele>217.4</ele>
        <time>2022-08-12T09:09:14Z</time>
      </trkpt>
      <trkpt lat="46.48764" lon="5.30522">
        <ele>217.2</ele>
        <time>2022-08-12T09:09:20Z</time>
      </trkpt>
      <trkpt lat="46.48802" lon="5.30537">
        <ele>217.4</ele>
        <time>2022-08-12T09:09:25Z</time>
      </trkpt>
      <trkpt lat="46.48857" lon="5.30543">
        <ele>217.6</ele>
        <time>2022-08-12T09:09:32Z</time>
      </trkpt>
      <trkpt lat="46.48865" lon="5.30542">
        <ele>217.6</ele>
        <time>2022-08-12T09:09:33Z</time>
      </trkpt>
      <trkpt lat="46.48907" lon="5.30528">
        <ele>217.8</ele>
        <time>2022-08-12T09:09:38Z</time>
      </trkpt>
      <trkpt lat="46.48964" lon="5.30506">
        <ele>217.6</ele>
        <time>2022-08-12T09:09:45Z</time>
      </trkpt>
      <trkpt lat="46.48994" lon="5.30493">
        <ele>217.4</ele>
        <time>2022-08-12T09:09:49Z</time>
      </trkpt>
      <trkpt lat="46.49027" lon="5.3048">
        <ele>216.8</ele>
        <time>2022-08-12T09:09:53Z</time>
      </trkpt>
      <trkpt lat="46.49067" lon="5.30463">
        <ele>216.4</ele>
        <time>2022-08-12T09:09:58Z</time>
      </trkpt>
      <trkpt lat="46.49123" lon="5.3044">
        <ele>216.4</ele>
        <time>2022-08-12T09:10:05Z</time>
      </trkpt>
      <trkpt lat="46.49131" lon="5.30436">
        <ele>216.4</ele>
        <time>2022-08-12T09:10:06Z</time>
      </trkpt>
      <trkpt lat="46.49186" lon="5.30414">
        <ele>216</ele>
        <time>2022-08-12T09:10:13Z</time>
      </trkpt>
      <trkpt lat="46.49203" lon="5.30407">
        <ele>215.8</ele>
        <time>2022-08-12T09:10:15Z</time>
      </trkpt>
      <trkpt lat="46.49211" lon="5.30404">
        <ele>215.6</ele>
        <time>2022-08-12T09:10:16Z</time>
      </trkpt>
      <trkpt lat="46.49256" lon="5.30386">
        <ele>215.2</ele>
        <time>2022-08-12T09:10:22Z</time>
      </trkpt>
      <trkpt lat="46.49281" lon="5.30376">
        <ele>215.4</ele>
        <time>2022-08-12T09:10:25Z</time>
      </trkpt>
      <trkpt lat="46.49337" lon="5.30352">
        <ele>215.6</ele>
        <time>2022-08-12T09:10:32Z</time>
      </trkpt>
      <trkpt lat="46.49351" lon="5.30347">
        <ele>215.6</ele>
        <time>2022-08-12T09:10:34Z</time>
      </trkpt>
      <trkpt lat="46.49411" lon="5.30322">
        <ele>215.4</ele>
        <time>2022-08-12T09:10:41Z</time>
      </trkpt>
      <trkpt lat="46.49436" lon="5.30312">
        <ele>215.4</ele>
        <time>2022-08-12T09:10:44Z</time>
      </trkpt>
      <trkpt lat="46.49444" lon="5.30308">
        <ele>215.4</ele>
        <time>2022-08-12T09:10:45Z</time>
      </trkpt>
      <trkpt lat="46.49466" lon="5.30289">
        <ele>214.8</ele>
        <time>2022-08-12T09:10:48Z</time>
      </trkpt>
      <trkpt lat="46.49485" lon="5.30261">
        <ele>214.6</ele>
        <time>2022-08-12T09:10:51Z</time>
      </trkpt>
      <trkpt lat="46.4949" lon="5.3025">
        <ele>214.4</ele>
        <time>2022-08-12T09:10:52Z</time>
      </trkpt>
      <trkpt lat="46.49525" lon="5.30186">
        <ele>213.4</ele>
        <time>2022-08-12T09:10:58Z</time>
      </trkpt>
      <trkpt lat="46.4954" lon="5.30171">
        <ele>212.4</ele>
        <time>2022-08-12T09:11:00Z</time>
      </trkpt>
      <trkpt lat="46.49557" lon="5.30159">
        <ele>212</ele>
        <time>2022-08-12T09:11:02Z</time>
      </trkpt>
      <trkpt lat="46.49595" lon="5.3013">
        <ele>212.2</ele>
        <time>2022-08-12T09:11:07Z</time>
      </trkpt>
      <trkpt lat="46.496" lon="5.30124">
        <ele>212.2</ele>
        <time>2022-08-12T09:11:08Z</time>
      </trkpt>
      <trkpt lat="46.49631" lon="5.30089">
        <ele>212.8</ele>
        <time>2022-08-12T09:11:13Z</time>
      </trkpt>
      <trkpt lat="46.49638" lon="5.30081">
        <ele>212.8</ele>
        <time>2022-08-12T09:11:14Z</time>
      </trkpt>
      <trkpt lat="46.49648" lon="5.30061">
        <ele>212.8</ele>
        <time>2022-08-12T09:11:16Z</time>
      </trkpt>
      <trkpt lat="46.49652" lon="5.30049">
        <ele>212.6</ele>
        <time>2022-08-12T09:11:17Z</time>
      </trkpt>
      <trkpt lat="46.49661" lon="5.30024">
        <ele>212.4</ele>
        <time>2022-08-12T09:11:19Z</time>
      </trkpt>
      <trkpt lat="46.49665" lon="5.30011">
        <ele>212.4</ele>
        <time>2022-08-12T09:11:20Z</time>
      </trkpt>
      <trkpt lat="46.49668" lon="5.29998">
        <ele>211.2</ele>
        <time>2022-08-12T09:11:21Z</time>
      </trkpt>
      <trkpt lat="46.49674" lon="5.29972">
        <ele>210</ele>
        <time>2022-08-12T09:11:23Z</time>
      </trkpt>
      <trkpt lat="46.49685" lon="5.29922">
        <ele>208.8</ele>
        <time>2022-08-12T09:11:27Z</time>
      </trkpt>
      <trkpt lat="46.49702" lon="5.29869">
        <ele>208.2</ele>
        <time>2022-08-12T09:11:32Z</time>
      </trkpt>
      <trkpt lat="46.49712" lon="5.29842">
        <ele>208.2</ele>
        <time>2022-08-12T09:11:35Z</time>
      </trkpt>
      <trkpt lat="46.49716" lon="5.29834">
        <ele>208.8</ele>
        <time>2022-08-12T09:11:36Z</time>
      </trkpt>
      <trkpt lat="46.49742" lon="5.298">
        <ele>209.8</ele>
        <time>2022-08-12T09:11:41Z</time>
      </trkpt>
      <trkpt lat="46.49748" lon="5.29795">
        <ele>210</ele>
        <time>2022-08-12T09:11:42Z</time>
      </trkpt>
      <trkpt lat="46.49754" lon="5.29793">
        <ele>210</ele>
        <time>2022-08-12T09:11:43Z</time>
      </trkpt>
      <trkpt lat="46.49768" lon="5.29792">
        <ele>210.4</ele>
        <time>2022-08-12T09:11:45Z</time>
      </trkpt>
      <trkpt lat="46.49797" lon="5.29795">
        <ele>210.8</ele>
        <time>2022-08-12T09:11:49Z</time>
      </trkpt>
      <trkpt lat="46.49817" lon="5.29802">
        <ele>211</ele>
        <time>2022-08-12T09:11:52Z</time>
      </trkpt>
      <trkpt lat="46.49874" lon="5.29824">
        <ele>211</ele>
        <time>2022-08-12T09:12:00Z</time>
      </trkpt>
      <trkpt lat="46.49888" lon="5.29832">
        <ele>210.8</ele>
        <time>2022-08-12T09:12:03Z</time>
      </trkpt>
      <trkpt lat="46.49912" lon="5.2984">
        <ele>210.4</ele>
        <time>2022-08-12T09:12:07Z</time>
      </trkpt>
      <trkpt lat="46.49948" lon="5.29853">
        <ele>210</ele>
        <time>2022-08-12T09:12:12Z</time>
      </trkpt>
      <trkpt lat="46.49956" lon="5.29855">
        <ele>209.6</ele>
        <time>2022-08-12T09:12:13Z</time>
      </trkpt>
      <trkpt lat="46.49988" lon="5.29859">
        <ele>208</ele>
        <time>2022-08-12T09:12:17Z</time>
      </trkpt>
      <trkpt lat="46.49996" lon="5.2986">
        <ele>207.8</ele>
        <time>2022-08-12T09:12:18Z</time>
      </trkpt>
      <trkpt lat="46.50003" lon="5.29863">
        <ele>207.8</ele>
        <time>2022-08-12T09:12:19Z</time>
      </trkpt>
      <trkpt lat="46.50018" lon="5.29871">
        <ele>207.4</ele>
        <time>2022-08-12T09:12:21Z</time>
      </trkpt>
      <trkpt lat="46.50024" lon="5.29878">
        <ele>207.2</ele>
        <time>2022-08-12T09:12:22Z</time>
      </trkpt>
      <trkpt lat="46.50056" lon="5.29921">
        <ele>207</ele>
        <time>2022-08-12T09:12:28Z</time>
      </trkpt>
      <trkpt lat="46.5006" lon="5.29929">
        <ele>207</ele>
        <time>2022-08-12T09:12:29Z</time>
      </trkpt>
      <trkpt lat="46.50075" lon="5.29965">
        <ele>207.2</ele>
        <time>2022-08-12T09:12:33Z</time>
      </trkpt>
      <trkpt lat="46.5008" lon="5.29984">
        <ele>207.2</ele>
        <time>2022-08-12T09:12:35Z</time>
      </trkpt>
      <trkpt lat="46.50084" lon="5.30014">
        <ele>207.6</ele>
        <time>2022-08-12T09:12:38Z</time>
      </trkpt>
      <trkpt lat="46.50085" lon="5.30077">
        <ele>208</ele>
        <time>2022-08-12T09:12:44Z</time>
      </trkpt>
      <trkpt lat="46.50085" lon="5.30088">
        <ele>208</ele>
        <time>2022-08-12T09:12:45Z</time>
      </trkpt>
      <trkpt lat="46.50086" lon="5.30167">
        <ele>208.2</ele>
        <time>2022-08-12T09:12:52Z</time>
      </trkpt>
      <trkpt lat="46.50086" lon="5.30178">
        <ele>208.2</ele>
        <time>2022-08-12T09:12:53Z</time>
      </trkpt>
      <trkpt lat="46.50086" lon="5.3019">
        <ele>208.2</ele>
        <time>2022-08-12T09:12:54Z</time>
      </trkpt>
      <trkpt lat="46.50086" lon="5.30223">
        <ele>207.6</ele>
        <time>2022-08-12T09:12:57Z</time>
      </trkpt>
      <trkpt lat="46.50085" lon="5.30277">
        <ele>207.2</ele>
        <time>2022-08-12T09:13:02Z</time>
      </trkpt>
      <trkpt lat="46.50084" lon="5.30287">
        <ele>207.2</ele>
        <time>2022-08-12T09:13:03Z</time>
      </trkpt>
      <trkpt lat="46.50083" lon="5.30298">
        <ele>207</ele>
        <time>2022-08-12T09:13:04Z</time>
      </trkpt>
      <trkpt lat="46.50085" lon="5.30307">
        <ele>207</ele>
        <time>2022-08-12T09:13:05Z</time>
      </trkpt>
      <trkpt lat="46.50089" lon="5.30315">
        <ele>207</ele>
        <time>2022-08-12T09:13:06Z</time>
      </trkpt>
      <trkpt lat="46.50095" lon="5.30319">
        <ele>206.8</ele>
        <time>2022-08-12T09:13:07Z</time>
      </trkpt>
      <trkpt lat="46.50102" lon="5.3032">
        <ele>206.8</ele>
        <time>2022-08-12T09:13:08Z</time>
      </trkpt>
      <trkpt lat="46.50116" lon="5.30315">
        <ele>206.8</ele>
        <time>2022-08-12T09:13:10Z</time>
      </trkpt>
      <trkpt lat="46.50124" lon="5.30312">
        <ele>206.8</ele>
        <time>2022-08-12T09:13:11Z</time>
      </trkpt>
      <trkpt lat="46.50148" lon="5.30308">
        <ele>206.8</ele>
        <time>2022-08-12T09:13:14Z</time>
      </trkpt>
      <trkpt lat="46.50186" lon="5.30294">
        <ele>207.2</ele>
        <time>2022-08-12T09:13:19Z</time>
      </trkpt>
      <trkpt lat="46.50229" lon="5.3027">
        <ele>208</ele>
        <time>2022-08-12T09:13:25Z</time>
      </trkpt>
      <trkpt lat="46.50237" lon="5.30267">
        <ele>208.2</ele>
        <time>2022-08-12T09:13:26Z</time>
      </trkpt>
      <trkpt lat="46.50258" lon="5.30257">
        <ele>209.2</ele>
        <time>2022-08-12T09:13:29Z</time>
      </trkpt>
      <trkpt lat="46.50278" lon="5.3025">
        <ele>210</ele>
        <time>2022-08-12T09:13:32Z</time>
      </trkpt>
      <trkpt lat="46.50292" lon="5.30247">
        <ele>210.2</ele>
        <time>2022-08-12T09:13:34Z</time>
      </trkpt>
      <trkpt lat="46.50318" lon="5.30242">
        <ele>210.6</ele>
        <time>2022-08-12T09:13:38Z</time>
      </trkpt>
      <trkpt lat="46.50331" lon="5.3024">
        <ele>211.2</ele>
        <time>2022-08-12T09:13:40Z</time>
      </trkpt>
      <trkpt lat="46.50382" lon="5.30232">
        <ele>211.8</ele>
        <time>2022-08-12T09:13:48Z</time>
      </trkpt>
      <trkpt lat="46.50407" lon="5.30228">
        <ele>212.4</ele>
        <time>2022-08-12T09:13:52Z</time>
      </trkpt>
      <trkpt lat="46.50447" lon="5.30219">
        <ele>212.8</ele>
        <time>2022-08-12T09:13:58Z</time>
      </trkpt>
      <trkpt lat="46.50498" lon="5.30195">
        <ele>212.6</ele>
        <time>2022-08-12T09:14:05Z</time>
      </trkpt>
      <trkpt lat="46.50538" lon="5.30175">
        <ele>211.2</ele>
        <time>2022-08-12T09:14:10Z</time>
      </trkpt>
      <trkpt lat="46.50553" lon="5.30167">
        <ele>210.6</ele>
        <time>2022-08-12T09:14:12Z</time>
      </trkpt>
      <trkpt lat="46.50604" lon="5.30139">
        <ele>210.4</ele>
        <time>2022-08-12T09:14:19Z</time>
      </trkpt>
      <trkpt lat="46.50611" lon="5.30135">
        <ele>210.4</ele>
        <time>2022-08-12T09:14:20Z</time>
      </trkpt>
      <trkpt lat="46.50655" lon="5.30116">
        <ele>210.6</ele>
        <time>2022-08-12T09:14:26Z</time>
      </trkpt>
      <trkpt lat="46.50711" lon="5.30102">
        <ele>210.8</ele>
        <time>2022-08-12T09:14:33Z</time>
      </trkpt>
      <trkpt lat="46.50771" lon="5.30096">
        <ele>210.2</ele>
        <time>2022-08-12T09:14:40Z</time>
      </trkpt>
      <trkpt lat="46.50829" lon="5.301">
        <ele>209.8</ele>
        <time>2022-08-12T09:14:47Z</time>
      </trkpt>
      <trkpt lat="46.50837" lon="5.30102">
        <ele>209.8</ele>
        <time>2022-08-12T09:14:48Z</time>
      </trkpt>
      <trkpt lat="46.50883" lon="5.30117">
        <ele>209.8</ele>
        <time>2022-08-12T09:14:54Z</time>
      </trkpt>
      <trkpt lat="46.50936" lon="5.30145">
        <ele>209.8</ele>
        <time>2022-08-12T09:15:01Z</time>
      </trkpt>
      <trkpt lat="46.50977" lon="5.30166">
        <ele>209.4</ele>
        <time>2022-08-12T09:15:06Z</time>
      </trkpt>
      <trkpt lat="46.51004" lon="5.30183">
        <ele>208.8</ele>
        <time>2022-08-12T09:15:09Z</time>
      </trkpt>
      <trkpt lat="46.51023" lon="5.30198">
        <ele>208.2</ele>
        <time>2022-08-12T09:15:11Z</time>
      </trkpt>
      <trkpt lat="46.51042" lon="5.30215">
        <ele>207.4</ele>
        <time>2022-08-12T09:15:13Z</time>
      </trkpt>
      <trkpt lat="46.51061" lon="5.30234">
        <ele>205.6</ele>
        <time>2022-08-12T09:15:15Z</time>
      </trkpt>
      <trkpt lat="46.5107" lon="5.30244">
        <ele>204.8</ele>
        <time>2022-08-12T09:15:16Z</time>
      </trkpt>
      <trkpt lat="46.51079" lon="5.30254">
        <ele>204.2</ele>
        <time>2022-08-12T09:15:17Z</time>
      </trkpt>
      <trkpt lat="46.51088" lon="5.30265">
        <ele>202.8</ele>
        <time>2022-08-12T09:15:18Z</time>
      </trkpt>
      <trkpt lat="46.51107" lon="5.30287">
        <ele>201.2</ele>
        <time>2022-08-12T09:15:20Z</time>
      </trkpt>
      <trkpt lat="46.51136" lon="5.30315">
        <ele>200</ele>
        <time>2022-08-12T09:15:23Z</time>
      </trkpt>
      <trkpt lat="46.51158" lon="5.30328">
        <ele>198.8</ele>
        <time>2022-08-12T09:15:25Z</time>
      </trkpt>
      <trkpt lat="46.51181" lon="5.30335">
        <ele>197.6</ele>
        <time>2022-08-12T09:15:27Z</time>
      </trkpt>
      <trkpt lat="46.51204" lon="5.30337">
        <ele>196.2</ele>
        <time>2022-08-12T09:15:29Z</time>
      </trkpt>
      <trkpt lat="46.51215" lon="5.30336">
        <ele>195.6</ele>
        <time>2022-08-12T09:15:30Z</time>
      </trkpt>
      <trkpt lat="46.51236" lon="5.3033">
        <ele>194.8</ele>
        <time>2022-08-12T09:15:32Z</time>
      </trkpt>
      <trkpt lat="46.51257" lon="5.30323">
        <ele>194</ele>
        <time>2022-08-12T09:15:34Z</time>
      </trkpt>
      <trkpt lat="46.51266" lon="5.30319">
        <ele>193.6</ele>
        <time>2022-08-12T09:15:35Z</time>
      </trkpt>
      <trkpt lat="46.51322" lon="5.30295">
        <ele>193</ele>
        <time>2022-08-12T09:15:41Z</time>
      </trkpt>
      <trkpt lat="46.51353" lon="5.3027">
        <ele>193</ele>
        <time>2022-08-12T09:15:45Z</time>
      </trkpt>
      <trkpt lat="46.51371" lon="5.30267">
        <ele>193</ele>
        <time>2022-08-12T09:15:47Z</time>
      </trkpt>
      <trkpt lat="46.51378" lon="5.30268">
        <ele>193</ele>
        <time>2022-08-12T09:15:48Z</time>
      </trkpt>
      <trkpt lat="46.51391" lon="5.30275">
        <ele>193</ele>
        <time>2022-08-12T09:15:50Z</time>
      </trkpt>
      <trkpt lat="46.51401" lon="5.30292">
        <ele>193</ele>
        <time>2022-08-12T09:15:52Z</time>
      </trkpt>
      <trkpt lat="46.51405" lon="5.30304">
        <ele>193.6</ele>
        <time>2022-08-12T09:15:53Z</time>
      </trkpt>
      <trkpt lat="46.51413" lon="5.30332">
        <ele>193.6</ele>
        <time>2022-08-12T09:15:55Z</time>
      </trkpt>
      <trkpt lat="46.51438" lon="5.3041">
        <ele>193.6</ele>
        <time>2022-08-12T09:16:01Z</time>
      </trkpt>
      <trkpt lat="46.51447" lon="5.30435">
        <ele>193.6</ele>
        <time>2022-08-12T09:16:03Z</time>
      </trkpt>
      <trkpt lat="46.51467" lon="5.3051">
        <ele>193.4</ele>
        <time>2022-08-12T09:16:09Z</time>
      </trkpt>
      <trkpt lat="46.5147" lon="5.30523">
        <ele>193.6</ele>
        <time>2022-08-12T09:16:10Z</time>
      </trkpt>
      <trkpt lat="46.51482" lon="5.30596">
        <ele>193.6</ele>
        <time>2022-08-12T09:16:16Z</time>
      </trkpt>
      <trkpt lat="46.51485" lon="5.30607">
        <ele>193.6</ele>
        <time>2022-08-12T09:16:17Z</time>
      </trkpt>
      <trkpt lat="46.51489" lon="5.30617">
        <ele>193.6</ele>
        <time>2022-08-12T09:16:18Z</time>
      </trkpt>
      <trkpt lat="46.51505" lon="5.30646">
        <ele>193.6</ele>
        <time>2022-08-12T09:16:21Z</time>
      </trkpt>
      <trkpt lat="46.51545" lon="5.30708">
        <ele>193.6</ele>
        <time>2022-08-12T09:16:28Z</time>
      </trkpt>
      <trkpt lat="46.51561" lon="5.30736">
        <ele>193.6</ele>
        <time>2022-08-12T09:16:31Z</time>
      </trkpt>
      <trkpt lat="46.51592" lon="5.30788">
        <ele>193.6</ele>
        <time>2022-08-12T09:16:37Z</time>
      </trkpt>
      <trkpt lat="46.51616" lon="5.30844">
        <ele>194</ele>
        <time>2022-08-12T09:16:43Z</time>
      </trkpt>
      <trkpt lat="46.51631" lon="5.30904">
        <ele>195.2</ele>
        <time>2022-08-12T09:16:49Z</time>
      </trkpt>
      <trkpt lat="46.5164" lon="5.3096">
        <ele>195.8</ele>
        <time>2022-08-12T09:16:55Z</time>
      </trkpt>
      <trkpt lat="46.51642" lon="5.30968">
        <ele>196.2</ele>
        <time>2022-08-12T09:16:56Z</time>
      </trkpt>
      <trkpt lat="46.51644" lon="5.30984">
        <ele>197.6</ele>
        <time>2022-08-12T09:16:58Z</time>
      </trkpt>
      <trkpt lat="46.51647" lon="5.30998">
        <ele>198.4</ele>
        <time>2022-08-12T09:17:00Z</time>
      </trkpt>
      <trkpt lat="46.51648" lon="5.31006">
        <ele>198.8</ele>
        <time>2022-08-12T09:17:01Z</time>
      </trkpt>
      <trkpt lat="46.51654" lon="5.31035">
        <ele>200</ele>
        <time>2022-08-12T09:17:05Z</time>
      </trkpt>
      <trkpt lat="46.51657" lon="5.3105">
        <ele>200.2</ele>
        <time>2022-08-12T09:17:07Z</time>
      </trkpt>
      <trkpt lat="46.51661" lon="5.31073">
        <ele>200.6</ele>
        <time>2022-08-12T09:17:10Z</time>
      </trkpt>
      <trkpt lat="46.5166" lon="5.31088">
        <ele>200.8</ele>
        <time>2022-08-12T09:17:12Z</time>
      </trkpt>
      <trkpt lat="46.51653" lon="5.31099">
        <ele>201</ele>
        <time>2022-08-12T09:17:14Z</time>
      </trkpt>
      <trkpt lat="46.51648" lon="5.31103">
        <ele>201.2</ele>
        <time>2022-08-12T09:17:15Z</time>
      </trkpt>
      <trkpt lat="46.51643" lon="5.31105">
        <ele>201.4</ele>
        <time>2022-08-12T09:17:16Z</time>
      </trkpt>
      <trkpt lat="46.51631" lon="5.31104">
        <ele>201.4</ele>
        <time>2022-08-12T09:17:18Z</time>
      </trkpt>
      <trkpt lat="46.51624" lon="5.31101">
        <ele>201.2</ele>
        <time>2022-08-12T09:17:19Z</time>
      </trkpt>
      <trkpt lat="46.51599" lon="5.31087">
        <ele>199.8</ele>
        <time>2022-08-12T09:17:23Z</time>
      </trkpt>
      <trkpt lat="46.51587" lon="5.31082">
        <ele>199.2</ele>
        <time>2022-08-12T09:17:25Z</time>
      </trkpt>
      <trkpt lat="46.51574" lon="5.31078">
        <ele>198.8</ele>
        <time>2022-08-12T09:17:27Z</time>
      </trkpt>
      <trkpt lat="46.51548" lon="5.31074">
        <ele>198.2</ele>
        <time>2022-08-12T09:17:31Z</time>
      </trkpt>
      <trkpt lat="46.51487" lon="5.3107">
        <ele>198.2</ele>
        <time>2022-08-12T09:17:40Z</time>
      </trkpt>
      <trkpt lat="46.51436" lon="5.31067">
        <ele>198</ele>
        <time>2022-08-12T09:17:47Z</time>
      </trkpt>
      <trkpt lat="46.51379" lon="5.3107">
        <ele>198.2</ele>
        <time>2022-08-12T09:17:55Z</time>
      </trkpt>
      <trkpt lat="46.51357" lon="5.31071">
        <ele>198.2</ele>
        <time>2022-08-12T09:17:58Z</time>
      </trkpt>
      <trkpt lat="46.513" lon="5.31073">
        <ele>197.8</ele>
        <time>2022-08-12T09:18:06Z</time>
      </trkpt>
      <trkpt lat="46.51256" lon="5.31078">
        <ele>197.4</ele>
        <time>2022-08-12T09:18:12Z</time>
      </trkpt>
      <trkpt lat="46.5125" lon="5.31082">
        <ele>197.4</ele>
        <time>2022-08-12T09:18:13Z</time>
      </trkpt>
      <trkpt lat="46.51243" lon="5.31087">
        <ele>197.4</ele>
        <time>2022-08-12T09:18:14Z</time>
      </trkpt>
      <trkpt lat="46.51227" lon="5.31104">
        <ele>197.4</ele>
        <time>2022-08-12T09:18:17Z</time>
      </trkpt>
      <trkpt lat="46.51218" lon="5.31118">
        <ele>197.6</ele>
        <time>2022-08-12T09:18:19Z</time>
      </trkpt>
      <trkpt lat="46.51209" lon="5.31131">
        <ele>197.8</ele>
        <time>2022-08-12T09:18:21Z</time>
      </trkpt>
      <trkpt lat="46.51186" lon="5.31161">
        <ele>198.6</ele>
        <time>2022-08-12T09:18:26Z</time>
      </trkpt>
      <trkpt lat="46.51182" lon="5.31166">
        <ele>198.8</ele>
        <time>2022-08-12T09:18:27Z</time>
      </trkpt>
      <trkpt lat="46.51177" lon="5.31172">
        <ele>199</ele>
        <time>2022-08-12T09:18:28Z</time>
      </trkpt>
      <trkpt lat="46.51166" lon="5.31183">
        <ele>199.6</ele>
        <time>2022-08-12T09:18:30Z</time>
      </trkpt>
      <trkpt lat="46.51161" lon="5.31188">
        <ele>199.6</ele>
        <time>2022-08-12T09:18:31Z</time>
      </trkpt>
      <trkpt lat="46.51151" lon="5.312">
        <ele>200</ele>
        <time>2022-08-12T09:18:33Z</time>
      </trkpt>
      <trkpt lat="46.51136" lon="5.31221">
        <ele>200.4</ele>
        <time>2022-08-12T09:18:36Z</time>
      </trkpt>
      <trkpt lat="46.51117" lon="5.31243">
        <ele>201</ele>
        <time>2022-08-12T09:18:40Z</time>
      </trkpt>
      <trkpt lat="46.51107" lon="5.31255">
        <ele>201</ele>
        <time>2022-08-12T09:18:42Z</time>
      </trkpt>
      <trkpt lat="46.51101" lon="5.31264">
        <ele>201</ele>
        <time>2022-08-12T09:18:43Z</time>
      </trkpt>
      <trkpt lat="46.51088" lon="5.3128">
        <ele>201.4</ele>
        <time>2022-08-12T09:18:46Z</time>
      </trkpt>
      <trkpt lat="46.51079" lon="5.31293">
        <ele>201.6</ele>
        <time>2022-08-12T09:18:48Z</time>
      </trkpt>
      <trkpt lat="46.51075" lon="5.313">
        <ele>201.8</ele>
        <time>2022-08-12T09:18:49Z</time>
      </trkpt>
      <trkpt lat="46.5107" lon="5.31315">
        <ele>202.4</ele>
        <time>2022-08-12T09:18:51Z</time>
      </trkpt>
      <trkpt lat="46.51068" lon="5.31325">
        <ele>202.6</ele>
        <time>2022-08-12T09:18:52Z</time>
      </trkpt>
      <trkpt lat="46.51068" lon="5.31331">
        <ele>202.8</ele>
        <time>2022-08-12T09:18:53Z</time>
      </trkpt>
      <trkpt lat="46.51068" lon="5.31338">
        <ele>203.4</ele>
        <time>2022-08-12T09:18:54Z</time>
      </trkpt>
      <trkpt lat="46.51068" lon="5.31355">
        <ele>204</ele>
        <time>2022-08-12T09:18:56Z</time>
      </trkpt>
      <trkpt lat="46.51067" lon="5.3136">
        <ele>204.2</ele>
        <time>2022-08-12T09:18:57Z</time>
      </trkpt>
      <trkpt lat="46.51067" lon="5.31366">
        <ele>204.8</ele>
        <time>2022-08-12T09:18:58Z</time>
      </trkpt>
      <trkpt lat="46.51065" lon="5.31391">
        <ele>205.2</ele>
        <time>2022-08-12T09:19:01Z</time>
      </trkpt>
      <trkpt lat="46.51064" lon="5.31399">
        <ele>205.4</ele>
        <time>2022-08-12T09:19:02Z</time>
      </trkpt>
      <trkpt lat="46.51059" lon="5.31424">
        <ele>206</ele>
        <time>2022-08-12T09:19:05Z</time>
      </trkpt>
      <trkpt lat="46.51056" lon="5.31437">
        <ele>206.4</ele>
        <time>2022-08-12T09:19:07Z</time>
      </trkpt>
      <trkpt lat="46.51044" lon="5.31489">
        <ele>207.2</ele>
        <time>2022-08-12T09:19:14Z</time>
      </trkpt>
      <trkpt lat="46.51039" lon="5.31509">
        <ele>207.8</ele>
        <time>2022-08-12T09:19:17Z</time>
      </trkpt>
      <trkpt lat="46.51033" lon="5.31531">
        <ele>208.4</ele>
        <time>2022-08-12T09:19:20Z</time>
      </trkpt>
      <trkpt lat="46.51022" lon="5.3155">
        <ele>209</ele>
        <time>2022-08-12T09:19:23Z</time>
      </trkpt>
      <trkpt lat="46.51008" lon="5.31567">
        <ele>209.4</ele>
        <time>2022-08-12T09:19:26Z</time>
      </trkpt>
      <trkpt lat="46.50998" lon="5.31578">
        <ele>209.4</ele>
        <time>2022-08-12T09:19:28Z</time>
      </trkpt>
      <trkpt lat="46.50962" lon="5.31617">
        <ele>209.4</ele>
        <time>2022-08-12T09:19:34Z</time>
      </trkpt>
      <trkpt lat="46.50915" lon="5.31666">
        <ele>209</ele>
        <time>2022-08-12T09:19:42Z</time>
      </trkpt>
      <trkpt lat="46.5091" lon="5.31672">
        <ele>209</ele>
        <time>2022-08-12T09:19:43Z</time>
      </trkpt>
      <trkpt lat="46.50886" lon="5.31696">
        <ele>209.6</ele>
        <time>2022-08-12T09:19:48Z</time>
      </trkpt>
      <trkpt lat="46.5087" lon="5.31713">
        <ele>210.4</ele>
        <time>2022-08-12T09:19:51Z</time>
      </trkpt>
      <trkpt lat="46.50864" lon="5.31719">
        <ele>210.6</ele>
        <time>2022-08-12T09:19:52Z</time>
      </trkpt>
      <trkpt lat="46.50847" lon="5.31734">
        <ele>210.8</ele>
        <time>2022-08-12T09:19:55Z</time>
      </trkpt>
      <trkpt lat="46.50833" lon="5.31737">
        <ele>210.8</ele>
        <time>2022-08-12T09:19:57Z</time>
      </trkpt>
      <trkpt lat="46.50825" lon="5.31735">
        <ele>210.4</ele>
        <time>2022-08-12T09:19:58Z</time>
      </trkpt>
      <trkpt lat="46.50819" lon="5.31731">
        <ele>210.2</ele>
        <time>2022-08-12T09:19:59Z</time>
      </trkpt>
      <trkpt lat="46.50798" lon="5.31715">
        <ele>209.8</ele>
        <time>2022-08-12T09:20:02Z</time>
      </trkpt>
      <trkpt lat="46.50777" lon="5.31701">
        <ele>209.2</ele>
        <time>2022-08-12T09:20:05Z</time>
      </trkpt>
      <trkpt lat="46.50761" lon="5.31698">
        <ele>209.2</ele>
        <time>2022-08-12T09:20:07Z</time>
      </trkpt>
      <trkpt lat="46.50712" lon="5.31702">
        <ele>209</ele>
        <time>2022-08-12T09:20:13Z</time>
      </trkpt>
      <trkpt lat="46.50673" lon="5.31705">
        <ele>209</ele>
        <time>2022-08-12T09:20:18Z</time>
      </trkpt>
      <trkpt lat="46.50659" lon="5.31711">
        <ele>209.2</ele>
        <time>2022-08-12T09:20:20Z</time>
      </trkpt>
      <trkpt lat="46.50645" lon="5.31724">
        <ele>209.2</ele>
        <time>2022-08-12T09:20:22Z</time>
      </trkpt>
      <trkpt lat="46.50641" lon="5.3173">
        <ele>209.4</ele>
        <time>2022-08-12T09:20:23Z</time>
      </trkpt>
      <trkpt lat="46.50636" lon="5.31739">
        <ele>209.4</ele>
        <time>2022-08-12T09:20:24Z</time>
      </trkpt>
      <trkpt lat="46.50626" lon="5.31768">
        <ele>209.4</ele>
        <time>2022-08-12T09:20:27Z</time>
      </trkpt>
      <trkpt lat="46.50599" lon="5.3184">
        <ele>209</ele>
        <time>2022-08-12T09:20:34Z</time>
      </trkpt>
      <trkpt lat="46.50595" lon="5.31851">
        <ele>209</ele>
        <time>2022-08-12T09:20:35Z</time>
      </trkpt>
      <trkpt lat="46.50574" lon="5.31909">
        <ele>208.4</ele>
        <time>2022-08-12T09:20:40Z</time>
      </trkpt>
      <trkpt lat="46.5057" lon="5.31922">
        <ele>207.8</ele>
        <time>2022-08-12T09:20:41Z</time>
      </trkpt>
      <trkpt lat="46.50561" lon="5.31947">
        <ele>207</ele>
        <time>2022-08-12T09:20:43Z</time>
      </trkpt>
      <trkpt lat="46.50546" lon="5.31986">
        <ele>206.2</ele>
        <time>2022-08-12T09:20:46Z</time>
      </trkpt>
      <trkpt lat="46.50539" lon="5.31997">
        <ele>205.6</ele>
        <time>2022-08-12T09:20:47Z</time>
      </trkpt>
      <trkpt lat="46.50525" lon="5.32019">
        <ele>204.4</ele>
        <time>2022-08-12T09:20:49Z</time>
      </trkpt>
      <trkpt lat="46.50517" lon="5.32029">
        <ele>203.6</ele>
        <time>2022-08-12T09:20:50Z</time>
      </trkpt>
      <trkpt lat="46.5051" lon="5.3204">
        <ele>203.2</ele>
        <time>2022-08-12T09:20:51Z</time>
      </trkpt>
      <trkpt lat="46.50497" lon="5.32064">
        <ele>202.2</ele>
        <time>2022-08-12T09:20:53Z</time>
      </trkpt>
      <trkpt lat="46.50493" lon="5.32073">
        <ele>201.4</ele>
        <time>2022-08-12T09:20:54Z</time>
      </trkpt>
      <trkpt lat="46.50488" lon="5.32084">
        <ele>201</ele>
        <time>2022-08-12T09:20:55Z</time>
      </trkpt>
      <trkpt lat="46.50471" lon="5.32129">
        <ele>200.2</ele>
        <time>2022-08-12T09:20:59Z</time>
      </trkpt>
      <trkpt lat="46.50453" lon="5.32182">
        <ele>200.2</ele>
        <time>2022-08-12T09:21:04Z</time>
      </trkpt>
      <trkpt lat="46.50444" lon="5.32193">
        <ele>200.4</ele>
        <time>2022-08-12T09:21:06Z</time>
      </trkpt>
      <trkpt lat="46.5044" lon="5.32195">
        <ele>200.4</ele>
        <time>2022-08-12T09:21:07Z</time>
      </trkpt>
      <trkpt lat="46.50431" lon="5.32198">
        <ele>200.8</ele>
        <time>2022-08-12T09:21:11Z</time>
      </trkpt>
      <trkpt lat="46.50429" lon="5.32201">
        <ele>200.8</ele>
        <time>2022-08-12T09:21:12Z</time>
      </trkpt>
      <trkpt lat="46.50429" lon="5.32214">
        <ele>201</ele>
        <time>2022-08-12T09:21:14Z</time>
      </trkpt>
      <trkpt lat="46.50428" lon="5.32252">
        <ele>201</ele>
        <time>2022-08-12T09:21:18Z</time>
      </trkpt>
      <trkpt lat="46.50429" lon="5.32272">
        <ele>201</ele>
        <time>2022-08-12T09:21:20Z</time>
      </trkpt>
      <trkpt lat="46.50433" lon="5.32302">
        <ele>201.2</ele>
        <time>2022-08-12T09:21:23Z</time>
      </trkpt>
      <trkpt lat="46.5045" lon="5.32379">
        <ele>201.2</ele>
        <time>2022-08-12T09:21:30Z</time>
      </trkpt>
      <trkpt lat="46.50464" lon="5.32459">
        <ele>201.4</ele>
        <time>2022-08-12T09:21:37Z</time>
      </trkpt>
      <trkpt lat="46.5047" lon="5.32539">
        <ele>201.8</ele>
        <time>2022-08-12T09:21:44Z</time>
      </trkpt>
      <trkpt lat="46.50471" lon="5.3255">
        <ele>201.8</ele>
        <time>2022-08-12T09:21:45Z</time>
      </trkpt>
      <trkpt lat="46.50471" lon="5.32572">
        <ele>202</ele>
        <time>2022-08-12T09:21:47Z</time>
      </trkpt>
      <trkpt lat="46.50473" lon="5.32648">
        <ele>203</ele>
        <time>2022-08-12T09:21:54Z</time>
      </trkpt>
      <trkpt lat="46.50471" lon="5.32736">
        <ele>204</ele>
        <time>2022-08-12T09:22:02Z</time>
      </trkpt>
      <trkpt lat="46.50471" lon="5.32757">
        <ele>204.4</ele>
        <time>2022-08-12T09:22:04Z</time>
      </trkpt>
      <trkpt lat="46.5047" lon="5.32839">
        <ele>205</ele>
        <time>2022-08-12T09:22:12Z</time>
      </trkpt>
      <trkpt lat="46.50468" lon="5.32908">
        <ele>205.4</ele>
        <time>2022-08-12T09:22:19Z</time>
      </trkpt>
      <trkpt lat="46.50467" lon="5.32933">
        <ele>206.4</ele>
        <time>2022-08-12T09:22:22Z</time>
      </trkpt>
      <trkpt lat="46.50467" lon="5.32955">
        <ele>207.6</ele>
        <time>2022-08-12T09:22:25Z</time>
      </trkpt>
      <trkpt lat="46.50467" lon="5.32963">
        <ele>207.8</ele>
        <time>2022-08-12T09:22:26Z</time>
      </trkpt>
      <trkpt lat="46.50467" lon="5.32987">
        <ele>208.8</ele>
        <time>2022-08-12T09:22:29Z</time>
      </trkpt>
      <trkpt lat="46.50468" lon="5.33025">
        <ele>209.8</ele>
        <time>2022-08-12T09:22:34Z</time>
      </trkpt>
      <trkpt lat="46.50468" lon="5.33035">
        <ele>210</ele>
        <time>2022-08-12T09:22:35Z</time>
      </trkpt>
      <trkpt lat="46.50467" lon="5.33062">
        <ele>211</ele>
        <time>2022-08-12T09:22:39Z</time>
      </trkpt>
      <trkpt lat="46.50467" lon="5.33082">
        <ele>211.8</ele>
        <time>2022-08-12T09:22:42Z</time>
      </trkpt>
      <trkpt lat="46.50468" lon="5.33096">
        <ele>212</ele>
        <time>2022-08-12T09:22:44Z</time>
      </trkpt>
      <trkpt lat="46.50467" lon="5.33116">
        <ele>212.8</ele>
        <time>2022-08-12T09:22:47Z</time>
      </trkpt>
      <trkpt lat="46.50467" lon="5.33124">
        <ele>213.6</ele>
        <time>2022-08-12T09:22:48Z</time>
      </trkpt>
      <trkpt lat="46.50466" lon="5.33131">
        <ele>214.2</ele>
        <time>2022-08-12T09:22:49Z</time>
      </trkpt>
      <trkpt lat="46.50465" lon="5.33145">
        <ele>214.8</ele>
        <time>2022-08-12T09:22:51Z</time>
      </trkpt>
      <trkpt lat="46.50465" lon="5.33152">
        <ele>215</ele>
        <time>2022-08-12T09:22:52Z</time>
      </trkpt>
      <trkpt lat="46.50466" lon="5.33172">
        <ele>216.2</ele>
        <time>2022-08-12T09:22:55Z</time>
      </trkpt>
      <trkpt lat="46.50466" lon="5.33179">
        <ele>216.6</ele>
        <time>2022-08-12T09:22:56Z</time>
      </trkpt>
      <trkpt lat="46.50465" lon="5.33193">
        <ele>217</ele>
        <time>2022-08-12T09:22:58Z</time>
      </trkpt>
      <trkpt lat="46.50464" lon="5.33233">
        <ele>217.8</ele>
        <time>2022-08-12T09:23:03Z</time>
      </trkpt>
      <trkpt lat="46.50465" lon="5.3325">
        <ele>218.2</ele>
        <time>2022-08-12T09:23:05Z</time>
      </trkpt>
      <trkpt lat="46.50463" lon="5.33286">
        <ele>218.4</ele>
        <time>2022-08-12T09:23:09Z</time>
      </trkpt>
      <trkpt lat="46.5046" lon="5.33346">
        <ele>218</ele>
        <time>2022-08-12T09:23:15Z</time>
      </trkpt>
      <trkpt lat="46.50454" lon="5.33387">
        <ele>217</ele>
        <time>2022-08-12T09:23:19Z</time>
      </trkpt>
      <trkpt lat="46.50449" lon="5.33406">
        <ele>217</ele>
        <time>2022-08-12T09:23:21Z</time>
      </trkpt>
      <trkpt lat="46.50442" lon="5.33423">
        <ele>216.8</ele>
        <time>2022-08-12T09:23:23Z</time>
      </trkpt>
      <trkpt lat="46.50432" lon="5.33438">
        <ele>216.8</ele>
        <time>2022-08-12T09:23:25Z</time>
      </trkpt>
      <trkpt lat="46.50404" lon="5.33475">
        <ele>217.4</ele>
        <time>2022-08-12T09:23:31Z</time>
      </trkpt>
      <trkpt lat="46.50399" lon="5.33481">
        <ele>217.6</ele>
        <time>2022-08-12T09:23:32Z</time>
      </trkpt>
      <trkpt lat="46.50374" lon="5.3351">
        <ele>218.2</ele>
        <time>2022-08-12T09:23:37Z</time>
      </trkpt>
      <trkpt lat="46.50365" lon="5.33519">
        <ele>218.4</ele>
        <time>2022-08-12T09:23:39Z</time>
      </trkpt>
      <trkpt lat="46.5036" lon="5.33524">
        <ele>218.4</ele>
        <time>2022-08-12T09:23:40Z</time>
      </trkpt>
      <trkpt lat="46.50344" lon="5.33541">
        <ele>218.6</ele>
        <time>2022-08-12T09:23:43Z</time>
      </trkpt>
      <trkpt lat="46.50305" lon="5.33578">
        <ele>219</ele>
        <time>2022-08-12T09:23:50Z</time>
      </trkpt>
      <trkpt lat="46.50299" lon="5.33583">
        <ele>219.2</ele>
        <time>2022-08-12T09:23:51Z</time>
      </trkpt>
      <trkpt lat="46.50274" lon="5.33609">
        <ele>219.8</ele>
        <time>2022-08-12T09:23:56Z</time>
      </trkpt>
      <trkpt lat="46.50263" lon="5.33622">
        <ele>219.8</ele>
        <time>2022-08-12T09:23:58Z</time>
      </trkpt>
      <trkpt lat="46.50257" lon="5.33628">
        <ele>220</ele>
        <time>2022-08-12T09:23:59Z</time>
      </trkpt>
      <trkpt lat="46.50231" lon="5.33656">
        <ele>220.2</ele>
        <time>2022-08-12T09:24:04Z</time>
      </trkpt>
      <trkpt lat="46.5022" lon="5.33669">
        <ele>220.4</ele>
        <time>2022-08-12T09:24:06Z</time>
      </trkpt>
      <trkpt lat="46.50182" lon="5.33719">
        <ele>221</ele>
        <time>2022-08-12T09:24:14Z</time>
      </trkpt>
      <trkpt lat="46.5017" lon="5.33731">
        <ele>221</ele>
        <time>2022-08-12T09:24:16Z</time>
      </trkpt>
      <trkpt lat="46.50158" lon="5.33743">
        <ele>221</ele>
        <time>2022-08-12T09:24:18Z</time>
      </trkpt>
      <trkpt lat="46.50111" lon="5.3379">
        <ele>220.4</ele>
        <time>2022-08-12T09:24:25Z</time>
      </trkpt>
      <trkpt lat="46.50094" lon="5.33808">
        <ele>220</ele>
        <time>2022-08-12T09:24:28Z</time>
      </trkpt>
      <trkpt lat="46.50081" lon="5.33822">
        <ele>220</ele>
        <time>2022-08-12T09:24:30Z</time>
      </trkpt>
      <trkpt lat="46.50045" lon="5.33859">
        <ele>220.2</ele>
        <time>2022-08-12T09:24:36Z</time>
      </trkpt>
      <trkpt lat="46.5004" lon="5.33864">
        <ele>220.2</ele>
        <time>2022-08-12T09:24:37Z</time>
      </trkpt>
      <trkpt lat="46.50016" lon="5.33881">
        <ele>221</ele>
        <time>2022-08-12T09:24:41Z</time>
      </trkpt>
      <trkpt lat="46.49986" lon="5.33915">
        <ele>222</ele>
        <time>2022-08-12T09:24:46Z</time>
      </trkpt>
      <trkpt lat="46.4998" lon="5.33921">
        <ele>222.2</ele>
        <time>2022-08-12T09:24:47Z</time>
      </trkpt>
      <trkpt lat="46.49946" lon="5.33961">
        <ele>222.6</ele>
        <time>2022-08-12T09:24:53Z</time>
      </trkpt>
      <trkpt lat="46.49927" lon="5.33986">
        <ele>222.8</ele>
        <time>2022-08-12T09:24:56Z</time>
      </trkpt>
      <trkpt lat="46.49914" lon="5.33998">
        <ele>222.8</ele>
        <time>2022-08-12T09:24:58Z</time>
      </trkpt>
      <trkpt lat="46.499" lon="5.34012">
        <ele>222.8</ele>
        <time>2022-08-12T09:25:00Z</time>
      </trkpt>
      <trkpt lat="46.49881" lon="5.34035">
        <ele>221.8</ele>
        <time>2022-08-12T09:25:03Z</time>
      </trkpt>
      <trkpt lat="46.49868" lon="5.3405">
        <ele>221</ele>
        <time>2022-08-12T09:25:05Z</time>
      </trkpt>
      <trkpt lat="46.49845" lon="5.3408">
        <ele>220.4</ele>
        <time>2022-08-12T09:25:09Z</time>
      </trkpt>
      <trkpt lat="46.4984" lon="5.34088">
        <ele>220.4</ele>
        <time>2022-08-12T09:25:10Z</time>
      </trkpt>
      <trkpt lat="46.49805" lon="5.34144">
        <ele>220.8</ele>
        <time>2022-08-12T09:25:17Z</time>
      </trkpt>
      <trkpt lat="46.49765" lon="5.34207">
        <ele>220.8</ele>
        <time>2022-08-12T09:25:25Z</time>
      </trkpt>
      <trkpt lat="46.49729" lon="5.34272">
        <ele>220.4</ele>
        <time>2022-08-12T09:25:32Z</time>
      </trkpt>
      <trkpt lat="46.49709" lon="5.34315">
        <ele>220.2</ele>
        <time>2022-08-12T09:25:37Z</time>
      </trkpt>
      <trkpt lat="46.49689" lon="5.34378">
        <ele>220.2</ele>
        <time>2022-08-12T09:25:43Z</time>
      </trkpt>
      <trkpt lat="46.49672" lon="5.34435">
        <ele>219.6</ele>
        <time>2022-08-12T09:25:48Z</time>
      </trkpt>
      <trkpt lat="46.49668" lon="5.34447">
        <ele>219.6</ele>
        <time>2022-08-12T09:25:49Z</time>
      </trkpt>
      <trkpt lat="46.49659" lon="5.34482">
        <ele>218.6</ele>
        <time>2022-08-12T09:25:52Z</time>
      </trkpt>
      <trkpt lat="46.49652" lon="5.34507">
        <ele>217.8</ele>
        <time>2022-08-12T09:25:54Z</time>
      </trkpt>
      <trkpt lat="46.49647" lon="5.34518">
        <ele>217.6</ele>
        <time>2022-08-12T09:25:55Z</time>
      </trkpt>
      <trkpt lat="46.49642" lon="5.34525">
        <ele>217.4</ele>
        <time>2022-08-12T09:25:56Z</time>
      </trkpt>
      <trkpt lat="46.49626" lon="5.34544">
        <ele>216.8</ele>
        <time>2022-08-12T09:25:58Z</time>
      </trkpt>
      <trkpt lat="46.49619" lon="5.34552">
        <ele>216.6</ele>
        <time>2022-08-12T09:25:59Z</time>
      </trkpt>
      <trkpt lat="46.49606" lon="5.34569">
        <ele>216.4</ele>
        <time>2022-08-12T09:26:01Z</time>
      </trkpt>
      <trkpt lat="46.496" lon="5.34578">
        <ele>216.4</ele>
        <time>2022-08-12T09:26:02Z</time>
      </trkpt>
      <trkpt lat="46.4957" lon="5.34624">
        <ele>216</ele>
        <time>2022-08-12T09:26:07Z</time>
      </trkpt>
      <trkpt lat="46.49564" lon="5.34631">
        <ele>216</ele>
        <time>2022-08-12T09:26:08Z</time>
      </trkpt>
      <trkpt lat="46.49547" lon="5.34652">
        <ele>216.4</ele>
        <time>2022-08-12T09:26:11Z</time>
      </trkpt>
      <trkpt lat="46.49537" lon="5.34665">
        <ele>216.8</ele>
        <time>2022-08-12T09:26:13Z</time>
      </trkpt>
      <trkpt lat="46.49527" lon="5.34677">
        <ele>217.4</ele>
        <time>2022-08-12T09:26:15Z</time>
      </trkpt>
      <trkpt lat="46.49518" lon="5.34688">
        <ele>218</ele>
        <time>2022-08-12T09:26:17Z</time>
      </trkpt>
      <trkpt lat="46.49514" lon="5.34693">
        <ele>218.2</ele>
        <time>2022-08-12T09:26:18Z</time>
      </trkpt>
      <trkpt lat="46.49505" lon="5.34702">
        <ele>218.8</ele>
        <time>2022-08-12T09:26:20Z</time>
      </trkpt>
      <trkpt lat="46.49497" lon="5.34711">
        <ele>219.4</ele>
        <time>2022-08-12T09:26:22Z</time>
      </trkpt>
      <trkpt lat="46.49489" lon="5.34721">
        <ele>220</ele>
        <time>2022-08-12T09:26:24Z</time>
      </trkpt>
      <trkpt lat="46.49481" lon="5.3473">
        <ele>220.8</ele>
        <time>2022-08-12T09:26:26Z</time>
      </trkpt>
      <trkpt lat="46.49477" lon="5.34735">
        <ele>221.2</ele>
        <time>2022-08-12T09:26:27Z</time>
      </trkpt>
      <trkpt lat="46.49466" lon="5.34748">
        <ele>222.6</ele>
        <time>2022-08-12T09:26:30Z</time>
      </trkpt>
      <trkpt lat="46.49461" lon="5.34752">
        <ele>222.6</ele>
        <time>2022-08-12T09:26:31Z</time>
      </trkpt>
      <trkpt lat="46.49445" lon="5.34768">
        <ele>223.8</ele>
        <time>2022-08-12T09:26:35Z</time>
      </trkpt>
      <trkpt lat="46.49442" lon="5.34771">
        <ele>224</ele>
        <time>2022-08-12T09:26:36Z</time>
      </trkpt>
      <trkpt lat="46.49435" lon="5.34781">
        <ele>224.8</ele>
        <time>2022-08-12T09:26:38Z</time>
      </trkpt>
      <trkpt lat="46.49431" lon="5.34784">
        <ele>225.4</ele>
        <time>2022-08-12T09:26:39Z</time>
      </trkpt>
      <trkpt lat="46.49426" lon="5.34785">
        <ele>225.6</ele>
        <time>2022-08-12T09:26:40Z</time>
      </trkpt>
      <trkpt lat="46.49421" lon="5.34787">
        <ele>226.2</ele>
        <time>2022-08-12T09:26:41Z</time>
      </trkpt>
      <trkpt lat="46.49405" lon="5.34796">
        <ele>227.2</ele>
        <time>2022-08-12T09:26:44Z</time>
      </trkpt>
      <trkpt lat="46.494" lon="5.34801">
        <ele>227.2</ele>
        <time>2022-08-12T09:26:45Z</time>
      </trkpt>
      <trkpt lat="46.49396" lon="5.34805">
        <ele>227.4</ele>
        <time>2022-08-12T09:26:46Z</time>
      </trkpt>
      <trkpt lat="46.49386" lon="5.3481">
        <ele>227.4</ele>
        <time>2022-08-12T09:26:48Z</time>
      </trkpt>
      <trkpt lat="46.49381" lon="5.34813">
        <ele>227.6</ele>
        <time>2022-08-12T09:26:49Z</time>
      </trkpt>
      <trkpt lat="46.49377" lon="5.34815">
        <ele>227.8</ele>
        <time>2022-08-12T09:26:50Z</time>
      </trkpt>
      <trkpt lat="46.49361" lon="5.34824">
        <ele>228</ele>
        <time>2022-08-12T09:26:53Z</time>
      </trkpt>
      <trkpt lat="46.49324" lon="5.3483">
        <ele>228.2</ele>
        <time>2022-08-12T09:26:59Z</time>
      </trkpt>
      <trkpt lat="46.49297" lon="5.34835">
        <ele>228.2</ele>
        <time>2022-08-12T09:27:03Z</time>
      </trkpt>
      <trkpt lat="46.49285" lon="5.34841">
        <ele>228.4</ele>
        <time>2022-08-12T09:27:05Z</time>
      </trkpt>
      <trkpt lat="46.49274" lon="5.34848">
        <ele>228.4</ele>
        <time>2022-08-12T09:27:07Z</time>
      </trkpt>
      <trkpt lat="46.4926" lon="5.34867">
        <ele>228.2</ele>
        <time>2022-08-12T09:27:10Z</time>
      </trkpt>
      <trkpt lat="46.49231" lon="5.34911">
        <ele>228.2</ele>
        <time>2022-08-12T09:27:16Z</time>
      </trkpt>
      <trkpt lat="46.49198" lon="5.3496">
        <ele>227.8</ele>
        <time>2022-08-12T09:27:23Z</time>
      </trkpt>
      <trkpt lat="46.49172" lon="5.34993">
        <ele>227.8</ele>
        <time>2022-08-12T09:27:28Z</time>
      </trkpt>
      <trkpt lat="46.49162" lon="5.35003">
        <ele>228</ele>
        <time>2022-08-12T09:27:30Z</time>
      </trkpt>
      <trkpt lat="46.49145" lon="5.35019">
        <ele>228</ele>
        <time>2022-08-12T09:27:33Z</time>
      </trkpt>
      <trkpt lat="46.4914" lon="5.35026">
        <ele>228</ele>
        <time>2022-08-12T09:27:34Z</time>
      </trkpt>
      <trkpt lat="46.49135" lon="5.35031">
        <ele>228.4</ele>
        <time>2022-08-12T09:27:35Z</time>
      </trkpt>
      <trkpt lat="46.49125" lon="5.35041">
        <ele>228.8</ele>
        <time>2022-08-12T09:27:37Z</time>
      </trkpt>
      <trkpt lat="46.49119" lon="5.35045">
        <ele>229</ele>
        <time>2022-08-12T09:27:38Z</time>
      </trkpt>
      <trkpt lat="46.49103" lon="5.35054">
        <ele>229.2</ele>
        <time>2022-08-12T09:27:40Z</time>
      </trkpt>
      <trkpt lat="46.49083" lon="5.35064">
        <ele>229.4</ele>
        <time>2022-08-12T09:27:43Z</time>
      </trkpt>
      <trkpt lat="46.4907" lon="5.35072">
        <ele>229.4</ele>
        <time>2022-08-12T09:27:45Z</time>
      </trkpt>
      <trkpt lat="46.49061" lon="5.35082">
        <ele>229.4</ele>
        <time>2022-08-12T09:27:47Z</time>
      </trkpt>
      <trkpt lat="46.49052" lon="5.35094">
        <ele>229.4</ele>
        <time>2022-08-12T09:27:49Z</time>
      </trkpt>
      <trkpt lat="46.49042" lon="5.35104">
        <ele>229.8</ele>
        <time>2022-08-12T09:27:51Z</time>
      </trkpt>
      <trkpt lat="46.49037" lon="5.35109">
        <ele>230.2</ele>
        <time>2022-08-12T09:27:52Z</time>
      </trkpt>
      <trkpt lat="46.49032" lon="5.35116">
        <ele>230.4</ele>
        <time>2022-08-12T09:27:53Z</time>
      </trkpt>
      <trkpt lat="46.49028" lon="5.35123">
        <ele>230.4</ele>
        <time>2022-08-12T09:27:54Z</time>
      </trkpt>
      <trkpt lat="46.49024" lon="5.35131">
        <ele>230.4</ele>
        <time>2022-08-12T09:27:55Z</time>
      </trkpt>
      <trkpt lat="46.49003" lon="5.35177">
        <ele>230.4</ele>
        <time>2022-08-12T09:28:00Z</time>
      </trkpt>
      <trkpt lat="46.4899" lon="5.35206">
        <ele>230.2</ele>
        <time>2022-08-12T09:28:03Z</time>
      </trkpt>
      <trkpt lat="46.48985" lon="5.35217">
        <ele>230.2</ele>
        <time>2022-08-12T09:28:04Z</time>
      </trkpt>
      <trkpt lat="46.48958" lon="5.3528">
        <ele>229.4</ele>
        <time>2022-08-12T09:28:10Z</time>
      </trkpt>
      <trkpt lat="46.48949" lon="5.353">
        <ele>229</ele>
        <time>2022-08-12T09:28:12Z</time>
      </trkpt>
      <trkpt lat="46.4894" lon="5.35321">
        <ele>228.4</ele>
        <time>2022-08-12T09:28:14Z</time>
      </trkpt>
      <trkpt lat="46.48913" lon="5.35381">
        <ele>227.8</ele>
        <time>2022-08-12T09:28:20Z</time>
      </trkpt>
      <trkpt lat="46.48892" lon="5.35425">
        <ele>228.2</ele>
        <time>2022-08-12T09:28:25Z</time>
      </trkpt>
      <trkpt lat="46.48861" lon="5.35496">
        <ele>228.8</ele>
        <time>2022-08-12T09:28:33Z</time>
      </trkpt>
      <trkpt lat="46.4883" lon="5.35567">
        <ele>229</ele>
        <time>2022-08-12T09:28:42Z</time>
      </trkpt>
      <trkpt lat="46.48826" lon="5.35576">
        <ele>229</ele>
        <time>2022-08-12T09:28:43Z</time>
      </trkpt>
      <trkpt lat="46.48797" lon="5.35645">
        <ele>229.4</ele>
        <time>2022-08-12T09:28:50Z</time>
      </trkpt>
      <trkpt lat="46.48776" lon="5.35693">
        <ele>229</ele>
        <time>2022-08-12T09:28:55Z</time>
      </trkpt>
      <trkpt lat="46.48746" lon="5.35759">
        <ele>229</ele>
        <time>2022-08-12T09:29:02Z</time>
      </trkpt>
      <trkpt lat="46.48726" lon="5.35805">
        <ele>228.8</ele>
        <time>2022-08-12T09:29:07Z</time>
      </trkpt>
      <trkpt lat="46.487" lon="5.35866">
        <ele>229.4</ele>
        <time>2022-08-12T09:29:14Z</time>
      </trkpt>
      <trkpt lat="46.4869" lon="5.35891">
        <ele>229.6</ele>
        <time>2022-08-12T09:29:17Z</time>
      </trkpt>
      <trkpt lat="46.48682" lon="5.35917">
        <ele>230.2</ele>
        <time>2022-08-12T09:29:20Z</time>
      </trkpt>
      <trkpt lat="46.48678" lon="5.35935">
        <ele>230.8</ele>
        <time>2022-08-12T09:29:22Z</time>
      </trkpt>
      <trkpt lat="46.48673" lon="5.35974">
        <ele>232</ele>
        <time>2022-08-12T09:29:26Z</time>
      </trkpt>
      <trkpt lat="46.48669" lon="5.36003">
        <ele>232.6</ele>
        <time>2022-08-12T09:29:29Z</time>
      </trkpt>
      <trkpt lat="46.48665" lon="5.36023">
        <ele>232.6</ele>
        <time>2022-08-12T09:29:31Z</time>
      </trkpt>
      <trkpt lat="46.48653" lon="5.3608">
        <ele>232.8</ele>
        <time>2022-08-12T09:29:36Z</time>
      </trkpt>
      <trkpt lat="46.48644" lon="5.36128">
        <ele>231</ele>
        <time>2022-08-12T09:29:40Z</time>
      </trkpt>
      <trkpt lat="46.4864" lon="5.36164">
        <ele>230.6</ele>
        <time>2022-08-12T09:29:43Z</time>
      </trkpt>
      <trkpt lat="46.48633" lon="5.36242">
        <ele>230.8</ele>
        <time>2022-08-12T09:29:50Z</time>
      </trkpt>
      <trkpt lat="46.48632" lon="5.36252">
        <ele>230.8</ele>
        <time>2022-08-12T09:29:51Z</time>
      </trkpt>
      <trkpt lat="46.48625" lon="5.36292">
        <ele>231.2</ele>
        <time>2022-08-12T09:29:55Z</time>
      </trkpt>
      <trkpt lat="46.48622" lon="5.36302">
        <ele>231.4</ele>
        <time>2022-08-12T09:29:56Z</time>
      </trkpt>
      <trkpt lat="46.48618" lon="5.36308">
        <ele>231.6</ele>
        <time>2022-08-12T09:29:57Z</time>
      </trkpt>
      <trkpt lat="46.48607" lon="5.36319">
        <ele>232.2</ele>
        <time>2022-08-12T09:29:59Z</time>
      </trkpt>
      <trkpt lat="46.48584" lon="5.36324">
        <ele>233.6</ele>
        <time>2022-08-12T09:30:03Z</time>
      </trkpt>
      <trkpt lat="46.48561" lon="5.36327">
        <ele>234.8</ele>
        <time>2022-08-12T09:30:07Z</time>
      </trkpt>
      <trkpt lat="46.48531" lon="5.36332">
        <ele>235.8</ele>
        <time>2022-08-12T09:30:12Z</time>
      </trkpt>
      <trkpt lat="46.48504" lon="5.36337">
        <ele>237</ele>
        <time>2022-08-12T09:30:17Z</time>
      </trkpt>
      <trkpt lat="46.48475" lon="5.36342">
        <ele>237.8</ele>
        <time>2022-08-12T09:30:22Z</time>
      </trkpt>
      <trkpt lat="46.48444" lon="5.36345">
        <ele>238</ele>
        <time>2022-08-12T09:30:27Z</time>
      </trkpt>
      <trkpt lat="46.48432" lon="5.36348">
        <ele>238</ele>
        <time>2022-08-12T09:30:29Z</time>
      </trkpt>
      <trkpt lat="46.48397" lon="5.36367">
        <ele>237.8</ele>
        <time>2022-08-12T09:30:35Z</time>
      </trkpt>
      <trkpt lat="46.48361" lon="5.36403">
        <ele>238.2</ele>
        <time>2022-08-12T09:30:42Z</time>
      </trkpt>
      <trkpt lat="46.48356" lon="5.36409">
        <ele>238.4</ele>
        <time>2022-08-12T09:30:43Z</time>
      </trkpt>
      <trkpt lat="46.48322" lon="5.36445">
        <ele>239.4</ele>
        <time>2022-08-12T09:30:50Z</time>
      </trkpt>
      <trkpt lat="46.48308" lon="5.36461">
        <ele>240</ele>
        <time>2022-08-12T09:30:53Z</time>
      </trkpt>
      <trkpt lat="46.48296" lon="5.36475">
        <ele>240.6</ele>
        <time>2022-08-12T09:30:56Z</time>
      </trkpt>
      <trkpt lat="46.4827" lon="5.36504">
        <ele>241.6</ele>
        <time>2022-08-12T09:31:02Z</time>
      </trkpt>
      <trkpt lat="46.48261" lon="5.36513">
        <ele>242</ele>
        <time>2022-08-12T09:31:04Z</time>
      </trkpt>
      <trkpt lat="46.4824" lon="5.36537">
        <ele>242.6</ele>
        <time>2022-08-12T09:31:09Z</time>
      </trkpt>
      <trkpt lat="46.48226" lon="5.36551">
        <ele>243</ele>
        <time>2022-08-12T09:31:12Z</time>
      </trkpt>
      <trkpt lat="46.48222" lon="5.36554">
        <ele>243.2</ele>
        <time>2022-08-12T09:31:13Z</time>
      </trkpt>
      <trkpt lat="46.48218" lon="5.36557">
        <ele>243.4</ele>
        <time>2022-08-12T09:31:14Z</time>
      </trkpt>
      <trkpt lat="46.48212" lon="5.36558">
        <ele>243.4</ele>
        <time>2022-08-12T09:31:15Z</time>
      </trkpt>
      <trkpt lat="46.48207" lon="5.36557">
        <ele>243.6</ele>
        <time>2022-08-12T09:31:16Z</time>
      </trkpt>
      <trkpt lat="46.48202" lon="5.36557">
        <ele>243.6</ele>
        <time>2022-08-12T09:31:17Z</time>
      </trkpt>
      <trkpt lat="46.48192" lon="5.36562">
        <ele>243.8</ele>
        <time>2022-08-12T09:31:19Z</time>
      </trkpt>
      <trkpt lat="46.48189" lon="5.36567">
        <ele>244</ele>
        <time>2022-08-12T09:31:20Z</time>
      </trkpt>
      <trkpt lat="46.48186" lon="5.36573">
        <ele>244</ele>
        <time>2022-08-12T09:31:21Z</time>
      </trkpt>
      <trkpt lat="46.4818" lon="5.36595">
        <ele>244.2</ele>
        <time>2022-08-12T09:31:24Z</time>
      </trkpt>
      <trkpt lat="46.48176" lon="5.36601">
        <ele>244.4</ele>
        <time>2022-08-12T09:31:25Z</time>
      </trkpt>
      <trkpt lat="46.48155" lon="5.36627">
        <ele>244.6</ele>
        <time>2022-08-12T09:31:30Z</time>
      </trkpt>
      <trkpt lat="46.48151" lon="5.36632">
        <ele>244.6</ele>
        <time>2022-08-12T09:31:31Z</time>
      </trkpt>
      <trkpt lat="46.48134" lon="5.36651">
        <ele>245</ele>
        <time>2022-08-12T09:31:35Z</time>
      </trkpt>
      <trkpt lat="46.48121" lon="5.36667">
        <ele>245.8</ele>
        <time>2022-08-12T09:31:38Z</time>
      </trkpt>
      <trkpt lat="46.48106" lon="5.36684">
        <ele>246</ele>
        <time>2022-08-12T09:31:43Z</time>
      </trkpt>
      <trkpt lat="46.48102" lon="5.36693">
        <ele>246.2</ele>
        <time>2022-08-12T09:31:45Z</time>
      </trkpt>
      <trkpt lat="46.48102" lon="5.36699">
        <ele>246.6</ele>
        <time>2022-08-12T09:31:46Z</time>
      </trkpt>
      <trkpt lat="46.48106" lon="5.36708">
        <ele>246.6</ele>
        <time>2022-08-12T09:31:48Z</time>
      </trkpt>
      <trkpt lat="46.48109" lon="5.3671">
        <ele>246.8</ele>
        <time>2022-08-12T09:31:49Z</time>
      </trkpt>
      <trkpt lat="46.48136" lon="5.36729">
        <ele>247.8</ele>
        <time>2022-08-12T09:31:55Z</time>
      </trkpt>
      <trkpt lat="46.4814" lon="5.36732">
        <ele>247.8</ele>
        <time>2022-08-12T09:31:56Z</time>
      </trkpt>
      <trkpt lat="46.48164" lon="5.36754">
        <ele>249</ele>
        <time>2022-08-12T09:32:02Z</time>
      </trkpt>
      <trkpt lat="46.48176" lon="5.36763">
        <ele>249.4</ele>
        <time>2022-08-12T09:32:05Z</time>
      </trkpt>
      <trkpt lat="46.48192" lon="5.36776">
        <ele>250.2</ele>
        <time>2022-08-12T09:32:09Z</time>
      </trkpt>
      <trkpt lat="46.48207" lon="5.36788">
        <ele>251.6</ele>
        <time>2022-08-12T09:32:13Z</time>
      </trkpt>
      <trkpt lat="46.48214" lon="5.36795">
        <ele>252</ele>
        <time>2022-08-12T09:32:15Z</time>
      </trkpt>
      <trkpt lat="46.48225" lon="5.36804">
        <ele>252.8</ele>
        <time>2022-08-12T09:32:18Z</time>
      </trkpt>
      <trkpt lat="46.48242" lon="5.36819">
        <ele>254.2</ele>
        <time>2022-08-12T09:32:23Z</time>
      </trkpt>
      <trkpt lat="46.48256" lon="5.36831">
        <ele>255.2</ele>
        <time>2022-08-12T09:32:27Z</time>
      </trkpt>
    </trkseg>
  </trk>
</gpx>